<?xml version='1.0' encoding='UTF-8'?><gpx version="1.1" creator="JPX - https://github.com/jenetics/jpx" xmlns="http://www.topografix.com/GPX/1/1"><trk><trkseg><trkpt lat="44.637715084656186" lon="10.54866874451887"><ele>137.00000000000003</ele><time>2026-04-25T07:59:10.002Z</time></trkpt><trkpt lat="44.637658367184066" lon="10.54862816125046"><ele>137.0</ele><time>2026-04-25T07:59:12.003Z</time></trkpt><trkpt lat="44.637609236671366" lon="10.548567592736426"><ele>137.0</ele><time>2026-04-25T07:59:14.003Z</time></trkpt><trkpt lat="44.637538210575634" lon="10.548493664882411"><ele>137.0</ele><time>2026-04-25T07:59:16.003Z</time></trkpt><trkpt lat="44.63747555188105" lon="10.548387488777234"><ele>137.0</ele><time>2026-04-25T07:59:18.003Z</time></trkpt><trkpt lat="44.637426619733276" lon="10.548330695840209"><ele>137.00000000000003</ele><time>2026-04-25T07:59:19.003Z</time></trkpt><trkpt lat="44.637379044836656" lon="10.548265876319864"><ele>137.0</ele><time>2026-04-25T07:59:20.003Z</time></trkpt><trkpt lat="44.63735763018624" lon="10.548160173422753"><ele>137.0</ele><time>2026-04-25T07:59:21.003Z</time></trkpt><trkpt lat="44.63730555701481" lon="10.548083879563428"><ele>137.0</ele><time>2026-04-25T07:59:22.003Z</time></trkpt><trkpt lat="44.63723993732158" lon="10.548010054517263"><ele>137.0</ele><time>2026-04-25T07:59:23.003Z</time></trkpt><trkpt lat="44.63719281289467" lon="10.54790341846132"><ele>137.0</ele><time>2026-04-25T07:59:24.003Z</time></trkpt><trkpt lat="44.63712333729982" lon="10.547807752235862"><ele>137.0</ele><time>2026-04-25T07:59:25.003Z</time></trkpt><trkpt lat="44.63705241979939" lon="10.54771695457594"><ele>137.0</ele><time>2026-04-25T07:59:26.003Z</time></trkpt><trkpt lat="44.63698709124921" lon="10.547619263270507"><ele>136.83333333333331</ele><time>2026-04-25T07:59:27.003Z</time></trkpt><trkpt lat="44.63692695953526" lon="10.547530164188036"><ele>136.66666666666666</ele><time>2026-04-25T07:59:28.003Z</time></trkpt><trkpt lat="44.63687190500225" lon="10.547428898881426"><ele>136.5</ele><time>2026-04-25T07:59:29.003Z</time></trkpt><trkpt lat="44.63680348827501" lon="10.547323414752972"><ele>136.33333333333334</ele><time>2026-04-25T07:59:30.003Z</time></trkpt><trkpt lat="44.6367398794135" lon="10.547248329798096"><ele>136.16666666666669</ele><time>2026-04-25T07:59:31.003Z</time></trkpt><trkpt lat="44.63668788454166" lon="10.54718782280674"><ele>136.0</ele><time>2026-04-25T07:59:32.003Z</time></trkpt><trkpt lat="44.63663299987798" lon="10.547093751011687"><ele>136.0</ele><time>2026-04-25T07:59:34.003Z</time></trkpt><trkpt lat="44.63655973970566" lon="10.547110447324718"><ele>136.0</ele><time>2026-04-25T07:59:37.003Z</time></trkpt><trkpt lat="44.63649847591942" lon="10.54715631748903"><ele>136.0</ele><time>2026-04-25T07:59:38.003Z</time></trkpt><trkpt lat="44.636446587176955" lon="10.547254633469462"><ele>136.0</ele><time>2026-04-25T07:59:39.003Z</time></trkpt><trkpt lat="44.63638147099996" lon="10.547357597510679"><ele>136.0</ele><time>2026-04-25T07:59:40.003Z</time></trkpt><trkpt lat="44.63632523891016" lon="10.547453450671288"><ele>136.0</ele><time>2026-04-25T07:59:41.003Z</time></trkpt><trkpt lat="44.63626999098483" lon="10.547547626260853"><ele>136.0</ele><time>2026-04-25T07:59:42.003Z</time></trkpt><trkpt lat="44.63620794558989" lon="10.547643076101854"><ele>136.0</ele><time>2026-04-25T07:59:43.003Z</time></trkpt><trkpt lat="44.636153444806595" lon="10.54773744083932"><ele>136.0</ele><time>2026-04-25T07:59:44.003Z</time></trkpt><trkpt lat="44.63609434706808" lon="10.547840413302575"><ele>136.0</ele><time>2026-04-25T07:59:45.003Z</time></trkpt><trkpt lat="44.63603718612843" lon="10.547943265249245"><ele>136.0</ele><time>2026-04-25T07:59:46.003Z</time></trkpt><trkpt lat="44.63596756124706" lon="10.548044420764178"><ele>135.8</ele><time>2026-04-25T07:59:47.003Z</time></trkpt><trkpt lat="44.6359009793816" lon="10.54815940338071"><ele>135.6</ele><time>2026-04-25T07:59:48.003Z</time></trkpt><trkpt lat="44.635826450342" lon="10.548250022238355"><ele>135.4</ele><time>2026-04-25T07:59:49.003Z</time></trkpt><trkpt lat="44.63574953378854" lon="10.548325960302869"><ele>135.2</ele><time>2026-04-25T07:59:50.003Z</time></trkpt><trkpt lat="44.63566902972001" lon="10.548398919747042"><ele>135.0</ele><time>2026-04-25T07:59:51.004Z</time></trkpt><trkpt lat="44.635590871657904" lon="10.548449144463165"><ele>135.0</ele><time>2026-04-25T07:59:52.004Z</time></trkpt><trkpt lat="44.63552651712692" lon="10.548498767334717"><ele>135.0</ele><time>2026-04-25T07:59:53.004Z</time></trkpt><trkpt lat="44.63546829724013" lon="10.548546647276662"><ele>135.0</ele><time>2026-04-25T07:59:54.004Z</time></trkpt><trkpt lat="44.63539976161778" lon="10.548599499524622"><ele>135.0</ele><time>2026-04-25T07:59:55.004Z</time></trkpt><trkpt lat="44.63534031758127" lon="10.548639646829441"><ele>135.0</ele><time>2026-04-25T07:59:56.004Z</time></trkpt><trkpt lat="44.63527866551017" lon="10.548663302650109"><ele>135.0</ele><time>2026-04-25T07:59:58.004Z</time></trkpt><trkpt lat="44.63520436688538" lon="10.54848173876253"><ele>135.0</ele><time>2026-04-25T08:00:02.004Z</time></trkpt><trkpt lat="44.63520191170239" lon="10.548334128050133"><ele>135.0</ele><time>2026-04-25T08:00:03.004Z</time></trkpt><trkpt lat="44.635181615500024" lon="10.548190615668458"><ele>135.0</ele><time>2026-04-25T08:00:04.004Z</time></trkpt><trkpt lat="44.63515342267559" lon="10.54805113722512"><ele>135.0</ele><time>2026-04-25T08:00:05.004Z</time></trkpt><trkpt lat="44.63513380936321" lon="10.547926423723275"><ele>135.0</ele><time>2026-04-25T08:00:06.004Z</time></trkpt><trkpt lat="44.63510528834901" lon="10.547798632148217"><ele>135.2</ele><time>2026-04-25T08:00:07.004Z</time></trkpt><trkpt lat="44.63508015134205" lon="10.547663893231139"><ele>135.4</ele><time>2026-04-25T08:00:08.004Z</time></trkpt><trkpt lat="44.635053535561376" lon="10.547528594098"><ele>135.6</ele><time>2026-04-25T08:00:09.004Z</time></trkpt><trkpt lat="44.63501513687169" lon="10.547376379923284"><ele>135.8</ele><time>2026-04-25T08:00:10.004Z</time></trkpt><trkpt lat="44.63498093818752" lon="10.547203669550678"><ele>136.0</ele><time>2026-04-25T08:00:11.004Z</time></trkpt><trkpt lat="44.63494531478158" lon="10.547037085126629"><ele>136.16666666666669</ele><time>2026-04-25T08:00:12.004Z</time></trkpt><trkpt lat="44.634889112349896" lon="10.546913902972614"><ele>136.33333333333334</ele><time>2026-04-25T08:00:13.004Z</time></trkpt><trkpt lat="44.63487335705365" lon="10.546775770145"><ele>136.5</ele><time>2026-04-25T08:00:14.004Z</time></trkpt><trkpt lat="44.634847983022276" lon="10.546671679185476"><ele>136.66666666666666</ele><time>2026-04-25T08:00:15.004Z</time></trkpt><trkpt lat="44.6348207692316" lon="10.546586600857713"><ele>136.83333333333331</ele><time>2026-04-25T08:00:16.004Z</time></trkpt><trkpt lat="44.63473790191066" lon="10.546531370143617"><ele>137.0</ele><time>2026-04-25T08:00:17.004Z</time></trkpt><trkpt lat="44.63464750755346" lon="10.546521631919221"><ele>137.0</ele><time>2026-04-25T08:00:18.004Z</time></trkpt><trkpt lat="44.63456082456555" lon="10.54661393433662"><ele>137.0</ele><time>2026-04-25T08:00:19.004Z</time></trkpt><trkpt lat="44.63449844831317" lon="10.54668127543576"><ele>137.0</ele><time>2026-04-25T08:00:20.004Z</time></trkpt><trkpt lat="44.63448779931941" lon="10.546854225010842"><ele>137.0</ele><time>2026-04-25T08:00:21.004Z</time></trkpt><trkpt lat="44.63448930346872" lon="10.54700780062001"><ele>137.0</ele><time>2026-04-25T08:00:22.004Z</time></trkpt><trkpt lat="44.63448889417527" lon="10.547165888822455"><ele>136.0</ele><time>2026-04-25T08:00:23.004Z</time></trkpt><trkpt lat="44.63445855065846" lon="10.547321375168744"><ele>135.0</ele><time>2026-04-25T08:00:24.004Z</time></trkpt><trkpt lat="44.63439580852549" lon="10.547469462094481"><ele>134.0</ele><time>2026-04-25T08:00:25.004Z</time></trkpt><trkpt lat="44.63431805681691" lon="10.547614187414844"><ele>133.0</ele><time>2026-04-25T08:00:26.004Z</time></trkpt><trkpt lat="44.63424403999597" lon="10.547767121710914"><ele>133.75</ele><time>2026-04-25T08:00:27.004Z</time></trkpt><trkpt lat="44.63416869334688" lon="10.547915370878854"><ele>134.5</ele><time>2026-04-25T08:00:28.004Z</time></trkpt><trkpt lat="44.63409106526261" lon="10.548056894547242"><ele>135.25</ele><time>2026-04-25T08:00:29.004Z</time></trkpt><trkpt lat="44.63400486822856" lon="10.548182840531224"><ele>136.0</ele><time>2026-04-25T08:00:30.005Z</time></trkpt><trkpt lat="44.63389866618329" lon="10.548262152941989"><ele>136.0</ele><time>2026-04-25T08:00:31.005Z</time></trkpt><trkpt lat="44.63379093718467" lon="10.548347080344643"><ele>136.0</ele><time>2026-04-25T08:00:32.005Z</time></trkpt><trkpt lat="44.633672574955604" lon="10.548413022635746"><ele>136.0</ele><time>2026-04-25T08:00:33.005Z</time></trkpt><trkpt lat="44.633549152372964" lon="10.548462592170178"><ele>136.0</ele><time>2026-04-25T08:00:34.005Z</time></trkpt><trkpt lat="44.633424634881756" lon="10.548515676935656"><ele>136.0</ele><time>2026-04-25T08:00:35.005Z</time></trkpt><trkpt lat="44.63329847886434" lon="10.548565310969748"><ele>136.0</ele><time>2026-04-25T08:00:36.005Z</time></trkpt><trkpt lat="44.633172960986634" lon="10.548612426364084"><ele>136.0</ele><time>2026-04-25T08:00:37.005Z</time></trkpt><trkpt lat="44.63304787205318" lon="10.548661068657726"><ele>136.0</ele><time>2026-04-25T08:00:38.005Z</time></trkpt><trkpt lat="44.632925304974236" lon="10.548712028749406"><ele>136.25</ele><time>2026-04-25T08:00:39.005Z</time></trkpt><trkpt lat="44.63279768648616" lon="10.548763364903092"><ele>136.5</ele><time>2026-04-25T08:00:40.005Z</time></trkpt><trkpt lat="44.632668398886196" lon="10.548818034321297"><ele>136.75</ele><time>2026-04-25T08:00:41.005Z</time></trkpt><trkpt lat="44.63253571330761" lon="10.548869210791212"><ele>137.0</ele><time>2026-04-25T08:00:42.005Z</time></trkpt><trkpt lat="44.63241229807001" lon="10.54891810549056"><ele>137.0</ele><time>2026-04-25T08:00:43.005Z</time></trkpt><trkpt lat="44.63228118036866" lon="10.54896228617124"><ele>137.0</ele><time>2026-04-25T08:00:44.005Z</time></trkpt><trkpt lat="44.63214782113579" lon="10.549015613694085"><ele>137.0</ele><time>2026-04-25T08:00:45.005Z</time></trkpt><trkpt lat="44.632011771953245" lon="10.549080545930023"><ele>137.0</ele><time>2026-04-25T08:00:46.005Z</time></trkpt><trkpt lat="44.63187741437875" lon="10.549138189826447"><ele>136.0</ele><time>2026-04-25T08:00:47.005Z</time></trkpt><trkpt lat="44.631737293557144" lon="10.54919787404207"><ele>135.0</ele><time>2026-04-25T08:00:48.005Z</time></trkpt><trkpt lat="44.63159041049193" lon="10.54922474528625"><ele>134.0</ele><time>2026-04-25T08:00:49.005Z</time></trkpt><trkpt lat="44.63144599862253" lon="10.549287252142449"><ele>133.0</ele><time>2026-04-25T08:00:50.005Z</time></trkpt><trkpt lat="44.63131327614756" lon="10.54934229302787"><ele>133.0</ele><time>2026-04-25T08:00:51.005Z</time></trkpt><trkpt lat="44.6311842946897" lon="10.549383947348689"><ele>133.0</ele><time>2026-04-25T08:00:52.005Z</time></trkpt><trkpt lat="44.63106137389106" lon="10.549426754454666"><ele>133.0</ele><time>2026-04-25T08:00:53.005Z</time></trkpt><trkpt lat="44.630944804723676" lon="10.549482059144452"><ele>133.0</ele><time>2026-04-25T08:00:54.005Z</time></trkpt><trkpt lat="44.6308238111269" lon="10.549532453946455"><ele>134.0</ele><time>2026-04-25T08:00:55.005Z</time></trkpt><trkpt lat="44.63070171745887" lon="10.549589942708582"><ele>135.0</ele><time>2026-04-25T08:00:56.005Z</time></trkpt><trkpt lat="44.630578397934855" lon="10.549640676560735"><ele>136.0</ele><time>2026-04-25T08:00:57.005Z</time></trkpt><trkpt lat="44.63045592403593" lon="10.549691655196977"><ele>137.0</ele><time>2026-04-25T08:00:58.005Z</time></trkpt><trkpt lat="44.63033595800714" lon="10.549743535007279"><ele>138.75</ele><time>2026-04-25T08:00:59.005Z</time></trkpt><trkpt lat="44.63022506152567" lon="10.549791991059084"><ele>140.5</ele><time>2026-04-25T08:01:00.005Z</time></trkpt><trkpt lat="44.630115458264555" lon="10.549837506078173"><ele>142.25</ele><time>2026-04-25T08:01:01.005Z</time></trkpt><trkpt lat="44.630003633100976" lon="10.549885090818606"><ele>144.0</ele><time>2026-04-25T08:01:02.005Z</time></trkpt><trkpt lat="44.62989466438797" lon="10.54992314295627"><ele>144.0</ele><time>2026-04-25T08:01:03.005Z</time></trkpt><trkpt lat="44.62979002791277" lon="10.549969913412617"><ele>144.0</ele><time>2026-04-25T08:01:04.005Z</time></trkpt><trkpt lat="44.62969233042263" lon="10.550011928877673"><ele>144.0</ele><time>2026-04-25T08:01:05.005Z</time></trkpt><trkpt lat="44.62959682083576" lon="10.550050531046255"><ele>144.0</ele><time>2026-04-25T08:01:06.005Z</time></trkpt><trkpt lat="44.629504327338395" lon="10.550085887200687"><ele>144.0</ele><time>2026-04-25T08:01:07.005Z</time></trkpt><trkpt lat="44.629425437461734" lon="10.550114482538001"><ele>144.83333333333334</ele><time>2026-04-25T08:01:08.006Z</time></trkpt><trkpt lat="44.62935786375225" lon="10.550133232075273"><ele>145.66666666666666</ele><time>2026-04-25T08:01:09.006Z</time></trkpt><trkpt lat="44.62928731174545" lon="10.550144477296076"><ele>146.5</ele><time>2026-04-25T08:01:10.006Z</time></trkpt><trkpt lat="44.62923340101528" lon="10.550197024836084"><ele>147.33333333333331</ele><time>2026-04-25T08:01:11.006Z</time></trkpt><trkpt lat="44.629201045411556" lon="10.550299320569701"><ele>148.16666666666666</ele><time>2026-04-25T08:01:12.006Z</time></trkpt><trkpt lat="44.62918740679681" lon="10.550428575057579"><ele>149.0</ele><time>2026-04-25T08:01:13.006Z</time></trkpt><trkpt lat="44.62917206615255" lon="10.550567103180265"><ele>149.0</ele><time>2026-04-25T08:01:14.006Z</time></trkpt><trkpt lat="44.62917156500988" lon="10.550712706801722"><ele>149.0</ele><time>2026-04-25T08:01:15.006Z</time></trkpt><trkpt lat="44.6291721698488" lon="10.550867752891886"><ele>149.0</ele><time>2026-04-25T08:01:16.006Z</time></trkpt><trkpt lat="44.62917243440515" lon="10.551029282269683"><ele>149.0</ele><time>2026-04-25T08:01:17.006Z</time></trkpt><trkpt lat="44.62916712500652" lon="10.551197178612071"><ele>149.0</ele><time>2026-04-25T08:01:18.006Z</time></trkpt><trkpt lat="44.62916167983765" lon="10.551374494294317"><ele>149.25</ele><time>2026-04-25T08:01:19.006Z</time></trkpt><trkpt lat="44.62916064217985" lon="10.551554630455328"><ele>149.5</ele><time>2026-04-25T08:01:20.006Z</time></trkpt><trkpt lat="44.62915971671873" lon="10.551732178172703"><ele>149.75</ele><time>2026-04-25T08:01:21.006Z</time></trkpt><trkpt lat="44.629151072873604" lon="10.551904222354143"><ele>150.0</ele><time>2026-04-25T08:01:22.006Z</time></trkpt><trkpt lat="44.62914201288548" lon="10.55207487961464"><ele>150.0</ele><time>2026-04-25T08:01:23.006Z</time></trkpt><trkpt lat="44.629131734602204" lon="10.552249973902999"><ele>150.0</ele><time>2026-04-25T08:01:24.006Z</time></trkpt><trkpt lat="44.629125090308165" lon="10.552427746872903"><ele>150.0</ele><time>2026-04-25T08:01:25.006Z</time></trkpt><trkpt lat="44.62912259947323" lon="10.552601750628652"><ele>150.0</ele><time>2026-04-25T08:01:26.006Z</time></trkpt><trkpt lat="44.62912533281104" lon="10.552777217737649"><ele>150.0</ele><time>2026-04-25T08:01:27.006Z</time></trkpt><trkpt lat="44.629117557996935" lon="10.55295004154051"><ele>150.0</ele><time>2026-04-25T08:01:28.006Z</time></trkpt><trkpt lat="44.62910792723331" lon="10.55312450397404"><ele>150.0</ele><time>2026-04-25T08:01:29.006Z</time></trkpt><trkpt lat="44.6291035572434" lon="10.553299097823817"><ele>150.0</ele><time>2026-04-25T08:01:30.006Z</time></trkpt><trkpt lat="44.62909879880962" lon="10.55346766459704"><ele>150.0</ele><time>2026-04-25T08:01:31.006Z</time></trkpt><trkpt lat="44.62909861363443" lon="10.553644210466208"><ele>150.0</ele><time>2026-04-25T08:01:32.006Z</time></trkpt><trkpt lat="44.62909112821413" lon="10.553821317489684"><ele>150.0</ele><time>2026-04-25T08:01:33.006Z</time></trkpt><trkpt lat="44.62908189772135" lon="10.55399641345375"><ele>150.0</ele><time>2026-04-25T08:01:34.006Z</time></trkpt><trkpt lat="44.62907632087201" lon="10.554172710526064"><ele>150.5</ele><time>2026-04-25T08:01:35.006Z</time></trkpt><trkpt lat="44.62907244031" lon="10.55435460620796"><ele>151.0</ele><time>2026-04-25T08:01:36.006Z</time></trkpt><trkpt lat="44.629070126692355" lon="10.554528154838653"><ele>151.5</ele><time>2026-04-25T08:01:37.006Z</time></trkpt><trkpt lat="44.629058976361165" lon="10.554705458050925"><ele>152.0</ele><time>2026-04-25T08:01:38.006Z</time></trkpt><trkpt lat="44.62905180148937" lon="10.554885356418854"><ele>152.0</ele><time>2026-04-25T08:01:39.006Z</time></trkpt><trkpt lat="44.62905247706542" lon="10.555062673150736"><ele>152.0</ele><time>2026-04-25T08:01:40.006Z</time></trkpt><trkpt lat="44.629042664521" lon="10.555236217417571"><ele>152.0</ele><time>2026-04-25T08:01:41.006Z</time></trkpt><trkpt lat="44.6290436834097" lon="10.555401957582955"><ele>152.0</ele><time>2026-04-25T08:01:42.006Z</time></trkpt><trkpt lat="44.62904264341952" lon="10.555560551277084"><ele>152.25</ele><time>2026-04-25T08:01:43.006Z</time></trkpt><trkpt lat="44.62903536701238" lon="10.555732443973016"><ele>152.5</ele><time>2026-04-25T08:01:44.006Z</time></trkpt><trkpt lat="44.62902642261573" lon="10.5559040986453"><ele>152.75</ele><time>2026-04-25T08:01:45.006Z</time></trkpt><trkpt lat="44.62902041282975" lon="10.556074362910403"><ele>153.0</ele><time>2026-04-25T08:01:46.006Z</time></trkpt><trkpt lat="44.62901735404423" lon="10.556250190492108"><ele>153.0</ele><time>2026-04-25T08:01:47.007Z</time></trkpt><trkpt lat="44.629012160215545" lon="10.556441595048387"><ele>153.0</ele><time>2026-04-25T08:01:48.007Z</time></trkpt><trkpt lat="44.62899822142259" lon="10.556637982337019"><ele>153.0</ele><time>2026-04-25T08:01:49.007Z</time></trkpt><trkpt lat="44.628980487730836" lon="10.556845054641046"><ele>153.0</ele><time>2026-04-25T08:01:50.007Z</time></trkpt><trkpt lat="44.628961632200415" lon="10.557054514924024"><ele>153.0</ele><time>2026-04-25T08:01:51.007Z</time></trkpt><trkpt lat="44.62892115507349" lon="10.557264335751805"><ele>153.0</ele><time>2026-04-25T08:01:52.007Z</time></trkpt><trkpt lat="44.62886864490766" lon="10.557474781840037"><ele>153.0</ele><time>2026-04-25T08:01:53.007Z</time></trkpt><trkpt lat="44.62880589891841" lon="10.557682794200604"><ele>152.66666666666666</ele><time>2026-04-25T08:01:54.007Z</time></trkpt><trkpt lat="44.6287290939855" lon="10.557882284422877"><ele>152.33333333333331</ele><time>2026-04-25T08:01:55.007Z</time></trkpt><trkpt lat="44.62864122331034" lon="10.558079215419863"><ele>152.0</ele><time>2026-04-25T08:01:56.007Z</time></trkpt><trkpt lat="44.628542928232015" lon="10.558263542017405"><ele>150.33333333333331</ele><time>2026-04-25T08:01:57.007Z</time></trkpt><trkpt lat="44.62843619249978" lon="10.558435520485494"><ele>148.66666666666666</ele><time>2026-04-25T08:01:58.007Z</time></trkpt><trkpt lat="44.62832285547036" lon="10.558594274863879"><ele>147.0</ele><time>2026-04-25T08:01:59.007Z</time></trkpt><trkpt lat="44.62819847888308" lon="10.558726834797127"><ele>146.0</ele><time>2026-04-25T08:02:00.007Z</time></trkpt><trkpt lat="44.62808270936438" lon="10.558867367144714"><ele>145.0</ele><time>2026-04-25T08:02:01.007Z</time></trkpt><trkpt lat="44.62796676042431" lon="10.559007876003081"><ele>144.0</ele><time>2026-04-25T08:02:02.007Z</time></trkpt><trkpt lat="44.62785733450273" lon="10.55915960038349"><ele>144.0</ele><time>2026-04-25T08:02:03.007Z</time></trkpt><trkpt lat="44.62774449850898" lon="10.559311000768224"><ele>144.0</ele><time>2026-04-25T08:02:04.007Z</time></trkpt><trkpt lat="44.62763670026764" lon="10.559472422072625"><ele>144.0</ele><time>2026-04-25T08:02:05.007Z</time></trkpt><trkpt lat="44.62754203435142" lon="10.559656548273463"><ele>144.66666666666666</ele><time>2026-04-25T08:02:06.007Z</time></trkpt><trkpt lat="44.62746608065169" lon="10.559853084879908"><ele>145.33333333333331</ele><time>2026-04-25T08:02:07.007Z</time></trkpt><trkpt lat="44.627401876785065" lon="10.560053810778607"><ele>146.0</ele><time>2026-04-25T08:02:08.007Z</time></trkpt><trkpt lat="44.62734968223673" lon="10.560251459561112"><ele>146.25</ele><time>2026-04-25T08:02:09.007Z</time></trkpt><trkpt lat="44.62729916937843" lon="10.56044274115332"><ele>146.5</ele><time>2026-04-25T08:02:10.007Z</time></trkpt><trkpt lat="44.62725031688707" lon="10.560621600289531"><ele>146.75</ele><time>2026-04-25T08:02:11.007Z</time></trkpt><trkpt lat="44.627204503555824" lon="10.560796767763014"><ele>147.0</ele><time>2026-04-25T08:02:12.007Z</time></trkpt><trkpt lat="44.627158291729316" lon="10.560979810332862"><ele>147.0</ele><time>2026-04-25T08:02:13.007Z</time></trkpt><trkpt lat="44.627112460319765" lon="10.561144041870056"><ele>147.0</ele><time>2026-04-25T08:02:14.007Z</time></trkpt><trkpt lat="44.62707384146774" lon="10.561302158332444"><ele>147.0</ele><time>2026-04-25T08:02:15.007Z</time></trkpt><trkpt lat="44.62703358876782" lon="10.561450059414778"><ele>147.0</ele><time>2026-04-25T08:02:16.007Z</time></trkpt><trkpt lat="44.626997001541056" lon="10.561600539523589"><ele>147.0</ele><time>2026-04-25T08:02:17.007Z</time></trkpt><trkpt lat="44.626954022692686" lon="10.561737831096288"><ele>147.0</ele><time>2026-04-25T08:02:18.007Z</time></trkpt><trkpt lat="44.62691414061424" lon="10.561871345636153"><ele>147.0</ele><time>2026-04-25T08:02:19.007Z</time></trkpt><trkpt lat="44.62687691064412" lon="10.562008362826928"><ele>147.0</ele><time>2026-04-25T08:02:20.007Z</time></trkpt><trkpt lat="44.62684346433378" lon="10.56214309395623"><ele>147.0</ele><time>2026-04-25T08:02:21.007Z</time></trkpt><trkpt lat="44.62681776755529" lon="10.56226541770615"><ele>146.66666666666666</ele><time>2026-04-25T08:02:22.007Z</time></trkpt><trkpt lat="44.62678733918931" lon="10.562365450731102"><ele>146.33333333333334</ele><time>2026-04-25T08:02:23.007Z</time></trkpt><trkpt lat="44.62675476997396" lon="10.562469453920329"><ele>146.0</ele><time>2026-04-25T08:02:24.007Z</time></trkpt><trkpt lat="44.62672401138183" lon="10.562563118826409"><ele>145.66666666666669</ele><time>2026-04-25T08:02:25.007Z</time></trkpt><trkpt lat="44.62668476478704" lon="10.562688536083808"><ele>145.33333333333334</ele><time>2026-04-25T08:02:27.008Z</time></trkpt><trkpt lat="44.62665760029322" lon="10.56277061170611"><ele>145.0</ele><time>2026-04-25T08:02:29.008Z</time></trkpt><trkpt lat="44.626602667195364" lon="10.56286236022744"><ele>144.83333333333334</ele><time>2026-04-25T08:02:32.008Z</time></trkpt><trkpt lat="44.62657464049062" lon="10.562946571593292"><ele>144.66666666666669</ele><time>2026-04-25T08:02:35.008Z</time></trkpt><trkpt lat="44.62651996673249" lon="10.563010745529295"><ele>144.5</ele><time>2026-04-25T08:02:42.008Z</time></trkpt><trkpt lat="44.62646361625178" lon="10.563109011478067"><ele>144.33333333333334</ele><time>2026-04-25T08:02:44.008Z</time></trkpt><trkpt lat="44.626394801494854" lon="10.563264381068212"><ele>144.16666666666666</ele><time>2026-04-25T08:02:46.008Z</time></trkpt><trkpt lat="44.62635763515726" lon="10.563347757351426"><ele>144.0</ele><time>2026-04-25T08:02:47.008Z</time></trkpt><trkpt lat="44.6263169752812" lon="10.563434626973923"><ele>144.00000000000003</ele><time>2026-04-25T08:02:48.008Z</time></trkpt><trkpt lat="44.626280726089526" lon="10.563517115106254"><ele>144.0</ele><time>2026-04-25T08:02:49.008Z</time></trkpt><trkpt lat="44.62624163686597" lon="10.563595470627977"><ele>144.0</ele><time>2026-04-25T08:02:50.008Z</time></trkpt><trkpt lat="44.6262021634965" lon="10.56367587658815"><ele>144.0</ele><time>2026-04-25T08:02:51.008Z</time></trkpt><trkpt lat="44.62615737306499" lon="10.563762795606328"><ele>144.0</ele><time>2026-04-25T08:02:52.008Z</time></trkpt><trkpt lat="44.626111955541624" lon="10.563841337557703"><ele>144.00000000000003</ele><time>2026-04-25T08:02:53.008Z</time></trkpt><trkpt lat="44.62607202278181" lon="10.563924837835765"><ele>144.0</ele><time>2026-04-25T08:02:54.008Z</time></trkpt><trkpt lat="44.6260296665283" lon="10.56399639420841"><ele>143.0</ele><time>2026-04-25T08:02:55.008Z</time></trkpt><trkpt lat="44.62595273078576" lon="10.564125711401513"><ele>142.0</ele><time>2026-04-25T08:02:57.008Z</time></trkpt><trkpt lat="44.625851320018455" lon="10.564255007868372"><ele>141.0</ele><time>2026-04-25T08:02:59.008Z</time></trkpt><trkpt lat="44.62578538645841" lon="10.564353531931202"><ele>140.0</ele><time>2026-04-25T08:03:00.008Z</time></trkpt><trkpt lat="44.62573442672043" lon="10.564488629810572"><ele>140.0</ele><time>2026-04-25T08:03:01.008Z</time></trkpt><trkpt lat="44.62568490798582" lon="10.564640625358384"><ele>140.0</ele><time>2026-04-25T08:03:02.008Z</time></trkpt><trkpt lat="44.625623198899284" lon="10.564794730231789"><ele>140.0</ele><time>2026-04-25T08:03:03.008Z</time></trkpt><trkpt lat="44.62555113752475" lon="10.564942845720358"><ele>140.0</ele><time>2026-04-25T08:03:04.008Z</time></trkpt><trkpt lat="44.625479763324364" lon="10.56507766837355"><ele>140.0</ele><time>2026-04-25T08:03:05.009Z</time></trkpt><trkpt lat="44.62541378359648" lon="10.565222113066067"><ele>140.0</ele><time>2026-04-25T08:03:06.009Z</time></trkpt><trkpt lat="44.62535283459248" lon="10.565362740384115"><ele>140.0</ele><time>2026-04-25T08:03:07.009Z</time></trkpt><trkpt lat="44.62529062993755" lon="10.56548675074963"><ele>140.0</ele><time>2026-04-25T08:03:08.009Z</time></trkpt><trkpt lat="44.625231249787085" lon="10.565613905960534"><ele>138.6</ele><time>2026-04-25T08:03:09.009Z</time></trkpt><trkpt lat="44.62515088904953" lon="10.565731889300332"><ele>137.2</ele><time>2026-04-25T08:03:10.009Z</time></trkpt><trkpt lat="44.6250928951222" lon="10.565862024756978"><ele>135.8</ele><time>2026-04-25T08:03:11.009Z</time></trkpt><trkpt lat="44.625028215048076" lon="10.565977753320881"><ele>134.4</ele><time>2026-04-25T08:03:12.009Z</time></trkpt><trkpt lat="44.62496721995882" lon="10.566087564633671"><ele>133.0</ele><time>2026-04-25T08:03:13.009Z</time></trkpt><trkpt lat="44.624911649622746" lon="10.566187400489468"><ele>132.5</ele><time>2026-04-25T08:03:14.009Z</time></trkpt><trkpt lat="44.624853516972756" lon="10.566259680546617"><ele>132.0</ele><time>2026-04-25T08:03:15.009Z</time></trkpt><trkpt lat="44.62477762267852" lon="10.566313427028632"><ele>131.5</ele><time>2026-04-25T08:03:16.009Z</time></trkpt><trkpt lat="44.62468286107159" lon="10.56633398703268"><ele>131.0</ele><time>2026-04-25T08:03:17.009Z</time></trkpt><trkpt lat="44.62459716790216" lon="10.566374524583448"><ele>130.5</ele><time>2026-04-25T08:03:18.009Z</time></trkpt><trkpt lat="44.62453062490768" lon="10.566456757170421"><ele>130.0</ele><time>2026-04-25T08:03:19.009Z</time></trkpt><trkpt lat="44.62449209837189" lon="10.566580125967675"><ele>130.0</ele><time>2026-04-25T08:03:20.009Z</time></trkpt><trkpt lat="44.624485257135525" lon="10.566708117273516"><ele>130.0</ele><time>2026-04-25T08:03:21.009Z</time></trkpt><trkpt lat="44.62448814537052" lon="10.566841497817153"><ele>130.0</ele><time>2026-04-25T08:03:22.009Z</time></trkpt><trkpt lat="44.62448641986726" lon="10.566972631213766"><ele>130.0</ele><time>2026-04-25T08:03:23.009Z</time></trkpt><trkpt lat="44.62445720061461" lon="10.567096968153452"><ele>130.0</ele><time>2026-04-25T08:03:24.009Z</time></trkpt><trkpt lat="44.624404121717475" lon="10.567222889094733"><ele>129.5</ele><time>2026-04-25T08:03:25.009Z</time></trkpt><trkpt lat="44.62434172294558" lon="10.567345652765576"><ele>129.0</ele><time>2026-04-25T08:03:26.009Z</time></trkpt><trkpt lat="44.62427205389664" lon="10.567470045528252"><ele>128.5</ele><time>2026-04-25T08:03:27.009Z</time></trkpt><trkpt lat="44.62420208528816" lon="10.567599767322553"><ele>128.0</ele><time>2026-04-25T08:03:28.009Z</time></trkpt><trkpt lat="44.62413722041444" lon="10.56774081430316"><ele>128.0</ele><time>2026-04-25T08:03:29.009Z</time></trkpt><trkpt lat="44.624062382578" lon="10.567888139808693"><ele>128.0</ele><time>2026-04-25T08:03:30.009Z</time></trkpt><trkpt lat="44.62398124386759" lon="10.568036755563725"><ele>128.0</ele><time>2026-04-25T08:03:31.009Z</time></trkpt><trkpt lat="44.623900643865284" lon="10.568195743953256"><ele>128.0</ele><time>2026-04-25T08:03:32.009Z</time></trkpt><trkpt lat="44.623820958367794" lon="10.568358029464942"><ele>128.0</ele><time>2026-04-25T08:03:33.009Z</time></trkpt><trkpt lat="44.6237380332446" lon="10.568512180477976"><ele>128.0</ele><time>2026-04-25T08:03:34.009Z</time></trkpt><trkpt lat="44.62365772239372" lon="10.568674010363807"><ele>128.0</ele><time>2026-04-25T08:03:35.009Z</time></trkpt><trkpt lat="44.623574904792704" lon="10.568835023877885"><ele>128.0</ele><time>2026-04-25T08:03:36.009Z</time></trkpt><trkpt lat="44.62349273581733" lon="10.56900007947282"><ele>129.0</ele><time>2026-04-25T08:03:37.009Z</time></trkpt><trkpt lat="44.62341327634694" lon="10.569169461739069"><ele>130.0</ele><time>2026-04-25T08:03:38.009Z</time></trkpt><trkpt lat="44.62333910381612" lon="10.569339953009978"><ele>131.0</ele><time>2026-04-25T08:03:39.009Z</time></trkpt><trkpt lat="44.623270844166434" lon="10.569512448681039"><ele>132.0</ele><time>2026-04-25T08:03:40.009Z</time></trkpt><trkpt lat="44.62321488753333" lon="10.569704576537895"><ele>132.0</ele><time>2026-04-25T08:03:41.009Z</time></trkpt><trkpt lat="44.62316071705818" lon="10.569892093876177"><ele>132.0</ele><time>2026-04-25T08:03:42.009Z</time></trkpt><trkpt lat="44.62310615220793" lon="10.570078229706853"><ele>132.0</ele><time>2026-04-25T08:03:43.009Z</time></trkpt><trkpt lat="44.62305289126043" lon="10.570265814637711"><ele>132.0</ele><time>2026-04-25T08:03:44.01Z</time></trkpt><trkpt lat="44.62300150826027" lon="10.570445332465"><ele>132.25</ele><time>2026-04-25T08:03:45.01Z</time></trkpt><trkpt lat="44.622952075135544" lon="10.570627139285731"><ele>132.5</ele><time>2026-04-25T08:03:46.01Z</time></trkpt><trkpt lat="44.622901182219046" lon="10.570806701711833"><ele>132.75</ele><time>2026-04-25T08:03:47.01Z</time></trkpt><trkpt lat="44.622849482959104" lon="10.5709774693248"><ele>133.0</ele><time>2026-04-25T08:03:48.01Z</time></trkpt><trkpt lat="44.62280012734248" lon="10.571148119930735"><ele>133.75</ele><time>2026-04-25T08:03:49.01Z</time></trkpt><trkpt lat="44.622751474290204" lon="10.571320632112917"><ele>134.5</ele><time>2026-04-25T08:03:50.01Z</time></trkpt><trkpt lat="44.6227010367087" lon="10.571489912599777"><ele>135.25</ele><time>2026-04-25T08:03:51.01Z</time></trkpt><trkpt lat="44.62264839368801" lon="10.571665745813608"><ele>136.0</ele><time>2026-04-25T08:03:52.01Z</time></trkpt><trkpt lat="44.62260110467033" lon="10.57184482839918"><ele>136.0</ele><time>2026-04-25T08:03:53.01Z</time></trkpt><trkpt lat="44.6225323854142" lon="10.572021192880852"><ele>136.0</ele><time>2026-04-25T08:03:54.01Z</time></trkpt><trkpt lat="44.62247960053419" lon="10.57220289311886"><ele>136.0</ele><time>2026-04-25T08:03:55.01Z</time></trkpt><trkpt lat="44.622430111437836" lon="10.572377078571733"><ele>136.0</ele><time>2026-04-25T08:03:56.01Z</time></trkpt><trkpt lat="44.622382440612576" lon="10.572547371826587"><ele>136.25</ele><time>2026-04-25T08:03:57.01Z</time></trkpt><trkpt lat="44.62233270452217" lon="10.572725640262412"><ele>136.5</ele><time>2026-04-25T08:03:58.01Z</time></trkpt><trkpt lat="44.622281988083984" lon="10.572896866026554"><ele>136.75</ele><time>2026-04-25T08:03:59.01Z</time></trkpt><trkpt lat="44.62223352853946" lon="10.57305839180307"><ele>137.0</ele><time>2026-04-25T08:04:00.01Z</time></trkpt><trkpt lat="44.622190632744186" lon="10.573223857854135"><ele>137.0</ele><time>2026-04-25T08:04:01.01Z</time></trkpt><trkpt lat="44.62214512376063" lon="10.573384624275672"><ele>137.0</ele><time>2026-04-25T08:04:02.01Z</time></trkpt><trkpt lat="44.62210564197849" lon="10.573541669712489"><ele>137.0</ele><time>2026-04-25T08:04:03.01Z</time></trkpt><trkpt lat="44.62206086363102" lon="10.57369200121508"><ele>137.0</ele><time>2026-04-25T08:04:04.01Z</time></trkpt><trkpt lat="44.622033111218656" lon="10.573857245378841"><ele>137.5</ele><time>2026-04-25T08:04:05.01Z</time></trkpt><trkpt lat="44.62196754412103" lon="10.57402864424135"><ele>138.0</ele><time>2026-04-25T08:04:06.01Z</time></trkpt><trkpt lat="44.62189188128549" lon="10.574197574619362"><ele>138.5</ele><time>2026-04-25T08:04:07.01Z</time></trkpt><trkpt lat="44.62182642124272" lon="10.574379077392882"><ele>139.0</ele><time>2026-04-25T08:04:08.01Z</time></trkpt><trkpt lat="44.62176901279194" lon="10.574577937897606"><ele>139.33333333333334</ele><time>2026-04-25T08:04:09.01Z</time></trkpt><trkpt lat="44.62172022122993" lon="10.57477564971207"><ele>139.66666666666666</ele><time>2026-04-25T08:04:10.01Z</time></trkpt><trkpt lat="44.621665623000894" lon="10.574981401015483"><ele>140.0</ele><time>2026-04-25T08:04:11.01Z</time></trkpt><trkpt lat="44.62160791483146" lon="10.57518934505669"><ele>140.0</ele><time>2026-04-25T08:04:12.01Z</time></trkpt><trkpt lat="44.62156131001907" lon="10.575402441356916"><ele>140.0</ele><time>2026-04-25T08:04:13.01Z</time></trkpt><trkpt lat="44.62153629021579" lon="10.575626134369355"><ele>140.0</ele><time>2026-04-25T08:04:14.01Z</time></trkpt><trkpt lat="44.62153355502374" lon="10.575849812421364"><ele>140.0</ele><time>2026-04-25T08:04:15.01Z</time></trkpt><trkpt lat="44.62154049351714" lon="10.576065496187526"><ele>140.0</ele><time>2026-04-25T08:04:16.01Z</time></trkpt><trkpt lat="44.62154058213314" lon="10.576282421460734"><ele>140.0</ele><time>2026-04-25T08:04:17.01Z</time></trkpt><trkpt lat="44.621534740307325" lon="10.576505032605535"><ele>140.0</ele><time>2026-04-25T08:04:18.01Z</time></trkpt><trkpt lat="44.62153964285464" lon="10.576724427839354"><ele>140.0</ele><time>2026-04-25T08:04:19.01Z</time></trkpt><trkpt lat="44.62153577418917" lon="10.576944556024598"><ele>140.0</ele><time>2026-04-25T08:04:20.01Z</time></trkpt><trkpt lat="44.62153234153538" lon="10.577161743342746"><ele>140.33333333333331</ele><time>2026-04-25T08:04:21.01Z</time></trkpt><trkpt lat="44.62152814721748" lon="10.577377519731638"><ele>140.66666666666666</ele><time>2026-04-25T08:04:22.011Z</time></trkpt><trkpt lat="44.62152660100762" lon="10.577595080791587"><ele>141.0</ele><time>2026-04-25T08:04:23.011Z</time></trkpt><trkpt lat="44.621527732941495" lon="10.577815767352572"><ele>141.66666666666666</ele><time>2026-04-25T08:04:24.011Z</time></trkpt><trkpt lat="44.621527459934974" lon="10.578031341994901"><ele>142.33333333333331</ele><time>2026-04-25T08:04:25.011Z</time></trkpt><trkpt lat="44.62152361616373" lon="10.578247543997316"><ele>143.0</ele><time>2026-04-25T08:04:26.011Z</time></trkpt><trkpt lat="44.621522801942305" lon="10.578457956440207"><ele>143.0</ele><time>2026-04-25T08:04:27.011Z</time></trkpt><trkpt lat="44.621516429002504" lon="10.578662033500606"><ele>143.0</ele><time>2026-04-25T08:04:28.011Z</time></trkpt><trkpt lat="44.62151351497453" lon="10.578874600192925"><ele>143.0</ele><time>2026-04-25T08:04:29.011Z</time></trkpt><trkpt lat="44.621510791654785" lon="10.579075949908443"><ele>143.0</ele><time>2026-04-25T08:04:30.011Z</time></trkpt><trkpt lat="44.62151232545308" lon="10.579290871204572"><ele>142.75</ele><time>2026-04-25T08:04:31.011Z</time></trkpt><trkpt lat="44.62150672704538" lon="10.579500107783675"><ele>142.5</ele><time>2026-04-25T08:04:32.011Z</time></trkpt><trkpt lat="44.62149371720239" lon="10.579709475864519"><ele>142.25</ele><time>2026-04-25T08:04:33.011Z</time></trkpt><trkpt lat="44.62148784713313" lon="10.579921234383807"><ele>142.0</ele><time>2026-04-25T08:04:34.011Z</time></trkpt><trkpt lat="44.621490244068085" lon="10.580137231824068"><ele>141.33333333333334</ele><time>2026-04-25T08:04:35.011Z</time></trkpt><trkpt lat="44.62148959510622" lon="10.580350889213467"><ele>140.66666666666666</ele><time>2026-04-25T08:04:36.011Z</time></trkpt><trkpt lat="44.62148667291162" lon="10.580567338329727"><ele>140.0</ele><time>2026-04-25T08:04:37.011Z</time></trkpt><trkpt lat="44.62148484774394" lon="10.580787945073949"><ele>140.0</ele><time>2026-04-25T08:04:38.011Z</time></trkpt><trkpt lat="44.621483325239645" lon="10.58100028242719"><ele>140.0</ele><time>2026-04-25T08:04:39.011Z</time></trkpt><trkpt lat="44.62148690020195" lon="10.581207525589965"><ele>140.0</ele><time>2026-04-25T08:04:40.011Z</time></trkpt><trkpt lat="44.621480109458645" lon="10.581416814045042"><ele>140.0</ele><time>2026-04-25T08:04:41.011Z</time></trkpt><trkpt lat="44.621487719790196" lon="10.581621873713845"><ele>140.75</ele><time>2026-04-25T08:04:42.011Z</time></trkpt><trkpt lat="44.62149491610237" lon="10.581825393590524"><ele>141.5</ele><time>2026-04-25T08:04:43.011Z</time></trkpt><trkpt lat="44.62151253219152" lon="10.58203717454393"><ele>142.25</ele><time>2026-04-25T08:04:44.011Z</time></trkpt><trkpt lat="44.62155438500638" lon="10.582233080998927"><ele>143.0</ele><time>2026-04-25T08:04:45.011Z</time></trkpt><trkpt lat="44.62160057564754" lon="10.582426792131336"><ele>143.25</ele><time>2026-04-25T08:04:46.011Z</time></trkpt><trkpt lat="44.62165273048412" lon="10.582629610966341"><ele>143.5</ele><time>2026-04-25T08:04:47.011Z</time></trkpt><trkpt lat="44.62169925219035" lon="10.582825234930535"><ele>143.75</ele><time>2026-04-25T08:04:48.011Z</time></trkpt><trkpt lat="44.62173529090702" lon="10.583022284527576"><ele>144.0</ele><time>2026-04-25T08:04:49.011Z</time></trkpt><trkpt lat="44.621769379156476" lon="10.583213538007108"><ele>144.0</ele><time>2026-04-25T08:04:50.011Z</time></trkpt><trkpt lat="44.62181033113574" lon="10.583404983645108"><ele>144.0</ele><time>2026-04-25T08:04:51.011Z</time></trkpt><trkpt lat="44.621854787256254" lon="10.583601657586678"><ele>144.0</ele><time>2026-04-25T08:04:52.011Z</time></trkpt><trkpt lat="44.62189873214553" lon="10.583798184549524"><ele>144.0</ele><time>2026-04-25T08:04:53.011Z</time></trkpt><trkpt lat="44.6219439126088" lon="10.583993858796529"><ele>143.75</ele><time>2026-04-25T08:04:54.011Z</time></trkpt><trkpt lat="44.62197318054597" lon="10.584190589752055"><ele>143.5</ele><time>2026-04-25T08:04:55.011Z</time></trkpt><trkpt lat="44.62201885387751" lon="10.584388689859937"><ele>143.25</ele><time>2026-04-25T08:04:56.011Z</time></trkpt><trkpt lat="44.62206628929667" lon="10.584585638488035"><ele>143.0</ele><time>2026-04-25T08:04:57.011Z</time></trkpt><trkpt lat="44.62210453566412" lon="10.584778825579837"><ele>142.25</ele><time>2026-04-25T08:04:58.011Z</time></trkpt><trkpt lat="44.62214625122654" lon="10.584967862839932"><ele>141.5</ele><time>2026-04-25T08:04:59.011Z</time></trkpt><trkpt lat="44.62218814029633" lon="10.585149458021942"><ele>140.75</ele><time>2026-04-25T08:05:00.011Z</time></trkpt><trkpt lat="44.6222241442844" lon="10.585322124537285"><ele>140.0</ele><time>2026-04-25T08:05:01.012Z</time></trkpt><trkpt lat="44.62225701481623" lon="10.585506290732342"><ele>140.0</ele><time>2026-04-25T08:05:02.012Z</time></trkpt><trkpt lat="44.6222953747387" lon="10.58569414127492"><ele>140.0</ele><time>2026-04-25T08:05:03.012Z</time></trkpt><trkpt lat="44.62233711141857" lon="10.585875868837126"><ele>140.0</ele><time>2026-04-25T08:05:04.012Z</time></trkpt><trkpt lat="44.62237602603698" lon="10.586058035869904"><ele>140.0</ele><time>2026-04-25T08:05:05.012Z</time></trkpt><trkpt lat="44.6224198207523" lon="10.586242171693783"><ele>140.25</ele><time>2026-04-25T08:05:06.012Z</time></trkpt><trkpt lat="44.62247295840824" lon="10.586426766003983"><ele>140.5</ele><time>2026-04-25T08:05:07.012Z</time></trkpt><trkpt lat="44.62253548105671" lon="10.586597351246192"><ele>140.75</ele><time>2026-04-25T08:05:08.012Z</time></trkpt><trkpt lat="44.622610097681495" lon="10.586748988876176"><ele>141.0</ele><time>2026-04-25T08:05:09.012Z</time></trkpt><trkpt lat="44.62270486399734" lon="10.586876536929621"><ele>140.5</ele><time>2026-04-25T08:05:10.012Z</time></trkpt><trkpt lat="44.62282249016152" lon="10.586983268761307"><ele>140.0</ele><time>2026-04-25T08:05:11.012Z</time></trkpt><trkpt lat="44.62294667548434" lon="10.587071976059514"><ele>139.5</ele><time>2026-04-25T08:05:12.012Z</time></trkpt><trkpt lat="44.623080503988845" lon="10.587134584285401"><ele>139.0</ele><time>2026-04-25T08:05:13.012Z</time></trkpt><trkpt lat="44.62321172945833" lon="10.58717901911154"><ele>138.75</ele><time>2026-04-25T08:05:14.012Z</time></trkpt><trkpt lat="44.62334241523553" lon="10.587211289853526"><ele>138.5</ele><time>2026-04-25T08:05:15.012Z</time></trkpt><trkpt lat="44.62346812322148" lon="10.587239331826972"><ele>138.25</ele><time>2026-04-25T08:05:16.012Z</time></trkpt><trkpt lat="44.62358865328178" lon="10.587272870416045"><ele>138.0</ele><time>2026-04-25T08:05:17.012Z</time></trkpt><trkpt lat="44.623709123065105" lon="10.587327041280584"><ele>138.0</ele><time>2026-04-25T08:05:18.012Z</time></trkpt><trkpt lat="44.62381877594872" lon="10.587397667581648"><ele>138.0</ele><time>2026-04-25T08:05:19.012Z</time></trkpt><trkpt lat="44.623916631509346" lon="10.587517605666465"><ele>138.0</ele><time>2026-04-25T08:05:20.012Z</time></trkpt><trkpt lat="44.62400795764974" lon="10.587646340719889"><ele>138.0</ele><time>2026-04-25T08:05:21.012Z</time></trkpt><trkpt lat="44.62407730659615" lon="10.587778472599783"><ele>139.5</ele><time>2026-04-25T08:05:22.012Z</time></trkpt><trkpt lat="44.62413118584362" lon="10.587914793872018"><ele>141.0</ele><time>2026-04-25T08:05:23.012Z</time></trkpt><trkpt lat="44.62418611941975" lon="10.58807515406946"><ele>142.5</ele><time>2026-04-25T08:05:24.012Z</time></trkpt><trkpt lat="44.62422613298752" lon="10.588247640323402"><ele>144.0</ele><time>2026-04-25T08:05:25.012Z</time></trkpt><trkpt lat="44.62425477798716" lon="10.588423046405582"><ele>144.0</ele><time>2026-04-25T08:05:26.012Z</time></trkpt><trkpt lat="44.62430308292189" lon="10.588594237955757"><ele>144.0</ele><time>2026-04-25T08:05:27.012Z</time></trkpt><trkpt lat="44.62433881756402" lon="10.588763075836319"><ele>144.0</ele><time>2026-04-25T08:05:28.012Z</time></trkpt><trkpt lat="44.62436670185519" lon="10.588924012098134"><ele>144.0</ele><time>2026-04-25T08:05:29.012Z</time></trkpt><trkpt lat="44.62440030721319" lon="10.589077405112489"><ele>144.0</ele><time>2026-04-25T08:05:30.012Z</time></trkpt><trkpt lat="44.62443333045681" lon="10.589225017213963"><ele>144.0</ele><time>2026-04-25T08:05:31.012Z</time></trkpt><trkpt lat="44.62446949737259" lon="10.589363527442858"><ele>144.0</ele><time>2026-04-25T08:05:32.012Z</time></trkpt><trkpt lat="44.62450434995857" lon="10.589509954108875"><ele>144.0</ele><time>2026-04-25T08:05:33.012Z</time></trkpt><trkpt lat="44.624538910578494" lon="10.589664631609613"><ele>144.0</ele><time>2026-04-25T08:05:34.012Z</time></trkpt><trkpt lat="44.624574206034325" lon="10.589818169408632"><ele>144.0</ele><time>2026-04-25T08:05:35.012Z</time></trkpt><trkpt lat="44.62460251120034" lon="10.589978433701017"><ele>144.0</ele><time>2026-04-25T08:05:36.012Z</time></trkpt><trkpt lat="44.62463028726236" lon="10.590137008257274"><ele>144.0</ele><time>2026-04-25T08:05:37.012Z</time></trkpt><trkpt lat="44.62466248770968" lon="10.590284026937551"><ele>144.0</ele><time>2026-04-25T08:05:38.012Z</time></trkpt><trkpt lat="44.62469151513185" lon="10.590431224854203"><ele>144.0</ele><time>2026-04-25T08:05:39.012Z</time></trkpt><trkpt lat="44.62471511672995" lon="10.590581824848739"><ele>144.0</ele><time>2026-04-25T08:05:40.013Z</time></trkpt><trkpt lat="44.62472838761584" lon="10.590737914106377"><ele>144.0</ele><time>2026-04-25T08:05:41.013Z</time></trkpt><trkpt lat="44.62472612323277" lon="10.59089881030429"><ele>144.0</ele><time>2026-04-25T08:05:42.013Z</time></trkpt><trkpt lat="44.62471211147049" lon="10.591050799604245"><ele>144.0</ele><time>2026-04-25T08:05:43.013Z</time></trkpt><trkpt lat="44.62469272789865" lon="10.591185120642367"><ele>144.16666666666666</ele><time>2026-04-25T08:05:44.013Z</time></trkpt><trkpt lat="44.62466026621063" lon="10.591301136609223"><ele>144.33333333333334</ele><time>2026-04-25T08:05:45.013Z</time></trkpt><trkpt lat="44.62463553704154" lon="10.591402926425772"><ele>144.5</ele><time>2026-04-25T08:05:46.013Z</time></trkpt><trkpt lat="44.62461098318635" lon="10.591498427693944"><ele>144.66666666666669</ele><time>2026-04-25T08:05:47.013Z</time></trkpt><trkpt lat="44.62457804260749" lon="10.591611015991672"><ele>144.83333333333334</ele><time>2026-04-25T08:05:48.013Z</time></trkpt><trkpt lat="44.624537128866955" lon="10.591734250905393"><ele>145.0</ele><time>2026-04-25T08:05:49.013Z</time></trkpt><trkpt lat="44.62450083796199" lon="10.591843072154166"><ele>145.2</ele><time>2026-04-25T08:05:50.013Z</time></trkpt><trkpt lat="44.624465691137004" lon="10.591950638418224"><ele>145.4</ele><time>2026-04-25T08:05:51.013Z</time></trkpt><trkpt lat="44.62441365954841" lon="10.59206672631724"><ele>145.6</ele><time>2026-04-25T08:05:52.013Z</time></trkpt><trkpt lat="44.62435772598844" lon="10.592205403000381"><ele>145.8</ele><time>2026-04-25T08:05:53.013Z</time></trkpt><trkpt lat="44.62430812007643" lon="10.592365820812901"><ele>146.0</ele><time>2026-04-25T08:05:54.013Z</time></trkpt><trkpt lat="44.62423972548618" lon="10.592523648134176"><ele>146.0</ele><time>2026-04-25T08:05:55.013Z</time></trkpt><trkpt lat="44.624156709457814" lon="10.592681074056587"><ele>146.0</ele><time>2026-04-25T08:05:56.013Z</time></trkpt><trkpt lat="44.624069997300786" lon="10.592844260862085"><ele>146.0</ele><time>2026-04-25T08:05:57.013Z</time></trkpt><trkpt lat="44.62398788378176" lon="10.593022729745927"><ele>146.0</ele><time>2026-04-25T08:05:58.013Z</time></trkpt><trkpt lat="44.62389838743867" lon="10.593201754199262"><ele>146.33333333333331</ele><time>2026-04-25T08:05:59.013Z</time></trkpt><trkpt lat="44.62380878474287" lon="10.59338345631844"><ele>146.66666666666666</ele><time>2026-04-25T08:06:00.013Z</time></trkpt><trkpt lat="44.62371640611667" lon="10.59356003465712"><ele>147.0</ele><time>2026-04-25T08:06:01.013Z</time></trkpt><trkpt lat="44.62362909863959" lon="10.593717819434804"><ele>147.25</ele><time>2026-04-25T08:06:02.013Z</time></trkpt><trkpt lat="44.623547045394766" lon="10.593874104159578"><ele>147.5</ele><time>2026-04-25T08:06:03.013Z</time></trkpt><trkpt lat="44.62346795234625" lon="10.59403330047089"><ele>147.75</ele><time>2026-04-25T08:06:04.013Z</time></trkpt><trkpt lat="44.623383622299215" lon="10.594199829201814"><ele>148.0</ele><time>2026-04-25T08:06:05.013Z</time></trkpt><trkpt lat="44.623300076379536" lon="10.594360831609858"><ele>147.5</ele><time>2026-04-25T08:06:06.013Z</time></trkpt><trkpt lat="44.623219647995256" lon="10.594525877621503"><ele>147.0</ele><time>2026-04-25T08:06:07.013Z</time></trkpt><trkpt lat="44.62314030817897" lon="10.594688251896118"><ele>146.5</ele><time>2026-04-25T08:06:08.013Z</time></trkpt><trkpt lat="44.62306752340168" lon="10.594853765772612"><ele>146.0</ele><time>2026-04-25T08:06:09.013Z</time></trkpt><trkpt lat="44.62298271710994" lon="10.595009588610052"><ele>146.0</ele><time>2026-04-25T08:06:10.013Z</time></trkpt><trkpt lat="44.62293882099016" lon="10.595177806858993"><ele>146.0</ele><time>2026-04-25T08:06:11.013Z</time></trkpt><trkpt lat="44.6229048492028" lon="10.59534077604495"><ele>146.0</ele><time>2026-04-25T08:06:12.013Z</time></trkpt><trkpt lat="44.62287515520277" lon="10.595505169924484"><ele>146.0</ele><time>2026-04-25T08:06:13.013Z</time></trkpt><trkpt lat="44.622858289988784" lon="10.595680115202786"><ele>146.0</ele><time>2026-04-25T08:06:14.013Z</time></trkpt><trkpt lat="44.62285373483279" lon="10.595848057102183"><ele>146.0</ele><time>2026-04-25T08:06:15.013Z</time></trkpt><trkpt lat="44.62285934223008" lon="10.59601315989394"><ele>146.0</ele><time>2026-04-25T08:06:16.013Z</time></trkpt><trkpt lat="44.622859206386536" lon="10.596186200248004"><ele>146.0</ele><time>2026-04-25T08:06:17.013Z</time></trkpt><trkpt lat="44.62286045721525" lon="10.596356421647489"><ele>145.75</ele><time>2026-04-25T08:06:18.013Z</time></trkpt><trkpt lat="44.62285585942436" lon="10.596528706526078"><ele>145.5</ele><time>2026-04-25T08:06:19.014Z</time></trkpt><trkpt lat="44.622849425443256" lon="10.596714498159635"><ele>145.25</ele><time>2026-04-25T08:06:20.014Z</time></trkpt><trkpt lat="44.622856550972294" lon="10.596864994416125"><ele>145.0</ele><time>2026-04-25T08:06:21.014Z</time></trkpt><trkpt lat="44.62286274744844" lon="10.597032750374662"><ele>144.0</ele><time>2026-04-25T08:06:22.014Z</time></trkpt><trkpt lat="44.62287484732738" lon="10.597203464939648"><ele>143.0</ele><time>2026-04-25T08:06:23.014Z</time></trkpt><trkpt lat="44.62288460787909" lon="10.59737471972903"><ele>142.0</ele><time>2026-04-25T08:06:24.014Z</time></trkpt><trkpt lat="44.622878579726496" lon="10.597555951422754"><ele>141.0</ele><time>2026-04-25T08:06:25.014Z</time></trkpt><trkpt lat="44.62287144832209" lon="10.5977409956702"><ele>140.5</ele><time>2026-04-25T08:06:26.014Z</time></trkpt><trkpt lat="44.62287523109208" lon="10.597929046299592"><ele>140.0</ele><time>2026-04-25T08:06:27.014Z</time></trkpt><trkpt lat="44.622877229727855" lon="10.598119894699677"><ele>139.5</ele><time>2026-04-25T08:06:28.014Z</time></trkpt><trkpt lat="44.62288480080885" lon="10.598322434302649"><ele>139.0</ele><time>2026-04-25T08:06:29.014Z</time></trkpt><trkpt lat="44.62288302301262" lon="10.598511973845456"><ele>138.75</ele><time>2026-04-25T08:06:30.014Z</time></trkpt><trkpt lat="44.622880661991175" lon="10.598704414606946"><ele>138.5</ele><time>2026-04-25T08:06:31.014Z</time></trkpt><trkpt lat="44.62286993357791" lon="10.598900511954211"><ele>138.25</ele><time>2026-04-25T08:06:32.014Z</time></trkpt><trkpt lat="44.62283682967491" lon="10.59908980401633"><ele>138.0</ele><time>2026-04-25T08:06:33.014Z</time></trkpt><trkpt lat="44.6227923371181" lon="10.5992874602052"><ele>138.75</ele><time>2026-04-25T08:06:34.014Z</time></trkpt><trkpt lat="44.622729624924865" lon="10.599477097194482"><ele>139.5</ele><time>2026-04-25T08:06:35.014Z</time></trkpt><trkpt lat="44.62266137751409" lon="10.59965190970195"><ele>140.25</ele><time>2026-04-25T08:06:36.014Z</time></trkpt><trkpt lat="44.62259588305282" lon="10.599825765968863"><ele>141.0</ele><time>2026-04-25T08:06:37.014Z</time></trkpt><trkpt lat="44.6225270070813" lon="10.5999961044338"><ele>142.25</ele><time>2026-04-25T08:06:38.014Z</time></trkpt><trkpt lat="44.62246304668131" lon="10.60016806995271"><ele>143.5</ele><time>2026-04-25T08:06:39.014Z</time></trkpt><trkpt lat="44.622398294680146" lon="10.600336159217177"><ele>144.75</ele><time>2026-04-25T08:06:40.014Z</time></trkpt><trkpt lat="44.62233637651782" lon="10.600502964561827"><ele>146.0</ele><time>2026-04-25T08:06:41.014Z</time></trkpt><trkpt lat="44.62227176752847" lon="10.60066655654514"><ele>148.0</ele><time>2026-04-25T08:06:42.014Z</time></trkpt><trkpt lat="44.62220509918083" lon="10.600830077369135"><ele>150.0</ele><time>2026-04-25T08:06:43.014Z</time></trkpt><trkpt lat="44.622142213889234" lon="10.600993354060671"><ele>152.0</ele><time>2026-04-25T08:06:44.014Z</time></trkpt><trkpt lat="44.62207874965582" lon="10.601154589305391"><ele>154.0</ele><time>2026-04-25T08:06:45.014Z</time></trkpt><trkpt lat="44.622016174609804" lon="10.601309280544216"><ele>155.25</ele><time>2026-04-25T08:06:46.014Z</time></trkpt><trkpt lat="44.62195526119823" lon="10.601466421986851"><ele>156.5</ele><time>2026-04-25T08:06:47.014Z</time></trkpt><trkpt lat="44.62189552245978" lon="10.60162389899906"><ele>157.75</ele><time>2026-04-25T08:06:48.014Z</time></trkpt><trkpt lat="44.62183693842956" lon="10.60178061417741"><ele>159.0</ele><time>2026-04-25T08:06:49.014Z</time></trkpt><trkpt lat="44.621777814491935" lon="10.601942574770575"><ele>158.5</ele><time>2026-04-25T08:06:50.014Z</time></trkpt><trkpt lat="44.62171720482587" lon="10.602102785983691"><ele>158.0</ele><time>2026-04-25T08:06:51.014Z</time></trkpt><trkpt lat="44.6216569016997" lon="10.602256201185826"><ele>157.5</ele><time>2026-04-25T08:06:52.014Z</time></trkpt><trkpt lat="44.621598261094896" lon="10.602399957926709"><ele>157.0</ele><time>2026-04-25T08:06:53.014Z</time></trkpt><trkpt lat="44.62154641703034" lon="10.602543660917906"><ele>157.0</ele><time>2026-04-25T08:06:54.014Z</time></trkpt><trkpt lat="44.62149487026113" lon="10.602672945737527"><ele>157.0</ele><time>2026-04-25T08:06:55.014Z</time></trkpt><trkpt lat="44.6214608355365" lon="10.60279591902579"><ele>157.0</ele><time>2026-04-25T08:06:56.014Z</time></trkpt><trkpt lat="44.62142079375529" lon="10.602902486399564"><ele>157.0</ele><time>2026-04-25T08:06:57.015Z</time></trkpt><trkpt lat="44.621390947816025" lon="10.603004549946158"><ele>157.0</ele><time>2026-04-25T08:06:58.015Z</time></trkpt><trkpt lat="44.62133962067063" lon="10.603141473379763"><ele>156.83333333333334</ele><time>2026-04-25T08:07:00.015Z</time></trkpt><trkpt lat="44.62130107688917" lon="10.603224557196429"><ele>156.66666666666669</ele><time>2026-04-25T08:07:02.015Z</time></trkpt><trkpt lat="44.62124062069492" lon="10.603329656741574"><ele>156.5</ele><time>2026-04-25T08:07:04.015Z</time></trkpt><trkpt lat="44.6211889066913" lon="10.60341479813995"><ele>156.33333333333334</ele><time>2026-04-25T08:07:05.015Z</time></trkpt><trkpt lat="44.62115309666826" lon="10.603530663546465"><ele>156.16666666666666</ele><time>2026-04-25T08:07:06.015Z</time></trkpt><trkpt lat="44.62112635990493" lon="10.603671929144669"><ele>156.0</ele><time>2026-04-25T08:07:07.015Z</time></trkpt><trkpt lat="44.621089078482115" lon="10.603818357019513"><ele>156.5</ele><time>2026-04-25T08:07:08.015Z</time></trkpt><trkpt lat="44.62103035907781" lon="10.60396033297236"><ele>157.0</ele><time>2026-04-25T08:07:09.015Z</time></trkpt><trkpt lat="44.62097267967355" lon="10.604105074280179"><ele>157.5</ele><time>2026-04-25T08:07:10.015Z</time></trkpt><trkpt lat="44.620916166178816" lon="10.604259983868255"><ele>158.0</ele><time>2026-04-25T08:07:11.015Z</time></trkpt><trkpt lat="44.620854198003514" lon="10.604414262577132"><ele>158.0</ele><time>2026-04-25T08:07:12.015Z</time></trkpt><trkpt lat="44.620798528201796" lon="10.604562858761373"><ele>158.0</ele><time>2026-04-25T08:07:13.015Z</time></trkpt><trkpt lat="44.62074389510936" lon="10.604708141420137"><ele>158.0</ele><time>2026-04-25T08:07:14.015Z</time></trkpt><trkpt lat="44.62068503996403" lon="10.604862132268456"><ele>158.0</ele><time>2026-04-25T08:07:15.015Z</time></trkpt><trkpt lat="44.620625625655464" lon="10.605021897129955"><ele>158.0</ele><time>2026-04-25T08:07:16.015Z</time></trkpt><trkpt lat="44.62056712871584" lon="10.60518802106722"><ele>158.0</ele><time>2026-04-25T08:07:17.015Z</time></trkpt><trkpt lat="44.62050467330246" lon="10.605356886301799"><ele>158.0</ele><time>2026-04-25T08:07:18.015Z</time></trkpt><trkpt lat="44.62044072016988" lon="10.605530243546076"><ele>158.0</ele><time>2026-04-25T08:07:19.015Z</time></trkpt><trkpt lat="44.620379486085405" lon="10.605701127286327"><ele>157.75</ele><time>2026-04-25T08:07:20.015Z</time></trkpt><trkpt lat="44.620319468541076" lon="10.605866747758744"><ele>157.5</ele><time>2026-04-25T08:07:21.015Z</time></trkpt><trkpt lat="44.6202574570093" lon="10.606029686131462"><ele>157.25</ele><time>2026-04-25T08:07:22.015Z</time></trkpt><trkpt lat="44.620196050088936" lon="10.606189685124402"><ele>157.0</ele><time>2026-04-25T08:07:23.015Z</time></trkpt><trkpt lat="44.620134080384005" lon="10.606350416215294"><ele>157.0</ele><time>2026-04-25T08:07:24.015Z</time></trkpt><trkpt lat="44.62007554563001" lon="10.60651999804787"><ele>157.0</ele><time>2026-04-25T08:07:25.015Z</time></trkpt><trkpt lat="44.62001151059807" lon="10.606680499277438"><ele>157.0</ele><time>2026-04-25T08:07:26.015Z</time></trkpt><trkpt lat="44.61994240963377" lon="10.60683179489411"><ele>157.0</ele><time>2026-04-25T08:07:27.015Z</time></trkpt><trkpt lat="44.61987095987945" lon="10.606988279490862"><ele>156.25</ele><time>2026-04-25T08:07:28.015Z</time></trkpt><trkpt lat="44.619793855437784" lon="10.6071318983074"><ele>155.5</ele><time>2026-04-25T08:07:29.015Z</time></trkpt><trkpt lat="44.619712605299185" lon="10.607276389080265"><ele>154.75</ele><time>2026-04-25T08:07:30.015Z</time></trkpt><trkpt lat="44.619637769884854" lon="10.607422184262957"><ele>154.0</ele><time>2026-04-25T08:07:31.015Z</time></trkpt><trkpt lat="44.61956172508275" lon="10.607560324289489"><ele>154.0</ele><time>2026-04-25T08:07:32.015Z</time></trkpt><trkpt lat="44.61948106292697" lon="10.607699725618932"><ele>154.0</ele><time>2026-04-25T08:07:33.015Z</time></trkpt><trkpt lat="44.61939823029131" lon="10.607832692693885"><ele>154.0</ele><time>2026-04-25T08:07:34.015Z</time></trkpt><trkpt lat="44.619327118760125" lon="10.607971624612246"><ele>154.0</ele><time>2026-04-25T08:07:35.015Z</time></trkpt><trkpt lat="44.619251152873886" lon="10.608116535923529"><ele>154.0</ele><time>2026-04-25T08:07:36.016Z</time></trkpt><trkpt lat="44.61917582571305" lon="10.608260233269739"><ele>154.0</ele><time>2026-04-25T08:07:37.016Z</time></trkpt><trkpt lat="44.61909809327816" lon="10.60840240521131"><ele>154.0</ele><time>2026-04-25T08:07:38.016Z</time></trkpt><trkpt lat="44.61902069148552" lon="10.608544841920386"><ele>154.0</ele><time>2026-04-25T08:07:39.016Z</time></trkpt><trkpt lat="44.61894472079144" lon="10.60868815271847"><ele>153.6</ele><time>2026-04-25T08:07:40.016Z</time></trkpt><trkpt lat="44.61887256103553" lon="10.60883005056547"><ele>153.2</ele><time>2026-04-25T08:07:41.016Z</time></trkpt><trkpt lat="44.61880367633301" lon="10.608956490859208"><ele>152.79999999999998</ele><time>2026-04-25T08:07:42.016Z</time></trkpt><trkpt lat="44.61873510885624" lon="10.609073107599823"><ele>152.4</ele><time>2026-04-25T08:07:43.016Z</time></trkpt><trkpt lat="44.6186593036804" lon="10.60916860891356"><ele>152.0</ele><time>2026-04-25T08:07:44.016Z</time></trkpt><trkpt lat="44.61858284548936" lon="10.609253446661748"><ele>153.0</ele><time>2026-04-25T08:07:45.016Z</time></trkpt><trkpt lat="44.61853023305506" lon="10.60932918793354"><ele>154.0</ele><time>2026-04-25T08:07:46.016Z</time></trkpt><trkpt lat="44.61844792612721" lon="10.609484522997475"><ele>155.0</ele><time>2026-04-25T08:07:48.016Z</time></trkpt><trkpt lat="44.61840717906866" lon="10.60956913687407"><ele>156.0</ele><time>2026-04-25T08:07:49.016Z</time></trkpt><trkpt lat="44.618363965693845" lon="10.609650354127872"><ele>157.0</ele><time>2026-04-25T08:07:50.016Z</time></trkpt><trkpt lat="44.61837251702313" lon="10.609782117646201"><ele>156.79999999999998</ele><time>2026-04-25T08:07:51.016Z</time></trkpt><trkpt lat="44.61832603573461" lon="10.60990795870047"><ele>156.6</ele><time>2026-04-25T08:07:52.016Z</time></trkpt><trkpt lat="44.61830058841592" lon="10.610050138635172"><ele>156.39999999999998</ele><time>2026-04-25T08:07:53.016Z</time></trkpt><trkpt lat="44.6182557527406" lon="10.610180144628146"><ele>156.2</ele><time>2026-04-25T08:07:54.016Z</time></trkpt><trkpt lat="44.61821876646013" lon="10.610310209558113"><ele>156.0</ele><time>2026-04-25T08:07:55.016Z</time></trkpt><trkpt lat="44.618185441162034" lon="10.610439839370645"><ele>156.0</ele><time>2026-04-25T08:07:56.016Z</time></trkpt><trkpt lat="44.618144982361365" lon="10.610566391161452"><ele>156.0</ele><time>2026-04-25T08:07:57.016Z</time></trkpt><trkpt lat="44.61810605089076" lon="10.610690536572779"><ele>156.0</ele><time>2026-04-25T08:07:58.016Z</time></trkpt><trkpt lat="44.61807081936262" lon="10.610806712728623"><ele>156.0</ele><time>2026-04-25T08:07:59.016Z</time></trkpt><trkpt lat="44.6180394008837" lon="10.610937898988904"><ele>156.0</ele><time>2026-04-25T08:08:00.016Z</time></trkpt><trkpt lat="44.618004572995716" lon="10.611071998919481"><ele>155.6</ele><time>2026-04-25T08:08:01.016Z</time></trkpt><trkpt lat="44.61796795225418" lon="10.611205129442034"><ele>155.2</ele><time>2026-04-25T08:08:02.016Z</time></trkpt><trkpt lat="44.6179307001809" lon="10.611329000067956"><ele>154.8</ele><time>2026-04-25T08:08:03.016Z</time></trkpt><trkpt lat="44.617896371445184" lon="10.611446105973345"><ele>154.4</ele><time>2026-04-25T08:08:04.016Z</time></trkpt><trkpt lat="44.617862901999054" lon="10.611556068697203"><ele>154.0</ele><time>2026-04-25T08:08:05.016Z</time></trkpt><trkpt lat="44.61783753154507" lon="10.611659407569663"><ele>154.0</ele><time>2026-04-25T08:08:06.016Z</time></trkpt><trkpt lat="44.61780540347749" lon="10.611777058443957"><ele>154.0</ele><time>2026-04-25T08:08:07.016Z</time></trkpt><trkpt lat="44.61776935711116" lon="10.611906622282548"><ele>154.0</ele><time>2026-04-25T08:08:08.016Z</time></trkpt><trkpt lat="44.61773229741532" lon="10.612060056504557"><ele>154.0</ele><time>2026-04-25T08:08:09.016Z</time></trkpt><trkpt lat="44.61769598510648" lon="10.61221903673212"><ele>154.0</ele><time>2026-04-25T08:08:10.016Z</time></trkpt><trkpt lat="44.6176389924203" lon="10.612361965982608"><ele>154.0</ele><time>2026-04-25T08:08:11.016Z</time></trkpt><trkpt lat="44.61760757929171" lon="10.612533668317731"><ele>154.0</ele><time>2026-04-25T08:08:12.016Z</time></trkpt><trkpt lat="44.617542601680924" lon="10.612691727961117"><ele>154.0</ele><time>2026-04-25T08:08:13.016Z</time></trkpt><trkpt lat="44.617505811447636" lon="10.61285899063405"><ele>154.0</ele><time>2026-04-25T08:08:14.016Z</time></trkpt><trkpt lat="44.61747938485828" lon="10.61302318426626"><ele>153.5</ele><time>2026-04-25T08:08:15.017Z</time></trkpt><trkpt lat="44.617458816892196" lon="10.613180332847639"><ele>153.0</ele><time>2026-04-25T08:08:16.017Z</time></trkpt><trkpt lat="44.61744503458039" lon="10.613312206523725"><ele>152.5</ele><time>2026-04-25T08:08:17.017Z</time></trkpt><trkpt lat="44.61742173923316" lon="10.613401079198502"><ele>152.0</ele><time>2026-04-25T08:08:18.017Z</time></trkpt><trkpt lat="44.61739419039273" lon="10.61349071051363"><ele>151.5</ele><time>2026-04-25T08:08:19.017Z</time></trkpt><trkpt lat="44.617378294810734" lon="10.613583740611876"><ele>151.0</ele><time>2026-04-25T08:08:20.017Z</time></trkpt><trkpt lat="44.617372159091744" lon="10.613739039371609"><ele>151.0</ele><time>2026-04-25T08:08:22.017Z</time></trkpt><trkpt lat="44.61736942685395" lon="10.613868016369896"><ele>151.0</ele><time>2026-04-25T08:08:24.017Z</time></trkpt><trkpt lat="44.61737784823282" lon="10.613957205418705"><ele>151.0</ele><time>2026-04-25T08:08:27.017Z</time></trkpt><trkpt lat="44.617378163006414" lon="10.613802275491567"><ele>151.0</ele><time>2026-04-25T08:08:49.017Z</time></trkpt><trkpt lat="44.61738556639855" lon="10.613637618002798"><ele>151.0</ele><time>2026-04-25T08:08:51.017Z</time></trkpt><trkpt lat="44.61738650034144" lon="10.613529623237557"><ele>151.0</ele><time>2026-04-25T08:08:53.017Z</time></trkpt><trkpt lat="44.61737907594649" lon="10.613648446398795"><ele>151.0</ele><time>2026-04-25T08:08:56.018Z</time></trkpt><trkpt lat="44.61737821539872" lon="10.613776486327255"><ele>151.0</ele><time>2026-04-25T08:08:57.018Z</time></trkpt><trkpt lat="44.617377920929" lon="10.613921424928492"><ele>151.0</ele><time>2026-04-25T08:08:58.018Z</time></trkpt><trkpt lat="44.617377602332695" lon="10.614078237459566"><ele>151.0</ele><time>2026-04-25T08:08:59.018Z</time></trkpt><trkpt lat="44.617377594622894" lon="10.614253192555623"><ele>150.0</ele><time>2026-04-25T08:09:00.018Z</time></trkpt><trkpt lat="44.61737843974201" lon="10.614433959763405"><ele>149.0</ele><time>2026-04-25T08:09:01.018Z</time></trkpt><trkpt lat="44.6173792525283" lon="10.614607811365095"><ele>148.0</ele><time>2026-04-25T08:09:02.018Z</time></trkpt><trkpt lat="44.617378250123" lon="10.614764683476231"><ele>147.0</ele><time>2026-04-25T08:09:03.018Z</time></trkpt><trkpt lat="44.61737713315648" lon="10.61493784978867"><ele>146.75</ele><time>2026-04-25T08:09:04.018Z</time></trkpt><trkpt lat="44.61737595257123" lon="10.615112674991217"><ele>146.5</ele><time>2026-04-25T08:09:05.018Z</time></trkpt><trkpt lat="44.61740397948256" lon="10.615294349214636"><ele>146.25</ele><time>2026-04-25T08:09:06.018Z</time></trkpt><trkpt lat="44.617422041188306" lon="10.615482714688062"><ele>146.0</ele><time>2026-04-25T08:09:07.018Z</time></trkpt><trkpt lat="44.61744291432067" lon="10.61566449870749"><ele>138.0</ele><time>2026-04-25T08:09:08.018Z</time></trkpt><trkpt lat="44.61763084777903" lon="10.616347958149502"><ele>138.0</ele><time>2026-04-25T08:09:09.018Z</time></trkpt><trkpt lat="44.61775034360295" lon="10.616467328697013"><ele>138.0</ele><time>2026-04-25T08:09:10.018Z</time></trkpt><trkpt lat="44.61833769016976" lon="10.617206444013277"><ele>136.66666666666666</ele><time>2026-04-25T08:09:16.018Z</time></trkpt><trkpt lat="44.61830537788948" lon="10.617415343851764"><ele>135.33333333333331</ele><time>2026-04-25T08:09:17.018Z</time></trkpt><trkpt lat="44.6182574460376" lon="10.617618482574558"><ele>134.0</ele><time>2026-04-25T08:09:18.018Z</time></trkpt><trkpt lat="44.61818947422814" lon="10.617820429435966"><ele>132.33333333333331</ele><time>2026-04-25T08:09:19.018Z</time></trkpt><trkpt lat="44.618114020813174" lon="10.618002468425493"><ele>130.66666666666666</ele><time>2026-04-25T08:09:20.018Z</time></trkpt><trkpt lat="44.618034405787064" lon="10.618182815643898"><ele>129.0</ele><time>2026-04-25T08:09:21.018Z</time></trkpt><trkpt lat="44.617960785764524" lon="10.618367002323376"><ele>129.0</ele><time>2026-04-25T08:09:22.018Z</time></trkpt><trkpt lat="44.61788753769761" lon="10.618544512783782"><ele>129.0</ele><time>2026-04-25T08:09:23.018Z</time></trkpt><trkpt lat="44.61781767879259" lon="10.618721576937117"><ele>129.0</ele><time>2026-04-25T08:09:24.018Z</time></trkpt><trkpt lat="44.61774792789737" lon="10.618900005997565"><ele>129.0</ele><time>2026-04-25T08:09:25.018Z</time></trkpt><trkpt lat="44.61767757779967" lon="10.61906520440289"><ele>128.0</ele><time>2026-04-25T08:09:26.018Z</time></trkpt><trkpt lat="44.61761459735284" lon="10.619237138270337"><ele>127.0</ele><time>2026-04-25T08:09:27.018Z</time></trkpt><trkpt lat="44.61755335112532" lon="10.619411255537926"><ele>126.0</ele><time>2026-04-25T08:09:28.018Z</time></trkpt><trkpt lat="44.61749178491294" lon="10.61958971645743"><ele>125.0</ele><time>2026-04-25T08:09:29.018Z</time></trkpt><trkpt lat="44.6174291498959" lon="10.619764313170105"><ele>125.0</ele><time>2026-04-25T08:09:30.018Z</time></trkpt><trkpt lat="44.61736635856726" lon="10.619934296724637"><ele>125.0</ele><time>2026-04-25T08:09:31.018Z</time></trkpt><trkpt lat="44.61729921103639" lon="10.62011111803036"><ele>125.0</ele><time>2026-04-25T08:09:32.018Z</time></trkpt><trkpt lat="44.61722816594199" lon="10.620270360515697"><ele>125.0</ele><time>2026-04-25T08:09:33.019Z</time></trkpt><trkpt lat="44.617138195784534" lon="10.620420254297613"><ele>125.25</ele><time>2026-04-25T08:09:34.019Z</time></trkpt><trkpt lat="44.61703593853037" lon="10.620555560369331"><ele>125.5</ele><time>2026-04-25T08:09:35.019Z</time></trkpt><trkpt lat="44.61693170274591" lon="10.620686353911248"><ele>125.75</ele><time>2026-04-25T08:09:36.019Z</time></trkpt><trkpt lat="44.61681519872967" lon="10.620797772816092"><ele>126.0</ele><time>2026-04-25T08:09:37.019Z</time></trkpt><trkpt lat="44.61669064110654" lon="10.620856512569523"><ele>127.5</ele><time>2026-04-25T08:09:38.019Z</time></trkpt><trkpt lat="44.61657892984838" lon="10.620952016304736"><ele>129.0</ele><time>2026-04-25T08:09:39.019Z</time></trkpt><trkpt lat="44.61646514370944" lon="10.62102121299043"><ele>130.5</ele><time>2026-04-25T08:09:40.019Z</time></trkpt><trkpt lat="44.61635078354016" lon="10.621094417692824"><ele>132.0</ele><time>2026-04-25T08:09:41.019Z</time></trkpt><trkpt lat="44.61623878735552" lon="10.621169498814801"><ele>133.5</ele><time>2026-04-25T08:09:42.019Z</time></trkpt><trkpt lat="44.61613235511919" lon="10.62123925234033"><ele>135.0</ele><time>2026-04-25T08:09:43.019Z</time></trkpt><trkpt lat="44.61602683191546" lon="10.621317892527532"><ele>136.5</ele><time>2026-04-25T08:09:44.019Z</time></trkpt><trkpt lat="44.61592477181888" lon="10.62139472516085"><ele>138.0</ele><time>2026-04-25T08:09:45.019Z</time></trkpt><trkpt lat="44.61581928307869" lon="10.621470249585629"><ele>138.0</ele><time>2026-04-25T08:09:46.019Z</time></trkpt><trkpt lat="44.61571562964088" lon="10.621541551371084"><ele>138.0</ele><time>2026-04-25T08:09:47.019Z</time></trkpt><trkpt lat="44.615613329375435" lon="10.621619109544527"><ele>138.0</ele><time>2026-04-25T08:09:48.019Z</time></trkpt><trkpt lat="44.61549861875469" lon="10.621679116669004"><ele>138.0</ele><time>2026-04-25T08:09:49.019Z</time></trkpt><trkpt lat="44.6154064474132" lon="10.621776500891112"><ele>138.0</ele><time>2026-04-25T08:09:50.019Z</time></trkpt><trkpt lat="44.61532753049878" lon="10.621893607425385"><ele>138.0</ele><time>2026-04-25T08:09:51.019Z</time></trkpt><trkpt lat="44.615250840233" lon="10.622016250460257"><ele>138.0</ele><time>2026-04-25T08:09:52.019Z</time></trkpt><trkpt lat="44.615176396872705" lon="10.622145542723215"><ele>138.0</ele><time>2026-04-25T08:09:53.019Z</time></trkpt><trkpt lat="44.61511348740519" lon="10.622287844923036"><ele>139.25</ele><time>2026-04-25T08:09:54.019Z</time></trkpt><trkpt lat="44.61505629991546" lon="10.622439123193898"><ele>140.5</ele><time>2026-04-25T08:09:55.019Z</time></trkpt><trkpt lat="44.6150074376471" lon="10.622597653460817"><ele>141.75</ele><time>2026-04-25T08:09:56.019Z</time></trkpt><trkpt lat="44.6149622881259" lon="10.622759663879776"><ele>143.0</ele><time>2026-04-25T08:09:57.019Z</time></trkpt><trkpt lat="44.61491933808237" lon="10.622925542040788"><ele>143.25</ele><time>2026-04-25T08:09:58.019Z</time></trkpt><trkpt lat="44.61487734089462" lon="10.62309926210964"><ele>143.5</ele><time>2026-04-25T08:09:59.019Z</time></trkpt><trkpt lat="44.6148344577937" lon="10.623268275343873"><ele>143.75</ele><time>2026-04-25T08:10:00.019Z</time></trkpt><trkpt lat="44.6147902552241" lon="10.62343790489808"><ele>144.0</ele><time>2026-04-25T08:10:01.019Z</time></trkpt><trkpt lat="44.61474466468771" lon="10.623604561426438"><ele>143.5</ele><time>2026-04-25T08:10:02.019Z</time></trkpt><trkpt lat="44.61470085456132" lon="10.623771071773746"><ele>143.0</ele><time>2026-04-25T08:10:03.019Z</time></trkpt><trkpt lat="44.61465031285469" lon="10.623935370086182"><ele>142.5</ele><time>2026-04-25T08:10:04.019Z</time></trkpt><trkpt lat="44.614601648398455" lon="10.624100049916944"><ele>142.0</ele><time>2026-04-25T08:10:05.019Z</time></trkpt><trkpt lat="44.61455866228612" lon="10.624261889371601"><ele>142.0</ele><time>2026-04-25T08:10:06.019Z</time></trkpt><trkpt lat="44.614510601342474" lon="10.624425910564456"><ele>142.0</ele><time>2026-04-25T08:10:07.019Z</time></trkpt><trkpt lat="44.61446909989395" lon="10.624592625843633"><ele>142.0</ele><time>2026-04-25T08:10:08.019Z</time></trkpt><trkpt lat="44.61441693121998" lon="10.624758101017525"><ele>142.0</ele><time>2026-04-25T08:10:09.019Z</time></trkpt><trkpt lat="44.61436738307446" lon="10.62492652386304"><ele>142.25</ele><time>2026-04-25T08:10:10.019Z</time></trkpt><trkpt lat="44.61432044479239" lon="10.625095184900257"><ele>142.5</ele><time>2026-04-25T08:10:11.02Z</time></trkpt><trkpt lat="44.61427406753131" lon="10.625263773453419"><ele>142.75</ele><time>2026-04-25T08:10:12.02Z</time></trkpt><trkpt lat="44.6142329806784" lon="10.625432904386136"><ele>143.0</ele><time>2026-04-25T08:10:13.02Z</time></trkpt><trkpt lat="44.614187603757806" lon="10.625602647044328"><ele>143.0</ele><time>2026-04-25T08:10:14.02Z</time></trkpt><trkpt lat="44.61413796674701" lon="10.625770663228348"><ele>143.0</ele><time>2026-04-25T08:10:15.02Z</time></trkpt><trkpt lat="44.61409703523604" lon="10.625941978100078"><ele>143.0</ele><time>2026-04-25T08:10:16.02Z</time></trkpt><trkpt lat="44.61406239234622" lon="10.62611637746227"><ele>143.0</ele><time>2026-04-25T08:10:17.02Z</time></trkpt><trkpt lat="44.61403785804671" lon="10.626303295452944"><ele>142.75</ele><time>2026-04-25T08:10:18.02Z</time></trkpt><trkpt lat="44.61402574820796" lon="10.626493191968779"><ele>142.5</ele><time>2026-04-25T08:10:19.02Z</time></trkpt><trkpt lat="44.61403079205325" lon="10.626680645086275"><ele>142.25</ele><time>2026-04-25T08:10:20.02Z</time></trkpt><trkpt lat="44.614043484830226" lon="10.626871879182671"><ele>142.0</ele><time>2026-04-25T08:10:21.02Z</time></trkpt><trkpt lat="44.61407491074265" lon="10.627050152126868"><ele>142.0</ele><time>2026-04-25T08:10:22.02Z</time></trkpt><trkpt lat="44.614122900510914" lon="10.627227168616214"><ele>142.0</ele><time>2026-04-25T08:10:23.02Z</time></trkpt><trkpt lat="44.61417245723294" lon="10.62739388158199"><ele>142.0</ele><time>2026-04-25T08:10:24.02Z</time></trkpt><trkpt lat="44.61422736279848" lon="10.627549971701503"><ele>142.0</ele><time>2026-04-25T08:10:25.02Z</time></trkpt><trkpt lat="44.614275536009686" lon="10.627712607072201"><ele>141.25</ele><time>2026-04-25T08:10:26.02Z</time></trkpt><trkpt lat="44.61432589786225" lon="10.627884537547574"><ele>140.5</ele><time>2026-04-25T08:10:27.02Z</time></trkpt><trkpt lat="44.61437845470204" lon="10.628053108080714"><ele>139.75</ele><time>2026-04-25T08:10:28.02Z</time></trkpt><trkpt lat="44.614427268233584" lon="10.628220449364838"><ele>139.0</ele><time>2026-04-25T08:10:29.02Z</time></trkpt><trkpt lat="44.61447544175556" lon="10.628385094057888"><ele>138.75</ele><time>2026-04-25T08:10:30.02Z</time></trkpt><trkpt lat="44.6145196751205" lon="10.62855965637062"><ele>138.5</ele><time>2026-04-25T08:10:31.02Z</time></trkpt><trkpt lat="44.61455546164409" lon="10.628744557901014"><ele>138.25</ele><time>2026-04-25T08:10:32.02Z</time></trkpt><trkpt lat="44.61456321394856" lon="10.628934722474645"><ele>138.0</ele><time>2026-04-25T08:10:33.02Z</time></trkpt><trkpt lat="44.61456275705447" lon="10.629130687538673"><ele>136.75</ele><time>2026-04-25T08:10:34.02Z</time></trkpt><trkpt lat="44.61452289951249" lon="10.629323389654335"><ele>135.5</ele><time>2026-04-25T08:10:35.02Z</time></trkpt><trkpt lat="44.614480833336025" lon="10.629511628920188"><ele>134.25</ele><time>2026-04-25T08:10:36.02Z</time></trkpt><trkpt lat="44.61443969995908" lon="10.629703675828383"><ele>133.0</ele><time>2026-04-25T08:10:37.02Z</time></trkpt><trkpt lat="44.61436750012518" lon="10.62987576577238"><ele>132.5</ele><time>2026-04-25T08:10:38.02Z</time></trkpt><trkpt lat="44.61427799568372" lon="10.630040205146042"><ele>132.0</ele><time>2026-04-25T08:10:39.02Z</time></trkpt><trkpt lat="44.61416582014756" lon="10.630176218023028"><ele>131.5</ele><time>2026-04-25T08:10:40.02Z</time></trkpt><trkpt lat="44.6140690659464" lon="10.6303406693382"><ele>131.0</ele><time>2026-04-25T08:10:41.02Z</time></trkpt><trkpt lat="44.61396153967104" lon="10.63047773888757"><ele>129.25</ele><time>2026-04-25T08:10:42.02Z</time></trkpt><trkpt lat="44.61385471176056" lon="10.630616593735246"><ele>127.5</ele><time>2026-04-25T08:10:43.02Z</time></trkpt><trkpt lat="44.613754048069964" lon="10.630757785747672"><ele>125.75</ele><time>2026-04-25T08:10:44.02Z</time></trkpt><trkpt lat="44.61365479184392" lon="10.630908148588084"><ele>124.0</ele><time>2026-04-25T08:10:45.02Z</time></trkpt><trkpt lat="44.6135552481009" lon="10.631046337422601"><ele>123.0</ele><time>2026-04-25T08:10:46.02Z</time></trkpt><trkpt lat="44.61345298689103" lon="10.63118817202143"><ele>122.0</ele><time>2026-04-25T08:10:47.02Z</time></trkpt><trkpt lat="44.61335165374552" lon="10.631328249634524"><ele>121.0</ele><time>2026-04-25T08:10:48.02Z</time></trkpt><trkpt lat="44.61324993327604" lon="10.631466430236717"><ele>120.0</ele><time>2026-04-25T08:10:49.02Z</time></trkpt><trkpt lat="44.613151997770764" lon="10.631603960716054"><ele>120.0</ele><time>2026-04-25T08:10:50.021Z</time></trkpt><trkpt lat="44.61305833023539" lon="10.631742668468824"><ele>120.0</ele><time>2026-04-25T08:10:51.021Z</time></trkpt><trkpt lat="44.61295959804812" lon="10.631878145090052"><ele>120.0</ele><time>2026-04-25T08:10:52.021Z</time></trkpt><trkpt lat="44.61286075389676" lon="10.632017329993243"><ele>120.0</ele><time>2026-04-25T08:10:53.021Z</time></trkpt><trkpt lat="44.61276194825347" lon="10.632155475668975"><ele>121.5</ele><time>2026-04-25T08:10:54.021Z</time></trkpt><trkpt lat="44.612663384335534" lon="10.632290569732112"><ele>123.0</ele><time>2026-04-25T08:10:55.021Z</time></trkpt><trkpt lat="44.612565577325086" lon="10.632429058622725"><ele>124.5</ele><time>2026-04-25T08:10:56.021Z</time></trkpt><trkpt lat="44.61246284612166" lon="10.632563136872685"><ele>126.0</ele><time>2026-04-25T08:10:57.021Z</time></trkpt><trkpt lat="44.612359721067605" lon="10.632688789185725"><ele>126.0</ele><time>2026-04-25T08:10:58.021Z</time></trkpt><trkpt lat="44.61224862624197" lon="10.632797500000109"><ele>126.0</ele><time>2026-04-25T08:10:59.021Z</time></trkpt><trkpt lat="44.612135413562044" lon="10.632907868703747"><ele>126.0</ele><time>2026-04-25T08:11:00.021Z</time></trkpt><trkpt lat="44.61201842702294" lon="10.633012256133844"><ele>126.0</ele><time>2026-04-25T08:11:01.021Z</time></trkpt><trkpt lat="44.611897812698636" lon="10.633108304263843"><ele>128.25</ele><time>2026-04-25T08:11:02.021Z</time></trkpt><trkpt lat="44.61177663354919" lon="10.633202664664884"><ele>130.5</ele><time>2026-04-25T08:11:03.021Z</time></trkpt><trkpt lat="44.61164962395902" lon="10.633304530462112"><ele>132.75</ele><time>2026-04-25T08:11:04.021Z</time></trkpt><trkpt lat="44.61152481615175" lon="10.63340010965447"><ele>135.0</ele><time>2026-04-25T08:11:05.021Z</time></trkpt><trkpt lat="44.61140543858115" lon="10.633494563321845"><ele>135.0</ele><time>2026-04-25T08:11:06.021Z</time></trkpt><trkpt lat="44.61128842326753" lon="10.63358874216938"><ele>135.0</ele><time>2026-04-25T08:11:07.021Z</time></trkpt><trkpt lat="44.61117716552159" lon="10.633681121802951"><ele>135.0</ele><time>2026-04-25T08:11:08.021Z</time></trkpt><trkpt lat="44.61106634803681" lon="10.633769757761947"><ele>135.0</ele><time>2026-04-25T08:11:09.021Z</time></trkpt><trkpt lat="44.610959089268476" lon="10.633867438660442"><ele>135.75</ele><time>2026-04-25T08:11:10.021Z</time></trkpt><trkpt lat="44.610857114541965" lon="10.633974000442226"><ele>136.5</ele><time>2026-04-25T08:11:11.021Z</time></trkpt><trkpt lat="44.61076178570976" lon="10.634092944798395"><ele>137.25</ele><time>2026-04-25T08:11:12.021Z</time></trkpt><trkpt lat="44.61067962252808" lon="10.634225942928156"><ele>138.0</ele><time>2026-04-25T08:11:13.021Z</time></trkpt><trkpt lat="44.61060385651081" lon="10.634374145049154"><ele>138.75</ele><time>2026-04-25T08:11:14.021Z</time></trkpt><trkpt lat="44.61053693387844" lon="10.634529069627709"><ele>139.5</ele><time>2026-04-25T08:11:15.021Z</time></trkpt><trkpt lat="44.61047807457802" lon="10.634684562340826"><ele>140.25</ele><time>2026-04-25T08:11:16.021Z</time></trkpt><trkpt lat="44.61042599767358" lon="10.634845763751683"><ele>141.0</ele><time>2026-04-25T08:11:17.021Z</time></trkpt><trkpt lat="44.6104043454673" lon="10.635028326339595"><ele>141.0</ele><time>2026-04-25T08:11:18.021Z</time></trkpt><trkpt lat="44.61038359090294" lon="10.635204221434924"><ele>141.0</ele><time>2026-04-25T08:11:19.021Z</time></trkpt><trkpt lat="44.61036907734008" lon="10.635379852290361"><ele>141.0</ele><time>2026-04-25T08:11:20.021Z</time></trkpt><trkpt lat="44.61035783694662" lon="10.635550810624476"><ele>141.0</ele><time>2026-04-25T08:11:21.021Z</time></trkpt><trkpt lat="44.610353498287814" lon="10.635728385882835"><ele>140.75</ele><time>2026-04-25T08:11:22.021Z</time></trkpt><trkpt lat="44.610349907591264" lon="10.635904655079537"><ele>140.5</ele><time>2026-04-25T08:11:23.021Z</time></trkpt><trkpt lat="44.610338491725756" lon="10.63607891543665"><ele>140.25</ele><time>2026-04-25T08:11:24.021Z</time></trkpt><trkpt lat="44.610324529633196" lon="10.63624893014354"><ele>140.0</ele><time>2026-04-25T08:11:25.021Z</time></trkpt><trkpt lat="44.61031193675753" lon="10.636418141762947"><ele>141.0</ele><time>2026-04-25T08:11:26.021Z</time></trkpt><trkpt lat="44.61029247657564" lon="10.63658922299277"><ele>142.0</ele><time>2026-04-25T08:11:27.021Z</time></trkpt><trkpt lat="44.61026456743324" lon="10.636759197675092"><ele>143.0</ele><time>2026-04-25T08:11:28.021Z</time></trkpt><trkpt lat="44.610226335628916" lon="10.636929860856773"><ele>144.0</ele><time>2026-04-25T08:11:29.022Z</time></trkpt><trkpt lat="44.61018098180797" lon="10.637092846111129"><ele>144.25</ele><time>2026-04-25T08:11:30.022Z</time></trkpt><trkpt lat="44.610127553904434" lon="10.637254445371351"><ele>144.5</ele><time>2026-04-25T08:11:31.022Z</time></trkpt><trkpt lat="44.6100681495081" lon="10.63740242955504"><ele>144.75</ele><time>2026-04-25T08:11:32.022Z</time></trkpt><trkpt lat="44.610011105916406" lon="10.63754948280908"><ele>145.0</ele><time>2026-04-25T08:11:33.022Z</time></trkpt><trkpt lat="44.60994787580564" lon="10.637694300980575"><ele>144.5</ele><time>2026-04-25T08:11:34.022Z</time></trkpt><trkpt lat="44.60988546882074" lon="10.637837732433946"><ele>144.0</ele><time>2026-04-25T08:11:35.022Z</time></trkpt><trkpt lat="44.60982498010221" lon="10.637975996044911"><ele>143.5</ele><time>2026-04-25T08:11:36.022Z</time></trkpt><trkpt lat="44.609762935937006" lon="10.63810452575378"><ele>143.0</ele><time>2026-04-25T08:11:37.022Z</time></trkpt><trkpt lat="44.60970618838144" lon="10.638231493582692"><ele>143.0</ele><time>2026-04-25T08:11:38.022Z</time></trkpt><trkpt lat="44.609644181386955" lon="10.638361580879952"><ele>143.0</ele><time>2026-04-25T08:11:39.022Z</time></trkpt><trkpt lat="44.609588179826964" lon="10.6384895989394"><ele>143.0</ele><time>2026-04-25T08:11:40.022Z</time></trkpt><trkpt lat="44.609533035434424" lon="10.638611126178585"><ele>143.0</ele><time>2026-04-25T08:11:41.022Z</time></trkpt><trkpt lat="44.60947698069441" lon="10.638736437762228"><ele>143.0</ele><time>2026-04-25T08:11:42.022Z</time></trkpt><trkpt lat="44.60941400843742" lon="10.638850096238599"><ele>142.6</ele><time>2026-04-25T08:11:43.022Z</time></trkpt><trkpt lat="44.609337011211416" lon="10.638944728634502"><ele>142.20000000000002</ele><time>2026-04-25T08:11:44.022Z</time></trkpt><trkpt lat="44.60927267171424" lon="10.639045184580239"><ele>141.8</ele><time>2026-04-25T08:11:45.022Z</time></trkpt><trkpt lat="44.609238717375874" lon="10.639198759040466"><ele>141.4</ele><time>2026-04-25T08:11:46.022Z</time></trkpt><trkpt lat="44.60922882599497" lon="10.639368281974754"><ele>141.0</ele><time>2026-04-25T08:11:47.022Z</time></trkpt><trkpt lat="44.60920161938263" lon="10.639547266997898"><ele>140.5</ele><time>2026-04-25T08:11:48.022Z</time></trkpt><trkpt lat="44.609141612100785" lon="10.63972151315916"><ele>140.0</ele><time>2026-04-25T08:11:49.022Z</time></trkpt><trkpt lat="44.60907036396057" lon="10.639894778655613"><ele>139.5</ele><time>2026-04-25T08:11:50.022Z</time></trkpt><trkpt lat="44.608999583159935" lon="10.64006394117116"><ele>139.0</ele><time>2026-04-25T08:11:51.022Z</time></trkpt><trkpt lat="44.60893068826422" lon="10.640235676162904"><ele>138.5</ele><time>2026-04-25T08:11:52.022Z</time></trkpt><trkpt lat="44.60886874632751" lon="10.640417782008452"><ele>138.0</ele><time>2026-04-25T08:11:53.022Z</time></trkpt><trkpt lat="44.60880547436567" lon="10.640597086660335"><ele>137.5</ele><time>2026-04-25T08:11:54.022Z</time></trkpt><trkpt lat="44.6087365704142" lon="10.640768161745076"><ele>137.0</ele><time>2026-04-25T08:11:55.022Z</time></trkpt><trkpt lat="44.6086685367144" lon="10.640942655206974"><ele>137.5</ele><time>2026-04-25T08:11:56.022Z</time></trkpt><trkpt lat="44.608602660761605" lon="10.64111730865515"><ele>138.0</ele><time>2026-04-25T08:11:57.022Z</time></trkpt><trkpt lat="44.60853476585525" lon="10.641292691409737"><ele>138.5</ele><time>2026-04-25T08:11:58.022Z</time></trkpt><trkpt lat="44.6084657973698" lon="10.641466106013555"><ele>139.0</ele><time>2026-04-25T08:11:59.022Z</time></trkpt><trkpt lat="44.608395950169204" lon="10.641641038272416"><ele>139.0</ele><time>2026-04-25T08:12:00.022Z</time></trkpt><trkpt lat="44.608327671675916" lon="10.641814388917648"><ele>139.0</ele><time>2026-04-25T08:12:01.022Z</time></trkpt><trkpt lat="44.6082590951453" lon="10.641988844911358"><ele>139.0</ele><time>2026-04-25T08:12:02.022Z</time></trkpt><trkpt lat="44.60819232096811" lon="10.642161919614232"><ele>139.0</ele><time>2026-04-25T08:12:03.022Z</time></trkpt><trkpt lat="44.608127822178204" lon="10.642335080807953"><ele>138.5</ele><time>2026-04-25T08:12:04.022Z</time></trkpt><trkpt lat="44.608060538149054" lon="10.64250700508071"><ele>138.0</ele><time>2026-04-25T08:12:05.022Z</time></trkpt><trkpt lat="44.60798872492179" lon="10.642676337866005"><ele>137.5</ele><time>2026-04-25T08:12:06.022Z</time></trkpt><trkpt lat="44.60792300669557" lon="10.642843311611662"><ele>137.0</ele><time>2026-04-25T08:12:07.022Z</time></trkpt><trkpt lat="44.60785699836124" lon="10.64301721513749"><ele>137.5</ele><time>2026-04-25T08:12:08.023Z</time></trkpt><trkpt lat="44.60779044571166" lon="10.643189120480457"><ele>138.0</ele><time>2026-04-25T08:12:09.023Z</time></trkpt><trkpt lat="44.607724874382455" lon="10.643361171788568"><ele>138.5</ele><time>2026-04-25T08:12:10.023Z</time></trkpt><trkpt lat="44.60766138977627" lon="10.643534270582252"><ele>139.0</ele><time>2026-04-25T08:12:11.023Z</time></trkpt><trkpt lat="44.60760407147249" lon="10.643708644681732"><ele>139.0</ele><time>2026-04-25T08:12:12.023Z</time></trkpt><trkpt lat="44.607548000112175" lon="10.64388068677208"><ele>139.0</ele><time>2026-04-25T08:12:13.023Z</time></trkpt><trkpt lat="44.6074936654307" lon="10.644054514859256"><ele>139.0</ele><time>2026-04-25T08:12:14.023Z</time></trkpt><trkpt lat="44.60744768576329" lon="10.644235665954767"><ele>139.0</ele><time>2026-04-25T08:12:15.023Z</time></trkpt><trkpt lat="44.60740953704162" lon="10.644419590900178"><ele>138.5</ele><time>2026-04-25T08:12:16.023Z</time></trkpt><trkpt lat="44.6073729012919" lon="10.64460341863747"><ele>138.0</ele><time>2026-04-25T08:12:17.023Z</time></trkpt><trkpt lat="44.60734027756289" lon="10.644790499049588"><ele>137.5</ele><time>2026-04-25T08:12:18.023Z</time></trkpt><trkpt lat="44.607306613966" lon="10.644977165115481"><ele>137.0</ele><time>2026-04-25T08:12:19.023Z</time></trkpt><trkpt lat="44.60727213602906" lon="10.64516406822661"><ele>136.5</ele><time>2026-04-25T08:12:20.023Z</time></trkpt><trkpt lat="44.60724211754348" lon="10.645351423875045"><ele>136.0</ele><time>2026-04-25T08:12:21.023Z</time></trkpt><trkpt lat="44.60721370347506" lon="10.645532538178879"><ele>135.5</ele><time>2026-04-25T08:12:22.023Z</time></trkpt><trkpt lat="44.60718014185206" lon="10.645707896167782"><ele>135.0</ele><time>2026-04-25T08:12:23.023Z</time></trkpt><trkpt lat="44.607156630883466" lon="10.645887624159704"><ele>135.0</ele><time>2026-04-25T08:12:24.023Z</time></trkpt><trkpt lat="44.60712674615363" lon="10.646069334382867"><ele>135.0</ele><time>2026-04-25T08:12:25.023Z</time></trkpt><trkpt lat="44.607100932799796" lon="10.646261292429445"><ele>135.0</ele><time>2026-04-25T08:12:26.023Z</time></trkpt><trkpt lat="44.60707109047793" lon="10.646446951044304"><ele>135.0</ele><time>2026-04-25T08:12:27.023Z</time></trkpt><trkpt lat="44.60703991908462" lon="10.646624437596621"><ele>134.75</ele><time>2026-04-25T08:12:28.023Z</time></trkpt><trkpt lat="44.60700501609834" lon="10.64680978693709"><ele>134.5</ele><time>2026-04-25T08:12:29.023Z</time></trkpt><trkpt lat="44.606967532399445" lon="10.646996326006214"><ele>134.25</ele><time>2026-04-25T08:12:30.023Z</time></trkpt><trkpt lat="44.606931996230976" lon="10.647180422840474"><ele>134.0</ele><time>2026-04-25T08:12:31.023Z</time></trkpt><trkpt lat="44.606895335034594" lon="10.647359793993722"><ele>134.0</ele><time>2026-04-25T08:12:32.023Z</time></trkpt><trkpt lat="44.60685097319885" lon="10.64754284287623"><ele>134.0</ele><time>2026-04-25T08:12:33.023Z</time></trkpt><trkpt lat="44.60680076216669" lon="10.647723692524817"><ele>134.0</ele><time>2026-04-25T08:12:34.023Z</time></trkpt><trkpt lat="44.60675068528326" lon="10.647906255646449"><ele>134.0</ele><time>2026-04-25T08:12:35.023Z</time></trkpt><trkpt lat="44.606700237917856" lon="10.648094641447045"><ele>134.0</ele><time>2026-04-25T08:12:36.023Z</time></trkpt><trkpt lat="44.6066414893383" lon="10.648267108468339"><ele>134.0</ele><time>2026-04-25T08:12:37.023Z</time></trkpt><trkpt lat="44.606580665710126" lon="10.648438400681655"><ele>134.0</ele><time>2026-04-25T08:12:38.023Z</time></trkpt><trkpt lat="44.60652628927558" lon="10.648614783432356"><ele>134.0</ele><time>2026-04-25T08:12:39.023Z</time></trkpt><trkpt lat="44.60646914627513" lon="10.64878620842838"><ele>133.75</ele><time>2026-04-25T08:12:40.023Z</time></trkpt><trkpt lat="44.60642536104554" lon="10.648973315283131"><ele>133.5</ele><time>2026-04-25T08:12:41.023Z</time></trkpt><trkpt lat="44.60638527132842" lon="10.64915259756467"><ele>133.25</ele><time>2026-04-25T08:12:42.023Z</time></trkpt><trkpt lat="44.606361439133934" lon="10.649340626649186"><ele>133.0</ele><time>2026-04-25T08:12:43.023Z</time></trkpt><trkpt lat="44.60634274218262" lon="10.649531755705182"><ele>133.0</ele><time>2026-04-25T08:12:44.023Z</time></trkpt><trkpt lat="44.60633714709546" lon="10.649730065612012"><ele>133.0</ele><time>2026-04-25T08:12:45.023Z</time></trkpt><trkpt lat="44.606341352893864" lon="10.649929577212015"><ele>133.0</ele><time>2026-04-25T08:12:46.024Z</time></trkpt><trkpt lat="44.60635370147992" lon="10.650125554645205"><ele>133.0</ele><time>2026-04-25T08:12:47.024Z</time></trkpt><trkpt lat="44.60637091057706" lon="10.65031796742202"><ele>133.5</ele><time>2026-04-25T08:12:48.024Z</time></trkpt><trkpt lat="44.60638679708655" lon="10.650508294111491"><ele>134.0</ele><time>2026-04-25T08:12:49.024Z</time></trkpt><trkpt lat="44.60640244056956" lon="10.650697166557471"><ele>134.5</ele><time>2026-04-25T08:12:50.024Z</time></trkpt><trkpt lat="44.60641870922315" lon="10.650889172617942"><ele>135.0</ele><time>2026-04-25T08:12:51.024Z</time></trkpt><trkpt lat="44.60643080612898" lon="10.651076219874813"><ele>134.75</ele><time>2026-04-25T08:12:52.024Z</time></trkpt><trkpt lat="44.60644515518074" lon="10.651262552762603"><ele>134.5</ele><time>2026-04-25T08:12:53.024Z</time></trkpt><trkpt lat="44.60646155052223" lon="10.651454219271109"><ele>134.25</ele><time>2026-04-25T08:12:54.024Z</time></trkpt><trkpt lat="44.60648279523011" lon="10.651648604942359"><ele>134.0</ele><time>2026-04-25T08:12:55.024Z</time></trkpt><trkpt lat="44.60649381978633" lon="10.651837771421329"><ele>133.75</ele><time>2026-04-25T08:12:56.024Z</time></trkpt><trkpt lat="44.60647625556707" lon="10.652040452967034"><ele>133.5</ele><time>2026-04-25T08:12:57.024Z</time></trkpt><trkpt lat="44.60646896072399" lon="10.652240817097333"><ele>133.25</ele><time>2026-04-25T08:12:58.024Z</time></trkpt><trkpt lat="44.606452920258334" lon="10.65243787156912"><ele>133.0</ele><time>2026-04-25T08:12:59.024Z</time></trkpt><trkpt lat="44.60641395129581" lon="10.652634575068117"><ele>132.75</ele><time>2026-04-25T08:13:00.024Z</time></trkpt><trkpt lat="44.60637337659627" lon="10.652831018000326"><ele>132.5</ele><time>2026-04-25T08:13:01.024Z</time></trkpt><trkpt lat="44.60632947100363" lon="10.653022510668148"><ele>132.25</ele><time>2026-04-25T08:13:02.024Z</time></trkpt><trkpt lat="44.60626924048999" lon="10.653207429219243"><ele>132.0</ele><time>2026-04-25T08:13:03.024Z</time></trkpt><trkpt lat="44.606207185210216" lon="10.65339353348213"><ele>132.25</ele><time>2026-04-25T08:13:04.024Z</time></trkpt><trkpt lat="44.60614698514277" lon="10.653580619984952"><ele>132.5</ele><time>2026-04-25T08:13:05.024Z</time></trkpt><trkpt lat="44.60608994452281" lon="10.653763882787644"><ele>132.75</ele><time>2026-04-25T08:13:06.024Z</time></trkpt><trkpt lat="44.606032447075364" lon="10.653944246665818"><ele>133.0</ele><time>2026-04-25T08:13:07.024Z</time></trkpt><trkpt lat="44.60598266271028" lon="10.654116900230173"><ele>133.0</ele><time>2026-04-25T08:13:08.024Z</time></trkpt><trkpt lat="44.605933277217325" lon="10.654278741203097"><ele>133.0</ele><time>2026-04-25T08:13:09.024Z</time></trkpt><trkpt lat="44.60588243667543" lon="10.654438907881657"><ele>133.0</ele><time>2026-04-25T08:13:10.024Z</time></trkpt><trkpt lat="44.605830892177295" lon="10.654599446920452"><ele>133.0</ele><time>2026-04-25T08:13:11.024Z</time></trkpt><trkpt lat="44.60578282869843" lon="10.654763569875243"><ele>132.8</ele><time>2026-04-25T08:13:12.024Z</time></trkpt><trkpt lat="44.60573490289002" lon="10.654914396167154"><ele>132.60000000000002</ele><time>2026-04-25T08:13:13.024Z</time></trkpt><trkpt lat="44.605684743528435" lon="10.655055650227505"><ele>132.39999999999998</ele><time>2026-04-25T08:13:14.024Z</time></trkpt><trkpt lat="44.605638513952655" lon="10.65519346493984"><ele>132.2</ele><time>2026-04-25T08:13:15.024Z</time></trkpt><trkpt lat="44.60559737699577" lon="10.655323296707419"><ele>132.0</ele><time>2026-04-25T08:13:16.024Z</time></trkpt><trkpt lat="44.605563022340974" lon="10.655426527065059"><ele>131.66666666666666</ele><time>2026-04-25T08:13:17.024Z</time></trkpt><trkpt lat="44.6055283812843" lon="10.655501510769758"><ele>131.33333333333334</ele><time>2026-04-25T08:13:18.024Z</time></trkpt><trkpt lat="44.605481235001974" lon="10.655599116523318"><ele>131.0</ele><time>2026-04-25T08:13:20.024Z</time></trkpt><trkpt lat="44.605458775508275" lon="10.655682683327148"><ele>130.66666666666669</ele><time>2026-04-25T08:13:53.025Z</time></trkpt><trkpt lat="44.605440632593165" lon="10.655775079352264"><ele>130.33333333333334</ele><time>2026-04-25T08:13:54.025Z</time></trkpt><trkpt lat="44.605421319102746" lon="10.65588452959514"><ele>130.0</ele><time>2026-04-25T08:13:55.025Z</time></trkpt><trkpt lat="44.605394057593166" lon="10.656009376672177"><ele>130.0</ele><time>2026-04-25T08:13:56.025Z</time></trkpt><trkpt lat="44.605352602099124" lon="10.656136758276354"><ele>130.0</ele><time>2026-04-25T08:13:57.025Z</time></trkpt><trkpt lat="44.60531024463268" lon="10.656274239698869"><ele>130.0</ele><time>2026-04-25T08:13:58.025Z</time></trkpt><trkpt lat="44.60526725474105" lon="10.656416633666309"><ele>130.0</ele><time>2026-04-25T08:13:59.025Z</time></trkpt><trkpt lat="44.60522299731266" lon="10.656561854520032"><ele>130.0</ele><time>2026-04-25T08:14:00.025Z</time></trkpt><trkpt lat="44.605177739265066" lon="10.656715200186982"><ele>130.0</ele><time>2026-04-25T08:14:01.025Z</time></trkpt><trkpt lat="44.60512321069538" lon="10.656869497110417"><ele>130.0</ele><time>2026-04-25T08:14:02.025Z</time></trkpt><trkpt lat="44.605061178091205" lon="10.657007584680148"><ele>130.0</ele><time>2026-04-25T08:14:03.025Z</time></trkpt><trkpt lat="44.60500986416257" lon="10.657137553892685"><ele>130.0</ele><time>2026-04-25T08:14:04.026Z</time></trkpt><trkpt lat="44.60495934849691" lon="10.65726018467687"><ele>130.0</ele><time>2026-04-25T08:14:05.026Z</time></trkpt><trkpt lat="44.604903609579495" lon="10.657377568913002"><ele>129.8</ele><time>2026-04-25T08:14:06.026Z</time></trkpt><trkpt lat="44.60484553654877" lon="10.657504233060433"><ele>129.6</ele><time>2026-04-25T08:14:07.026Z</time></trkpt><trkpt lat="44.60481572877154" lon="10.65764704735839"><ele>129.4</ele><time>2026-04-25T08:14:08.026Z</time></trkpt><trkpt lat="44.60481645599746" lon="10.657809143188423"><ele>129.2</ele><time>2026-04-25T08:14:09.026Z</time></trkpt><trkpt lat="44.60476635827201" lon="10.657963639906262"><ele>129.0</ele><time>2026-04-25T08:14:10.026Z</time></trkpt><trkpt lat="44.60471620071183" lon="10.658136550111346"><ele>128.75</ele><time>2026-04-25T08:14:11.026Z</time></trkpt><trkpt lat="44.60464834989292" lon="10.658300918900755"><ele>128.5</ele><time>2026-04-25T08:14:12.026Z</time></trkpt><trkpt lat="44.60458073203889" lon="10.658469886361054"><ele>128.25</ele><time>2026-04-25T08:14:13.026Z</time></trkpt><trkpt lat="44.604516453038336" lon="10.658639034026166"><ele>128.0</ele><time>2026-04-25T08:14:14.026Z</time></trkpt><trkpt lat="44.60444770711138" lon="10.658811349865204"><ele>128.0</ele><time>2026-04-25T08:14:15.026Z</time></trkpt><trkpt lat="44.60437785512109" lon="10.658982688388573"><ele>128.0</ele><time>2026-04-25T08:14:16.026Z</time></trkpt><trkpt lat="44.604309803197594" lon="10.65915339473308"><ele>128.0</ele><time>2026-04-25T08:14:17.026Z</time></trkpt><trkpt lat="44.604245279685365" lon="10.659323448841935"><ele>128.0</ele><time>2026-04-25T08:14:18.026Z</time></trkpt><trkpt lat="44.60418185046738" lon="10.659488638084165"><ele>127.75</ele><time>2026-04-25T08:14:19.026Z</time></trkpt><trkpt lat="44.60411980219685" lon="10.659658387073053"><ele>127.5</ele><time>2026-04-25T08:14:20.026Z</time></trkpt><trkpt lat="44.60405691801058" lon="10.659823731654212"><ele>127.25</ele><time>2026-04-25T08:14:21.026Z</time></trkpt><trkpt lat="44.60399269952467" lon="10.65998621149234"><ele>127.0</ele><time>2026-04-25T08:14:22.026Z</time></trkpt><trkpt lat="44.603929900486975" lon="10.660148018141951"><ele>126.5</ele><time>2026-04-25T08:14:23.026Z</time></trkpt><trkpt lat="44.6038697767893" lon="10.660314749662659"><ele>126.0</ele><time>2026-04-25T08:14:24.026Z</time></trkpt><trkpt lat="44.603806776254444" lon="10.660476712535482"><ele>125.5</ele><time>2026-04-25T08:14:25.026Z</time></trkpt><trkpt lat="44.60374546079035" lon="10.660643573217357"><ele>125.0</ele><time>2026-04-25T08:14:26.026Z</time></trkpt><trkpt lat="44.603681593586685" lon="10.660811255445196"><ele>125.25</ele><time>2026-04-25T08:14:27.026Z</time></trkpt><trkpt lat="44.60361435110811" lon="10.66098084815445"><ele>125.5</ele><time>2026-04-25T08:14:28.026Z</time></trkpt><trkpt lat="44.60354818313313" lon="10.66115211528873"><ele>125.75</ele><time>2026-04-25T08:14:29.026Z</time></trkpt><trkpt lat="44.60347975138452" lon="10.661325330371074"><ele>126.0</ele><time>2026-04-25T08:14:30.026Z</time></trkpt><trkpt lat="44.60341346255939" lon="10.661499654723105"><ele>126.0</ele><time>2026-04-25T08:14:31.026Z</time></trkpt><trkpt lat="44.60334694004764" lon="10.661674347806992"><ele>126.0</ele><time>2026-04-25T08:14:32.026Z</time></trkpt><trkpt lat="44.603280401494246" lon="10.66184586187583"><ele>126.0</ele><time>2026-04-25T08:14:33.026Z</time></trkpt><trkpt lat="44.603214615026296" lon="10.66201774941059"><ele>126.0</ele><time>2026-04-25T08:14:34.026Z</time></trkpt><trkpt lat="44.60315028291628" lon="10.66218903830441"><ele>125.5</ele><time>2026-04-25T08:14:35.026Z</time></trkpt><trkpt lat="44.603086491040585" lon="10.662361795965069"><ele>125.0</ele><time>2026-04-25T08:14:36.026Z</time></trkpt><trkpt lat="44.603023323815506" lon="10.662534287172099"><ele>124.5</ele><time>2026-04-25T08:14:37.026Z</time></trkpt><trkpt lat="44.60296153154677" lon="10.662704609044097"><ele>124.0</ele><time>2026-04-25T08:14:38.026Z</time></trkpt><trkpt lat="44.60289956626768" lon="10.662879597359368"><ele>123.5</ele><time>2026-04-25T08:14:39.026Z</time></trkpt><trkpt lat="44.60284088385116" lon="10.663049198738971"><ele>123.0</ele><time>2026-04-25T08:14:40.026Z</time></trkpt><trkpt lat="44.602784968582995" lon="10.663224208323955"><ele>122.5</ele><time>2026-04-25T08:14:41.026Z</time></trkpt><trkpt lat="44.602727464006215" lon="10.663392304591401"><ele>122.0</ele><time>2026-04-25T08:14:42.026Z</time></trkpt><trkpt lat="44.60266983314657" lon="10.663560545340617"><ele>121.25</ele><time>2026-04-25T08:14:43.027Z</time></trkpt><trkpt lat="44.60261208767137" lon="10.663731878696733"><ele>120.5</ele><time>2026-04-25T08:14:44.027Z</time></trkpt><trkpt lat="44.602557076768534" lon="10.663906998147137"><ele>119.75</ele><time>2026-04-25T08:14:45.027Z</time></trkpt><trkpt lat="44.60250137973447" lon="10.664078057765288"><ele>119.0</ele><time>2026-04-25T08:14:46.027Z</time></trkpt><trkpt lat="44.60244639314467" lon="10.66424899022143"><ele>119.0</ele><time>2026-04-25T08:14:47.027Z</time></trkpt><trkpt lat="44.60238899405397" lon="10.664414874554772"><ele>119.0</ele><time>2026-04-25T08:14:48.027Z</time></trkpt><trkpt lat="44.60233188789785" lon="10.664579212254216"><ele>119.0</ele><time>2026-04-25T08:14:49.027Z</time></trkpt><trkpt lat="44.602278848155436" lon="10.664748036685088"><ele>119.0</ele><time>2026-04-25T08:14:50.027Z</time></trkpt><trkpt lat="44.60222364922983" lon="10.664916228388233"><ele>119.0</ele><time>2026-04-25T08:14:51.027Z</time></trkpt><trkpt lat="44.602168594293296" lon="10.665083064317232"><ele>119.0</ele><time>2026-04-25T08:14:52.027Z</time></trkpt><trkpt lat="44.60210941295653" lon="10.665248594607442"><ele>119.0</ele><time>2026-04-25T08:14:53.027Z</time></trkpt><trkpt lat="44.60205257427149" lon="10.66541293686543"><ele>119.0</ele><time>2026-04-25T08:14:54.027Z</time></trkpt><trkpt lat="44.60199102565075" lon="10.665576451393555"><ele>119.5</ele><time>2026-04-25T08:14:55.027Z</time></trkpt><trkpt lat="44.60192140219929" lon="10.665735011863534"><ele>120.0</ele><time>2026-04-25T08:14:56.027Z</time></trkpt><trkpt lat="44.601844918789276" lon="10.665888103305559"><ele>120.5</ele><time>2026-04-25T08:14:57.027Z</time></trkpt><trkpt lat="44.601762186779894" lon="10.666026269908466"><ele>121.0</ele><time>2026-04-25T08:14:58.027Z</time></trkpt><trkpt lat="44.60167149166896" lon="10.66617185246149"><ele>121.0</ele><time>2026-04-25T08:14:59.027Z</time></trkpt><trkpt lat="44.601578221961574" lon="10.666299371869675"><ele>121.0</ele><time>2026-04-25T08:15:00.027Z</time></trkpt><trkpt lat="44.601478997760665" lon="10.666413274641602"><ele>121.0</ele><time>2026-04-25T08:15:01.027Z</time></trkpt><trkpt lat="44.60136761772236" lon="10.666513059981398"><ele>121.0</ele><time>2026-04-25T08:15:02.027Z</time></trkpt><trkpt lat="44.601252371524396" lon="10.666602148323804"><ele>120.5</ele><time>2026-04-25T08:15:03.027Z</time></trkpt><trkpt lat="44.60113132759692" lon="10.666683874373083"><ele>120.0</ele><time>2026-04-25T08:15:04.027Z</time></trkpt><trkpt lat="44.6010096401684" lon="10.66676140783637"><ele>119.5</ele><time>2026-04-25T08:15:05.027Z</time></trkpt><trkpt lat="44.60088396035843" lon="10.666827354270572"><ele>119.0</ele><time>2026-04-25T08:15:06.027Z</time></trkpt><trkpt lat="44.60075293947287" lon="10.666889597717988"><ele>119.0</ele><time>2026-04-25T08:15:07.027Z</time></trkpt><trkpt lat="44.600626790288594" lon="10.666958823684853"><ele>119.0</ele><time>2026-04-25T08:15:08.027Z</time></trkpt><trkpt lat="44.60049319289139" lon="10.667029523029163"><ele>119.0</ele><time>2026-04-25T08:15:09.027Z</time></trkpt><trkpt lat="44.60035014604767" lon="10.667100082507615"><ele>119.0</ele><time>2026-04-25T08:15:10.027Z</time></trkpt><trkpt lat="44.60020841591612" lon="10.667184364767243"><ele>118.0</ele><time>2026-04-25T08:15:11.027Z</time></trkpt><trkpt lat="44.600060977564" lon="10.667265264077185"><ele>117.0</ele><time>2026-04-25T08:15:12.027Z</time></trkpt><trkpt lat="44.59991255002949" lon="10.667346338147654"><ele>116.0</ele><time>2026-04-25T08:15:13.027Z</time></trkpt><trkpt lat="44.59976242820434" lon="10.667434352622982"><ele>116.0</ele><time>2026-04-25T08:15:14.027Z</time></trkpt><trkpt lat="44.59961275827725" lon="10.667519552112273"><ele>116.0</ele><time>2026-04-25T08:15:15.027Z</time></trkpt><trkpt lat="44.59946221841305" lon="10.667602412639418"><ele>116.0</ele><time>2026-04-25T08:15:16.027Z</time></trkpt><trkpt lat="44.59930725255137" lon="10.667686459006553"><ele>116.0</ele><time>2026-04-25T08:15:17.027Z</time></trkpt><trkpt lat="44.599154726868484" lon="10.667773908809696"><ele>116.0</ele><time>2026-04-25T08:15:18.027Z</time></trkpt><trkpt lat="44.59900523588314" lon="10.667868917630734"><ele>116.0</ele><time>2026-04-25T08:15:19.027Z</time></trkpt><trkpt lat="44.59885926011361" lon="10.667977995062307"><ele>116.0</ele><time>2026-04-25T08:15:20.027Z</time></trkpt><trkpt lat="44.59871714253346" lon="10.668104831900997"><ele>116.0</ele><time>2026-04-25T08:15:21.027Z</time></trkpt><trkpt lat="44.598581435994966" lon="10.66824389368739"><ele>116.0</ele><time>2026-04-25T08:15:22.028Z</time></trkpt><trkpt lat="44.59845937945374" lon="10.668419299652829"><ele>115.66666666666666</ele><time>2026-04-25T08:15:23.028Z</time></trkpt><trkpt lat="44.59835363175111" lon="10.668609535313271"><ele>115.33333333333334</ele><time>2026-04-25T08:15:24.028Z</time></trkpt><trkpt lat="44.59825535079629" lon="10.668809544010053"><ele>115.0</ele><time>2026-04-25T08:15:25.028Z</time></trkpt><trkpt lat="44.59817142528352" lon="10.669018507657574"><ele>115.0</ele><time>2026-04-25T08:15:26.028Z</time></trkpt><trkpt lat="44.59809883805893" lon="10.669246115973573"><ele>115.0</ele><time>2026-04-25T08:15:27.028Z</time></trkpt><trkpt lat="44.59803534684424" lon="10.66948332254318"><ele>115.0</ele><time>2026-04-25T08:15:28.028Z</time></trkpt><trkpt lat="44.59796988901209" lon="10.669715470194348"><ele>114.0</ele><time>2026-04-25T08:15:29.028Z</time></trkpt><trkpt lat="44.59790334896995" lon="10.669952651075533"><ele>113.0</ele><time>2026-04-25T08:15:30.028Z</time></trkpt><trkpt lat="44.59784082324165" lon="10.670193284081495"><ele>112.0</ele><time>2026-04-25T08:15:31.028Z</time></trkpt><trkpt lat="44.59777967928435" lon="10.670435124420859"><ele>110.33333333333334</ele><time>2026-04-25T08:15:32.028Z</time></trkpt><trkpt lat="44.597712886107345" lon="10.670666395268938"><ele>108.66666666666666</ele><time>2026-04-25T08:15:33.028Z</time></trkpt><trkpt lat="44.597649174093085" lon="10.67086934360161"><ele>107.0</ele><time>2026-04-25T08:15:34.028Z</time></trkpt><trkpt lat="44.59758968103646" lon="10.671060431676153"><ele>106.0</ele><time>2026-04-25T08:15:35.028Z</time></trkpt><trkpt lat="44.59753921225276" lon="10.67122907644837"><ele>104.99999999999999</ele><time>2026-04-25T08:15:36.028Z</time></trkpt><trkpt lat="44.59749158327822" lon="10.671377753486873"><ele>104.0</ele><time>2026-04-25T08:15:37.028Z</time></trkpt><trkpt lat="44.59745457769483" lon="10.671520080795071"><ele>103.0</ele><time>2026-04-25T08:15:38.028Z</time></trkpt><trkpt lat="44.59741822749545" lon="10.671626915547971"><ele>102.0</ele><time>2026-04-25T08:15:39.028Z</time></trkpt><trkpt lat="44.59736771697267" lon="10.671717045494884"><ele>102.0</ele><time>2026-04-25T08:15:40.028Z</time></trkpt><trkpt lat="44.597304636494975" lon="10.671781992112136"><ele>102.0</ele><time>2026-04-25T08:15:41.028Z</time></trkpt><trkpt lat="44.597223410783265" lon="10.671826320266186"><ele>102.0</ele><time>2026-04-25T08:15:42.028Z</time></trkpt><trkpt lat="44.59713404008547" lon="10.671862965544332"><ele>102.0</ele><time>2026-04-25T08:15:43.028Z</time></trkpt><trkpt lat="44.597054388916305" lon="10.671915458575231"><ele>102.0</ele><time>2026-04-25T08:15:44.028Z</time></trkpt><trkpt lat="44.596991691828876" lon="10.671988016960052"><ele>102.0</ele><time>2026-04-25T08:15:45.028Z</time></trkpt><trkpt lat="44.596935436373535" lon="10.672059218732588"><ele>102.0</ele><time>2026-04-25T08:15:46.028Z</time></trkpt><trkpt lat="44.59679778010891" lon="10.671939179980289"><ele>102.0</ele><time>2026-04-25T08:15:47.028Z</time></trkpt><trkpt lat="44.59669932565237" lon="10.671887141640193"><ele>102.0</ele><time>2026-04-25T08:15:48.028Z</time></trkpt><trkpt lat="44.59660510034539" lon="10.67182184154416"><ele>102.0</ele><time>2026-04-25T08:15:49.028Z</time></trkpt><trkpt lat="44.59650756751597" lon="10.671768739674766"><ele>102.0</ele><time>2026-04-25T08:15:50.028Z</time></trkpt><trkpt lat="44.596412678385725" lon="10.671685921674753"><ele>102.0</ele><time>2026-04-25T08:15:51.028Z</time></trkpt><trkpt lat="44.596311374253" lon="10.671610819373532"><ele>102.0</ele><time>2026-04-25T08:15:52.028Z</time></trkpt><trkpt lat="44.596207864580514" lon="10.671525277800649"><ele>102.0</ele><time>2026-04-25T08:15:53.028Z</time></trkpt><trkpt lat="44.59610929370557" lon="10.671433787854475"><ele>102.19999999999999</ele><time>2026-04-25T08:15:54.028Z</time></trkpt><trkpt lat="44.59601008374425" lon="10.671344087139532"><ele>102.4</ele><time>2026-04-25T08:15:55.028Z</time></trkpt><trkpt lat="44.59591766173759" lon="10.671264908119497"><ele>102.6</ele><time>2026-04-25T08:15:56.028Z</time></trkpt><trkpt lat="44.59583648385919" lon="10.671202262636037"><ele>102.80000000000001</ele><time>2026-04-25T08:15:57.028Z</time></trkpt><trkpt lat="44.595763932813625" lon="10.671149920217912"><ele>103.0</ele><time>2026-04-25T08:15:58.028Z</time></trkpt><trkpt lat="44.5957026314608" lon="10.67110216238861"><ele>103.0</ele><time>2026-04-25T08:15:59.028Z</time></trkpt><trkpt lat="44.595623590704164" lon="10.671013853029898"><ele>103.0</ele><time>2026-04-25T08:16:01.029Z</time></trkpt><trkpt lat="44.59555718465559" lon="10.670961263065063"><ele>103.0</ele><time>2026-04-25T08:16:03.029Z</time></trkpt><trkpt lat="44.59550261404778" lon="10.670876312527332"><ele>103.0</ele><time>2026-04-25T08:16:06.029Z</time></trkpt><trkpt lat="44.59540061342712" lon="10.670845825013945"><ele>103.0</ele><time>2026-04-25T08:39:11.036Z</time></trkpt><trkpt lat="44.59530643648105" lon="10.670763975267134"><ele>103.0</ele><time>2026-04-25T08:39:13.034Z</time></trkpt><trkpt lat="44.595192583446824" lon="10.670676980560627"><ele>103.0</ele><time>2026-04-25T08:39:15.034Z</time></trkpt><trkpt lat="44.59507251109417" lon="10.67059463492837"><ele>103.0</ele><time>2026-04-25T08:39:17.035Z</time></trkpt><trkpt lat="44.594994815360025" lon="10.670532041494678"><ele>103.0</ele><time>2026-04-25T08:39:18.035Z</time></trkpt><trkpt lat="44.59491073238397" lon="10.670465705236637"><ele>103.0</ele><time>2026-04-25T08:39:19.035Z</time></trkpt><trkpt lat="44.594831109473795" lon="10.670400960109468"><ele>103.0</ele><time>2026-04-25T08:39:20.034Z</time></trkpt><trkpt lat="44.59474814977192" lon="10.67034184921055"><ele>103.0</ele><time>2026-04-25T08:39:21.034Z</time></trkpt><trkpt lat="44.59466486832143" lon="10.67027532956118"><ele>103.0</ele><time>2026-04-25T08:39:22.035Z</time></trkpt><trkpt lat="44.594574102242056" lon="10.670199639298154"><ele>103.0</ele><time>2026-04-25T08:39:23.035Z</time></trkpt><trkpt lat="44.59448046247186" lon="10.670124733258849"><ele>103.0</ele><time>2026-04-25T08:39:24.035Z</time></trkpt><trkpt lat="44.59439032068303" lon="10.670039194536473"><ele>102.75</ele><time>2026-04-25T08:39:25.035Z</time></trkpt><trkpt lat="44.594292744147694" lon="10.669964752071673"><ele>102.5</ele><time>2026-04-25T08:39:26.035Z</time></trkpt><trkpt lat="44.59419526426024" lon="10.669884389177483"><ele>102.25</ele><time>2026-04-25T08:39:27.035Z</time></trkpt><trkpt lat="44.59409332502383" lon="10.66980511896487"><ele>102.0</ele><time>2026-04-25T08:39:28.035Z</time></trkpt><trkpt lat="44.5939948710838" lon="10.66973418810871"><ele>102.0</ele><time>2026-04-25T08:39:29.035Z</time></trkpt><trkpt lat="44.59389781494302" lon="10.669682452562064"><ele>102.0</ele><time>2026-04-25T08:39:30.035Z</time></trkpt><trkpt lat="44.59379180033678" lon="10.669633798178884"><ele>102.0</ele><time>2026-04-25T08:39:31.035Z</time></trkpt><trkpt lat="44.59369280067521" lon="10.669563871732231"><ele>102.0</ele><time>2026-04-25T08:39:32.035Z</time></trkpt><trkpt lat="44.59358297296696" lon="10.669523225558587"><ele>102.0</ele><time>2026-04-25T08:39:33.035Z</time></trkpt><trkpt lat="44.59347866117457" lon="10.669484858224495"><ele>102.0</ele><time>2026-04-25T08:39:34.035Z</time></trkpt><trkpt lat="44.59336496750614" lon="10.669449148586095"><ele>102.0</ele><time>2026-04-25T08:39:35.035Z</time></trkpt><trkpt lat="44.593255602662545" lon="10.669393653109898"><ele>102.0</ele><time>2026-04-25T08:39:36.035Z</time></trkpt><trkpt lat="44.59314545645731" lon="10.669362168952315"><ele>102.0</ele><time>2026-04-25T08:39:37.035Z</time></trkpt><trkpt lat="44.59303427969729" lon="10.669325276056453"><ele>102.5</ele><time>2026-04-25T08:39:38.035Z</time></trkpt><trkpt lat="44.59292626980079" lon="10.669281521873907"><ele>103.0</ele><time>2026-04-25T08:39:39.035Z</time></trkpt><trkpt lat="44.59281515692719" lon="10.669234481021949"><ele>103.5</ele><time>2026-04-25T08:39:40.035Z</time></trkpt><trkpt lat="44.592706621344135" lon="10.669184817186716"><ele>104.0</ele><time>2026-04-25T08:39:41.035Z</time></trkpt><trkpt lat="44.59260161379261" lon="10.669131079877895"><ele>104.0</ele><time>2026-04-25T08:39:42.035Z</time></trkpt><trkpt lat="44.59249641075966" lon="10.669065040143254"><ele>104.0</ele><time>2026-04-25T08:39:43.035Z</time></trkpt><trkpt lat="44.592392722148745" lon="10.669001689003442"><ele>104.0</ele><time>2026-04-25T08:39:44.035Z</time></trkpt><trkpt lat="44.592289283748165" lon="10.668932990455577"><ele>104.0</ele><time>2026-04-25T08:39:45.035Z</time></trkpt><trkpt lat="44.592186214381194" lon="10.668863170105878"><ele>104.0</ele><time>2026-04-25T08:39:46.035Z</time></trkpt><trkpt lat="44.59208462832856" lon="10.668789340468289"><ele>104.0</ele><time>2026-04-25T08:39:47.036Z</time></trkpt><trkpt lat="44.59197614441611" lon="10.668716561012094"><ele>104.0</ele><time>2026-04-25T08:39:48.036Z</time></trkpt><trkpt lat="44.59187458483477" lon="10.668619853396565"><ele>104.0</ele><time>2026-04-25T08:39:49.036Z</time></trkpt><trkpt lat="44.59176290776206" lon="10.668554703214228"><ele>104.4</ele><time>2026-04-25T08:39:50.036Z</time></trkpt><trkpt lat="44.59165653215833" lon="10.668481204101887"><ele>104.80000000000001</ele><time>2026-04-25T08:39:51.036Z</time></trkpt><trkpt lat="44.59155518998149" lon="10.66841307871114"><ele>105.19999999999999</ele><time>2026-04-25T08:39:52.036Z</time></trkpt><trkpt lat="44.591460397005434" lon="10.668334992619421"><ele>105.6</ele><time>2026-04-25T08:39:53.036Z</time></trkpt><trkpt lat="44.59136786829383" lon="10.668267603137702"><ele>106.0</ele><time>2026-04-25T08:39:54.036Z</time></trkpt><trkpt lat="44.591269902378464" lon="10.668202628440149"><ele>106.25</ele><time>2026-04-25T08:39:55.036Z</time></trkpt><trkpt lat="44.59116126700461" lon="10.668154134029615"><ele>106.5</ele><time>2026-04-25T08:39:56.036Z</time></trkpt><trkpt lat="44.59104634218959" lon="10.668122566932148"><ele>106.75</ele><time>2026-04-25T08:39:57.036Z</time></trkpt><trkpt lat="44.5909366842973" lon="10.66810916357633"><ele>107.0</ele><time>2026-04-25T08:39:58.036Z</time></trkpt><trkpt lat="44.59082065443077" lon="10.668100574075776"><ele>107.0</ele><time>2026-04-25T08:39:59.036Z</time></trkpt><trkpt lat="44.59070677413693" lon="10.668082147279781"><ele>107.0</ele><time>2026-04-25T08:40:00.036Z</time></trkpt><trkpt lat="44.590592299953286" lon="10.668061111146843"><ele>107.0</ele><time>2026-04-25T08:40:01.036Z</time></trkpt><trkpt lat="44.59047786816396" lon="10.668042421229723"><ele>107.0</ele><time>2026-04-25T08:40:02.036Z</time></trkpt><trkpt lat="44.59037229544223" lon="10.668021454802092"><ele>106.8</ele><time>2026-04-25T08:40:03.036Z</time></trkpt><trkpt lat="44.59026833820878" lon="10.6680051779987"><ele>106.6</ele><time>2026-04-25T08:40:04.036Z</time></trkpt><trkpt lat="44.590173264988856" lon="10.66800121311534"><ele>106.39999999999999</ele><time>2026-04-25T08:40:05.036Z</time></trkpt><trkpt lat="44.59007430766613" lon="10.668013506475843"><ele>106.19999999999999</ele><time>2026-04-25T08:40:06.036Z</time></trkpt><trkpt lat="44.5899771631401" lon="10.668032428868937"><ele>106.0</ele><time>2026-04-25T08:40:07.036Z</time></trkpt><trkpt lat="44.589878822240806" lon="10.668060160063128"><ele>106.0</ele><time>2026-04-25T08:40:08.036Z</time></trkpt><trkpt lat="44.589785442896215" lon="10.6680972458229"><ele>106.0</ele><time>2026-04-25T08:40:09.036Z</time></trkpt><trkpt lat="44.58968422819468" lon="10.668133085976596"><ele>106.0</ele><time>2026-04-25T08:40:10.036Z</time></trkpt><trkpt lat="44.589578543038144" lon="10.66816413094751"><ele>106.0</ele><time>2026-04-25T08:40:11.036Z</time></trkpt><trkpt lat="44.58946884621083" lon="10.668171634355668"><ele>106.0</ele><time>2026-04-25T08:40:12.036Z</time></trkpt><trkpt lat="44.5893534693759" lon="10.66813654742366"><ele>106.0</ele><time>2026-04-25T08:40:13.036Z</time></trkpt><trkpt lat="44.58923697261281" lon="10.668077571206839"><ele>106.0</ele><time>2026-04-25T08:40:14.036Z</time></trkpt><trkpt lat="44.589127149110176" lon="10.668008165435973"><ele>106.0</ele><time>2026-04-25T08:40:15.036Z</time></trkpt><trkpt lat="44.58902476988074" lon="10.667939787841487"><ele>106.0</ele><time>2026-04-25T08:40:16.036Z</time></trkpt><trkpt lat="44.58892215834838" lon="10.667864633606898"><ele>106.0</ele><time>2026-04-25T08:40:17.036Z</time></trkpt><trkpt lat="44.58881545410107" lon="10.667790614624456"><ele>106.0</ele><time>2026-04-25T08:40:18.036Z</time></trkpt><trkpt lat="44.58871135242409" lon="10.66772264872747"><ele>106.0</ele><time>2026-04-25T08:40:19.036Z</time></trkpt><trkpt lat="44.58860489978618" lon="10.66767098442899"><ele>106.0</ele><time>2026-04-25T08:40:20.036Z</time></trkpt><trkpt lat="44.588500232778195" lon="10.667614779378955"><ele>106.5</ele><time>2026-04-25T08:40:21.036Z</time></trkpt><trkpt lat="44.58840488988722" lon="10.667524790716612"><ele>107.0</ele><time>2026-04-25T08:40:22.036Z</time></trkpt><trkpt lat="44.58829629850199" lon="10.66745053374344"><ele>107.5</ele><time>2026-04-25T08:40:23.036Z</time></trkpt><trkpt lat="44.58818403123231" lon="10.6673834736716"><ele>108.0</ele><time>2026-04-25T08:40:24.036Z</time></trkpt><trkpt lat="44.58807234316056" lon="10.667319814391456"><ele>108.0</ele><time>2026-04-25T08:40:25.036Z</time></trkpt><trkpt lat="44.587966437468154" lon="10.667238589491124"><ele>108.0</ele><time>2026-04-25T08:40:26.036Z</time></trkpt><trkpt lat="44.58785701731296" lon="10.667178213445034"><ele>108.0</ele><time>2026-04-25T08:40:27.036Z</time></trkpt><trkpt lat="44.58774409828698" lon="10.667120750010223"><ele>108.0</ele><time>2026-04-25T08:40:28.036Z</time></trkpt><trkpt lat="44.587624786073484" lon="10.667061873942572"><ele>108.0</ele><time>2026-04-25T08:40:29.036Z</time></trkpt><trkpt lat="44.587512156331734" lon="10.666995683283938"><ele>108.0</ele><time>2026-04-25T08:40:30.037Z</time></trkpt><trkpt lat="44.587401281649846" lon="10.666929253364179"><ele>108.0</ele><time>2026-04-25T08:40:31.037Z</time></trkpt><trkpt lat="44.58728761381694" lon="10.666864277536236"><ele>108.0</ele><time>2026-04-25T08:40:32.037Z</time></trkpt><trkpt lat="44.587175443969535" lon="10.6667904013011"><ele>108.0</ele><time>2026-04-25T08:40:33.037Z</time></trkpt><trkpt lat="44.58705629609514" lon="10.666726808612411"><ele>108.0</ele><time>2026-04-25T08:40:34.037Z</time></trkpt><trkpt lat="44.586942481138415" lon="10.666661364267323"><ele>108.0</ele><time>2026-04-25T08:40:35.037Z</time></trkpt><trkpt lat="44.5868321503309" lon="10.666593902573618"><ele>108.0</ele><time>2026-04-25T08:40:36.037Z</time></trkpt><trkpt lat="44.58672164315221" lon="10.6665222492591"><ele>108.25</ele><time>2026-04-25T08:40:37.037Z</time></trkpt><trkpt lat="44.58661562644055" lon="10.666444267941422"><ele>108.5</ele><time>2026-04-25T08:40:38.037Z</time></trkpt><trkpt lat="44.58651615050894" lon="10.66634993054002"><ele>108.75</ele><time>2026-04-25T08:40:39.037Z</time></trkpt><trkpt lat="44.58642874512592" lon="10.66625241326374"><ele>109.0</ele><time>2026-04-25T08:40:40.037Z</time></trkpt><trkpt lat="44.58635303050378" lon="10.666123836475458"><ele>109.0</ele><time>2026-04-25T08:40:41.037Z</time></trkpt><trkpt lat="44.58630351649842" lon="10.665974250760437"><ele>109.0</ele><time>2026-04-25T08:40:42.037Z</time></trkpt><trkpt lat="44.5862513947404" lon="10.665817053810432"><ele>109.0</ele><time>2026-04-25T08:40:43.037Z</time></trkpt><trkpt lat="44.586199157554084" lon="10.665666544041116"><ele>109.0</ele><time>2026-04-25T08:40:44.037Z</time></trkpt><trkpt lat="44.58613739730177" lon="10.665525214185413"><ele>109.0</ele><time>2026-04-25T08:40:45.037Z</time></trkpt><trkpt lat="44.58608283320702" lon="10.665382563215479"><ele>109.0</ele><time>2026-04-25T08:40:46.037Z</time></trkpt><trkpt lat="44.58602930925541" lon="10.665239165020438"><ele>109.0</ele><time>2026-04-25T08:40:47.037Z</time></trkpt><trkpt lat="44.58598140575671" lon="10.665087339110988"><ele>109.0</ele><time>2026-04-25T08:40:48.037Z</time></trkpt><trkpt lat="44.585924487976314" lon="10.664941346039333"><ele>109.0</ele><time>2026-04-25T08:40:49.037Z</time></trkpt><trkpt lat="44.5858599550472" lon="10.664794721651525"><ele>109.0</ele><time>2026-04-25T08:40:50.037Z</time></trkpt><trkpt lat="44.5858018972" lon="10.664662157461573"><ele>109.0</ele><time>2026-04-25T08:40:51.037Z</time></trkpt><trkpt lat="44.58574821899345" lon="10.664516694429912"><ele>109.0</ele><time>2026-04-25T08:40:52.037Z</time></trkpt><trkpt lat="44.585691019451474" lon="10.664370898461087"><ele>109.25</ele><time>2026-04-25T08:40:53.037Z</time></trkpt><trkpt lat="44.58562245273594" lon="10.664234295580924"><ele>109.5</ele><time>2026-04-25T08:40:54.037Z</time></trkpt><trkpt lat="44.585546862688396" lon="10.664095109518435"><ele>109.75</ele><time>2026-04-25T08:40:55.037Z</time></trkpt><trkpt lat="44.58546994124786" lon="10.663956143505015"><ele>110.0</ele><time>2026-04-25T08:40:56.037Z</time></trkpt><trkpt lat="44.585384263496515" lon="10.663818895176222"><ele>110.0</ele><time>2026-04-25T08:40:57.037Z</time></trkpt><trkpt lat="44.58530244070426" lon="10.663671310308548"><ele>110.0</ele><time>2026-04-25T08:40:58.037Z</time></trkpt><trkpt lat="44.585213343511356" lon="10.66353591943471"><ele>110.0</ele><time>2026-04-25T08:40:59.037Z</time></trkpt><trkpt lat="44.58512978100693" lon="10.66340515638427"><ele>110.0</ele><time>2026-04-25T08:41:00.037Z</time></trkpt><trkpt lat="44.58507341019841" lon="10.663248060388048"><ele>111.0</ele><time>2026-04-25T08:41:01.037Z</time></trkpt><trkpt lat="44.5850049823602" lon="10.663115820697865"><ele>112.0</ele><time>2026-04-25T08:41:02.037Z</time></trkpt><trkpt lat="44.58492923105701" lon="10.66298980305152"><ele>113.0</ele><time>2026-04-25T08:41:03.037Z</time></trkpt><trkpt lat="44.584845340465414" lon="10.662863948181084"><ele>114.0</ele><time>2026-04-25T08:41:04.037Z</time></trkpt><trkpt lat="44.58476442607356" lon="10.662728727102056"><ele>114.5</ele><time>2026-04-25T08:41:05.037Z</time></trkpt><trkpt lat="44.584679227042734" lon="10.662600876076684"><ele>115.0</ele><time>2026-04-25T08:41:06.037Z</time></trkpt><trkpt lat="44.58459708596097" lon="10.66246647007592"><ele>115.5</ele><time>2026-04-25T08:41:07.037Z</time></trkpt><trkpt lat="44.58450689748987" lon="10.662351114588809"><ele>116.0</ele><time>2026-04-25T08:41:08.037Z</time></trkpt><trkpt lat="44.58439660962877" lon="10.66225900775687"><ele>116.0</ele><time>2026-04-25T08:41:09.037Z</time></trkpt><trkpt lat="44.584265259771435" lon="10.662192618438219"><ele>116.0</ele><time>2026-04-25T08:41:10.037Z</time></trkpt><trkpt lat="44.58413051101523" lon="10.662168996547067"><ele>116.0</ele><time>2026-04-25T08:41:11.037Z</time></trkpt><trkpt lat="44.58399864795956" lon="10.662155691570266"><ele>116.0</ele><time>2026-04-25T08:41:12.037Z</time></trkpt><trkpt lat="44.58387237810972" lon="10.662154729727689"><ele>116.0</ele><time>2026-04-25T08:41:13.037Z</time></trkpt><trkpt lat="44.58374445291289" lon="10.66214118107851"><ele>116.0</ele><time>2026-04-25T08:41:14.038Z</time></trkpt><trkpt lat="44.5836190299068" lon="10.662097663850043"><ele>116.0</ele><time>2026-04-25T08:41:15.038Z</time></trkpt><trkpt lat="44.58349887444154" lon="10.662033477206812"><ele>116.0</ele><time>2026-04-25T08:41:16.038Z</time></trkpt><trkpt lat="44.58338015703148" lon="10.661943555162258"><ele>115.5</ele><time>2026-04-25T08:41:17.038Z</time></trkpt><trkpt lat="44.583291572814844" lon="10.661799549797538"><ele>115.0</ele><time>2026-04-25T08:41:18.038Z</time></trkpt><trkpt lat="44.583186564292745" lon="10.661675425155664"><ele>114.5</ele><time>2026-04-25T08:41:19.036Z</time></trkpt><trkpt lat="44.58310369327783" lon="10.661519103100325"><ele>114.0</ele><time>2026-04-25T08:41:20.036Z</time></trkpt><trkpt lat="44.58303502230414" lon="10.661360503975793"><ele>114.0</ele><time>2026-04-25T08:41:21.036Z</time></trkpt><trkpt lat="44.58296619595657" lon="10.661219130671837"><ele>114.0</ele><time>2026-04-25T08:41:22.036Z</time></trkpt><trkpt lat="44.5828870742981" lon="10.661083102113592"><ele>114.0</ele><time>2026-04-25T08:41:23.036Z</time></trkpt><trkpt lat="44.58281544995446" lon="10.660941925570905"><ele>114.0</ele><time>2026-04-25T08:41:24.036Z</time></trkpt><trkpt lat="44.582740366406746" lon="10.660801289601087"><ele>114.25</ele><time>2026-04-25T08:41:25.036Z</time></trkpt><trkpt lat="44.5826627504215" lon="10.660661948231603"><ele>114.5</ele><time>2026-04-25T08:41:26.036Z</time></trkpt><trkpt lat="44.582582881397904" lon="10.660523819354449"><ele>114.75</ele><time>2026-04-25T08:41:27.036Z</time></trkpt><trkpt lat="44.582494179057754" lon="10.660388752214962"><ele>115.0</ele><time>2026-04-25T08:41:28.036Z</time></trkpt><trkpt lat="44.58240435010999" lon="10.660260198891615"><ele>118.0</ele><time>2026-04-25T08:41:29.036Z</time></trkpt><trkpt lat="44.582309613026545" lon="10.660145577277792"><ele>121.0</ele><time>2026-04-25T08:41:30.036Z</time></trkpt><trkpt lat="44.582222743847396" lon="10.660029614925449"><ele>124.0</ele><time>2026-04-25T08:41:31.036Z</time></trkpt><trkpt lat="44.58213703272176" lon="10.659915625621345"><ele>127.0</ele><time>2026-04-25T08:41:32.036Z</time></trkpt><trkpt lat="44.58204642964237" lon="10.659806312273634"><ele>125.75</ele><time>2026-04-25T08:41:33.036Z</time></trkpt><trkpt lat="44.58197137700044" lon="10.65966052578276"><ele>124.5</ele><time>2026-04-25T08:41:34.036Z</time></trkpt><trkpt lat="44.58187884905503" lon="10.659551340881558"><ele>123.25</ele><time>2026-04-25T08:41:35.036Z</time></trkpt><trkpt lat="44.58179107383299" lon="10.659438256045185"><ele>122.0</ele><time>2026-04-25T08:41:36.036Z</time></trkpt><trkpt lat="44.581704288000104" lon="10.659326245884936"><ele>122.0</ele><time>2026-04-25T08:41:37.036Z</time></trkpt><trkpt lat="44.58161456128649" lon="10.659210961267785"><ele>122.0</ele><time>2026-04-25T08:41:38.036Z</time></trkpt><trkpt lat="44.58152405557898" lon="10.659087233403097"><ele>122.0</ele><time>2026-04-25T08:41:39.036Z</time></trkpt><trkpt lat="44.58143190878045" lon="10.658957164141569"><ele>122.0</ele><time>2026-04-25T08:41:40.036Z</time></trkpt><trkpt lat="44.581343484179776" lon="10.658816312287088"><ele>122.0</ele><time>2026-04-25T08:41:41.036Z</time></trkpt><trkpt lat="44.58125728719248" lon="10.658676041185746"><ele>122.0</ele><time>2026-04-25T08:41:42.036Z</time></trkpt><trkpt lat="44.581177355795226" lon="10.658529951580258"><ele>122.0</ele><time>2026-04-25T08:41:43.036Z</time></trkpt><trkpt lat="44.58110232723758" lon="10.658383676113976"><ele>122.0</ele><time>2026-04-25T08:41:44.036Z</time></trkpt><trkpt lat="44.581044640979115" lon="10.6582226040749"><ele>121.25</ele><time>2026-04-25T08:41:45.036Z</time></trkpt><trkpt lat="44.58098354760527" lon="10.658066109960085"><ele>120.5</ele><time>2026-04-25T08:41:46.036Z</time></trkpt><trkpt lat="44.58092482956349" lon="10.657904780115711"><ele>119.75</ele><time>2026-04-25T08:41:47.036Z</time></trkpt><trkpt lat="44.5808612801276" lon="10.657746406065499"><ele>119.0</ele><time>2026-04-25T08:41:48.036Z</time></trkpt><trkpt lat="44.58080021326318" lon="10.65759191126975"><ele>121.5</ele><time>2026-04-25T08:41:49.036Z</time></trkpt><trkpt lat="44.58073237718836" lon="10.657437674720285"><ele>124.0</ele><time>2026-04-25T08:41:50.036Z</time></trkpt><trkpt lat="44.58069441421316" lon="10.657263610872562"><ele>126.5</ele><time>2026-04-25T08:41:51.036Z</time></trkpt><trkpt lat="44.58062917971533" lon="10.657106737440964"><ele>129.0</ele><time>2026-04-25T08:41:52.036Z</time></trkpt><trkpt lat="44.58056283633848" lon="10.656952984887166"><ele>128.0</ele><time>2026-04-25T08:41:53.036Z</time></trkpt><trkpt lat="44.58049206842168" lon="10.65680471608854"><ele>127.0</ele><time>2026-04-25T08:41:54.036Z</time></trkpt><trkpt lat="44.58041198461618" lon="10.656674099387217"><ele>126.0</ele><time>2026-04-25T08:41:55.036Z</time></trkpt><trkpt lat="44.580314192466105" lon="10.656563081923967"><ele>125.0</ele><time>2026-04-25T08:41:56.036Z</time></trkpt><trkpt lat="44.580213394570855" lon="10.656468080487027"><ele>125.0</ele><time>2026-04-25T08:41:57.036Z</time></trkpt><trkpt lat="44.58011137338442" lon="10.656384080162695"><ele>125.0</ele><time>2026-04-25T08:41:58.036Z</time></trkpt><trkpt lat="44.58000193124355" lon="10.656314932067659"><ele>125.0</ele><time>2026-04-25T08:41:59.036Z</time></trkpt><trkpt lat="44.57988096966632" lon="10.65626505790715"><ele>125.0</ele><time>2026-04-25T08:42:00.036Z</time></trkpt><trkpt lat="44.57975859233629" lon="10.65622223864744"><ele>125.0</ele><time>2026-04-25T08:42:01.036Z</time></trkpt><trkpt lat="44.57963893040993" lon="10.656171263978681"><ele>125.0</ele><time>2026-04-25T08:42:02.036Z</time></trkpt><trkpt lat="44.579523978219946" lon="10.656126306732977"><ele>125.0</ele><time>2026-04-25T08:42:03.036Z</time></trkpt><trkpt lat="44.57940853196015" lon="10.65607732243044"><ele>125.0</ele><time>2026-04-25T08:42:04.036Z</time></trkpt><trkpt lat="44.579290821082004" lon="10.656037273530785"><ele>125.25</ele><time>2026-04-25T08:42:05.036Z</time></trkpt><trkpt lat="44.57916906118039" lon="10.655993719282034"><ele>125.5</ele><time>2026-04-25T08:42:06.036Z</time></trkpt><trkpt lat="44.57904551543366" lon="10.655938669922026"><ele>125.75</ele><time>2026-04-25T08:42:07.036Z</time></trkpt><trkpt lat="44.57892168377853" lon="10.65588794306131"><ele>126.0</ele><time>2026-04-25T08:42:08.036Z</time></trkpt><trkpt lat="44.57879604663736" lon="10.655839227683998"><ele>125.5</ele><time>2026-04-25T08:42:09.036Z</time></trkpt><trkpt lat="44.578670010223874" lon="10.655793266623558"><ele>125.0</ele><time>2026-04-25T08:42:10.036Z</time></trkpt><trkpt lat="44.57855721064852" lon="10.655710626243739"><ele>124.5</ele><time>2026-04-25T08:42:11.036Z</time></trkpt><trkpt lat="44.57843757140526" lon="10.655653473747117"><ele>124.0</ele><time>2026-04-25T08:42:12.037Z</time></trkpt><trkpt lat="44.5783201326975" lon="10.655590420782806"><ele>124.0</ele><time>2026-04-25T08:42:13.037Z</time></trkpt><trkpt lat="44.578197241811786" lon="10.655526693409902"><ele>124.0</ele><time>2026-04-25T08:42:14.037Z</time></trkpt><trkpt lat="44.57808323902854" lon="10.655459099677019"><ele>124.0</ele><time>2026-04-25T08:42:15.037Z</time></trkpt><trkpt lat="44.577965461363036" lon="10.655379507881133"><ele>124.0</ele><time>2026-04-25T08:42:16.037Z</time></trkpt><trkpt lat="44.57784264948781" lon="10.655292254524104"><ele>125.25</ele><time>2026-04-25T08:42:17.037Z</time></trkpt><trkpt lat="44.57772397775764" lon="10.655208218581663"><ele>126.5</ele><time>2026-04-25T08:42:18.037Z</time></trkpt><trkpt lat="44.577609365989055" lon="10.6551221430388"><ele>127.75</ele><time>2026-04-25T08:42:19.037Z</time></trkpt><trkpt lat="44.57749789296513" lon="10.655038152372729"><ele>129.0</ele><time>2026-04-25T08:42:20.037Z</time></trkpt><trkpt lat="44.5773828390853" lon="10.654969284926958"><ele>129.0</ele><time>2026-04-25T08:42:21.037Z</time></trkpt><trkpt lat="44.57726667076868" lon="10.654914450022991"><ele>129.0</ele><time>2026-04-25T08:42:22.037Z</time></trkpt><trkpt lat="44.57715217106938" lon="10.65486066739959"><ele>129.0</ele><time>2026-04-25T08:42:23.037Z</time></trkpt><trkpt lat="44.5770334124621" lon="10.65481573698964"><ele>129.0</ele><time>2026-04-25T08:42:24.037Z</time></trkpt><trkpt lat="44.576910916918955" lon="10.654783824165644"><ele>128.5</ele><time>2026-04-25T08:42:25.037Z</time></trkpt><trkpt lat="44.57678266379671" lon="10.654738507074146"><ele>128.0</ele><time>2026-04-25T08:42:26.037Z</time></trkpt><trkpt lat="44.5766569868127" lon="10.654706870669676"><ele>127.5</ele><time>2026-04-25T08:42:27.037Z</time></trkpt><trkpt lat="44.57652852949373" lon="10.654677744732545"><ele>127.0</ele><time>2026-04-25T08:42:28.037Z</time></trkpt><trkpt lat="44.576403004342936" lon="10.654673832011056"><ele>127.0</ele><time>2026-04-25T08:42:29.037Z</time></trkpt><trkpt lat="44.576281695277096" lon="10.654697500714471"><ele>127.0</ele><time>2026-04-25T08:42:30.037Z</time></trkpt><trkpt lat="44.57615913975606" lon="10.654738617720934"><ele>127.0</ele><time>2026-04-25T08:42:31.037Z</time></trkpt><trkpt lat="44.57603729503314" lon="10.654807042097906"><ele>127.0</ele><time>2026-04-25T08:42:32.037Z</time></trkpt><trkpt lat="44.575926650278454" lon="10.65491366894661"><ele>127.75</ele><time>2026-04-25T08:42:33.037Z</time></trkpt><trkpt lat="44.57583193212388" lon="10.65504493747772"><ele>128.5</ele><time>2026-04-25T08:42:34.037Z</time></trkpt><trkpt lat="44.57574534573761" lon="10.65517095375884"><ele>129.25</ele><time>2026-04-25T08:42:35.037Z</time></trkpt><trkpt lat="44.57564681221241" lon="10.655274761056575"><ele>130.0</ele><time>2026-04-25T08:42:36.037Z</time></trkpt><trkpt lat="44.5755352757045" lon="10.655360472957563"><ele>130.25</ele><time>2026-04-25T08:42:37.037Z</time></trkpt><trkpt lat="44.57540827580166" lon="10.655360810367192"><ele>130.5</ele><time>2026-04-25T08:42:38.037Z</time></trkpt><trkpt lat="44.57528764406395" lon="10.655334076232045"><ele>130.75</ele><time>2026-04-25T08:42:39.037Z</time></trkpt><trkpt lat="44.57516873273353" lon="10.65527404602218"><ele>131.0</ele><time>2026-04-25T08:42:40.037Z</time></trkpt><trkpt lat="44.57503760536701" lon="10.655171224595732"><ele>131.0</ele><time>2026-04-25T08:42:41.037Z</time></trkpt><trkpt lat="44.574907566078004" lon="10.6550726209944"><ele>131.0</ele><time>2026-04-25T08:42:42.037Z</time></trkpt><trkpt lat="44.5747729187781" lon="10.654987745890544"><ele>131.0</ele><time>2026-04-25T08:42:43.037Z</time></trkpt><trkpt lat="44.57464744864387" lon="10.654881494874516"><ele>131.0</ele><time>2026-04-25T08:42:44.037Z</time></trkpt><trkpt lat="44.5745268556162" lon="10.654784592527637"><ele>131.0</ele><time>2026-04-25T08:42:45.037Z</time></trkpt><trkpt lat="44.574407501025945" lon="10.654694885619207"><ele>131.0</ele><time>2026-04-25T08:42:46.037Z</time></trkpt><trkpt lat="44.57429616823427" lon="10.654603038547068"><ele>131.0</ele><time>2026-04-25T08:42:47.037Z</time></trkpt><trkpt lat="44.57418217323284" lon="10.654512826270933"><ele>131.0</ele><time>2026-04-25T08:42:48.037Z</time></trkpt><trkpt lat="44.57406730672679" lon="10.654429609551098"><ele>131.0</ele><time>2026-04-25T08:42:49.037Z</time></trkpt><trkpt lat="44.57395410766218" lon="10.654344317815676"><ele>131.0</ele><time>2026-04-25T08:42:50.037Z</time></trkpt><trkpt lat="44.573841857426366" lon="10.654257701118723"><ele>131.0</ele><time>2026-04-25T08:42:51.037Z</time></trkpt><trkpt lat="44.57372570545382" lon="10.654170295373943"><ele>131.0</ele><time>2026-04-25T08:42:52.037Z</time></trkpt><trkpt lat="44.57361147107299" lon="10.654079639219235"><ele>129.5</ele><time>2026-04-25T08:42:53.037Z</time></trkpt><trkpt lat="44.57349710726819" lon="10.653989901269837"><ele>128.0</ele><time>2026-04-25T08:42:54.037Z</time></trkpt><trkpt lat="44.57337800948549" lon="10.653906836670329"><ele>126.5</ele><time>2026-04-25T08:42:55.037Z</time></trkpt><trkpt lat="44.57326623033468" lon="10.653818223751756"><ele>125.0</ele><time>2026-04-25T08:42:56.038Z</time></trkpt><trkpt lat="44.57315603361752" lon="10.65371179916646"><ele>125.0</ele><time>2026-04-25T08:42:57.038Z</time></trkpt><trkpt lat="44.573030049345064" lon="10.653646826670885"><ele>125.0</ele><time>2026-04-25T08:42:58.038Z</time></trkpt><trkpt lat="44.57290502897258" lon="10.653591594078812"><ele>125.0</ele><time>2026-04-25T08:42:59.038Z</time></trkpt><trkpt lat="44.57278055942286" lon="10.653553152206932"><ele>125.0</ele><time>2026-04-25T08:43:00.038Z</time></trkpt><trkpt lat="44.572653534288854" lon="10.653511830301799"><ele>126.5</ele><time>2026-04-25T08:43:01.038Z</time></trkpt><trkpt lat="44.57252726835082" lon="10.653478915426197"><ele>128.0</ele><time>2026-04-25T08:43:02.038Z</time></trkpt><trkpt lat="44.57239598907249" lon="10.653454816872078"><ele>129.5</ele><time>2026-04-25T08:43:03.038Z</time></trkpt><trkpt lat="44.57226464087929" lon="10.653452627347638"><ele>131.0</ele><time>2026-04-25T08:43:04.038Z</time></trkpt><trkpt lat="44.57213044271206" lon="10.653443664483236"><ele>131.25</ele><time>2026-04-25T08:43:05.038Z</time></trkpt><trkpt lat="44.57199947708666" lon="10.653444825760518"><ele>131.5</ele><time>2026-04-25T08:43:06.038Z</time></trkpt><trkpt lat="44.57186710280591" lon="10.653449944490687"><ele>131.75</ele><time>2026-04-25T08:43:07.038Z</time></trkpt><trkpt lat="44.57173596539263" lon="10.653446232940254"><ele>132.0</ele><time>2026-04-25T08:43:08.038Z</time></trkpt><trkpt lat="44.571601792599616" lon="10.653457419222557"><ele>132.0</ele><time>2026-04-25T08:43:09.038Z</time></trkpt><trkpt lat="44.57146703301555" lon="10.653462932665423"><ele>132.0</ele><time>2026-04-25T08:43:10.038Z</time></trkpt><trkpt lat="44.57133124159851" lon="10.653466950181516"><ele>132.0</ele><time>2026-04-25T08:43:11.038Z</time></trkpt><trkpt lat="44.571200550287394" lon="10.653475957918488"><ele>132.0</ele><time>2026-04-25T08:43:12.038Z</time></trkpt><trkpt lat="44.57107413180297" lon="10.653480356406922"><ele>132.5</ele><time>2026-04-25T08:43:13.038Z</time></trkpt><trkpt lat="44.57094724495476" lon="10.653488803470358"><ele>133.0</ele><time>2026-04-25T08:43:14.038Z</time></trkpt><trkpt lat="44.57082172627711" lon="10.653497756184581"><ele>133.5</ele><time>2026-04-25T08:43:15.038Z</time></trkpt><trkpt lat="44.570690687156066" lon="10.653497536071356"><ele>134.0</ele><time>2026-04-25T08:43:16.038Z</time></trkpt><trkpt lat="44.57055061805748" lon="10.653470878172325"><ele>134.0</ele><time>2026-04-25T08:43:17.038Z</time></trkpt><trkpt lat="44.57041468777368" lon="10.653436681924202"><ele>134.0</ele><time>2026-04-25T08:43:18.038Z</time></trkpt><trkpt lat="44.57027736200394" lon="10.653396611412193"><ele>134.0</ele><time>2026-04-25T08:43:19.038Z</time></trkpt><trkpt lat="44.57015486143986" lon="10.653316695217006"><ele>134.0</ele><time>2026-04-25T08:43:20.038Z</time></trkpt><trkpt lat="44.57003550348615" lon="10.653270043021255"><ele>134.0</ele><time>2026-04-25T08:43:21.038Z</time></trkpt><trkpt lat="44.56991579038893" lon="10.653230876314463"><ele>134.0</ele><time>2026-04-25T08:43:22.038Z</time></trkpt><trkpt lat="44.5697969249944" lon="10.653190049439065"><ele>134.0</ele><time>2026-04-25T08:43:23.038Z</time></trkpt><trkpt lat="44.569679008694166" lon="10.65313916072849"><ele>134.0</ele><time>2026-04-25T08:43:24.038Z</time></trkpt><trkpt lat="44.56956049507352" lon="10.65309830720304"><ele>134.0</ele><time>2026-04-25T08:43:25.038Z</time></trkpt><trkpt lat="44.56943975998578" lon="10.65306353372502"><ele>134.0</ele><time>2026-04-25T08:43:26.037Z</time></trkpt><trkpt lat="44.56932087417482" lon="10.653026794642797"><ele>134.0</ele><time>2026-04-25T08:43:27.037Z</time></trkpt><trkpt lat="44.56920930900046" lon="10.652984662697481"><ele>134.0</ele><time>2026-04-25T08:43:28.038Z</time></trkpt><trkpt lat="44.56909256751761" lon="10.652942957728637"><ele>134.0</ele><time>2026-04-25T08:43:29.037Z</time></trkpt><trkpt lat="44.568979671802865" lon="10.652901294977998"><ele>134.0</ele><time>2026-04-25T08:43:30.037Z</time></trkpt><trkpt lat="44.56888095748059" lon="10.652815846070778"><ele>134.0</ele><time>2026-04-25T08:43:31.038Z</time></trkpt><trkpt lat="44.56879421899374" lon="10.65271630808206"><ele>134.0</ele><time>2026-04-25T08:43:32.037Z</time></trkpt><trkpt lat="44.56869622256308" lon="10.65261022601668"><ele>135.0</ele><time>2026-04-25T08:43:33.037Z</time></trkpt><trkpt lat="44.568613815905294" lon="10.652465618666504"><ele>136.0</ele><time>2026-04-25T08:43:34.037Z</time></trkpt><trkpt lat="44.5685238962227" lon="10.65232748982579"><ele>137.0</ele><time>2026-04-25T08:43:35.038Z</time></trkpt><trkpt lat="44.56843292481807" lon="10.652196719169778"><ele>138.0</ele><time>2026-04-25T08:43:36.038Z</time></trkpt><trkpt lat="44.568333594793046" lon="10.65210505755186"><ele>138.0</ele><time>2026-04-25T08:43:37.038Z</time></trkpt><trkpt lat="44.56821327939654" lon="10.652049576195637"><ele>138.0</ele><time>2026-04-25T08:43:38.038Z</time></trkpt><trkpt lat="44.568084625154725" lon="10.65202031772945"><ele>138.0</ele><time>2026-04-25T08:43:39.038Z</time></trkpt><trkpt lat="44.56795914438051" lon="10.652013681017749"><ele>138.0</ele><time>2026-04-25T08:43:40.038Z</time></trkpt><trkpt lat="44.567831929488264" lon="10.6520080959547"><ele>137.75</ele><time>2026-04-25T08:43:41.038Z</time></trkpt><trkpt lat="44.56770939566324" lon="10.651961869156846"><ele>137.5</ele><time>2026-04-25T08:43:42.038Z</time></trkpt><trkpt lat="44.5675847303131" lon="10.651940488359811"><ele>137.25</ele><time>2026-04-25T08:43:43.038Z</time></trkpt><trkpt lat="44.567460029892224" lon="10.651903430986955"><ele>137.0</ele><time>2026-04-25T08:43:44.038Z</time></trkpt><trkpt lat="44.56733275943241" lon="10.651852338392814"><ele>139.75</ele><time>2026-04-25T08:43:45.038Z</time></trkpt><trkpt lat="44.56720639211693" lon="10.651792678164695"><ele>142.5</ele><time>2026-04-25T08:43:46.038Z</time></trkpt><trkpt lat="44.56708093495442" lon="10.651734438702139"><ele>145.25</ele><time>2026-04-25T08:43:47.038Z</time></trkpt><trkpt lat="44.566960015776566" lon="10.651674639201833"><ele>148.0</ele><time>2026-04-25T08:43:48.038Z</time></trkpt><trkpt lat="44.56683833242967" lon="10.651629931956881"><ele>148.0</ele><time>2026-04-25T08:43:49.038Z</time></trkpt><trkpt lat="44.56672368156998" lon="10.651540671159717"><ele>148.0</ele><time>2026-04-25T08:43:50.038Z</time></trkpt><trkpt lat="44.56660213150039" lon="10.651486498887232"><ele>148.0</ele><time>2026-04-25T08:43:51.038Z</time></trkpt><trkpt lat="44.5664799017134" lon="10.651439832699443"><ele>148.0</ele><time>2026-04-25T08:43:52.038Z</time></trkpt><trkpt lat="44.56635992592503" lon="10.651382425134727"><ele>148.0</ele><time>2026-04-25T08:43:53.038Z</time></trkpt><trkpt lat="44.56623882202152" lon="10.651331461379373"><ele>148.0</ele><time>2026-04-25T08:43:54.038Z</time></trkpt><trkpt lat="44.56611896536512" lon="10.651269195496491"><ele>148.0</ele><time>2026-04-25T08:43:55.038Z</time></trkpt><trkpt lat="44.56599538156478" lon="10.651216115522196"><ele>148.0</ele><time>2026-04-25T08:43:56.038Z</time></trkpt><trkpt lat="44.565870874677984" lon="10.651163932280005"><ele>148.25</ele><time>2026-04-25T08:43:57.038Z</time></trkpt><trkpt lat="44.565748942189664" lon="10.651112153269722"><ele>148.5</ele><time>2026-04-25T08:43:58.038Z</time></trkpt><trkpt lat="44.56562218403306" lon="10.651062497745475"><ele>148.75</ele><time>2026-04-25T08:43:59.038Z</time></trkpt><trkpt lat="44.56549220086199" lon="10.651023477116038"><ele>149.0</ele><time>2026-04-25T08:44:00.038Z</time></trkpt><trkpt lat="44.565355172120384" lon="10.650988583142908"><ele>149.0</ele><time>2026-04-25T08:44:01.038Z</time></trkpt><trkpt lat="44.5652169138778" lon="10.650963068778564"><ele>149.0</ele><time>2026-04-25T08:44:02.038Z</time></trkpt><trkpt lat="44.56507975208478" lon="10.650943234006736"><ele>149.0</ele><time>2026-04-25T08:44:03.038Z</time></trkpt><trkpt lat="44.564954911125994" lon="10.650919995014428"><ele>149.0</ele><time>2026-04-25T08:44:04.038Z</time></trkpt><trkpt lat="44.5648239115166" lon="10.650889134169402"><ele>149.0</ele><time>2026-04-25T08:44:05.038Z</time></trkpt><trkpt lat="44.564693828231924" lon="10.650867321791408"><ele>149.0</ele><time>2026-04-25T08:44:06.039Z</time></trkpt><trkpt lat="44.56456762163141" lon="10.650841579569805"><ele>149.0</ele><time>2026-04-25T08:44:07.039Z</time></trkpt><trkpt lat="44.56443320570072" lon="10.650816362103237"><ele>149.0</ele><time>2026-04-25T08:44:08.039Z</time></trkpt><trkpt lat="44.564297568196096" lon="10.650809085363528"><ele>149.0</ele><time>2026-04-25T08:44:09.039Z</time></trkpt><trkpt lat="44.56415891140013" lon="10.650819097885885"><ele>149.0</ele><time>2026-04-25T08:44:10.039Z</time></trkpt><trkpt lat="44.564024934114975" lon="10.650864050183113"><ele>149.0</ele><time>2026-04-25T08:44:11.039Z</time></trkpt><trkpt lat="44.563895333078015" lon="10.650912857929992"><ele>149.0</ele><time>2026-04-25T08:44:12.039Z</time></trkpt><trkpt lat="44.56377420484866" lon="10.650952596694431"><ele>150.5</ele><time>2026-04-25T08:44:13.039Z</time></trkpt><trkpt lat="44.56365099277737" lon="10.650999554604503"><ele>152.0</ele><time>2026-04-25T08:44:14.039Z</time></trkpt><trkpt lat="44.5635301365336" lon="10.651040628278361"><ele>153.5</ele><time>2026-04-25T08:44:15.039Z</time></trkpt><trkpt lat="44.56341041952348" lon="10.651088719804086"><ele>155.0</ele><time>2026-04-25T08:44:16.039Z</time></trkpt><trkpt lat="44.563289298351215" lon="10.651142280453213"><ele>151.0</ele><time>2026-04-25T08:44:17.039Z</time></trkpt><trkpt lat="44.56316046502534" lon="10.651188558956497"><ele>147.0</ele><time>2026-04-25T08:44:18.039Z</time></trkpt><trkpt lat="44.56303170917771" lon="10.651232000297387"><ele>143.0</ele><time>2026-04-25T08:44:19.039Z</time></trkpt><trkpt lat="44.56290188868287" lon="10.651247426343698"><ele>139.0</ele><time>2026-04-25T08:44:20.039Z</time></trkpt><trkpt lat="44.562767314039796" lon="10.651240308692191"><ele>139.0</ele><time>2026-04-25T08:44:21.039Z</time></trkpt><trkpt lat="44.562633781119324" lon="10.651243013158561"><ele>139.0</ele><time>2026-04-25T08:44:22.039Z</time></trkpt><trkpt lat="44.56250293688225" lon="10.651255064809078"><ele>139.0</ele><time>2026-04-25T08:44:23.039Z</time></trkpt><trkpt lat="44.56237284089813" lon="10.651249243092051"><ele>139.0</ele><time>2026-04-25T08:44:24.039Z</time></trkpt><trkpt lat="44.56224433563071" lon="10.651223741920495"><ele>139.0</ele><time>2026-04-25T08:44:25.039Z</time></trkpt><trkpt lat="44.56211905592318" lon="10.651180213622288"><ele>139.0</ele><time>2026-04-25T08:44:26.039Z</time></trkpt><trkpt lat="44.56199480201541" lon="10.651105016316873"><ele>139.0</ele><time>2026-04-25T08:44:27.039Z</time></trkpt><trkpt lat="44.56186839685382" lon="10.65103832110825"><ele>139.0</ele><time>2026-04-25T08:44:28.039Z</time></trkpt><trkpt lat="44.56173850746271" lon="10.65099711054202"><ele>141.75</ele><time>2026-04-25T08:44:29.039Z</time></trkpt><trkpt lat="44.56160490441857" lon="10.65097126507711"><ele>144.5</ele><time>2026-04-25T08:44:30.039Z</time></trkpt><trkpt lat="44.56147753233213" lon="10.65097146657319"><ele>147.25</ele><time>2026-04-25T08:44:31.039Z</time></trkpt><trkpt lat="44.56134719426819" lon="10.65099321018016"><ele>150.0</ele><time>2026-04-25T08:44:32.039Z</time></trkpt><trkpt lat="44.56121931365851" lon="10.651006695346613"><ele>150.0</ele><time>2026-04-25T08:44:33.039Z</time></trkpt><trkpt lat="44.561087512949655" lon="10.651016764746029"><ele>150.0</ele><time>2026-04-25T08:44:34.039Z</time></trkpt><trkpt lat="44.56095577743414" lon="10.651035700383973"><ele>150.0</ele><time>2026-04-25T08:44:35.039Z</time></trkpt><trkpt lat="44.56082284998677" lon="10.651054084280489"><ele>150.0</ele><time>2026-04-25T08:44:36.039Z</time></trkpt><trkpt lat="44.56069832857745" lon="10.651052887842534"><ele>150.0</ele><time>2026-04-25T08:44:37.039Z</time></trkpt><trkpt lat="44.56057716187344" lon="10.651066769690193"><ele>150.0</ele><time>2026-04-25T08:44:38.039Z</time></trkpt><trkpt lat="44.56045931712894" lon="10.651064248816965"><ele>150.0</ele><time>2026-04-25T08:44:39.039Z</time></trkpt><trkpt lat="44.56032838059376" lon="10.651058829824919"><ele>150.0</ele><time>2026-04-25T08:44:40.039Z</time></trkpt><trkpt lat="44.5601982494126" lon="10.651043479988074"><ele>149.5</ele><time>2026-04-25T08:44:41.039Z</time></trkpt><trkpt lat="44.56006505448251" lon="10.651009949363074"><ele>149.0</ele><time>2026-04-25T08:44:42.039Z</time></trkpt><trkpt lat="44.55993450397026" lon="10.650984069163872"><ele>148.5</ele><time>2026-04-25T08:44:43.039Z</time></trkpt><trkpt lat="44.55981789055338" lon="10.65095488913235"><ele>148.0</ele><time>2026-04-25T08:44:44.039Z</time></trkpt><trkpt lat="44.5597109470213" lon="10.65092549149881"><ele>148.0</ele><time>2026-04-25T08:44:45.039Z</time></trkpt><trkpt lat="44.55959907206653" lon="10.650908079961109"><ele>148.0</ele><time>2026-04-25T08:44:46.039Z</time></trkpt><trkpt lat="44.5594906876978" lon="10.650884915742752"><ele>148.0</ele><time>2026-04-25T08:44:47.039Z</time></trkpt><trkpt lat="44.55938705544031" lon="10.650849693364806"><ele>148.0</ele><time>2026-04-25T08:44:48.039Z</time></trkpt><trkpt lat="44.559286036748325" lon="10.650810859187713"><ele>148.0</ele><time>2026-04-25T08:44:49.039Z</time></trkpt><trkpt lat="44.55919856994629" lon="10.65071906700876"><ele>148.20000000000002</ele><time>2026-04-25T08:44:50.04Z</time></trkpt><trkpt lat="44.559118191999495" lon="10.650624915346567"><ele>148.4</ele><time>2026-04-25T08:44:51.04Z</time></trkpt><trkpt lat="44.559040547165694" lon="10.650530116980086"><ele>148.60000000000002</ele><time>2026-04-25T08:44:52.04Z</time></trkpt><trkpt lat="44.5589888193267" lon="10.650420871394473"><ele>148.8</ele><time>2026-04-25T08:44:53.04Z</time></trkpt><trkpt lat="44.5589535887788" lon="10.650294235754824"><ele>149.0</ele><time>2026-04-25T08:44:54.04Z</time></trkpt><trkpt lat="44.5589208939508" lon="10.650181878688311"><ele>149.0</ele><time>2026-04-25T08:44:55.04Z</time></trkpt><trkpt lat="44.5588875395437" lon="10.650077294177748"><ele>149.0</ele><time>2026-04-25T08:44:56.04Z</time></trkpt><trkpt lat="44.55885525913469" lon="10.64996898774766"><ele>149.0</ele><time>2026-04-25T08:44:57.04Z</time></trkpt><trkpt lat="44.55883394444933" lon="10.649863393371207"><ele>149.0</ele><time>2026-04-25T08:44:58.04Z</time></trkpt><trkpt lat="44.55881489260471" lon="10.649759816144185"><ele>149.0</ele><time>2026-04-25T08:44:59.04Z</time></trkpt><trkpt lat="44.558784419425336" lon="10.649653208365578"><ele>149.0</ele><time>2026-04-25T08:45:00.04Z</time></trkpt><trkpt lat="44.55873984157709" lon="10.649558224086341"><ele>149.0</ele><time>2026-04-25T08:45:01.04Z</time></trkpt><trkpt lat="44.55869013272795" lon="10.64946392212659"><ele>149.0</ele><time>2026-04-25T08:45:02.04Z</time></trkpt><trkpt lat="44.55863424399279" lon="10.649374031485683"><ele>149.0</ele><time>2026-04-25T08:45:03.04Z</time></trkpt><trkpt lat="44.55858523146712" lon="10.649301703914743"><ele>149.0</ele><time>2026-04-25T08:45:04.04Z</time></trkpt><trkpt lat="44.55853815992495" lon="10.649232637475885"><ele>149.0</ele><time>2026-04-25T08:45:05.04Z</time></trkpt><trkpt lat="44.558483484985466" lon="10.649160713432833"><ele>149.0</ele><time>2026-04-25T08:45:06.04Z</time></trkpt><trkpt lat="44.558435976465965" lon="10.649098768052104"><ele>149.0</ele><time>2026-04-25T08:45:07.04Z</time></trkpt><trkpt lat="44.55836172880183" lon="10.648992167667494"><ele>149.0</ele><time>2026-04-25T08:45:09.04Z</time></trkpt><trkpt lat="44.55830352083938" lon="10.648917061521805"><ele>149.0</ele><time>2026-04-25T08:45:12.04Z</time></trkpt><trkpt lat="44.55824157460975" lon="10.648872702812136"><ele>149.0</ele><time>2026-04-25T08:45:23.04Z</time></trkpt><trkpt lat="44.558208622233415" lon="10.648796182520705"><ele>149.0</ele><time>2026-04-25T08:45:30.04Z</time></trkpt></trkseg><trkseg><trkpt lat="44.5580100650131" lon="10.648533280661995"><ele>153.0</ele><time>2026-04-25T09:23:01Z</time></trkpt><trkpt lat="44.557992569286725" lon="10.64844380460567"><ele>153.0</ele><time>2026-04-25T09:23:02Z</time></trkpt><trkpt lat="44.5579640645227" lon="10.648293203548741"><ele>153.0</ele><time>2026-04-25T09:23:04Z</time></trkpt><trkpt lat="44.55791594011091" lon="10.648147075845673"><ele>153.0</ele><time>2026-04-25T09:23:06Z</time></trkpt><trkpt lat="44.557889717556925" lon="10.648059613693423"><ele>153.0</ele><time>2026-04-25T09:23:07Z</time></trkpt><trkpt lat="44.55786119646935" lon="10.647962470409757"><ele>153.0</ele><time>2026-04-25T09:23:08Z</time></trkpt><trkpt lat="44.55783561353487" lon="10.647857308285605"><ele>152.0</ele><time>2026-04-25T09:23:09Z</time></trkpt><trkpt lat="44.55780257488422" lon="10.647748547280218"><ele>151.0</ele><time>2026-04-25T09:23:10Z</time></trkpt><trkpt lat="44.55776126234094" lon="10.647640099329811"><ele>150.0</ele><time>2026-04-25T09:23:11Z</time></trkpt><trkpt lat="44.557723706609664" lon="10.647532092169708"><ele>149.0</ele><time>2026-04-25T09:23:12Z</time></trkpt><trkpt lat="44.55769122170818" lon="10.647426457900183"><ele>148.0</ele><time>2026-04-25T09:23:13Z</time></trkpt><trkpt lat="44.55765482548941" lon="10.647314171941233"><ele>147.0</ele><time>2026-04-25T09:23:14Z</time></trkpt><trkpt lat="44.55761822624602" lon="10.647213601341454"><ele>147.0</ele><time>2026-04-25T09:23:15Z</time></trkpt><trkpt lat="44.557580559366464" lon="10.647124448522533"><ele>147.0</ele><time>2026-04-25T09:23:16Z</time></trkpt><trkpt lat="44.5575388268769" lon="10.647036030698727"><ele>147.0</ele><time>2026-04-25T09:23:17Z</time></trkpt><trkpt lat="44.55749188568497" lon="10.64695095511627"><ele>147.0</ele><time>2026-04-25T09:23:18Z</time></trkpt><trkpt lat="44.557440491916395" lon="10.64685878494842"><ele>147.0</ele><time>2026-04-25T09:23:19Z</time></trkpt><trkpt lat="44.557381597693386" lon="10.64675747732347"><ele>147.0</ele><time>2026-04-25T09:23:20Z</time></trkpt><trkpt lat="44.557321507190785" lon="10.646653196444927"><ele>147.2</ele><time>2026-04-25T09:23:21Z</time></trkpt><trkpt lat="44.55726263368215" lon="10.646546772759251"><ele>147.39999999999998</ele><time>2026-04-25T09:23:22Z</time></trkpt><trkpt lat="44.55720004360446" lon="10.646439547965537"><ele>147.60000000000002</ele><time>2026-04-25T09:23:23Z</time></trkpt><trkpt lat="44.55713425350152" lon="10.646326523879186"><ele>147.8</ele><time>2026-04-25T09:23:24Z</time></trkpt><trkpt lat="44.55706357557545" lon="10.646210396666442"><ele>148.0</ele><time>2026-04-25T09:23:25Z</time></trkpt><trkpt lat="44.55698943933876" lon="10.646092467072219"><ele>146.75</ele><time>2026-04-25T09:23:26Z</time></trkpt><trkpt lat="44.55691938836622" lon="10.645972357227198"><ele>145.5</ele><time>2026-04-25T09:23:27Z</time></trkpt><trkpt lat="44.556854364848085" lon="10.645848927733379"><ele>144.25</ele><time>2026-04-25T09:23:28Z</time></trkpt><trkpt lat="44.55679041608462" lon="10.645717198564856"><ele>143.0</ele><time>2026-04-25T09:23:29Z</time></trkpt><trkpt lat="44.55674864720413" lon="10.645554799648128"><ele>143.0</ele><time>2026-04-25T09:23:30Z</time></trkpt><trkpt lat="44.556751376264465" lon="10.645371163967019"><ele>143.0</ele><time>2026-04-25T09:23:31Z</time></trkpt><trkpt lat="44.55672836087754" lon="10.645200212575602"><ele>143.0</ele><time>2026-04-25T09:23:32Z</time></trkpt><trkpt lat="44.55673442238382" lon="10.645021107735507"><ele>143.0</ele><time>2026-04-25T09:23:33Z</time></trkpt><trkpt lat="44.556704318598584" lon="10.644886825994393"><ele>143.8</ele><time>2026-04-25T09:23:34Z</time></trkpt><trkpt lat="44.55666321967273" lon="10.644743983888253"><ele>144.60000000000002</ele><time>2026-04-25T09:23:35Z</time></trkpt><trkpt lat="44.55663985330503" lon="10.644590899088168"><ele>145.39999999999998</ele><time>2026-04-25T09:23:36Z</time></trkpt><trkpt lat="44.55662105832261" lon="10.644441772809381"><ele>146.2</ele><time>2026-04-25T09:23:37Z</time></trkpt><trkpt lat="44.55659407044187" lon="10.644290341434985"><ele>147.0</ele><time>2026-04-25T09:23:38Z</time></trkpt><trkpt lat="44.55657033932148" lon="10.644131810944904"><ele>148.25</ele><time>2026-04-25T09:23:39Z</time></trkpt><trkpt lat="44.556555808698604" lon="10.643969109202642"><ele>149.5</ele><time>2026-04-25T09:23:40Z</time></trkpt><trkpt lat="44.5565466717473" lon="10.643816031261068"><ele>150.75</ele><time>2026-04-25T09:23:41Z</time></trkpt><trkpt lat="44.55653496569159" lon="10.643649718927888"><ele>152.0</ele><time>2026-04-25T09:23:42Z</time></trkpt><trkpt lat="44.5565238919904" lon="10.643485582900112"><ele>152.75</ele><time>2026-04-25T09:23:43Z</time></trkpt><trkpt lat="44.556498299946504" lon="10.64333727345142"><ele>153.5</ele><time>2026-04-25T09:23:44Z</time></trkpt><trkpt lat="44.55646919111196" lon="10.643185378134387"><ele>154.25</ele><time>2026-04-25T09:23:45Z</time></trkpt><trkpt lat="44.5564377238584" lon="10.643014766875714"><ele>155.0</ele><time>2026-04-25T09:23:46Z</time></trkpt><trkpt lat="44.5564132706711" lon="10.642848218007815"><ele>155.2</ele><time>2026-04-25T09:23:47Z</time></trkpt><trkpt lat="44.55639243806409" lon="10.642691395700869"><ele>155.4</ele><time>2026-04-25T09:23:48Z</time></trkpt><trkpt lat="44.556370075732765" lon="10.642539218345316"><ele>155.6</ele><time>2026-04-25T09:23:49Z</time></trkpt><trkpt lat="44.556369378646735" lon="10.642382764932945"><ele>155.8</ele><time>2026-04-25T09:23:50Z</time></trkpt><trkpt lat="44.5563716933828" lon="10.642225277559106"><ele>156.0</ele><time>2026-04-25T09:23:51Z</time></trkpt><trkpt lat="44.55639334780616" lon="10.642067910508981"><ele>155.75</ele><time>2026-04-25T09:23:52Z</time></trkpt><trkpt lat="44.55641973792203" lon="10.641909571203083"><ele>155.5</ele><time>2026-04-25T09:23:53Z</time></trkpt><trkpt lat="44.556486559525894" lon="10.641756800373411"><ele>155.25</ele><time>2026-04-25T09:23:54Z</time></trkpt><trkpt lat="44.55656994131674" lon="10.641618997139252"><ele>155.0</ele><time>2026-04-25T09:23:55Z</time></trkpt><trkpt lat="44.5566404312734" lon="10.641470510288261"><ele>155.0</ele><time>2026-04-25T09:23:56Z</time></trkpt><trkpt lat="44.556708113270055" lon="10.641319826596948"><ele>155.0</ele><time>2026-04-25T09:23:57Z</time></trkpt><trkpt lat="44.55677468627935" lon="10.641169155917567"><ele>155.0</ele><time>2026-04-25T09:23:58Z</time></trkpt><trkpt lat="44.55685685086029" lon="10.64103709094354"><ele>155.0</ele><time>2026-04-25T09:23:59Z</time></trkpt><trkpt lat="44.55691697682086" lon="10.640898595239767"><ele>153.75</ele><time>2026-04-25T09:24:00Z</time></trkpt><trkpt lat="44.55697809398553" lon="10.640759807743251"><ele>152.5</ele><time>2026-04-25T09:24:01Z</time></trkpt><trkpt lat="44.55704044970297" lon="10.64062193209566"><ele>151.25</ele><time>2026-04-25T09:24:02Z</time></trkpt><trkpt lat="44.55710327387076" lon="10.640483020461733"><ele>150.0</ele><time>2026-04-25T09:24:03Z</time></trkpt><trkpt lat="44.557169026066" lon="10.640337190855883"><ele>151.5</ele><time>2026-04-25T09:24:04Z</time></trkpt><trkpt lat="44.557231824364855" lon="10.640191638175613"><ele>153.0</ele><time>2026-04-25T09:24:05Z</time></trkpt><trkpt lat="44.557280315472156" lon="10.640034690512753"><ele>154.5</ele><time>2026-04-25T09:24:06Z</time></trkpt><trkpt lat="44.55733749267972" lon="10.63988808448249"><ele>156.0</ele><time>2026-04-25T09:24:07Z</time></trkpt><trkpt lat="44.55737753420814" lon="10.639727515337079"><ele>156.0</ele><time>2026-04-25T09:24:08Z</time></trkpt><trkpt lat="44.55740475938265" lon="10.639562582555898"><ele>156.0</ele><time>2026-04-25T09:24:09Z</time></trkpt><trkpt lat="44.557431711430446" lon="10.639402584287776"><ele>156.0</ele><time>2026-04-25T09:24:10Z</time></trkpt><trkpt lat="44.55745328339416" lon="10.639237109744764"><ele>156.0</ele><time>2026-04-25T09:24:11Z</time></trkpt><trkpt lat="44.55748462163942" lon="10.6390810938001"><ele>156.0</ele><time>2026-04-25T09:24:12Z</time></trkpt><trkpt lat="44.55750587579951" lon="10.638912953515296"><ele>156.0</ele><time>2026-04-25T09:24:13Z</time></trkpt><trkpt lat="44.55753245032978" lon="10.638738386565375"><ele>156.0</ele><time>2026-04-25T09:24:14Z</time></trkpt><trkpt lat="44.55756073287266" lon="10.638572470806892"><ele>156.0</ele><time>2026-04-25T09:24:15Z</time></trkpt><trkpt lat="44.557576106333194" lon="10.638396238938322"><ele>155.75</ele><time>2026-04-25T09:24:16Z</time></trkpt><trkpt lat="44.55756263783306" lon="10.638213677756616"><ele>155.5</ele><time>2026-04-25T09:24:17Z</time></trkpt><trkpt lat="44.55752032046827" lon="10.638043224165193"><ele>155.25</ele><time>2026-04-25T09:24:18Z</time></trkpt><trkpt lat="44.55746739042597" lon="10.637885452843323"><ele>155.0</ele><time>2026-04-25T09:24:19Z</time></trkpt><trkpt lat="44.557407909854774" lon="10.637739297405874"><ele>155.75</ele><time>2026-04-25T09:24:20Z</time></trkpt><trkpt lat="44.55735276738204" lon="10.637587242221523"><ele>156.5</ele><time>2026-04-25T09:24:21Z</time></trkpt><trkpt lat="44.55730025987687" lon="10.637423721508407"><ele>157.25</ele><time>2026-04-25T09:24:22Z</time></trkpt><trkpt lat="44.55725226974662" lon="10.637267632027562"><ele>158.0</ele><time>2026-04-25T09:24:23Z</time></trkpt><trkpt lat="44.55720424690452" lon="10.637115136997867"><ele>158.25</ele><time>2026-04-25T09:24:24Z</time></trkpt><trkpt lat="44.55714609177335" lon="10.63695364796751"><ele>158.5</ele><time>2026-04-25T09:24:25Z</time></trkpt><trkpt lat="44.557089336935626" lon="10.636785652685262"><ele>158.75</ele><time>2026-04-25T09:24:26Z</time></trkpt><trkpt lat="44.557059771229405" lon="10.636617372324611"><ele>159.0</ele><time>2026-04-25T09:24:27Z</time></trkpt><trkpt lat="44.55700859622692" lon="10.636450725735516"><ele>159.25</ele><time>2026-04-25T09:24:28Z</time></trkpt><trkpt lat="44.55695661863336" lon="10.636282880453951"><ele>159.5</ele><time>2026-04-25T09:24:29Z</time></trkpt><trkpt lat="44.55690807739736" lon="10.636113862921265"><ele>159.75</ele><time>2026-04-25T09:24:30Z</time></trkpt><trkpt lat="44.55685819461737" lon="10.635954221340482"><ele>160.0</ele><time>2026-04-25T09:24:31Z</time></trkpt><trkpt lat="44.55681151783545" lon="10.635789677599176"><ele>160.0</ele><time>2026-04-25T09:24:32Z</time></trkpt><trkpt lat="44.55678325218471" lon="10.63561857254235"><ele>160.0</ele><time>2026-04-25T09:24:33Z</time></trkpt><trkpt lat="44.556754419979626" lon="10.635448541616558"><ele>160.0</ele><time>2026-04-25T09:24:34Z</time></trkpt><trkpt lat="44.55672425276695" lon="10.635273786447788"><ele>160.0</ele><time>2026-04-25T09:24:35Z</time></trkpt><trkpt lat="44.55669534528411" lon="10.635102875042358"><ele>159.75</ele><time>2026-04-25T09:24:36Z</time></trkpt><trkpt lat="44.55666577713892" lon="10.634932961599956"><ele>159.5</ele><time>2026-04-25T09:24:37Z</time></trkpt><trkpt lat="44.55663514583235" lon="10.634755689037801"><ele>159.25</ele><time>2026-04-25T09:24:38Z</time></trkpt><trkpt lat="44.55660230491375" lon="10.634582574272386"><ele>159.0</ele><time>2026-04-25T09:24:39Z</time></trkpt><trkpt lat="44.55657111019227" lon="10.634408180006401"><ele>159.0</ele><time>2026-04-25T09:24:40Z</time></trkpt><trkpt lat="44.556541814870506" lon="10.634237570069873"><ele>159.0</ele><time>2026-04-25T09:24:41Z</time></trkpt><trkpt lat="44.556507352983665" lon="10.634080866424796"><ele>159.0</ele><time>2026-04-25T09:24:42Z</time></trkpt><trkpt lat="44.55647735614971" lon="10.63391297711861"><ele>159.0</ele><time>2026-04-25T09:24:43.001Z</time></trkpt><trkpt lat="44.556448106456266" lon="10.633744661656639"><ele>159.5</ele><time>2026-04-25T09:24:44.001Z</time></trkpt><trkpt lat="44.55641606798305" lon="10.633574398565173"><ele>160.0</ele><time>2026-04-25T09:24:45.001Z</time></trkpt><trkpt lat="44.55638008085926" lon="10.633404853114532"><ele>160.5</ele><time>2026-04-25T09:24:46.001Z</time></trkpt><trkpt lat="44.55635286021333" lon="10.633224715505113"><ele>161.0</ele><time>2026-04-25T09:24:47.001Z</time></trkpt><trkpt lat="44.55631194227027" lon="10.633048080732252"><ele>161.0</ele><time>2026-04-25T09:24:48.001Z</time></trkpt><trkpt lat="44.556275968743805" lon="10.632874520959398"><ele>161.0</ele><time>2026-04-25T09:24:49.001Z</time></trkpt><trkpt lat="44.55624746462134" lon="10.632689503361386"><ele>161.0</ele><time>2026-04-25T09:24:50.001Z</time></trkpt><trkpt lat="44.55621182330681" lon="10.632522646702855"><ele>161.0</ele><time>2026-04-25T09:24:51.001Z</time></trkpt><trkpt lat="44.55618101887764" lon="10.63235294357423"><ele>161.0</ele><time>2026-04-25T09:24:52.001Z</time></trkpt><trkpt lat="44.556152690731594" lon="10.632178842946448"><ele>161.0</ele><time>2026-04-25T09:24:53.001Z</time></trkpt><trkpt lat="44.556119939273884" lon="10.631998754225526"><ele>161.0</ele><time>2026-04-25T09:24:54.001Z</time></trkpt><trkpt lat="44.55608893640652" lon="10.631827002285542"><ele>161.0</ele><time>2026-04-25T09:24:55.001Z</time></trkpt><trkpt lat="44.55607107890859" lon="10.63165196652927"><ele>160.75</ele><time>2026-04-25T09:24:56.001Z</time></trkpt><trkpt lat="44.556027845123594" lon="10.631490374412639"><ele>160.5</ele><time>2026-04-25T09:24:57.001Z</time></trkpt><trkpt lat="44.55600380241101" lon="10.631325302077975"><ele>160.25</ele><time>2026-04-25T09:24:58.001Z</time></trkpt><trkpt lat="44.55597547687406" lon="10.631153497946634"><ele>160.0</ele><time>2026-04-25T09:24:59.001Z</time></trkpt><trkpt lat="44.55594344166462" lon="10.630984636730942"><ele>161.0</ele><time>2026-04-25T09:25:00.001Z</time></trkpt><trkpt lat="44.55591063046119" lon="10.630818035096665"><ele>162.0</ele><time>2026-04-25T09:25:01.001Z</time></trkpt><trkpt lat="44.55588431112559" lon="10.630658667258572"><ele>163.0</ele><time>2026-04-25T09:25:02.001Z</time></trkpt><trkpt lat="44.55586142872748" lon="10.630499248610692"><ele>164.0</ele><time>2026-04-25T09:25:03.001Z</time></trkpt><trkpt lat="44.555841092781264" lon="10.630338846327794"><ele>165.25</ele><time>2026-04-25T09:25:04.001Z</time></trkpt><trkpt lat="44.555824974758174" lon="10.63017266520848"><ele>166.5</ele><time>2026-04-25T09:25:05.001Z</time></trkpt><trkpt lat="44.55581538089613" lon="10.63000440162742"><ele>167.75</ele><time>2026-04-25T09:25:06.001Z</time></trkpt><trkpt lat="44.55580775877964" lon="10.629833934355092"><ele>169.0</ele><time>2026-04-25T09:25:07.001Z</time></trkpt><trkpt lat="44.555800682725774" lon="10.629665077268625"><ele>169.0</ele><time>2026-04-25T09:25:08.001Z</time></trkpt><trkpt lat="44.55579095259498" lon="10.629498891491435"><ele>169.0</ele><time>2026-04-25T09:25:09.001Z</time></trkpt><trkpt lat="44.55578356839501" lon="10.629338828209635"><ele>169.0</ele><time>2026-04-25T09:25:10.001Z</time></trkpt><trkpt lat="44.5557778669814" lon="10.629184197813021"><ele>169.0</ele><time>2026-04-25T09:25:11.001Z</time></trkpt><trkpt lat="44.555768627465405" lon="10.629026031398373"><ele>169.0</ele><time>2026-04-25T09:25:12.001Z</time></trkpt><trkpt lat="44.55576543514897" lon="10.628857708053953"><ele>169.0</ele><time>2026-04-25T09:25:13.001Z</time></trkpt><trkpt lat="44.55575684183424" lon="10.628678274119581"><ele>169.0</ele><time>2026-04-25T09:25:14.001Z</time></trkpt><trkpt lat="44.55574443638567" lon="10.62848664881915"><ele>169.0</ele><time>2026-04-25T09:25:15.001Z</time></trkpt><trkpt lat="44.55572707007851" lon="10.628280980760733"><ele>169.0</ele><time>2026-04-25T09:25:16.001Z</time></trkpt><trkpt lat="44.55571949442647" lon="10.628066346280214"><ele>169.0</ele><time>2026-04-25T09:25:17.001Z</time></trkpt><trkpt lat="44.55572668639863" lon="10.627847616545727"><ele>169.0</ele><time>2026-04-25T09:25:18.001Z</time></trkpt><trkpt lat="44.555714224386634" lon="10.627629093198394"><ele>169.0</ele><time>2026-04-25T09:25:19.001Z</time></trkpt><trkpt lat="44.55570112606853" lon="10.627423652414686"><ele>169.0</ele><time>2026-04-25T09:25:20.001Z</time></trkpt><trkpt lat="44.55569251455947" lon="10.627239009461606"><ele>169.0</ele><time>2026-04-25T09:25:21.001Z</time></trkpt><trkpt lat="44.555683773533715" lon="10.627068635278308"><ele>169.0</ele><time>2026-04-25T09:25:22.001Z</time></trkpt><trkpt lat="44.55567516159306" lon="10.62690117272856"><ele>169.5</ele><time>2026-04-25T09:25:23.001Z</time></trkpt><trkpt lat="44.55567083483338" lon="10.62673142866778"><ele>170.0</ele><time>2026-04-25T09:25:24.001Z</time></trkpt><trkpt lat="44.55566214095486" lon="10.62656739237715"><ele>170.5</ele><time>2026-04-25T09:25:25.001Z</time></trkpt><trkpt lat="44.55565354164113" lon="10.626395677921757"><ele>171.0</ele><time>2026-04-25T09:25:26.001Z</time></trkpt><trkpt lat="44.55564059397761" lon="10.626218377913498"><ele>172.0</ele><time>2026-04-25T09:25:27.001Z</time></trkpt><trkpt lat="44.5556312902269" lon="10.626045251198345"><ele>173.0</ele><time>2026-04-25T09:25:28.001Z</time></trkpt><trkpt lat="44.55561367243182" lon="10.625876492231535"><ele>174.0</ele><time>2026-04-25T09:25:29.001Z</time></trkpt><trkpt lat="44.55557763736522" lon="10.625704009810924"><ele>175.0</ele><time>2026-04-25T09:25:30.001Z</time></trkpt><trkpt lat="44.555528711267584" lon="10.625538626067998"><ele>175.0</ele><time>2026-04-25T09:25:31.001Z</time></trkpt><trkpt lat="44.555470798611836" lon="10.62537647721228"><ele>175.0</ele><time>2026-04-25T09:25:32.001Z</time></trkpt><trkpt lat="44.555412282627856" lon="10.625215662456556"><ele>175.0</ele><time>2026-04-25T09:25:33.001Z</time></trkpt><trkpt lat="44.55535371532751" lon="10.625058717987441"><ele>175.0</ele><time>2026-04-25T09:25:34.001Z</time></trkpt><trkpt lat="44.555296827762554" lon="10.6249040163713"><ele>174.75</ele><time>2026-04-25T09:25:35.001Z</time></trkpt><trkpt lat="44.555240449554134" lon="10.624748735617029"><ele>174.5</ele><time>2026-04-25T09:25:36.001Z</time></trkpt><trkpt lat="44.555183810462545" lon="10.624593406509325"><ele>174.25</ele><time>2026-04-25T09:25:37.001Z</time></trkpt><trkpt lat="44.55512532517049" lon="10.624434637877094"><ele>174.0</ele><time>2026-04-25T09:25:38.001Z</time></trkpt><trkpt lat="44.555069405339445" lon="10.624276968671074"><ele>174.5</ele><time>2026-04-25T09:25:39.001Z</time></trkpt><trkpt lat="44.55501216164237" lon="10.62411734291521"><ele>175.0</ele><time>2026-04-25T09:25:40.001Z</time></trkpt><trkpt lat="44.554962228918306" lon="10.623956613202504"><ele>175.5</ele><time>2026-04-25T09:25:41.001Z</time></trkpt><trkpt lat="44.55490491920841" lon="10.623808010178172"><ele>176.0</ele><time>2026-04-25T09:25:42.001Z</time></trkpt><trkpt lat="44.55488060255734" lon="10.623643454020769"><ele>177.25</ele><time>2026-04-25T09:25:43.001Z</time></trkpt><trkpt lat="44.55484305177143" lon="10.623489268974334"><ele>178.5</ele><time>2026-04-25T09:25:44.001Z</time></trkpt><trkpt lat="44.55480526581258" lon="10.623334118343818"><ele>179.75</ele><time>2026-04-25T09:25:45.001Z</time></trkpt><trkpt lat="44.554757330741694" lon="10.62319447359268"><ele>181.0</ele><time>2026-04-25T09:25:46.001Z</time></trkpt><trkpt lat="44.554723323859044" lon="10.62303938809751"><ele>181.0</ele><time>2026-04-25T09:25:47.001Z</time></trkpt><trkpt lat="44.554697544053845" lon="10.62289180854897"><ele>181.0</ele><time>2026-04-25T09:25:48.001Z</time></trkpt><trkpt lat="44.554664674719994" lon="10.62274318291756"><ele>181.0</ele><time>2026-04-25T09:25:49.001Z</time></trkpt><trkpt lat="44.55465254183236" lon="10.622580451676269"><ele>181.0</ele><time>2026-04-25T09:25:50.001Z</time></trkpt><trkpt lat="44.5546588882472" lon="10.622407622636203"><ele>181.5</ele><time>2026-04-25T09:25:51.001Z</time></trkpt><trkpt lat="44.554661696886946" lon="10.622223925771422"><ele>182.0</ele><time>2026-04-25T09:25:52.001Z</time></trkpt><trkpt lat="44.55470012068567" lon="10.622045477690724"><ele>182.5</ele><time>2026-04-25T09:25:53.001Z</time></trkpt><trkpt lat="44.55472449285734" lon="10.621869151621974"><ele>183.0</ele><time>2026-04-25T09:25:54.001Z</time></trkpt><trkpt lat="44.554751509650295" lon="10.621698697704248"><ele>183.0</ele><time>2026-04-25T09:25:55.001Z</time></trkpt><trkpt lat="44.55476840810619" lon="10.621526641868035"><ele>183.0</ele><time>2026-04-25T09:25:56.001Z</time></trkpt><trkpt lat="44.5547823758327" lon="10.621347271010913"><ele>183.0</ele><time>2026-04-25T09:25:57.001Z</time></trkpt><trkpt lat="44.554772622871305" lon="10.621168953051685"><ele>183.0</ele><time>2026-04-25T09:25:58.001Z</time></trkpt><trkpt lat="44.55473741641203" lon="10.620988918304839"><ele>183.25</ele><time>2026-04-25T09:25:59.001Z</time></trkpt><trkpt lat="44.55467955130483" lon="10.620813403839747"><ele>183.5</ele><time>2026-04-25T09:26:00.001Z</time></trkpt><trkpt lat="44.55462021048138" lon="10.620640663731333"><ele>183.75</ele><time>2026-04-25T09:26:01.001Z</time></trkpt><trkpt lat="44.554568402958125" lon="10.620468059130713"><ele>184.0</ele><time>2026-04-25T09:26:02.001Z</time></trkpt><trkpt lat="44.55452225158971" lon="10.620307322066092"><ele>183.0</ele><time>2026-04-25T09:26:03.001Z</time></trkpt><trkpt lat="44.554474883749286" lon="10.620137283450811"><ele>182.0</ele><time>2026-04-25T09:26:04.001Z</time></trkpt><trkpt lat="44.55445028742632" lon="10.619955221510674"><ele>181.0</ele><time>2026-04-25T09:26:05.001Z</time></trkpt><trkpt lat="44.55442265831502" lon="10.619771599869553"><ele>180.0</ele><time>2026-04-25T09:26:06.001Z</time></trkpt><trkpt lat="44.55440952606507" lon="10.619584257944044"><ele>180.5</ele><time>2026-04-25T09:26:07.001Z</time></trkpt><trkpt lat="44.55438651745497" lon="10.619404109223241"><ele>181.0</ele><time>2026-04-25T09:26:08.001Z</time></trkpt><trkpt lat="44.55435931964556" lon="10.61924131609204"><ele>181.5</ele><time>2026-04-25T09:26:09.001Z</time></trkpt><trkpt lat="44.554321993645345" lon="10.619073231914687"><ele>182.0</ele><time>2026-04-25T09:26:10.001Z</time></trkpt><trkpt lat="44.554268581104786" lon="10.618905339798934"><ele>182.0</ele><time>2026-04-25T09:26:11.001Z</time></trkpt><trkpt lat="44.55420561968019" lon="10.618744492072413"><ele>182.0</ele><time>2026-04-25T09:26:12.001Z</time></trkpt><trkpt lat="44.554127750490096" lon="10.618587528850306"><ele>182.0</ele><time>2026-04-25T09:26:13.001Z</time></trkpt><trkpt lat="44.55405596100557" lon="10.618434937906578"><ele>182.0</ele><time>2026-04-25T09:26:14.001Z</time></trkpt><trkpt lat="44.55398075041511" lon="10.618292000175146"><ele>182.25</ele><time>2026-04-25T09:26:15.001Z</time></trkpt><trkpt lat="44.55391691360406" lon="10.618155529306854"><ele>182.5</ele><time>2026-04-25T09:26:16.001Z</time></trkpt><trkpt lat="44.55384952505092" lon="10.618012600456368"><ele>182.75</ele><time>2026-04-25T09:26:17.001Z</time></trkpt><trkpt lat="44.55378083608259" lon="10.61787647727949"><ele>183.0</ele><time>2026-04-25T09:26:18.001Z</time></trkpt><trkpt lat="44.55371400579967" lon="10.617744646426583"><ele>182.75</ele><time>2026-04-25T09:26:19.001Z</time></trkpt><trkpt lat="44.55365207147406" lon="10.617609773707823"><ele>182.5</ele><time>2026-04-25T09:26:20.001Z</time></trkpt><trkpt lat="44.553598145112666" lon="10.617464969248024"><ele>182.25</ele><time>2026-04-25T09:26:21.001Z</time></trkpt><trkpt lat="44.55356853268994" lon="10.617294256578123"><ele>182.0</ele><time>2026-04-25T09:26:22.001Z</time></trkpt><trkpt lat="44.55354144433452" lon="10.61712577342381"><ele>182.25</ele><time>2026-04-25T09:26:23.001Z</time></trkpt><trkpt lat="44.553526981959855" lon="10.616945968162897"><ele>182.5</ele><time>2026-04-25T09:26:24.001Z</time></trkpt><trkpt lat="44.553521345674625" lon="10.616750748213182"><ele>182.75</ele><time>2026-04-25T09:26:25.001Z</time></trkpt><trkpt lat="44.55351706311552" lon="10.616551908964263"><ele>183.0</ele><time>2026-04-25T09:26:26.001Z</time></trkpt><trkpt lat="44.5535133564796" lon="10.616363753512262"><ele>183.0</ele><time>2026-04-25T09:26:27.001Z</time></trkpt><trkpt lat="44.55350983288013" lon="10.616194566580955"><ele>183.0</ele><time>2026-04-25T09:26:28.001Z</time></trkpt><trkpt lat="44.55350403601411" lon="10.616029733280948"><ele>183.0</ele><time>2026-04-25T09:26:29.001Z</time></trkpt><trkpt lat="44.553500092552994" lon="10.615862126783773"><ele>183.0</ele><time>2026-04-25T09:26:30.001Z</time></trkpt><trkpt lat="44.553496972926496" lon="10.615694858678483"><ele>183.0</ele><time>2026-04-25T09:26:31.001Z</time></trkpt><trkpt lat="44.55349381393348" lon="10.61552189108838"><ele>183.0</ele><time>2026-04-25T09:26:32.001Z</time></trkpt><trkpt lat="44.55349377116212" lon="10.61535170604106"><ele>183.0</ele><time>2026-04-25T09:26:33.001Z</time></trkpt><trkpt lat="44.553498770838644" lon="10.615180914819398"><ele>183.0</ele><time>2026-04-25T09:26:34.001Z</time></trkpt><trkpt lat="44.55351867083626" lon="10.61501352688927"><ele>183.75</ele><time>2026-04-25T09:26:35.001Z</time></trkpt><trkpt lat="44.55356606436853" lon="10.614851224862493"><ele>184.5</ele><time>2026-04-25T09:26:36.001Z</time></trkpt><trkpt lat="44.553608656546906" lon="10.614685446553462"><ele>185.25</ele><time>2026-04-25T09:26:37.001Z</time></trkpt><trkpt lat="44.55364911735075" lon="10.614525623799144"><ele>186.0</ele><time>2026-04-25T09:26:38.001Z</time></trkpt><trkpt lat="44.55368714030416" lon="10.614353147944414"><ele>186.5</ele><time>2026-04-25T09:26:39.001Z</time></trkpt><trkpt lat="44.55371466729569" lon="10.614175334537872"><ele>187.0</ele><time>2026-04-25T09:26:40.001Z</time></trkpt><trkpt lat="44.553731242077475" lon="10.61398315530616"><ele>187.5</ele><time>2026-04-25T09:26:41.001Z</time></trkpt><trkpt lat="44.553713094189895" lon="10.61381223806245"><ele>188.0</ele><time>2026-04-25T09:26:42.001Z</time></trkpt><trkpt lat="44.553656206837026" lon="10.613663073492065"><ele>189.0</ele><time>2026-04-25T09:26:43.001Z</time></trkpt><trkpt lat="44.55356971975656" lon="10.613527010552103"><ele>190.0</ele><time>2026-04-25T09:26:44.001Z</time></trkpt><trkpt lat="44.55347247032458" lon="10.613418724111195"><ele>191.0</ele><time>2026-04-25T09:26:45.001Z</time></trkpt><trkpt lat="44.55337626053205" lon="10.613326065392002"><ele>192.0</ele><time>2026-04-25T09:26:46.001Z</time></trkpt><trkpt lat="44.55328118042949" lon="10.613230678258079"><ele>192.0</ele><time>2026-04-25T09:26:47.001Z</time></trkpt><trkpt lat="44.55319356381112" lon="10.613128775871264"><ele>192.0</ele><time>2026-04-25T09:26:48.001Z</time></trkpt><trkpt lat="44.553102379035366" lon="10.61302383509147"><ele>192.0</ele><time>2026-04-25T09:26:49.001Z</time></trkpt><trkpt lat="44.553021932792916" lon="10.612915900700362"><ele>192.0</ele><time>2026-04-25T09:26:50.001Z</time></trkpt><trkpt lat="44.552943904771645" lon="10.612801912374985"><ele>192.25</ele><time>2026-04-25T09:26:51.001Z</time></trkpt><trkpt lat="44.55286501251336" lon="10.612685445290412"><ele>192.5</ele><time>2026-04-25T09:26:52.001Z</time></trkpt><trkpt lat="44.552790906610745" lon="10.612565142342559"><ele>192.75</ele><time>2026-04-25T09:26:53.001Z</time></trkpt><trkpt lat="44.552722892214796" lon="10.612438122633863"><ele>193.0</ele><time>2026-04-25T09:26:54.001Z</time></trkpt><trkpt lat="44.55269186254842" lon="10.61228797002372"><ele>193.0</ele><time>2026-04-25T09:26:55.001Z</time></trkpt><trkpt lat="44.5526649515353" lon="10.612151342802536"><ele>193.0</ele><time>2026-04-25T09:26:56.001Z</time></trkpt><trkpt lat="44.552664464784534" lon="10.612007767393385"><ele>193.0</ele><time>2026-04-25T09:26:57.001Z</time></trkpt><trkpt lat="44.55267736763316" lon="10.61186938997533"><ele>193.0</ele><time>2026-04-25T09:26:58.001Z</time></trkpt><trkpt lat="44.552687239690165" lon="10.61172321508881"><ele>193.0</ele><time>2026-04-25T09:26:59.001Z</time></trkpt><trkpt lat="44.55271914279304" lon="10.611591734079214"><ele>192.83333333333331</ele><time>2026-04-25T09:27:00.001Z</time></trkpt><trkpt lat="44.552748809969934" lon="10.611470019553309"><ele>192.66666666666666</ele><time>2026-04-25T09:27:01.001Z</time></trkpt><trkpt lat="44.552775761802856" lon="10.611360317876628"><ele>192.5</ele><time>2026-04-25T09:27:02.001Z</time></trkpt><trkpt lat="44.552807101877264" lon="10.611258086510805"><ele>192.33333333333331</ele><time>2026-04-25T09:27:03.001Z</time></trkpt><trkpt lat="44.55284805894084" lon="10.611156126966089"><ele>192.16666666666666</ele><time>2026-04-25T09:27:04.001Z</time></trkpt><trkpt lat="44.55290061539168" lon="10.611049009089557"><ele>192.0</ele><time>2026-04-25T09:27:05.001Z</time></trkpt><trkpt lat="44.5529607291916" lon="10.61093046982212"><ele>192.5</ele><time>2026-04-25T09:27:06.001Z</time></trkpt><trkpt lat="44.55302343015076" lon="10.610794616956305"><ele>193.0</ele><time>2026-04-25T09:27:07.001Z</time></trkpt><trkpt lat="44.55309109641574" lon="10.610664683444575"><ele>193.5</ele><time>2026-04-25T09:27:08.001Z</time></trkpt><trkpt lat="44.55315191248007" lon="10.610530664343635"><ele>194.0</ele><time>2026-04-25T09:27:09.001Z</time></trkpt><trkpt lat="44.553218867802954" lon="10.610383770499013"><ele>195.25</ele><time>2026-04-25T09:27:10.001Z</time></trkpt><trkpt lat="44.55329489524932" lon="10.61023352666818"><ele>196.5</ele><time>2026-04-25T09:27:11.001Z</time></trkpt><trkpt lat="44.55336069868825" lon="10.610080930450987"><ele>197.75</ele><time>2026-04-25T09:27:12.001Z</time></trkpt><trkpt lat="44.55344006510954" lon="10.609948122751556"><ele>199.0</ele><time>2026-04-25T09:27:13.002Z</time></trkpt><trkpt lat="44.55349610037547" lon="10.609825161636918"><ele>199.0</ele><time>2026-04-25T09:27:14.002Z</time></trkpt><trkpt lat="44.55354791264372" lon="10.609709698844444"><ele>199.0</ele><time>2026-04-25T09:27:15.002Z</time></trkpt><trkpt lat="44.55359745682976" lon="10.60959579099087"><ele>199.0</ele><time>2026-04-25T09:27:16.002Z</time></trkpt><trkpt lat="44.55364520968136" lon="10.609486001671938"><ele>199.0</ele><time>2026-04-25T09:27:17.002Z</time></trkpt><trkpt lat="44.553689539948834" lon="10.609378568851897"><ele>199.0</ele><time>2026-04-25T09:27:18.002Z</time></trkpt><trkpt lat="44.55372850945878" lon="10.60927377509814"><ele>201.33333333333331</ele><time>2026-04-25T09:27:19.002Z</time></trkpt><trkpt lat="44.55377423995164" lon="10.609176221351628"><ele>203.66666666666666</ele><time>2026-04-25T09:27:20.002Z</time></trkpt><trkpt lat="44.553827985097755" lon="10.609096397714554"><ele>206.0</ele><time>2026-04-25T09:27:21.002Z</time></trkpt><trkpt lat="44.55389025793053" lon="10.609018297021846"><ele>208.33333333333331</ele><time>2026-04-25T09:27:22.002Z</time></trkpt><trkpt lat="44.55396119017427" lon="10.608960435671587"><ele>210.66666666666666</ele><time>2026-04-25T09:27:23.002Z</time></trkpt><trkpt lat="44.55404509543267" lon="10.608903231944106"><ele>213.0</ele><time>2026-04-25T09:27:24.002Z</time></trkpt><trkpt lat="44.55412258022698" lon="10.6088496803249"><ele>213.0</ele><time>2026-04-25T09:27:25.002Z</time></trkpt><trkpt lat="44.55419084357053" lon="10.608783650053212"><ele>213.0</ele><time>2026-04-25T09:27:26.002Z</time></trkpt><trkpt lat="44.55424528719078" lon="10.608684143157175"><ele>213.0</ele><time>2026-04-25T09:27:27.002Z</time></trkpt><trkpt lat="44.55428775589884" lon="10.608587493100076"><ele>213.0</ele><time>2026-04-25T09:27:28.002Z</time></trkpt><trkpt lat="44.55430564747702" lon="10.608478614868666"><ele>213.0</ele><time>2026-04-25T09:27:29.002Z</time></trkpt><trkpt lat="44.55431969648519" lon="10.608358723607411"><ele>213.0</ele><time>2026-04-25T09:27:30.002Z</time></trkpt><trkpt lat="44.55432690452045" lon="10.608233550503488"><ele>212.8</ele><time>2026-04-25T09:27:31.002Z</time></trkpt><trkpt lat="44.55433059482307" lon="10.608104262429793"><ele>212.60000000000002</ele><time>2026-04-25T09:27:32.002Z</time></trkpt><trkpt lat="44.55433754533114" lon="10.60796957367423"><ele>212.39999999999998</ele><time>2026-04-25T09:27:33.002Z</time></trkpt><trkpt lat="44.55434349967001" lon="10.607829850363522"><ele>212.2</ele><time>2026-04-25T09:27:34.002Z</time></trkpt><trkpt lat="44.55435382479325" lon="10.60768500615844"><ele>212.0</ele><time>2026-04-25T09:27:35.002Z</time></trkpt><trkpt lat="44.55437118374059" lon="10.607531467141163"><ele>211.5</ele><time>2026-04-25T09:27:36.002Z</time></trkpt><trkpt lat="44.55438349347616" lon="10.607369784273198"><ele>211.0</ele><time>2026-04-25T09:27:37.002Z</time></trkpt><trkpt lat="44.55440015535047" lon="10.607208214985354"><ele>210.5</ele><time>2026-04-25T09:27:38.002Z</time></trkpt><trkpt lat="44.5544276642289" lon="10.607049907118162"><ele>210.0</ele><time>2026-04-25T09:27:39.002Z</time></trkpt><trkpt lat="44.554461450718904" lon="10.606894867481252"><ele>210.0</ele><time>2026-04-25T09:27:40.002Z</time></trkpt><trkpt lat="44.55450264796554" lon="10.606738362119431"><ele>210.0</ele><time>2026-04-25T09:27:41.002Z</time></trkpt><trkpt lat="44.554532423739104" lon="10.606572244264642"><ele>210.0</ele><time>2026-04-25T09:27:42.002Z</time></trkpt><trkpt lat="44.554558858674106" lon="10.60640161342153"><ele>210.0</ele><time>2026-04-25T09:27:43.002Z</time></trkpt><trkpt lat="44.55458619881483" lon="10.606225095741037"><ele>213.0</ele><time>2026-04-25T09:27:44.002Z</time></trkpt><trkpt lat="44.554606031181414" lon="10.606048219279186"><ele>216.0</ele><time>2026-04-25T09:27:45.002Z</time></trkpt><trkpt lat="44.55462086941993" lon="10.605874398670784"><ele>219.0</ele><time>2026-04-25T09:27:46.002Z</time></trkpt><trkpt lat="44.55464788286362" lon="10.605706768603545"><ele>222.0</ele><time>2026-04-25T09:27:47.002Z</time></trkpt><trkpt lat="44.55467508250655" lon="10.605529908686947"><ele>222.0</ele><time>2026-04-25T09:27:48.002Z</time></trkpt><trkpt lat="44.55472954695638" lon="10.605377762032669"><ele>222.0</ele><time>2026-04-25T09:27:49.002Z</time></trkpt><trkpt lat="44.55476213203973" lon="10.605202529054338"><ele>222.0</ele><time>2026-04-25T09:27:50.002Z</time></trkpt><trkpt lat="44.55483034091159" lon="10.605041133860418"><ele>222.0</ele><time>2026-04-25T09:27:51.002Z</time></trkpt><trkpt lat="44.55488184588346" lon="10.604867555227768"><ele>220.5</ele><time>2026-04-25T09:27:52.002Z</time></trkpt><trkpt lat="44.55493476471947" lon="10.60470805394379"><ele>219.0</ele><time>2026-04-25T09:27:53.002Z</time></trkpt><trkpt lat="44.554982586624156" lon="10.60454112925815"><ele>217.5</ele><time>2026-04-25T09:27:54.002Z</time></trkpt><trkpt lat="44.5550322525741" lon="10.604367890722045"><ele>216.0</ele><time>2026-04-25T09:27:55.002Z</time></trkpt><trkpt lat="44.55507790236081" lon="10.604197273487676"><ele>214.5</ele><time>2026-04-25T09:27:56.002Z</time></trkpt><trkpt lat="44.555122399894614" lon="10.604033161983871"><ele>213.0</ele><time>2026-04-25T09:27:57.002Z</time></trkpt><trkpt lat="44.555169268320206" lon="10.603872627371375"><ele>211.5</ele><time>2026-04-25T09:27:58.002Z</time></trkpt><trkpt lat="44.55521592390534" lon="10.603711174806561"><ele>210.0</ele><time>2026-04-25T09:27:59.002Z</time></trkpt><trkpt lat="44.55526145516159" lon="10.603549304319854"><ele>209.25</ele><time>2026-04-25T09:28:00.002Z</time></trkpt><trkpt lat="44.55530808201108" lon="10.603381614013504"><ele>208.5</ele><time>2026-04-25T09:28:01.002Z</time></trkpt><trkpt lat="44.55535182726104" lon="10.603206356966146"><ele>207.75</ele><time>2026-04-25T09:28:02.002Z</time></trkpt><trkpt lat="44.55539694829164" lon="10.603030879846335"><ele>207.0</ele><time>2026-04-25T09:28:03.002Z</time></trkpt><trkpt lat="44.55544088158231" lon="10.602863661987312"><ele>209.75</ele><time>2026-04-25T09:28:04.002Z</time></trkpt><trkpt lat="44.55550499018979" lon="10.602712211584738"><ele>212.5</ele><time>2026-04-25T09:28:05.002Z</time></trkpt><trkpt lat="44.55554667686836" lon="10.602550233010493"><ele>215.25</ele><time>2026-04-25T09:28:06.002Z</time></trkpt><trkpt lat="44.55559042398487" lon="10.602384947612475"><ele>218.0</ele><time>2026-04-25T09:28:07.002Z</time></trkpt><trkpt lat="44.555629020980945" lon="10.602218426664178"><ele>218.0</ele><time>2026-04-25T09:28:08.002Z</time></trkpt><trkpt lat="44.5556446820232" lon="10.602043150892422"><ele>218.0</ele><time>2026-04-25T09:28:09.002Z</time></trkpt><trkpt lat="44.555646842328436" lon="10.601863314734999"><ele>218.0</ele><time>2026-04-25T09:28:10.002Z</time></trkpt><trkpt lat="44.55563659786551" lon="10.601682435504838"><ele>218.0</ele><time>2026-04-25T09:28:11.002Z</time></trkpt><trkpt lat="44.55561202078873" lon="10.601519093733167"><ele>218.0</ele><time>2026-04-25T09:28:12.002Z</time></trkpt><trkpt lat="44.55556777321371" lon="10.601356306820357"><ele>218.0</ele><time>2026-04-25T09:28:13.002Z</time></trkpt><trkpt lat="44.55551493189372" lon="10.6012155625934"><ele>218.0</ele><time>2026-04-25T09:28:14.002Z</time></trkpt><trkpt lat="44.55544617745569" lon="10.601099251459631"><ele>218.0</ele><time>2026-04-25T09:28:15.002Z</time></trkpt><trkpt lat="44.5553910718303" lon="10.60099639729774"><ele>218.0</ele><time>2026-04-25T09:28:16.002Z</time></trkpt><trkpt lat="44.555353336623696" lon="10.600869588798384"><ele>218.0</ele><time>2026-04-25T09:28:17.002Z</time></trkpt><trkpt lat="44.555369647651624" lon="10.600724229455997"><ele>218.0</ele><time>2026-04-25T09:28:18.002Z</time></trkpt><trkpt lat="44.55538692722667" lon="10.600572160798496"><ele>218.0</ele><time>2026-04-25T09:28:19.002Z</time></trkpt><trkpt lat="44.55541623673538" lon="10.600426545101886"><ele>218.0</ele><time>2026-04-25T09:28:20.002Z</time></trkpt><trkpt lat="44.55544219341598" lon="10.600268345944672"><ele>218.0</ele><time>2026-04-25T09:28:21.002Z</time></trkpt><trkpt lat="44.55548949639987" lon="10.60013252646403"><ele>219.2</ele><time>2026-04-25T09:28:22.002Z</time></trkpt><trkpt lat="44.55554608586555" lon="10.600013054068759"><ele>220.4</ele><time>2026-04-25T09:28:23.002Z</time></trkpt><trkpt lat="44.55559774802592" lon="10.599896950634726"><ele>221.59999999999997</ele><time>2026-04-25T09:28:24.002Z</time></trkpt><trkpt lat="44.5556538263717" lon="10.599780918981075"><ele>222.79999999999998</ele><time>2026-04-25T09:28:25.002Z</time></trkpt><trkpt lat="44.55569955149568" lon="10.599677952745816"><ele>224.0</ele><time>2026-04-25T09:28:26.002Z</time></trkpt><trkpt lat="44.555737170914774" lon="10.599567520766062"><ele>223.2</ele><time>2026-04-25T09:28:27.002Z</time></trkpt><trkpt lat="44.555774422052615" lon="10.5994364442862"><ele>222.39999999999998</ele><time>2026-04-25T09:28:28.002Z</time></trkpt><trkpt lat="44.55578330546874" lon="10.599271487695642"><ele>221.6</ele><time>2026-04-25T09:28:29.002Z</time></trkpt><trkpt lat="44.55577232276415" lon="10.599117869008488"><ele>220.8</ele><time>2026-04-25T09:28:30.002Z</time></trkpt><trkpt lat="44.55572637156273" lon="10.59897235748915"><ele>220.0</ele><time>2026-04-25T09:28:31.002Z</time></trkpt><trkpt lat="44.55568214354222" lon="10.598821639919882"><ele>220.0</ele><time>2026-04-25T09:28:32.002Z</time></trkpt><trkpt lat="44.55564654565158" lon="10.59868040749428"><ele>220.0</ele><time>2026-04-25T09:28:33.002Z</time></trkpt><trkpt lat="44.55561611261308" lon="10.598529949876808"><ele>220.0</ele><time>2026-04-25T09:28:34.002Z</time></trkpt><trkpt lat="44.55556211082947" lon="10.598377975788587"><ele>220.0</ele><time>2026-04-25T09:28:35.002Z</time></trkpt><trkpt lat="44.55547261953156" lon="10.59823411295072"><ele>220.25</ele><time>2026-04-25T09:28:36.002Z</time></trkpt><trkpt lat="44.555366960219715" lon="10.598112639409106"><ele>220.5</ele><time>2026-04-25T09:28:37.002Z</time></trkpt><trkpt lat="44.55525798877454" lon="10.597999122951931"><ele>220.75</ele><time>2026-04-25T09:28:38.002Z</time></trkpt><trkpt lat="44.555158581045596" lon="10.597869814612539"><ele>221.0</ele><time>2026-04-25T09:28:39.002Z</time></trkpt><trkpt lat="44.555088260228004" lon="10.597739180271551"><ele>221.0</ele><time>2026-04-25T09:28:40.002Z</time></trkpt><trkpt lat="44.55501822549385" lon="10.597622039543428"><ele>221.00000000000003</ele><time>2026-04-25T09:28:41.002Z</time></trkpt><trkpt lat="44.55495257438501" lon="10.597508822577858"><ele>221.00000000000003</ele><time>2026-04-25T09:28:42.002Z</time></trkpt><trkpt lat="44.554952783169725" lon="10.597369882954956"><ele>221.0</ele><time>2026-04-25T09:28:43.002Z</time></trkpt><trkpt lat="44.55498181445643" lon="10.597241119144636"><ele>221.0</ele><time>2026-04-25T09:28:44.002Z</time></trkpt><trkpt lat="44.55501790986566" lon="10.597104672886003"><ele>222.0</ele><time>2026-04-25T09:28:45.002Z</time></trkpt><trkpt lat="44.55503775411515" lon="10.596970126608253"><ele>223.00000000000003</ele><time>2026-04-25T09:28:46.002Z</time></trkpt><trkpt lat="44.55506545787468" lon="10.596835041838535"><ele>224.00000000000003</ele><time>2026-04-25T09:28:47.002Z</time></trkpt><trkpt lat="44.555075390666815" lon="10.5966949366026"><ele>225.0</ele><time>2026-04-25T09:28:48.002Z</time></trkpt><trkpt lat="44.555080736652314" lon="10.596563521574316"><ele>226.0</ele><time>2026-04-25T09:28:49.002Z</time></trkpt><trkpt lat="44.555090361873816" lon="10.596435664579927"><ele>226.0</ele><time>2026-04-25T09:28:50.002Z</time></trkpt><trkpt lat="44.55510332465771" lon="10.596325257576277"><ele>226.00000000000003</ele><time>2026-04-25T09:28:51.002Z</time></trkpt><trkpt lat="44.555119844252516" lon="10.596203157426496"><ele>226.00000000000003</ele><time>2026-04-25T09:28:52.002Z</time></trkpt><trkpt lat="44.55515430472349" lon="10.59608412873743"><ele>226.0</ele><time>2026-04-25T09:28:53.002Z</time></trkpt><trkpt lat="44.55521713621226" lon="10.595970274666447"><ele>226.0</ele><time>2026-04-25T09:28:54.002Z</time></trkpt><trkpt lat="44.555305035539924" lon="10.595876422696875"><ele>227.60000000000002</ele><time>2026-04-25T09:28:55.002Z</time></trkpt><trkpt lat="44.555361838866574" lon="10.595752936503098"><ele>229.20000000000002</ele><time>2026-04-25T09:28:56.002Z</time></trkpt><trkpt lat="44.55540742011394" lon="10.595627471744404"><ele>230.79999999999998</ele><time>2026-04-25T09:28:57.002Z</time></trkpt><trkpt lat="44.55543658316127" lon="10.595479968515342"><ele>232.39999999999998</ele><time>2026-04-25T09:28:58.002Z</time></trkpt><trkpt lat="44.555445927863644" lon="10.595322052062249"><ele>234.0</ele><time>2026-04-25T09:28:59.002Z</time></trkpt><trkpt lat="44.55545295734961" lon="10.595160701944636"><ele>236.39999999999998</ele><time>2026-04-25T09:29:00.002Z</time></trkpt><trkpt lat="44.55546790760377" lon="10.59500338279034"><ele>238.79999999999998</ele><time>2026-04-25T09:29:01.002Z</time></trkpt><trkpt lat="44.55549334899713" lon="10.594862365277077"><ele>241.20000000000002</ele><time>2026-04-25T09:29:02.002Z</time></trkpt><trkpt lat="44.5555190400195" lon="10.594726237464245"><ele>243.60000000000002</ele><time>2026-04-25T09:29:03.002Z</time></trkpt><trkpt lat="44.55553301561167" lon="10.59459133962632"><ele>246.0</ele><time>2026-04-25T09:29:04.002Z</time></trkpt><trkpt lat="44.55555710658543" lon="10.5944485774962"><ele>246.0</ele><time>2026-04-25T09:29:05.002Z</time></trkpt><trkpt lat="44.55561075095424" lon="10.594318828118581"><ele>246.00000000000003</ele><time>2026-04-25T09:29:06.002Z</time></trkpt><trkpt lat="44.55567529485553" lon="10.594195310716163"><ele>246.00000000000003</ele><time>2026-04-25T09:29:07.002Z</time></trkpt><trkpt lat="44.55574119792575" lon="10.594062290719815"><ele>246.0</ele><time>2026-04-25T09:29:08.002Z</time></trkpt><trkpt lat="44.555815463972344" lon="10.593961293217692"><ele>246.0</ele><time>2026-04-25T09:29:09.002Z</time></trkpt><trkpt lat="44.555887981034196" lon="10.593880338569148"><ele>246.0</ele><time>2026-04-25T09:29:10.002Z</time></trkpt><trkpt lat="44.55593950658076" lon="10.593803537028089"><ele>246.00000000000003</ele><time>2026-04-25T09:29:11.002Z</time></trkpt><trkpt lat="44.55599213532038" lon="10.593696835955361"><ele>246.00000000000003</ele><time>2026-04-25T09:29:13.002Z</time></trkpt><trkpt lat="44.55591781825198" lon="10.593601528126117"><ele>246.0</ele><time>2026-04-25T09:29:15.002Z</time></trkpt><trkpt lat="44.55578053784845" lon="10.593659277331763"><ele>246.0</ele><time>2026-04-25T09:29:17.002Z</time></trkpt><trkpt lat="44.55570491606298" lon="10.59371964207887"><ele>246.0</ele><time>2026-04-25T09:29:18.002Z</time></trkpt><trkpt lat="44.55563117190305" lon="10.593775088207336"><ele>246.0</ele><time>2026-04-25T09:29:19.002Z</time></trkpt><trkpt lat="44.55555988113742" lon="10.59381605325301"><ele>246.0</ele><time>2026-04-25T09:29:20.002Z</time></trkpt><trkpt lat="44.555465084949034" lon="10.59383101819975"><ele>246.0</ele><time>2026-04-25T09:29:22.002Z</time></trkpt><trkpt lat="44.55544022313318" lon="10.593725174580383"><ele>246.0</ele><time>2026-04-25T09:29:24.002Z</time></trkpt><trkpt lat="44.55550334471549" lon="10.593646528554254"><ele>246.0</ele><time>2026-04-25T09:29:25.002Z</time></trkpt><trkpt lat="44.55558117184273" lon="10.593539641162927"><ele>246.8</ele><time>2026-04-25T09:29:27.002Z</time></trkpt><trkpt lat="44.555629990989395" lon="10.593411206212608"><ele>247.60000000000002</ele><time>2026-04-25T09:29:29.002Z</time></trkpt><trkpt lat="44.55565947744775" lon="10.593267480353024"><ele>248.4</ele><time>2026-04-25T09:29:31.002Z</time></trkpt><trkpt lat="44.55569475022461" lon="10.593105879041687"><ele>249.2</ele><time>2026-04-25T09:29:33.002Z</time></trkpt><trkpt lat="44.5557158611434" lon="10.59294293509431"><ele>250.0</ele><time>2026-04-25T09:29:35.002Z</time></trkpt><trkpt lat="44.55571399610281" lon="10.592794420183072"><ele>252.25</ele><time>2026-04-25T09:29:37.002Z</time></trkpt><trkpt lat="44.55572887262605" lon="10.592641883194554"><ele>254.5</ele><time>2026-04-25T09:29:39.002Z</time></trkpt><trkpt lat="44.55579567564811" lon="10.592477744368416"><ele>256.75</ele><time>2026-04-25T09:29:41.002Z</time></trkpt><trkpt lat="44.55582099884213" lon="10.592336763265882"><ele>259.0</ele><time>2026-04-25T09:29:43.003Z</time></trkpt><trkpt lat="44.55570572192767" lon="10.592284696599583"><ele>259.0</ele><time>2026-04-25T09:29:45.003Z</time></trkpt><trkpt lat="44.555630703193444" lon="10.592371725565622"><ele>259.0</ele><time>2026-04-25T09:29:46.003Z</time></trkpt><trkpt lat="44.55556345962168" lon="10.592389623059669"><ele>259.0</ele><time>2026-04-25T09:29:47.003Z</time></trkpt><trkpt lat="44.55548312875158" lon="10.592319200088225"><ele>259.0</ele><time>2026-04-25T09:29:49.003Z</time></trkpt><trkpt lat="44.55546781011469" lon="10.59221294910984"><ele>259.0</ele><time>2026-04-25T09:29:50.003Z</time></trkpt><trkpt lat="44.55547325012506" lon="10.592112638179895"><ele>259.0</ele><time>2026-04-25T09:29:51.003Z</time></trkpt><trkpt lat="44.55547744140878" lon="10.592020801577007"><ele>260.5</ele><time>2026-04-25T09:29:52.003Z</time></trkpt><trkpt lat="44.55547437914224" lon="10.591917701675532"><ele>262.0</ele><time>2026-04-25T09:29:53.003Z</time></trkpt><trkpt lat="44.55548226886224" lon="10.591802312371621"><ele>263.5</ele><time>2026-04-25T09:29:54.003Z</time></trkpt><trkpt lat="44.555491725097774" lon="10.591678125722016"><ele>265.0</ele><time>2026-04-25T09:29:55.003Z</time></trkpt><trkpt lat="44.555509507677584" lon="10.591549869295385"><ele>266.5</ele><time>2026-04-25T09:29:56.003Z</time></trkpt><trkpt lat="44.555537970132576" lon="10.591411891159082"><ele>268.0</ele><time>2026-04-25T09:29:57.003Z</time></trkpt><trkpt lat="44.55557350682361" lon="10.59126629105797"><ele>269.6</ele><time>2026-04-25T09:29:58.003Z</time></trkpt><trkpt lat="44.55561019477231" lon="10.591121518823511"><ele>271.20000000000005</ele><time>2026-04-25T09:29:59.003Z</time></trkpt><trkpt lat="44.55564665205717" lon="10.59097340618083"><ele>272.8</ele><time>2026-04-25T09:30:00.003Z</time></trkpt><trkpt lat="44.555686283250786" lon="10.590827809736425"><ele>274.40000000000003</ele><time>2026-04-25T09:30:01.003Z</time></trkpt><trkpt lat="44.55572235727669" lon="10.59067675370889"><ele>276.0</ele><time>2026-04-25T09:30:02.003Z</time></trkpt><trkpt lat="44.555737434308654" lon="10.590535722792321"><ele>276.0</ele><time>2026-04-25T09:30:03.003Z</time></trkpt><trkpt lat="44.5557199805542" lon="10.590377056687325"><ele>276.0</ele><time>2026-04-25T09:30:04.003Z</time></trkpt><trkpt lat="44.555683662340016" lon="10.590221430667643"><ele>276.0</ele><time>2026-04-25T09:30:05.003Z</time></trkpt><trkpt lat="44.55564820836838" lon="10.590065561087336"><ele>276.0</ele><time>2026-04-25T09:30:06.003Z</time></trkpt><trkpt lat="44.555632379782175" lon="10.589901113746913"><ele>277.5</ele><time>2026-04-25T09:30:07.003Z</time></trkpt><trkpt lat="44.555633837753604" lon="10.589736568308586"><ele>279.0</ele><time>2026-04-25T09:30:08.003Z</time></trkpt><trkpt lat="44.55563254439461" lon="10.58957156311776"><ele>280.5</ele><time>2026-04-25T09:30:09.003Z</time></trkpt><trkpt lat="44.55563181658128" lon="10.589403675612017"><ele>282.0</ele><time>2026-04-25T09:30:10.003Z</time></trkpt><trkpt lat="44.55564660088929" lon="10.589239408844799"><ele>283.6</ele><time>2026-04-25T09:30:11.003Z</time></trkpt><trkpt lat="44.555677525195634" lon="10.589081794983594"><ele>285.2</ele><time>2026-04-25T09:30:12.003Z</time></trkpt><trkpt lat="44.55573408095928" lon="10.588938967961337"><ele>286.8</ele><time>2026-04-25T09:30:13.003Z</time></trkpt><trkpt lat="44.55578949822972" lon="10.58881888253487"><ele>288.4</ele><time>2026-04-25T09:30:14.003Z</time></trkpt><trkpt lat="44.55584416940505" lon="10.588720852653744"><ele>290.0</ele><time>2026-04-25T09:30:15.003Z</time></trkpt><trkpt lat="44.5558928112382" lon="10.588624406368071"><ele>292.2</ele><time>2026-04-25T09:30:16.003Z</time></trkpt><trkpt lat="44.555935801241574" lon="10.588523147215607"><ele>294.4</ele><time>2026-04-25T09:30:17.003Z</time></trkpt><trkpt lat="44.555985525353904" lon="10.588437777916601"><ele>296.6</ele><time>2026-04-25T09:30:18.003Z</time></trkpt><trkpt lat="44.55602651103182" lon="10.588364245234391"><ele>298.8</ele><time>2026-04-25T09:30:19.003Z</time></trkpt><trkpt lat="44.556085935974934" lon="10.588224035608858"><ele>301.0</ele><time>2026-04-25T09:30:21.003Z</time></trkpt><trkpt lat="44.55613583885878" lon="10.588091325190703"><ele>301.0</ele><time>2026-04-25T09:30:23.003Z</time></trkpt><trkpt lat="44.55618600024575" lon="10.587961548460344"><ele>301.0</ele><time>2026-04-25T09:30:25.003Z</time></trkpt><trkpt lat="44.55621990584402" lon="10.587818141160254"><ele>301.0</ele><time>2026-04-25T09:30:27.003Z</time></trkpt><trkpt lat="44.556240780497035" lon="10.58773304039751"><ele>301.0</ele><time>2026-04-25T09:30:28.003Z</time></trkpt><trkpt lat="44.556257615399986" lon="10.587646774492242"><ele>301.0</ele><time>2026-04-25T09:30:29.003Z</time></trkpt><trkpt lat="44.556276306902205" lon="10.587479329965777"><ele>301.66666666666663</ele><time>2026-04-25T09:30:31.003Z</time></trkpt><trkpt lat="44.556291187596" lon="10.58738809015673"><ele>302.3333333333333</ele><time>2026-04-25T09:30:32.003Z</time></trkpt><trkpt lat="44.55632510393533" lon="10.58721539939031"><ele>303.0</ele><time>2026-04-25T09:30:34.003Z</time></trkpt><trkpt lat="44.55633710111818" lon="10.587117112417442"><ele>303.6666666666667</ele><time>2026-04-25T09:30:35.003Z</time></trkpt><trkpt lat="44.556349411467956" lon="10.58701353118273"><ele>304.33333333333337</ele><time>2026-04-25T09:30:36.003Z</time></trkpt><trkpt lat="44.556366917481434" lon="10.586917394625539"><ele>305.0</ele><time>2026-04-25T09:30:37.003Z</time></trkpt><trkpt lat="44.556380370104854" lon="10.586829890989833"><ele>307.0</ele><time>2026-04-25T09:30:38.003Z</time></trkpt><trkpt lat="44.5563788796928" lon="10.586652972047965"><ele>309.0</ele><time>2026-04-25T09:30:40.003Z</time></trkpt><trkpt lat="44.556333456228124" lon="10.586584641802602"><ele>311.0</ele><time>2026-04-25T09:30:41.003Z</time></trkpt><trkpt lat="44.55626542273869" lon="10.5865293353227"><ele>313.0</ele><time>2026-04-25T09:30:42.003Z</time></trkpt><trkpt lat="44.556175498161274" lon="10.586560003799464"><ele>315.0</ele><time>2026-04-25T09:30:43.003Z</time></trkpt><trkpt lat="44.55610007415557" lon="10.586552646003364"><ele>317.0</ele><time>2026-04-25T09:30:44.003Z</time></trkpt><trkpt lat="44.55602760343268" lon="10.58653082511289"><ele>317.0</ele><time>2026-04-25T09:30:45.003Z</time></trkpt><trkpt lat="44.55596009020621" lon="10.58650342579436"><ele>317.0</ele><time>2026-04-25T09:30:46.003Z</time></trkpt><trkpt lat="44.55591082847238" lon="10.586421069282242"><ele>317.0</ele><time>2026-04-25T09:30:47.003Z</time></trkpt><trkpt lat="44.55589338155049" lon="10.586314312734725"><ele>317.0</ele><time>2026-04-25T09:30:48.003Z</time></trkpt><trkpt lat="44.55589716646855" lon="10.586217051374627"><ele>317.0</ele><time>2026-04-25T09:30:49.003Z</time></trkpt><trkpt lat="44.55595054529715" lon="10.586134191971121"><ele>317.0</ele><time>2026-04-25T09:30:50.003Z</time></trkpt><trkpt lat="44.55597866031149" lon="10.586031009484374"><ele>317.83333333333337</ele><time>2026-04-25T09:30:51.003Z</time></trkpt><trkpt lat="44.55602703402112" lon="10.585936067819453"><ele>318.6666666666667</ele><time>2026-04-25T09:30:52.003Z</time></trkpt><trkpt lat="44.556060247402954" lon="10.585833159132065"><ele>319.5</ele><time>2026-04-25T09:30:53.003Z</time></trkpt><trkpt lat="44.55609460283" lon="10.585728703319337"><ele>320.3333333333333</ele><time>2026-04-25T09:30:54.003Z</time></trkpt><trkpt lat="44.55614323097652" lon="10.585624208105893"><ele>321.16666666666663</ele><time>2026-04-25T09:30:55.003Z</time></trkpt><trkpt lat="44.55619258427274" lon="10.585508198155773"><ele>322.0</ele><time>2026-04-25T09:30:56.003Z</time></trkpt><trkpt lat="44.556238334821515" lon="10.585381778440402"><ele>324.40000000000003</ele><time>2026-04-25T09:30:57.003Z</time></trkpt><trkpt lat="44.55627997022493" lon="10.585255818872147"><ele>326.8</ele><time>2026-04-25T09:30:58.003Z</time></trkpt><trkpt lat="44.55632516634798" lon="10.585115186457628"><ele>329.2</ele><time>2026-04-25T09:30:59.003Z</time></trkpt><trkpt lat="44.55637594644705" lon="10.584970532609402"><ele>331.6</ele><time>2026-04-25T09:31:00.003Z</time></trkpt><trkpt lat="44.556427103160495" lon="10.584825683358368"><ele>334.0</ele><time>2026-04-25T09:31:01.003Z</time></trkpt><trkpt lat="44.5564720104501" lon="10.584672948162675"><ele>334.0</ele><time>2026-04-25T09:31:02.003Z</time></trkpt><trkpt lat="44.55651814338752" lon="10.58451423162832"><ele>334.0</ele><time>2026-04-25T09:31:03.003Z</time></trkpt><trkpt lat="44.55656030184032" lon="10.584355288043726"><ele>334.0</ele><time>2026-04-25T09:31:04.003Z</time></trkpt><trkpt lat="44.556604337574164" lon="10.584192724986162"><ele>334.0</ele><time>2026-04-25T09:31:05.003Z</time></trkpt><trkpt lat="44.556646939302254" lon="10.58403022616137"><ele>335.75</ele><time>2026-04-25T09:31:06.003Z</time></trkpt><trkpt lat="44.5566910448802" lon="10.583865411885636"><ele>337.5</ele><time>2026-04-25T09:31:07.003Z</time></trkpt><trkpt lat="44.55674236830755" lon="10.583699894242221"><ele>339.25</ele><time>2026-04-25T09:31:08.003Z</time></trkpt><trkpt lat="44.556788831356506" lon="10.583536991132323"><ele>341.0</ele><time>2026-04-25T09:31:09.003Z</time></trkpt><trkpt lat="44.55683734695658" lon="10.583373547181896"><ele>342.0</ele><time>2026-04-25T09:31:10.003Z</time></trkpt><trkpt lat="44.556884848702346" lon="10.58321821074019"><ele>343.0</ele><time>2026-04-25T09:31:11.003Z</time></trkpt><trkpt lat="44.55692573911463" lon="10.583087877287001"><ele>344.0</ele><time>2026-04-25T09:31:12.003Z</time></trkpt><trkpt lat="44.55697624566035" lon="10.582970662925065"><ele>345.0</ele><time>2026-04-25T09:31:13.003Z</time></trkpt><trkpt lat="44.55705450362317" lon="10.582875899061177"><ele>346.0</ele><time>2026-04-25T09:31:14.003Z</time></trkpt><trkpt lat="44.55711226800645" lon="10.582765121906451"><ele>348.8</ele><time>2026-04-25T09:31:15.003Z</time></trkpt><trkpt lat="44.55718318503864" lon="10.582671997997545"><ele>351.6</ele><time>2026-04-25T09:31:16.003Z</time></trkpt><trkpt lat="44.55725116100758" lon="10.582579642852455"><ele>354.4</ele><time>2026-04-25T09:31:17.003Z</time></trkpt><trkpt lat="44.55731533309939" lon="10.582479698828342"><ele>357.2</ele><time>2026-04-25T09:31:18.003Z</time></trkpt><trkpt lat="44.557383327714675" lon="10.582385453420418"><ele>360.0</ele><time>2026-04-25T09:31:19.003Z</time></trkpt><trkpt lat="44.55745222881804" lon="10.582290679584094"><ele>360.0</ele><time>2026-04-25T09:31:20.003Z</time></trkpt><trkpt lat="44.5575199005404" lon="10.582187034069369"><ele>360.0</ele><time>2026-04-25T09:31:21.003Z</time></trkpt><trkpt lat="44.557583966441335" lon="10.582084645295057"><ele>360.0</ele><time>2026-04-25T09:31:22.003Z</time></trkpt><trkpt lat="44.55764709180754" lon="10.581990317047318"><ele>360.0</ele><time>2026-04-25T09:31:23.003Z</time></trkpt><trkpt lat="44.55770639694036" lon="10.581890678906905"><ele>360.0</ele><time>2026-04-25T09:31:24.003Z</time></trkpt><trkpt lat="44.557762249191896" lon="10.581793751838006"><ele>361.3333333333333</ele><time>2026-04-25T09:31:25.003Z</time></trkpt><trkpt lat="44.557810754137115" lon="10.581695952423855"><ele>362.6666666666667</ele><time>2026-04-25T09:31:26.003Z</time></trkpt><trkpt lat="44.55785543402742" lon="10.581584448805197"><ele>364.0</ele><time>2026-04-25T09:31:27.003Z</time></trkpt><trkpt lat="44.55789152066738" lon="10.581472342274969"><ele>365.33333333333337</ele><time>2026-04-25T09:31:28.003Z</time></trkpt><trkpt lat="44.55793054099424" lon="10.581371470086058"><ele>366.6666666666667</ele><time>2026-04-25T09:31:29.003Z</time></trkpt><trkpt lat="44.55798689569195" lon="10.58129483305669"><ele>368.0</ele><time>2026-04-25T09:31:30.003Z</time></trkpt><trkpt lat="44.55806513907769" lon="10.581266768974778"><ele>368.79999999999995</ele><time>2026-04-25T09:31:31.003Z</time></trkpt><trkpt lat="44.55814987098832" lon="10.58127243482925"><ele>369.6</ele><time>2026-04-25T09:31:32.003Z</time></trkpt><trkpt lat="44.55822711215943" lon="10.581363107928622"><ele>370.4</ele><time>2026-04-25T09:31:33.003Z</time></trkpt><trkpt lat="44.558304457913316" lon="10.581442357081121"><ele>371.20000000000005</ele><time>2026-04-25T09:31:34.003Z</time></trkpt><trkpt lat="44.558392191991906" lon="10.581513641974775"><ele>372.0</ele><time>2026-04-25T09:31:35.003Z</time></trkpt><trkpt lat="44.558468164812524" lon="10.581566385251682"><ele>372.0</ele><time>2026-04-25T09:31:36.003Z</time></trkpt><trkpt lat="44.558547782366745" lon="10.581626470141332"><ele>372.0</ele><time>2026-04-25T09:31:37.003Z</time></trkpt><trkpt lat="44.55864197571562" lon="10.58165333280361"><ele>372.0</ele><time>2026-04-25T09:31:38.003Z</time></trkpt><trkpt lat="44.55873999435748" lon="10.581657333373865"><ele>372.0</ele><time>2026-04-25T09:31:39.003Z</time></trkpt><trkpt lat="44.558837344621985" lon="10.581655309171698"><ele>372.0</ele><time>2026-04-25T09:31:40.003Z</time></trkpt><trkpt lat="44.558934371550436" lon="10.58165653396022"><ele>372.40000000000003</ele><time>2026-04-25T09:31:41.003Z</time></trkpt><trkpt lat="44.559030004492776" lon="10.581648505718027"><ele>372.8</ele><time>2026-04-25T09:31:42.003Z</time></trkpt><trkpt lat="44.55912483689548" lon="10.581613979716115"><ele>373.2</ele><time>2026-04-25T09:31:43.003Z</time></trkpt><trkpt lat="44.55921742807568" lon="10.581559176091606"><ele>373.6</ele><time>2026-04-25T09:31:44.003Z</time></trkpt><trkpt lat="44.55929773349466" lon="10.581473759660303"><ele>374.0</ele><time>2026-04-25T09:31:45.003Z</time></trkpt><trkpt lat="44.55936589075508" lon="10.581370200831417"><ele>374.0</ele><time>2026-04-25T09:31:46.003Z</time></trkpt><trkpt lat="44.55941342087754" lon="10.581246972535356"><ele>374.0</ele><time>2026-04-25T09:31:47.003Z</time></trkpt><trkpt lat="44.559439457644665" lon="10.581103335194099"><ele>374.0</ele><time>2026-04-25T09:31:48.003Z</time></trkpt><trkpt lat="44.559444007062964" lon="10.580956046954421"><ele>374.0</ele><time>2026-04-25T09:31:49.003Z</time></trkpt><trkpt lat="44.559440605424065" lon="10.580822925031915"><ele>374.0</ele><time>2026-04-25T09:31:50.003Z</time></trkpt><trkpt lat="44.559437228435186" lon="10.580674555146379"><ele>376.0</ele><time>2026-04-25T09:31:51.003Z</time></trkpt><trkpt lat="44.55943961674665" lon="10.580524448259977"><ele>378.0</ele><time>2026-04-25T09:31:52.003Z</time></trkpt><trkpt lat="44.55947844919463" lon="10.580395398662441"><ele>380.0</ele><time>2026-04-25T09:31:53.003Z</time></trkpt><trkpt lat="44.55955304851006" lon="10.580294357852017"><ele>382.0</ele><time>2026-04-25T09:31:54.003Z</time></trkpt><trkpt lat="44.5596267184731" lon="10.580212235795605"><ele>384.0</ele><time>2026-04-25T09:31:55.003Z</time></trkpt><trkpt lat="44.55969093566479" lon="10.580134333730546"><ele>384.0</ele><time>2026-04-25T09:31:56.003Z</time></trkpt><trkpt lat="44.55975131014718" lon="10.580055846785493"><ele>384.0</ele><time>2026-04-25T09:31:57.003Z</time></trkpt><trkpt lat="44.55981048271373" lon="10.579972770761007"><ele>384.0</ele><time>2026-04-25T09:31:58.003Z</time></trkpt><trkpt lat="44.559866673502405" lon="10.579885811690259"><ele>384.0</ele><time>2026-04-25T09:31:59.003Z</time></trkpt><trkpt lat="44.55991779342677" lon="10.579801194066466"><ele>384.0</ele><time>2026-04-25T09:32:00.003Z</time></trkpt><trkpt lat="44.55996821206221" lon="10.579727211775026"><ele>384.0</ele><time>2026-04-25T09:32:01.003Z</time></trkpt><trkpt lat="44.56001963236552" lon="10.579661530733013"><ele>383.99999999999994</ele><time>2026-04-25T09:32:02.003Z</time></trkpt><trkpt lat="44.56007783880975" lon="10.579608876544807"><ele>384.0</ele><time>2026-04-25T09:32:03.003Z</time></trkpt><trkpt lat="44.560149006352" lon="10.579610610753582"><ele>384.0</ele><time>2026-04-25T09:32:04.003Z</time></trkpt><trkpt lat="44.56021138244768" lon="10.579565390958829"><ele>384.0</ele><time>2026-04-25T09:32:05.003Z</time></trkpt><trkpt lat="44.56027615786095" lon="10.579541350979781"><ele>384.0</ele><time>2026-04-25T09:32:06.003Z</time></trkpt><trkpt lat="44.56035050800246" lon="10.579503992733107"><ele>383.99999999999994</ele><time>2026-04-25T09:32:07.003Z</time></trkpt><trkpt lat="44.560413716765964" lon="10.579459771904306"><ele>384.0</ele><time>2026-04-25T09:32:08.003Z</time></trkpt><trkpt lat="44.56047516177353" lon="10.579420297428294"><ele>385.6666666666667</ele><time>2026-04-25T09:32:09.003Z</time></trkpt><trkpt lat="44.560531336024376" lon="10.579376096521496"><ele>387.33333333333337</ele><time>2026-04-25T09:32:10.003Z</time></trkpt><trkpt lat="44.56062031849217" lon="10.57927008521023"><ele>389.0</ele><time>2026-04-25T09:32:12.004Z</time></trkpt><trkpt lat="44.560679605605294" lon="10.579227862875051"><ele>390.6666666666667</ele><time>2026-04-25T09:32:13.004Z</time></trkpt><trkpt lat="44.560735913869216" lon="10.579171352935276"><ele>392.33333333333337</ele><time>2026-04-25T09:32:14.004Z</time></trkpt><trkpt lat="44.56082896062493" lon="10.579057146452426"><ele>394.0</ele><time>2026-04-25T09:32:16.004Z</time></trkpt><trkpt lat="44.5608839728508" lon="10.578989111894728"><ele>394.00000000000006</ele><time>2026-04-25T09:32:17.004Z</time></trkpt><trkpt lat="44.560940572244775" lon="10.578912091925682"><ele>394.0</ele><time>2026-04-25T09:32:18.004Z</time></trkpt><trkpt lat="44.560994515083834" lon="10.578839009270355"><ele>394.0</ele><time>2026-04-25T09:32:19.004Z</time></trkpt><trkpt lat="44.561050094576906" lon="10.578770016578503"><ele>394.0</ele><time>2026-04-25T09:32:20.004Z</time></trkpt><trkpt lat="44.561100167853766" lon="10.578708139466453"><ele>394.00000000000006</ele><time>2026-04-25T09:32:21.004Z</time></trkpt><trkpt lat="44.56115142070288" lon="10.578650818904817"><ele>394.0</ele><time>2026-04-25T09:32:22.004Z</time></trkpt><trkpt lat="44.56124053189351" lon="10.57854168880453"><ele>396.6</ele><time>2026-04-25T09:32:24.004Z</time></trkpt><trkpt lat="44.56130608854364" lon="10.578456857829364"><ele>399.2</ele><time>2026-04-25T09:32:26.004Z</time></trkpt><trkpt lat="44.5613815542766" lon="10.578373484927159"><ele>401.8</ele><time>2026-04-25T09:32:28.004Z</time></trkpt><trkpt lat="44.56145979001776" lon="10.578280321829293"><ele>404.40000000000003</ele><time>2026-04-25T09:32:30.004Z</time></trkpt><trkpt lat="44.561565807950885" lon="10.578164973743878"><ele>407.0</ele><time>2026-04-25T09:32:32.004Z</time></trkpt><trkpt lat="44.5616397957122" lon="10.578107076948836"><ele>407.0</ele><time>2026-04-25T09:32:33.004Z</time></trkpt><trkpt lat="44.561691143700315" lon="10.578039672197646"><ele>407.0</ele><time>2026-04-25T09:32:34.004Z</time></trkpt><trkpt lat="44.56176890006086" lon="10.577944108187143"><ele>407.0</ele><time>2026-04-25T09:32:36.004Z</time></trkpt><trkpt lat="44.56181484234098" lon="10.577880946356608"><ele>407.0</ele><time>2026-04-25T09:32:38.004Z</time></trkpt><trkpt lat="44.56174471310828" lon="10.577678922057531"><ele>407.0</ele><time>2026-04-25T09:32:42.004Z</time></trkpt><trkpt lat="44.561676145916486" lon="10.57758234781744"><ele>408.25</ele><time>2026-04-25T09:32:43.004Z</time></trkpt><trkpt lat="44.56158619283285" lon="10.577512220639194"><ele>409.5</ele><time>2026-04-25T09:32:44.004Z</time></trkpt><trkpt lat="44.56146561825861" lon="10.577488231138052"><ele>410.75</ele><time>2026-04-25T09:32:45.004Z</time></trkpt><trkpt lat="44.56134659082976" lon="10.577460517272147"><ele>412.0</ele><time>2026-04-25T09:32:46.004Z</time></trkpt><trkpt lat="44.56122924286701" lon="10.577419832066706"><ele>413.0</ele><time>2026-04-25T09:32:47.004Z</time></trkpt><trkpt lat="44.56112049672305" lon="10.577421271240748"><ele>414.0</ele><time>2026-04-25T09:32:48.004Z</time></trkpt><trkpt lat="44.56103038049245" lon="10.57741691112427"><ele>415.0</ele><time>2026-04-25T09:32:49.004Z</time></trkpt><trkpt lat="44.56095588279458" lon="10.577395799216655"><ele>416.0</ele><time>2026-04-25T09:32:50.004Z</time></trkpt><trkpt lat="44.560928598869765" lon="10.577261978406918"><ele>417.0</ele><time>2026-04-25T09:32:52.004Z</time></trkpt><trkpt lat="44.56098017871873" lon="10.57717922902925"><ele>417.0</ele><time>2026-04-25T09:32:53.004Z</time></trkpt><trkpt lat="44.56106908928635" lon="10.577153559645987"><ele>417.0</ele><time>2026-04-25T09:32:54.004Z</time></trkpt><trkpt lat="44.56111625961247" lon="10.577079428122426"><ele>417.0</ele><time>2026-04-25T09:32:55.004Z</time></trkpt><trkpt lat="44.56115291760297" lon="10.576923062453004"><ele>417.0</ele><time>2026-04-25T09:32:57.004Z</time></trkpt><trkpt lat="44.56113314453085" lon="10.576838520615786"><ele>417.0</ele><time>2026-04-25T09:32:58.004Z</time></trkpt><trkpt lat="44.56105646663092" lon="10.576691128552532"><ele>418.0</ele><time>2026-04-25T09:33:00.004Z</time></trkpt><trkpt lat="44.56100785136937" lon="10.576615912606078"><ele>419.0</ele><time>2026-04-25T09:33:01.004Z</time></trkpt><trkpt lat="44.56094631811277" lon="10.576560607103394"><ele>420.0</ele><time>2026-04-25T09:33:02.004Z</time></trkpt><trkpt lat="44.56084107557849" lon="10.57645986148755"><ele>421.0</ele><time>2026-04-25T09:33:04.004Z</time></trkpt><trkpt lat="44.56077213507332" lon="10.576408201915015"><ele>422.0</ele><time>2026-04-25T09:33:05.004Z</time></trkpt><trkpt lat="44.560702717607164" lon="10.576365308581515"><ele>423.0</ele><time>2026-04-25T09:33:06.004Z</time></trkpt><trkpt lat="44.56062645507752" lon="10.576328048995574"><ele>423.0</ele><time>2026-04-25T09:33:07.004Z</time></trkpt><trkpt lat="44.560558252486054" lon="10.576300017317001"><ele>423.0</ele><time>2026-04-25T09:33:08.004Z</time></trkpt><trkpt lat="44.56047881783083" lon="10.576261637900352"><ele>423.0</ele><time>2026-04-25T09:33:09.004Z</time></trkpt><trkpt lat="44.56040000970322" lon="10.57621616541062"><ele>423.0</ele><time>2026-04-25T09:33:10.004Z</time></trkpt><trkpt lat="44.560325764077945" lon="10.576171043503487"><ele>423.0</ele><time>2026-04-25T09:33:11.004Z</time></trkpt><trkpt lat="44.560249813830254" lon="10.576123307364723"><ele>423.0</ele><time>2026-04-25T09:33:12.004Z</time></trkpt><trkpt lat="44.56016491908782" lon="10.57608001462947"><ele>424.2</ele><time>2026-04-25T09:33:13.004Z</time></trkpt><trkpt lat="44.56009195149783" lon="10.576000869254365"><ele>425.4</ele><time>2026-04-25T09:33:14.004Z</time></trkpt><trkpt lat="44.56001671365233" lon="10.575940390197493"><ele>426.59999999999997</ele><time>2026-04-25T09:33:15.004Z</time></trkpt><trkpt lat="44.559938646500854" lon="10.575866725262385"><ele>427.79999999999995</ele><time>2026-04-25T09:33:16.004Z</time></trkpt><trkpt lat="44.55986221381972" lon="10.575807514642134"><ele>429.0</ele><time>2026-04-25T09:33:17.004Z</time></trkpt><trkpt lat="44.55979540347859" lon="10.575715428846557"><ele>429.0</ele><time>2026-04-25T09:33:18.004Z</time></trkpt><trkpt lat="44.559732597687514" lon="10.575621191044174"><ele>429.0</ele><time>2026-04-25T09:33:19.004Z</time></trkpt><trkpt lat="44.55966827330618" lon="10.575526956568217"><ele>429.0</ele><time>2026-04-25T09:33:20.004Z</time></trkpt><trkpt lat="44.55960019407681" lon="10.575450788316758"><ele>429.0</ele><time>2026-04-25T09:33:21.004Z</time></trkpt><trkpt lat="44.559531925585645" lon="10.575389913757167"><ele>429.0</ele><time>2026-04-25T09:33:22.004Z</time></trkpt><trkpt lat="44.55946018777231" lon="10.575330986130357"><ele>429.0</ele><time>2026-04-25T09:33:23.004Z</time></trkpt><trkpt lat="44.55938220678427" lon="10.575288647473425"><ele>430.5</ele><time>2026-04-25T09:33:24.004Z</time></trkpt><trkpt lat="44.559306789879834" lon="10.575226857291407"><ele>432.0</ele><time>2026-04-25T09:33:25.004Z</time></trkpt><trkpt lat="44.55923203777848" lon="10.575183409374965"><ele>433.5</ele><time>2026-04-25T09:33:26.004Z</time></trkpt><trkpt lat="44.559160926740354" lon="10.575140796931132"><ele>435.0</ele><time>2026-04-25T09:33:27.004Z</time></trkpt><trkpt lat="44.5590871694442" lon="10.575095872573488"><ele>436.5</ele><time>2026-04-25T09:33:28.004Z</time></trkpt><trkpt lat="44.55903371675853" lon="10.575032232706103"><ele>438.0</ele><time>2026-04-25T09:33:29.004Z</time></trkpt><trkpt lat="44.55896895968404" lon="10.575002965064849"><ele>438.0</ele><time>2026-04-25T09:33:30.004Z</time></trkpt><trkpt lat="44.558908288761174" lon="10.574978635599441"><ele>438.0</ele><time>2026-04-25T09:33:31.004Z</time></trkpt><trkpt lat="44.558825376078836" lon="10.574929033366633"><ele>438.0</ele><time>2026-04-25T09:33:33.004Z</time></trkpt><trkpt lat="44.558762688663705" lon="10.57490560132154"><ele>438.0</ele><time>2026-04-25T09:33:35.004Z</time></trkpt><trkpt lat="44.558692347150185" lon="10.574877364766513"><ele>438.0</ele><time>2026-04-25T09:33:39.004Z</time></trkpt><trkpt lat="44.55856854863251" lon="10.574812442692073"><ele>438.0</ele><time>2026-04-25T09:33:50.004Z</time></trkpt><trkpt lat="44.55849444758811" lon="10.574747985157893"><ele>437.3333333333333</ele><time>2026-04-25T09:33:51.004Z</time></trkpt><trkpt lat="44.558411207097926" lon="10.57471304802077"><ele>436.66666666666663</ele><time>2026-04-25T09:33:52.004Z</time></trkpt><trkpt lat="44.558347248658585" lon="10.574658688631763"><ele>436.0</ele><time>2026-04-25T09:33:53.004Z</time></trkpt><trkpt lat="44.55827998132675" lon="10.574635907106936"><ele>435.3333333333333</ele><time>2026-04-25T09:33:54.004Z</time></trkpt><trkpt lat="44.55820806060186" lon="10.574615874122724"><ele>434.66666666666663</ele><time>2026-04-25T09:33:55.004Z</time></trkpt><trkpt lat="44.558132791850944" lon="10.574581858940707"><ele>434.0</ele><time>2026-04-25T09:33:56.004Z</time></trkpt><trkpt lat="44.55805217274499" lon="10.574548162481385"><ele>434.4</ele><time>2026-04-25T09:33:57.004Z</time></trkpt><trkpt lat="44.55796421146645" lon="10.574518276147353"><ele>434.79999999999995</ele><time>2026-04-25T09:33:58.004Z</time></trkpt><trkpt lat="44.55787375881025" lon="10.574487095529383"><ele>435.20000000000005</ele><time>2026-04-25T09:33:59.004Z</time></trkpt><trkpt lat="44.557779556720796" lon="10.574450605770942"><ele>435.6</ele><time>2026-04-25T09:34:00.004Z</time></trkpt><trkpt lat="44.557677786410466" lon="10.574416962476764"><ele>436.0</ele><time>2026-04-25T09:34:01.004Z</time></trkpt><trkpt lat="44.5575730929554" lon="10.574391771735478"><ele>433.8</ele><time>2026-04-25T09:34:02.004Z</time></trkpt><trkpt lat="44.55746936734154" lon="10.574365615621584"><ele>431.6</ele><time>2026-04-25T09:34:03.004Z</time></trkpt><trkpt lat="44.557371448839014" lon="10.574334392588838"><ele>429.4</ele><time>2026-04-25T09:34:04.004Z</time></trkpt><trkpt lat="44.55726801792508" lon="10.574312982644788"><ele>427.2</ele><time>2026-04-25T09:34:05.004Z</time></trkpt><trkpt lat="44.557166219507884" lon="10.574307078709923"><ele>425.0</ele><time>2026-04-25T09:34:06.004Z</time></trkpt><trkpt lat="44.5570500782025" lon="10.574270151364805"><ele>425.5</ele><time>2026-04-25T09:34:07.004Z</time></trkpt><trkpt lat="44.55691869526256" lon="10.574226187381083"><ele>426.0</ele><time>2026-04-25T09:34:08.004Z</time></trkpt><trkpt lat="44.55679032881216" lon="10.574173850173892"><ele>426.5</ele><time>2026-04-25T09:34:09.004Z</time></trkpt><trkpt lat="44.55664830180726" lon="10.574113487373326"><ele>427.0</ele><time>2026-04-25T09:34:10.004Z</time></trkpt><trkpt lat="44.55651235378345" lon="10.574044626958992"><ele>427.0</ele><time>2026-04-25T09:34:11.004Z</time></trkpt><trkpt lat="44.55638765407935" lon="10.573975093864785"><ele>427.0</ele><time>2026-04-25T09:34:12.004Z</time></trkpt><trkpt lat="44.5562742270818" lon="10.573903291684466"><ele>427.0</ele><time>2026-04-25T09:34:13.004Z</time></trkpt><trkpt lat="44.55617136110607" lon="10.573832679737162"><ele>427.0</ele><time>2026-04-25T09:34:14.004Z</time></trkpt><trkpt lat="44.55607207560125" lon="10.57375626581979"><ele>428.20000000000005</ele><time>2026-04-25T09:34:15.004Z</time></trkpt><trkpt lat="44.555978981045044" lon="10.573669781141799"><ele>429.40000000000003</ele><time>2026-04-25T09:34:16.004Z</time></trkpt><trkpt lat="44.55589427737984" lon="10.573578129038486"><ele>430.59999999999997</ele><time>2026-04-25T09:34:17.004Z</time></trkpt><trkpt lat="44.555810445232964" lon="10.573497225527154"><ele>431.79999999999995</ele><time>2026-04-25T09:34:18.004Z</time></trkpt><trkpt lat="44.55573605347078" lon="10.57341339058121"><ele>433.0</ele><time>2026-04-25T09:34:19.004Z</time></trkpt><trkpt lat="44.55566312215704" lon="10.573323104848262"><ele>433.0</ele><time>2026-04-25T09:34:20.004Z</time></trkpt><trkpt lat="44.55557539346005" lon="10.573237575100869"><ele>432.99999999999994</ele><time>2026-04-25T09:34:21.004Z</time></trkpt><trkpt lat="44.555485487173215" lon="10.573164285252515"><ele>432.99999999999994</ele><time>2026-04-25T09:34:22.004Z</time></trkpt><trkpt lat="44.5553886629168" lon="10.573106806871488"><ele>433.0</ele><time>2026-04-25T09:34:23.004Z</time></trkpt><trkpt lat="44.5552868925834" lon="10.573061113534694"><ele>433.0</ele><time>2026-04-25T09:34:24.004Z</time></trkpt><trkpt lat="44.55518295365012" lon="10.573007795242686"><ele>433.0</ele><time>2026-04-25T09:34:25.004Z</time></trkpt><trkpt lat="44.555088100700885" lon="10.572945917298581"><ele>432.99999999999994</ele><time>2026-04-25T09:34:26.004Z</time></trkpt><trkpt lat="44.55499525346532" lon="10.57287458519538"><ele>432.99999999999994</ele><time>2026-04-25T09:34:27.004Z</time></trkpt><trkpt lat="44.55489688455151" lon="10.57279213336283"><ele>433.0</ele><time>2026-04-25T09:34:28.004Z</time></trkpt><trkpt lat="44.55479364466568" lon="10.572699725670667"><ele>433.0</ele><time>2026-04-25T09:34:29.004Z</time></trkpt><trkpt lat="44.55468141958938" lon="10.572614434187933"><ele>433.0</ele><time>2026-04-25T09:34:30.004Z</time></trkpt><trkpt lat="44.55456553011709" lon="10.5725255009435"><ele>433.0</ele><time>2026-04-25T09:34:31.004Z</time></trkpt><trkpt lat="44.554454066497016" lon="10.572436985535289"><ele>433.0</ele><time>2026-04-25T09:34:32.004Z</time></trkpt><trkpt lat="44.55434932546993" lon="10.572359366290561"><ele>433.0</ele><time>2026-04-25T09:34:33.004Z</time></trkpt><trkpt lat="44.55425351793956" lon="10.572284705414106"><ele>432.59999999999997</ele><time>2026-04-25T09:34:34.004Z</time></trkpt><trkpt lat="44.5541633598321" lon="10.57221054877006"><ele>432.19999999999993</ele><time>2026-04-25T09:34:35.004Z</time></trkpt><trkpt lat="44.554080197845074" lon="10.572146021091047"><ele>431.8</ele><time>2026-04-25T09:34:36.004Z</time></trkpt><trkpt lat="44.55399238691362" lon="10.57208108429219"><ele>431.4</ele><time>2026-04-25T09:34:37.004Z</time></trkpt><trkpt lat="44.553903537354266" lon="10.572015181277791"><ele>431.0</ele><time>2026-04-25T09:34:38.004Z</time></trkpt><trkpt lat="44.55381507080587" lon="10.571940229078404"><ele>431.0</ele><time>2026-04-25T09:34:39.004Z</time></trkpt><trkpt lat="44.55373707010026" lon="10.571868932000308"><ele>431.0</ele><time>2026-04-25T09:34:40.004Z</time></trkpt><trkpt lat="44.553668657302865" lon="10.571799408446275"><ele>431.0</ele><time>2026-04-25T09:34:41.004Z</time></trkpt><trkpt lat="44.553599846026785" lon="10.571741829116803"><ele>431.0</ele><time>2026-04-25T09:34:42.004Z</time></trkpt><trkpt lat="44.55353538052135" lon="10.571699285641136"><ele>431.0</ele><time>2026-04-25T09:34:43.004Z</time></trkpt><trkpt lat="44.55341110821695" lon="10.57171019049443"><ele>431.8</ele><time>2026-04-25T09:34:45.004Z</time></trkpt><trkpt lat="44.55334000613386" lon="10.571725448110092"><ele>432.6</ele><time>2026-04-25T09:34:46.004Z</time></trkpt><trkpt lat="44.55324923793814" lon="10.571765413448876"><ele>433.4</ele><time>2026-04-25T09:34:47.004Z</time></trkpt><trkpt lat="44.55316996845032" lon="10.57182035994091"><ele>434.2</ele><time>2026-04-25T09:34:48.004Z</time></trkpt><trkpt lat="44.55309942944384" lon="10.571913821039642"><ele>435.0</ele><time>2026-04-25T09:34:49.004Z</time></trkpt><trkpt lat="44.55302401065968" lon="10.572010922741992"><ele>435.0</ele><time>2026-04-25T09:34:50.004Z</time></trkpt><trkpt lat="44.552955973324664" lon="10.572108607829003"><ele>435.0</ele><time>2026-04-25T09:34:51.004Z</time></trkpt><trkpt lat="44.55289446792162" lon="10.57220788373963"><ele>435.0</ele><time>2026-04-25T09:34:52.004Z</time></trkpt><trkpt lat="44.552827964875135" lon="10.572303512095234"><ele>435.0</ele><time>2026-04-25T09:34:53.004Z</time></trkpt><trkpt lat="44.55276169329384" lon="10.572403345639847"><ele>435.0</ele><time>2026-04-25T09:34:54.004Z</time></trkpt><trkpt lat="44.552691742793506" lon="10.572510881527112"><ele>435.0</ele><time>2026-04-25T09:34:55.004Z</time></trkpt><trkpt lat="44.55262988426846" lon="10.572617785569571"><ele>435.0</ele><time>2026-04-25T09:34:56.004Z</time></trkpt><trkpt lat="44.55256356771192" lon="10.572714729673496"><ele>435.0</ele><time>2026-04-25T09:34:57.004Z</time></trkpt><trkpt lat="44.55250321183008" lon="10.572819191419388"><ele>435.0</ele><time>2026-04-25T09:34:58.004Z</time></trkpt><trkpt lat="44.5524409324536" lon="10.572938252768088"><ele>435.0</ele><time>2026-04-25T09:34:59.004Z</time></trkpt><trkpt lat="44.5523858033335" lon="10.573079664246269"><ele>434.0</ele><time>2026-04-25T09:35:00.004Z</time></trkpt><trkpt lat="44.55233647232099" lon="10.573230157838788"><ele>433.0</ele><time>2026-04-25T09:35:01.004Z</time></trkpt><trkpt lat="44.55226957993503" lon="10.573376003628676"><ele>432.0</ele><time>2026-04-25T09:35:02.004Z</time></trkpt><trkpt lat="44.55222694517342" lon="10.57355797537457"><ele>431.0</ele><time>2026-04-25T09:35:03.004Z</time></trkpt><trkpt lat="44.5521652066836" lon="10.573718501820213"><ele>430.0</ele><time>2026-04-25T09:35:04.004Z</time></trkpt><trkpt lat="44.552116558745304" lon="10.57388135667139"><ele>429.0</ele><time>2026-04-25T09:35:05.004Z</time></trkpt><trkpt lat="44.55207265695841" lon="10.574044322918377"><ele>428.0</ele><time>2026-04-25T09:35:06.004Z</time></trkpt><trkpt lat="44.55201812803819" lon="10.574195217725212"><ele>427.0</ele><time>2026-04-25T09:35:07.004Z</time></trkpt><trkpt lat="44.55195673248308" lon="10.574341501802028"><ele>427.0</ele><time>2026-04-25T09:35:08.004Z</time></trkpt><trkpt lat="44.55188929741508" lon="10.574491244579969"><ele>427.0</ele><time>2026-04-25T09:35:09.004Z</time></trkpt><trkpt lat="44.55181272230979" lon="10.574626503550824"><ele>427.0</ele><time>2026-04-25T09:35:10.004Z</time></trkpt><trkpt lat="44.551727791211256" lon="10.574762298454075"><ele>427.0</ele><time>2026-04-25T09:35:11.004Z</time></trkpt><trkpt lat="44.55164401198494" lon="10.574897790222037"><ele>426.75</ele><time>2026-04-25T09:35:12.004Z</time></trkpt><trkpt lat="44.551558278599614" lon="10.575036439427498"><ele>426.5</ele><time>2026-04-25T09:35:13.004Z</time></trkpt><trkpt lat="44.55146786014587" lon="10.575153200076462"><ele>426.25</ele><time>2026-04-25T09:35:14.004Z</time></trkpt><trkpt lat="44.55136319374617" lon="10.57521210773285"><ele>426.0</ele><time>2026-04-25T09:35:15.005Z</time></trkpt><trkpt lat="44.55127694550714" lon="10.57525122906183"><ele>430.8</ele><time>2026-04-25T09:35:16.005Z</time></trkpt><trkpt lat="44.551188947434014" lon="10.575239282433616"><ele>435.6</ele><time>2026-04-25T09:35:17.005Z</time></trkpt><trkpt lat="44.551106389471705" lon="10.575198841103179"><ele>440.4</ele><time>2026-04-25T09:35:18.005Z</time></trkpt><trkpt lat="44.55103694489185" lon="10.575118367424093"><ele>445.2</ele><time>2026-04-25T09:35:19.005Z</time></trkpt><trkpt lat="44.55097537822622" lon="10.575011060036116"><ele>450.0</ele><time>2026-04-25T09:35:20.005Z</time></trkpt><trkpt lat="44.5509277840216" lon="10.574889258689065"><ele>450.0</ele><time>2026-04-25T09:35:21.005Z</time></trkpt><trkpt lat="44.550881318059645" lon="10.574773418587318"><ele>450.0</ele><time>2026-04-25T09:35:22.005Z</time></trkpt><trkpt lat="44.550821874875744" lon="10.574669176577666"><ele>450.0</ele><time>2026-04-25T09:35:23.005Z</time></trkpt><trkpt lat="44.55078930843412" lon="10.574540284768712"><ele>450.0</ele><time>2026-04-25T09:35:24.005Z</time></trkpt><trkpt lat="44.55073162112613" lon="10.574441885047293"><ele>450.0</ele><time>2026-04-25T09:35:25.005Z</time></trkpt><trkpt lat="44.55068200780462" lon="10.574334393716166"><ele>450.6</ele><time>2026-04-25T09:35:26.005Z</time></trkpt><trkpt lat="44.5506191609264" lon="10.574233102734212"><ele>451.2</ele><time>2026-04-25T09:35:27.005Z</time></trkpt><trkpt lat="44.550542561005535" lon="10.57416158924165"><ele>451.79999999999995</ele><time>2026-04-25T09:35:28.005Z</time></trkpt><trkpt lat="44.55045301120028" lon="10.574108328278509"><ele>452.4</ele><time>2026-04-25T09:35:29.005Z</time></trkpt><trkpt lat="44.550352503391494" lon="10.57406419014316"><ele>453.0</ele><time>2026-04-25T09:35:30.005Z</time></trkpt><trkpt lat="44.550250709878576" lon="10.574045153362638"><ele>453.0</ele><time>2026-04-25T09:35:31.005Z</time></trkpt><trkpt lat="44.550152104420725" lon="10.57403760571191"><ele>452.99999999999994</ele><time>2026-04-25T09:35:32.005Z</time></trkpt><trkpt lat="44.55005167630447" lon="10.574052077624065"><ele>452.99999999999994</ele><time>2026-04-25T09:35:33.005Z</time></trkpt><trkpt lat="44.54994999362076" lon="10.574058345535406"><ele>453.0</ele><time>2026-04-25T09:35:34.005Z</time></trkpt><trkpt lat="44.54985641840035" lon="10.574005168411112"><ele>453.0</ele><time>2026-04-25T09:35:35.005Z</time></trkpt><trkpt lat="44.54977165246047" lon="10.57392826924965"><ele>453.0</ele><time>2026-04-25T09:35:36.005Z</time></trkpt><trkpt lat="44.54967979769523" lon="10.57388995907543"><ele>452.99999999999994</ele><time>2026-04-25T09:35:37.005Z</time></trkpt><trkpt lat="44.54958815075085" lon="10.573869555864169"><ele>452.99999999999994</ele><time>2026-04-25T09:35:38.005Z</time></trkpt><trkpt lat="44.5494996383674" lon="10.573855197459308"><ele>453.0</ele><time>2026-04-25T09:35:39.005Z</time></trkpt><trkpt lat="44.54940928996419" lon="10.573842587057925"><ele>453.0</ele><time>2026-04-25T09:35:40.005Z</time></trkpt><trkpt lat="44.54931083291825" lon="10.573829925355229"><ele>454.79999999999995</ele><time>2026-04-25T09:35:41.005Z</time></trkpt><trkpt lat="44.54920796436056" lon="10.573823522007576"><ele>456.59999999999997</ele><time>2026-04-25T09:35:42.005Z</time></trkpt><trkpt lat="44.54910167491705" lon="10.573823277434585"><ele>458.40000000000003</ele><time>2026-04-25T09:35:43.005Z</time></trkpt><trkpt lat="44.54899659728189" lon="10.573832843545452"><ele>460.20000000000005</ele><time>2026-04-25T09:35:44.005Z</time></trkpt><trkpt lat="44.54888287890242" lon="10.573845539562774"><ele>462.0</ele><time>2026-04-25T09:35:45.005Z</time></trkpt><trkpt lat="44.54877322605957" lon="10.573857781683886"><ele>462.20000000000005</ele><time>2026-04-25T09:35:46.005Z</time></trkpt><trkpt lat="44.548673440050564" lon="10.573891559959545"><ele>462.40000000000003</ele><time>2026-04-25T09:35:47.005Z</time></trkpt><trkpt lat="44.548576020979155" lon="10.573894615646939"><ele>462.59999999999997</ele><time>2026-04-25T09:35:48.005Z</time></trkpt><trkpt lat="44.54848374244479" lon="10.573921869595337"><ele>462.79999999999995</ele><time>2026-04-25T09:35:49.005Z</time></trkpt><trkpt lat="44.548395939496935" lon="10.573958386868933"><ele>463.0</ele><time>2026-04-25T09:35:50.005Z</time></trkpt><trkpt lat="44.54830900570127" lon="10.574010747408382"><ele>463.0</ele><time>2026-04-25T09:35:51.005Z</time></trkpt><trkpt lat="44.54822557616994" lon="10.574069301534802"><ele>462.99999999999994</ele><time>2026-04-25T09:35:52.005Z</time></trkpt><trkpt lat="44.54813793592858" lon="10.574133739541884"><ele>462.99999999999994</ele><time>2026-04-25T09:35:53.005Z</time></trkpt><trkpt lat="44.54805438655002" lon="10.5742025811719"><ele>463.0</ele><time>2026-04-25T09:35:54.005Z</time></trkpt><trkpt lat="44.54798236452509" lon="10.574293547396213"><ele>463.0</ele><time>2026-04-25T09:35:55.005Z</time></trkpt><trkpt lat="44.54791553273904" lon="10.574401313934734"><ele>464.2</ele><time>2026-04-25T09:35:56.005Z</time></trkpt><trkpt lat="44.547855819121025" lon="10.57452722191853"><ele>465.4</ele><time>2026-04-25T09:35:57.005Z</time></trkpt><trkpt lat="44.547780197881934" lon="10.5746378091039"><ele>466.59999999999997</ele><time>2026-04-25T09:35:58.005Z</time></trkpt><trkpt lat="44.54771904501252" lon="10.574754946171819"><ele>467.79999999999995</ele><time>2026-04-25T09:35:59.005Z</time></trkpt><trkpt lat="44.547664056338455" lon="10.57486182298808"><ele>469.0</ele><time>2026-04-25T09:36:00.005Z</time></trkpt><trkpt lat="44.547597754260316" lon="10.574966042343995"><ele>469.0</ele><time>2026-04-25T09:36:01.005Z</time></trkpt><trkpt lat="44.547548073924155" lon="10.575083402750044"><ele>469.0</ele><time>2026-04-25T09:36:02.005Z</time></trkpt><trkpt lat="44.547504902197964" lon="10.57519999712733"><ele>469.0</ele><time>2026-04-25T09:36:03.005Z</time></trkpt><trkpt lat="44.54746769100744" lon="10.575325919694823"><ele>469.0</ele><time>2026-04-25T09:36:04.005Z</time></trkpt><trkpt lat="44.547436465089945" lon="10.575456688716432"><ele>469.0</ele><time>2026-04-25T09:36:05.005Z</time></trkpt><trkpt lat="44.54739742250518" lon="10.575587505671479"><ele>472.0</ele><time>2026-04-25T09:36:06.005Z</time></trkpt><trkpt lat="44.54736333304919" lon="10.575703754812084"><ele>475.0</ele><time>2026-04-25T09:36:07.005Z</time></trkpt><trkpt lat="44.547315780589" lon="10.575830269630673"><ele>478.0</ele><time>2026-04-25T09:36:08.005Z</time></trkpt><trkpt lat="44.54727390809919" lon="10.575960957433105"><ele>481.0</ele><time>2026-04-25T09:36:09.005Z</time></trkpt><trkpt lat="44.547229082916274" lon="10.576088246581401"><ele>484.0</ele><time>2026-04-25T09:36:10.005Z</time></trkpt><trkpt lat="44.547173868806745" lon="10.576214823565486"><ele>485.00000000000006</ele><time>2026-04-25T09:36:11.005Z</time></trkpt><trkpt lat="44.54711144588086" lon="10.576324286391294"><ele>486.0</ele><time>2026-04-25T09:36:12.005Z</time></trkpt><trkpt lat="44.5470493263707" lon="10.576396325768254"><ele>487.0</ele><time>2026-04-25T09:36:13.005Z</time></trkpt><trkpt lat="44.54698435826754" lon="10.576429794404978"><ele>488.0</ele><time>2026-04-25T09:36:14.005Z</time></trkpt><trkpt lat="44.546921701838215" lon="10.576403789352568"><ele>489.00000000000006</ele><time>2026-04-25T09:36:15.005Z</time></trkpt><trkpt lat="44.546872271539634" lon="10.57632323798302"><ele>490.0</ele><time>2026-04-25T09:36:16.005Z</time></trkpt><trkpt lat="44.54687379680397" lon="10.576208844142391"><ele>488.83333333333337</ele><time>2026-04-25T09:36:17.005Z</time></trkpt><trkpt lat="44.54684843488465" lon="10.576088516946436"><ele>487.6666666666667</ele><time>2026-04-25T09:36:18.005Z</time></trkpt><trkpt lat="44.546842455666365" lon="10.575960119334583"><ele>486.5</ele><time>2026-04-25T09:36:19.005Z</time></trkpt><trkpt lat="44.54681700753002" lon="10.575848199163085"><ele>485.33333333333337</ele><time>2026-04-25T09:36:20.005Z</time></trkpt><trkpt lat="44.54676656112553" lon="10.575781572240595"><ele>484.1666666666667</ele><time>2026-04-25T09:36:21.005Z</time></trkpt><trkpt lat="44.54670333853519" lon="10.575762448682276"><ele>483.0</ele><time>2026-04-25T09:36:22.005Z</time></trkpt><trkpt lat="44.546619372646184" lon="10.575800958857144"><ele>483.0</ele><time>2026-04-25T09:36:23.005Z</time></trkpt><trkpt lat="44.54654579618494" lon="10.575886874723622"><ele>482.99999999999994</ele><time>2026-04-25T09:36:24.005Z</time></trkpt><trkpt lat="44.54649524732122" lon="10.576016549718153"><ele>482.99999999999994</ele><time>2026-04-25T09:36:25.005Z</time></trkpt><trkpt lat="44.54643931968842" lon="10.57615776124328"><ele>483.0</ele><time>2026-04-25T09:36:26.005Z</time></trkpt><trkpt lat="44.546357083686054" lon="10.576239852488143"><ele>483.0</ele><time>2026-04-25T09:36:27.005Z</time></trkpt><trkpt lat="44.54627726097342" lon="10.576318836857615"><ele>484.59999999999997</ele><time>2026-04-25T09:36:28.005Z</time></trkpt><trkpt lat="44.54620221884992" lon="10.576395064001604"><ele>486.19999999999993</ele><time>2026-04-25T09:36:29.005Z</time></trkpt><trkpt lat="44.546125205269746" lon="10.576461194940888"><ele>487.8</ele><time>2026-04-25T09:36:30.005Z</time></trkpt><trkpt lat="44.54604076958862" lon="10.576521458404125"><ele>489.4</ele><time>2026-04-25T09:36:31.005Z</time></trkpt><trkpt lat="44.545948657682416" lon="10.576566767049275"><ele>491.0</ele><time>2026-04-25T09:36:32.005Z</time></trkpt><trkpt lat="44.54585056284739" lon="10.576634631033244"><ele>491.0</ele><time>2026-04-25T09:36:33.005Z</time></trkpt><trkpt lat="44.545741724165865" lon="10.576659978604205"><ele>491.0</ele><time>2026-04-25T09:36:34.005Z</time></trkpt><trkpt lat="44.545640617858965" lon="10.576688098889855"><ele>491.0</ele><time>2026-04-25T09:36:35.005Z</time></trkpt><trkpt lat="44.54554706997102" lon="10.576673366111777"><ele>491.0</ele><time>2026-04-25T09:36:36.005Z</time></trkpt><trkpt lat="44.54544141574543" lon="10.576669060975641"><ele>491.0</ele><time>2026-04-25T09:36:37.005Z</time></trkpt><trkpt lat="44.545340052032095" lon="10.576582266149414"><ele>488.8</ele><time>2026-04-25T09:36:38.005Z</time></trkpt><trkpt lat="44.54526207252748" lon="10.576467360783742"><ele>486.6</ele><time>2026-04-25T09:36:39.005Z</time></trkpt><trkpt lat="44.54518660364914" lon="10.576354313138218"><ele>484.4</ele><time>2026-04-25T09:36:40.005Z</time></trkpt><trkpt lat="44.545110943315805" lon="10.576252567159054"><ele>482.2</ele><time>2026-04-25T09:36:41.005Z</time></trkpt><trkpt lat="44.545034186989994" lon="10.576173178019088"><ele>480.0</ele><time>2026-04-25T09:36:42.005Z</time></trkpt><trkpt lat="44.544955091739034" lon="10.576116000250021"><ele>479.8</ele><time>2026-04-25T09:36:43.005Z</time></trkpt><trkpt lat="44.544861261827066" lon="10.576080860505245"><ele>479.6</ele><time>2026-04-25T09:36:44.005Z</time></trkpt><trkpt lat="44.544767315624235" lon="10.576072687949257"><ele>479.4</ele><time>2026-04-25T09:36:45.005Z</time></trkpt><trkpt lat="44.544678527565736" lon="10.576079147478925"><ele>479.2</ele><time>2026-04-25T09:36:46.005Z</time></trkpt><trkpt lat="44.54458805179302" lon="10.576061802075127"><ele>479.0</ele><time>2026-04-25T09:36:47.005Z</time></trkpt><trkpt lat="44.54450216101415" lon="10.575984734916561"><ele>480.2</ele><time>2026-04-25T09:36:48.005Z</time></trkpt><trkpt lat="44.54441373202843" lon="10.575892438415039"><ele>481.4</ele><time>2026-04-25T09:36:49.005Z</time></trkpt><trkpt lat="44.544329849512685" lon="10.575785167477077"><ele>482.6</ele><time>2026-04-25T09:36:50.005Z</time></trkpt><trkpt lat="44.544262202526426" lon="10.575652953239512"><ele>483.8</ele><time>2026-04-25T09:36:51.005Z</time></trkpt><trkpt lat="44.54418705259036" lon="10.575543355384982"><ele>485.0</ele><time>2026-04-25T09:36:52.005Z</time></trkpt><trkpt lat="44.544107391829044" lon="10.575445788360938"><ele>485.0</ele><time>2026-04-25T09:36:53.005Z</time></trkpt><trkpt lat="44.54402543817428" lon="10.575365763057736"><ele>485.0</ele><time>2026-04-25T09:36:54.005Z</time></trkpt><trkpt lat="44.54395026431717" lon="10.57529875571135"><ele>485.0</ele><time>2026-04-25T09:36:55.005Z</time></trkpt><trkpt lat="44.543874060158124" lon="10.575221823859"><ele>485.0</ele><time>2026-04-25T09:36:56.005Z</time></trkpt><trkpt lat="44.54380434200442" lon="10.57513925284683"><ele>485.0</ele><time>2026-04-25T09:36:57.005Z</time></trkpt><trkpt lat="44.54374080530713" lon="10.575048249589528"><ele>487.49999999999994</ele><time>2026-04-25T09:36:58.005Z</time></trkpt><trkpt lat="44.54369013037319" lon="10.574953459845359"><ele>490.0</ele><time>2026-04-25T09:36:59.005Z</time></trkpt><trkpt lat="44.543639556782665" lon="10.574847056525217"><ele>492.5</ele><time>2026-04-25T09:37:00.005Z</time></trkpt><trkpt lat="44.54359657893336" lon="10.574737566314386"><ele>495.0</ele><time>2026-04-25T09:37:01.005Z</time></trkpt><trkpt lat="44.5435759160814" lon="10.57461858603221"><ele>497.49999999999994</ele><time>2026-04-25T09:37:02.005Z</time></trkpt><trkpt lat="44.54355148819642" lon="10.574499150634002"><ele>500.0</ele><time>2026-04-25T09:37:03.005Z</time></trkpt><trkpt lat="44.543525729378175" lon="10.574385447972782"><ele>500.3333333333333</ele><time>2026-04-25T09:37:04.005Z</time></trkpt><trkpt lat="44.543485518868835" lon="10.574274042213421"><ele>500.66666666666663</ele><time>2026-04-25T09:37:05.005Z</time></trkpt><trkpt lat="44.5434519617639" lon="10.574159318089936"><ele>501.0</ele><time>2026-04-25T09:37:06.005Z</time></trkpt><trkpt lat="44.5433742913293" lon="10.574084783128233"><ele>501.33333333333337</ele><time>2026-04-25T09:37:07.005Z</time></trkpt><trkpt lat="44.54331776776853" lon="10.573988572341989"><ele>501.6666666666667</ele><time>2026-04-25T09:37:08.005Z</time></trkpt><trkpt lat="44.5432351988762" lon="10.573943247087227"><ele>502.0</ele><time>2026-04-25T09:37:09.005Z</time></trkpt><trkpt lat="44.543162129937386" lon="10.57389742724889"><ele>502.00000000000006</ele><time>2026-04-25T09:37:10.005Z</time></trkpt><trkpt lat="44.543075344601185" lon="10.573871155530023"><ele>502.0</ele><time>2026-04-25T09:37:11.005Z</time></trkpt><trkpt lat="44.54298739076021" lon="10.573860430815868"><ele>502.0</ele><time>2026-04-25T09:37:12.005Z</time></trkpt><trkpt lat="44.5428975336277" lon="10.573869028436462"><ele>502.0</ele><time>2026-04-25T09:37:13.005Z</time></trkpt><trkpt lat="44.542814250902694" lon="10.573896803379764"><ele>502.00000000000006</ele><time>2026-04-25T09:37:14.005Z</time></trkpt><trkpt lat="44.54273692065808" lon="10.57394767130849"><ele>502.0</ele><time>2026-04-25T09:37:15.005Z</time></trkpt><trkpt lat="44.54266000427059" lon="10.574002025331758"><ele>502.6</ele><time>2026-04-25T09:37:16.005Z</time></trkpt><trkpt lat="44.542608209752686" lon="10.574115280691936"><ele>503.20000000000005</ele><time>2026-04-25T09:37:17.005Z</time></trkpt><trkpt lat="44.54255063583883" lon="10.57422387363643"><ele>503.8</ele><time>2026-04-25T09:37:18.005Z</time></trkpt><trkpt lat="44.54248942922599" lon="10.574334748344826"><ele>504.4</ele><time>2026-04-25T09:37:19.005Z</time></trkpt><trkpt lat="44.542437208535326" lon="10.574451086481911"><ele>505.0</ele><time>2026-04-25T09:37:20.005Z</time></trkpt><trkpt lat="44.54238857661225" lon="10.574573229593936"><ele>505.0</ele><time>2026-04-25T09:37:21.005Z</time></trkpt><trkpt lat="44.542337663506075" lon="10.574687005722376"><ele>505.0</ele><time>2026-04-25T09:37:22.005Z</time></trkpt><trkpt lat="44.542303649101875" lon="10.574813927211677"><ele>505.0</ele><time>2026-04-25T09:37:23.005Z</time></trkpt><trkpt lat="44.54225294486913" lon="10.574904971510298"><ele>505.0</ele><time>2026-04-25T09:37:24.005Z</time></trkpt><trkpt lat="44.542172173366" lon="10.574974606868299"><ele>505.0</ele><time>2026-04-25T09:37:25.005Z</time></trkpt><trkpt lat="44.542064804666474" lon="10.574993230982686"><ele>504.75</ele><time>2026-04-25T09:37:26.005Z</time></trkpt><trkpt lat="44.5419419701165" lon="10.575009013134661"><ele>504.5</ele><time>2026-04-25T09:37:27.005Z</time></trkpt><trkpt lat="44.54182882159132" lon="10.575010345770487"><ele>504.25</ele><time>2026-04-25T09:37:28.005Z</time></trkpt><trkpt lat="44.5417144988786" lon="10.574985440452009"><ele>504.0</ele><time>2026-04-25T09:37:29.005Z</time></trkpt><trkpt lat="44.54161446439747" lon="10.574920758062438"><ele>504.0</ele><time>2026-04-25T09:37:30.005Z</time></trkpt><trkpt lat="44.54153303587131" lon="10.57482808811224"><ele>504.0</ele><time>2026-04-25T09:37:31.005Z</time></trkpt><trkpt lat="44.5414551791496" lon="10.574725309545553"><ele>504.0</ele><time>2026-04-25T09:37:32.005Z</time></trkpt><trkpt lat="44.5413842651348" lon="10.574639409160472"><ele>504.0</ele><time>2026-04-25T09:37:33.005Z</time></trkpt><trkpt lat="44.54132096172371" lon="10.574554348891859"><ele>504.0</ele><time>2026-04-25T09:37:34.005Z</time></trkpt><trkpt lat="44.541257912868126" lon="10.574496202195848"><ele>508.3333333333333</ele><time>2026-04-25T09:37:35.005Z</time></trkpt><trkpt lat="44.54118239120708" lon="10.574450024982905"><ele>512.6666666666666</ele><time>2026-04-25T09:37:36.005Z</time></trkpt><trkpt lat="44.54111007255889" lon="10.574375812040579"><ele>517.0</ele><time>2026-04-25T09:37:37.005Z</time></trkpt><trkpt lat="44.541020222013664" lon="10.574341967398531"><ele>521.3333333333333</ele><time>2026-04-25T09:37:38.005Z</time></trkpt><trkpt lat="44.5409309624584" lon="10.574346995684596"><ele>525.6666666666666</ele><time>2026-04-25T09:37:39.005Z</time></trkpt><trkpt lat="44.540845085602136" lon="10.574400760628096"><ele>530.0</ele><time>2026-04-25T09:37:40.005Z</time></trkpt><trkpt lat="44.54075611080373" lon="10.57446932435764"><ele>524.75</ele><time>2026-04-25T09:37:41.005Z</time></trkpt><trkpt lat="44.540713152889644" lon="10.57464280282648"><ele>519.5</ele><time>2026-04-25T09:37:42.005Z</time></trkpt><trkpt lat="44.54068728916994" lon="10.574816253321693"><ele>514.25</ele><time>2026-04-25T09:37:43.005Z</time></trkpt><trkpt lat="44.54070004194824" lon="10.574990202617398"><ele>509.0</ele><time>2026-04-25T09:37:44.005Z</time></trkpt><trkpt lat="44.5407162411649" lon="10.575137027461727"><ele>509.0</ele><time>2026-04-25T09:37:45.005Z</time></trkpt><trkpt lat="44.54069386172125" lon="10.575257948294997"><ele>509.0</ele><time>2026-04-25T09:37:46.005Z</time></trkpt><trkpt lat="44.5406471989741" lon="10.575359946454451"><ele>509.0</ele><time>2026-04-25T09:37:47.005Z</time></trkpt><trkpt lat="44.54059301664381" lon="10.575489327281565"><ele>509.0</ele><time>2026-04-25T09:37:48.005Z</time></trkpt><trkpt lat="44.540536073306036" lon="10.57560118643498"><ele>509.0</ele><time>2026-04-25T09:37:49.006Z</time></trkpt><trkpt lat="44.54049066940398" lon="10.575716141810092"><ele>510.4</ele><time>2026-04-25T09:37:50.006Z</time></trkpt><trkpt lat="44.54041381633514" lon="10.575808754516988"><ele>511.79999999999995</ele><time>2026-04-25T09:37:51.006Z</time></trkpt><trkpt lat="44.540336982221426" lon="10.575895255122411"><ele>513.2</ele><time>2026-04-25T09:37:52.006Z</time></trkpt><trkpt lat="44.54025230166562" lon="10.57596482392304"><ele>514.6</ele><time>2026-04-25T09:37:53.006Z</time></trkpt><trkpt lat="44.540162123461734" lon="10.576030565847722"><ele>516.0</ele><time>2026-04-25T09:37:54.006Z</time></trkpt><trkpt lat="44.54006144466849" lon="10.576088107180041"><ele>516.0</ele><time>2026-04-25T09:37:55.006Z</time></trkpt><trkpt lat="44.53995182879991" lon="10.576146583623926"><ele>516.0</ele><time>2026-04-25T09:37:56.006Z</time></trkpt><trkpt lat="44.53984590558393" lon="10.57622016785735"><ele>516.0</ele><time>2026-04-25T09:37:57.006Z</time></trkpt><trkpt lat="44.53973974410288" lon="10.576258345414969"><ele>516.0</ele><time>2026-04-25T09:37:58.006Z</time></trkpt><trkpt lat="44.53963635038503" lon="10.576288520957808"><ele>516.75</ele><time>2026-04-25T09:37:59.006Z</time></trkpt><trkpt lat="44.539528849900606" lon="10.576307476794502"><ele>517.5</ele><time>2026-04-25T09:38:00.006Z</time></trkpt><trkpt lat="44.53942526908578" lon="10.576308104886058"><ele>518.25</ele><time>2026-04-25T09:38:01.006Z</time></trkpt><trkpt lat="44.539308918266414" lon="10.576312866537778"><ele>519.0</ele><time>2026-04-25T09:38:02.006Z</time></trkpt><trkpt lat="44.53918513046897" lon="10.576353678608672"><ele>519.0</ele><time>2026-04-25T09:38:03.006Z</time></trkpt><trkpt lat="44.53907950751244" lon="10.57642109813543"><ele>519.0</ele><time>2026-04-25T09:38:04.006Z</time></trkpt><trkpt lat="44.53897507912606" lon="10.576484997089464"><ele>519.0</ele><time>2026-04-25T09:38:05.006Z</time></trkpt><trkpt lat="44.53888139735333" lon="10.576572229090173"><ele>519.0</ele><time>2026-04-25T09:38:06.006Z</time></trkpt><trkpt lat="44.538785948175644" lon="10.57665470748688"><ele>520.0</ele><time>2026-04-25T09:38:07.006Z</time></trkpt><trkpt lat="44.538692282684565" lon="10.576738214550527"><ele>521.0</ele><time>2026-04-25T09:38:08.006Z</time></trkpt><trkpt lat="44.53859660528082" lon="10.57681323946045"><ele>522.0</ele><time>2026-04-25T09:38:09.006Z</time></trkpt><trkpt lat="44.53851664494652" lon="10.576917472274115"><ele>523.0</ele><time>2026-04-25T09:38:10.006Z</time></trkpt><trkpt lat="44.53844618703427" lon="10.577025883102717"><ele>524.0</ele><time>2026-04-25T09:38:11.006Z</time></trkpt><trkpt lat="44.53837742981467" lon="10.577142252057827"><ele>524.0</ele><time>2026-04-25T09:38:12.006Z</time></trkpt><trkpt lat="44.53829084746032" lon="10.577231522560453"><ele>524.0</ele><time>2026-04-25T09:38:13.006Z</time></trkpt><trkpt lat="44.53821834342141" lon="10.57734127683499"><ele>524.0</ele><time>2026-04-25T09:38:14.006Z</time></trkpt><trkpt lat="44.53812371553772" lon="10.57743990450211"><ele>524.0</ele><time>2026-04-25T09:38:15.006Z</time></trkpt><trkpt lat="44.53804445017464" lon="10.577543813693413"><ele>524.0</ele><time>2026-04-25T09:38:16.006Z</time></trkpt><trkpt lat="44.537975484845" lon="10.57763421607832"><ele>524.0</ele><time>2026-04-25T09:38:17.006Z</time></trkpt><trkpt lat="44.537910612296216" lon="10.577708623674933"><ele>524.0</ele><time>2026-04-25T09:38:18.006Z</time></trkpt><trkpt lat="44.53785442513504" lon="10.577779041782359"><ele>524.0</ele><time>2026-04-25T09:38:19.006Z</time></trkpt><trkpt lat="44.537790591583445" lon="10.577861153147651"><ele>524.0</ele><time>2026-04-25T09:38:20.006Z</time></trkpt><trkpt lat="44.53772912892936" lon="10.577942773538242"><ele>524.0</ele><time>2026-04-25T09:38:21.006Z</time></trkpt><trkpt lat="44.53767072944789" lon="10.578029658586981"><ele>524.0</ele><time>2026-04-25T09:38:22.006Z</time></trkpt><trkpt lat="44.53758866468124" lon="10.578100801488317"><ele>526.8</ele><time>2026-04-25T09:38:23.006Z</time></trkpt><trkpt lat="44.53752137720869" lon="10.578188460309965"><ele>529.5999999999999</ele><time>2026-04-25T09:38:24.006Z</time></trkpt><trkpt lat="44.53745761955224" lon="10.578259108211903"><ele>532.4</ele><time>2026-04-25T09:38:25.006Z</time></trkpt><trkpt lat="44.53739446511715" lon="10.578286056719081"><ele>535.1999999999999</ele><time>2026-04-25T09:38:26.006Z</time></trkpt><trkpt lat="44.537290837012364" lon="10.578163856008405"><ele>538.0</ele><time>2026-04-25T09:38:28.006Z</time></trkpt><trkpt lat="44.537316823319394" lon="10.578040131269178"><ele>538.0</ele><time>2026-04-25T09:38:29.006Z</time></trkpt><trkpt lat="44.53733315909913" lon="10.577932446989497"><ele>538.0</ele><time>2026-04-25T09:38:30.006Z</time></trkpt><trkpt lat="44.537374302541835" lon="10.577818445714621"><ele>538.0</ele><time>2026-04-25T09:38:31.006Z</time></trkpt><trkpt lat="44.537469071429406" lon="10.577736261917869"><ele>538.0</ele><time>2026-04-25T09:38:32.006Z</time></trkpt><trkpt lat="44.53758420519792" lon="10.577656789713046"><ele>538.0</ele><time>2026-04-25T09:38:33.006Z</time></trkpt><trkpt lat="44.5376885062913" lon="10.57757106692969"><ele>540.4</ele><time>2026-04-25T09:38:34.006Z</time></trkpt><trkpt lat="44.537787909251584" lon="10.577515509610045"><ele>542.8</ele><time>2026-04-25T09:38:35.006Z</time></trkpt><trkpt lat="44.53786633226423" lon="10.57745423626621"><ele>545.2</ele><time>2026-04-25T09:38:36.006Z</time></trkpt><trkpt lat="44.53794495512881" lon="10.577335373067594"><ele>547.6</ele><time>2026-04-25T09:38:38.006Z</time></trkpt><trkpt lat="44.537926446837915" lon="10.57724003316331"><ele>550.0</ele><time>2026-04-25T09:38:39.006Z</time></trkpt><trkpt lat="44.53782643964708" lon="10.577183991288754"><ele>550.0</ele><time>2026-04-25T09:38:40.006Z</time></trkpt><trkpt lat="44.537732744044426" lon="10.577245212793649"><ele>550.0</ele><time>2026-04-25T09:38:41.006Z</time></trkpt><trkpt lat="44.537650659407696" lon="10.577297264282603"><ele>550.0</ele><time>2026-04-25T09:38:42.006Z</time></trkpt><trkpt lat="44.537559989057264" lon="10.577323965524409"><ele>550.0</ele><time>2026-04-25T09:38:43.006Z</time></trkpt><trkpt lat="44.537459281995964" lon="10.577358778362273"><ele>550.0</ele><time>2026-04-25T09:38:44.006Z</time></trkpt><trkpt lat="44.53735374698208" lon="10.577392306463961"><ele>550.0</ele><time>2026-04-25T09:38:45.006Z</time></trkpt><trkpt lat="44.53724319597664" lon="10.577424807674678"><ele>550.0</ele><time>2026-04-25T09:38:46.006Z</time></trkpt><trkpt lat="44.53713077669331" lon="10.577472812421341"><ele>550.0</ele><time>2026-04-25T09:38:47.006Z</time></trkpt><trkpt lat="44.53701382007389" lon="10.57750898238575"><ele>550.0</ele><time>2026-04-25T09:38:48.006Z</time></trkpt><trkpt lat="44.536905492208355" lon="10.577604999383164"><ele>553.75</ele><time>2026-04-25T09:38:49.006Z</time></trkpt><trkpt lat="44.53682914204688" lon="10.577749784532939"><ele>557.5</ele><time>2026-04-25T09:38:50.006Z</time></trkpt><trkpt lat="44.536767232872" lon="10.577918478701866"><ele>561.25</ele><time>2026-04-25T09:38:51.006Z</time></trkpt><trkpt lat="44.53666968242488" lon="10.57802058039737"><ele>565.0</ele><time>2026-04-25T09:38:52.006Z</time></trkpt><trkpt lat="44.53655429511996" lon="10.578093891311704"><ele>565.0</ele><time>2026-04-25T09:38:53.006Z</time></trkpt><trkpt lat="44.53643157477879" lon="10.578170125552141"><ele>565.0</ele><time>2026-04-25T09:38:54.006Z</time></trkpt><trkpt lat="44.5363127914302" lon="10.578242693532369"><ele>565.0</ele><time>2026-04-25T09:38:55.006Z</time></trkpt><trkpt lat="44.53619857912969" lon="10.578303153954195"><ele>565.0</ele><time>2026-04-25T09:38:56.006Z</time></trkpt><trkpt lat="44.536093724416986" lon="10.578322104070752"><ele>564.4</ele><time>2026-04-25T09:38:57.006Z</time></trkpt><trkpt lat="44.53600360230774" lon="10.578307868815848"><ele>563.8</ele><time>2026-04-25T09:38:58.006Z</time></trkpt><trkpt lat="44.535939433642646" lon="10.578246205901122"><ele>563.2</ele><time>2026-04-25T09:38:59.006Z</time></trkpt><trkpt lat="44.53590105691234" lon="10.578118315098182"><ele>562.6</ele><time>2026-04-25T09:39:00.006Z</time></trkpt><trkpt lat="44.53588273078541" lon="10.577974115747617"><ele>562.0</ele><time>2026-04-25T09:39:01.006Z</time></trkpt><trkpt lat="44.53586190753531" lon="10.5778362116497"><ele>562.0</ele><time>2026-04-25T09:39:02.006Z</time></trkpt><trkpt lat="44.535851445493826" lon="10.577693325486367"><ele>562.0</ele><time>2026-04-25T09:39:03.006Z</time></trkpt><trkpt lat="44.535828373018504" lon="10.577575220921707"><ele>562.0</ele><time>2026-04-25T09:39:04.006Z</time></trkpt><trkpt lat="44.5357768193601" lon="10.577463981246225"><ele>562.0</ele><time>2026-04-25T09:39:05.006Z</time></trkpt><trkpt lat="44.535724902951365" lon="10.577341489471939"><ele>562.0</ele><time>2026-04-25T09:39:06.006Z</time></trkpt><trkpt lat="44.5356431949643" lon="10.577225386487113"><ele>562.0</ele><time>2026-04-25T09:39:07.006Z</time></trkpt><trkpt lat="44.53559471691035" lon="10.577096108125529"><ele>562.0</ele><time>2026-04-25T09:39:08.006Z</time></trkpt><trkpt lat="44.535594805238894" lon="10.57694373486122"><ele>562.0</ele><time>2026-04-25T09:39:09.006Z</time></trkpt><trkpt lat="44.5355841219799" lon="10.576767393501477"><ele>562.0</ele><time>2026-04-25T09:39:10.006Z</time></trkpt><trkpt lat="44.535565399106716" lon="10.576601491037886"><ele>562.5</ele><time>2026-04-25T09:39:11.006Z</time></trkpt><trkpt lat="44.53551037142775" lon="10.57644901995019"><ele>563.0</ele><time>2026-04-25T09:39:12.006Z</time></trkpt><trkpt lat="44.53542763604812" lon="10.576308841784018"><ele>563.5</ele><time>2026-04-25T09:39:13.006Z</time></trkpt><trkpt lat="44.535333909749895" lon="10.576184011417434"><ele>564.0</ele><time>2026-04-25T09:39:14.006Z</time></trkpt><trkpt lat="44.535227317681326" lon="10.57608900561834"><ele>564.0</ele><time>2026-04-25T09:39:15.006Z</time></trkpt><trkpt lat="44.535126553161774" lon="10.57598206430225"><ele>564.0</ele><time>2026-04-25T09:39:16.006Z</time></trkpt><trkpt lat="44.535043956270336" lon="10.575874186167868"><ele>564.0</ele><time>2026-04-25T09:39:17.006Z</time></trkpt><trkpt lat="44.534980392381144" lon="10.575772923594679"><ele>564.0</ele><time>2026-04-25T09:39:18.006Z</time></trkpt><trkpt lat="44.5349033667241" lon="10.575691666475409"><ele>564.0</ele><time>2026-04-25T09:39:19.006Z</time></trkpt><trkpt lat="44.534821178341964" lon="10.575634826436715"><ele>564.0</ele><time>2026-04-25T09:39:20.006Z</time></trkpt><trkpt lat="44.53473271862659" lon="10.57561330702525"><ele>564.0</ele><time>2026-04-25T09:39:21.006Z</time></trkpt><trkpt lat="44.53465891665162" lon="10.575596203348818"><ele>564.0</ele><time>2026-04-25T09:39:22.006Z</time></trkpt><trkpt lat="44.5345867707611" lon="10.575573099108599"><ele>564.0</ele><time>2026-04-25T09:39:23.006Z</time></trkpt><trkpt lat="44.534520459564455" lon="10.575540549277122"><ele>564.0</ele><time>2026-04-25T09:39:24.006Z</time></trkpt><trkpt lat="44.534458074369105" lon="10.575514684122743"><ele>564.0</ele><time>2026-04-25T09:39:25.006Z</time></trkpt><trkpt lat="44.53438763001646" lon="10.57550110177788"><ele>564.0</ele><time>2026-04-25T09:39:26.006Z</time></trkpt><trkpt lat="44.53431639636367" lon="10.57549686277821"><ele>561.1666666666666</ele><time>2026-04-25T09:39:27.006Z</time></trkpt><trkpt lat="44.534250550113775" lon="10.57550200078371"><ele>558.3333333333334</ele><time>2026-04-25T09:39:28.006Z</time></trkpt><trkpt lat="44.53418017872987" lon="10.575496845050061"><ele>555.5</ele><time>2026-04-25T09:39:29.006Z</time></trkpt><trkpt lat="44.534109248956625" lon="10.575479753475353"><ele>552.6666666666667</ele><time>2026-04-25T09:39:30.006Z</time></trkpt><trkpt lat="44.53403165947923" lon="10.575463556981878"><ele>549.8333333333334</ele><time>2026-04-25T09:39:31.006Z</time></trkpt><trkpt lat="44.53394730069338" lon="10.575427037380251"><ele>547.0</ele><time>2026-04-25T09:39:32.006Z</time></trkpt><trkpt lat="44.53386535759477" lon="10.57537737132068"><ele>548.8000000000001</ele><time>2026-04-25T09:39:33.006Z</time></trkpt><trkpt lat="44.53377597480613" lon="10.575322383853477"><ele>550.6</ele><time>2026-04-25T09:39:34.006Z</time></trkpt><trkpt lat="44.53369569652693" lon="10.575254926057639"><ele>552.4000000000001</ele><time>2026-04-25T09:39:35.006Z</time></trkpt><trkpt lat="44.53361015105545" lon="10.57518926333421"><ele>554.2</ele><time>2026-04-25T09:39:36.006Z</time></trkpt><trkpt lat="44.533524105574216" lon="10.575129291214948"><ele>556.0</ele><time>2026-04-25T09:39:37.006Z</time></trkpt><trkpt lat="44.53343642492043" lon="10.575068452199181"><ele>556.0</ele><time>2026-04-25T09:39:38.006Z</time></trkpt><trkpt lat="44.53334784303788" lon="10.574993381568126"><ele>556.0</ele><time>2026-04-25T09:39:39.006Z</time></trkpt><trkpt lat="44.53326676192256" lon="10.57491103613361"><ele>556.0</ele><time>2026-04-25T09:39:40.006Z</time></trkpt><trkpt lat="44.53319833493501" lon="10.57481188644691"><ele>556.0</ele><time>2026-04-25T09:39:41.006Z</time></trkpt><trkpt lat="44.533144489042854" lon="10.57471832613031"><ele>556.0</ele><time>2026-04-25T09:39:42.006Z</time></trkpt><trkpt lat="44.53310565411618" lon="10.574620299807803"><ele>557.8</ele><time>2026-04-25T09:39:43.006Z</time></trkpt><trkpt lat="44.533079264789706" lon="10.574500629959282"><ele>559.6</ele><time>2026-04-25T09:39:44.006Z</time></trkpt><trkpt lat="44.53305590223668" lon="10.574365733554565"><ele>561.4</ele><time>2026-04-25T09:39:45.006Z</time></trkpt><trkpt lat="44.533063235936595" lon="10.574217700803363"><ele>563.2</ele><time>2026-04-25T09:39:46.006Z</time></trkpt><trkpt lat="44.53310059879447" lon="10.57407052593205"><ele>565.0</ele><time>2026-04-25T09:39:47.006Z</time></trkpt><trkpt lat="44.533142378612965" lon="10.57392736718407"><ele>565.0</ele><time>2026-04-25T09:39:48.006Z</time></trkpt><trkpt lat="44.53318011966996" lon="10.573798928031918"><ele>565.0</ele><time>2026-04-25T09:39:49.006Z</time></trkpt><trkpt lat="44.533231048728446" lon="10.573687956998594"><ele>565.0</ele><time>2026-04-25T09:39:50.006Z</time></trkpt><trkpt lat="44.533267432334725" lon="10.573576864507366"><ele>565.0</ele><time>2026-04-25T09:39:51.006Z</time></trkpt><trkpt lat="44.53329027763076" lon="10.57345355878706"><ele>565.0</ele><time>2026-04-25T09:39:52.006Z</time></trkpt><trkpt lat="44.53330991536586" lon="10.573323876524071"><ele>563.5</ele><time>2026-04-25T09:39:53.006Z</time></trkpt><trkpt lat="44.533343876677485" lon="10.573184030094517"><ele>562.0</ele><time>2026-04-25T09:39:54.006Z</time></trkpt><trkpt lat="44.53337162595659" lon="10.57303270121698"><ele>560.5</ele><time>2026-04-25T09:39:55.006Z</time></trkpt><trkpt lat="44.533414646419914" lon="10.572881367348163"><ele>559.0</ele><time>2026-04-25T09:39:56.006Z</time></trkpt><trkpt lat="44.533456988172595" lon="10.572723473871875"><ele>558.5</ele><time>2026-04-25T09:39:57.006Z</time></trkpt><trkpt lat="44.53349289270894" lon="10.572552288910575"><ele>558.0</ele><time>2026-04-25T09:39:58.006Z</time></trkpt><trkpt lat="44.533542533305344" lon="10.572383288002827"><ele>557.5</ele><time>2026-04-25T09:39:59.006Z</time></trkpt><trkpt lat="44.533589832876906" lon="10.572227151140652"><ele>557.0</ele><time>2026-04-25T09:40:00.006Z</time></trkpt><trkpt lat="44.53363463142179" lon="10.572088122066814"><ele>557.2</ele><time>2026-04-25T09:40:01.006Z</time></trkpt><trkpt lat="44.53365734955683" lon="10.57194831695912"><ele>557.4000000000001</ele><time>2026-04-25T09:40:02.006Z</time></trkpt><trkpt lat="44.533654448360515" lon="10.571809669124487"><ele>557.5999999999999</ele><time>2026-04-25T09:40:03.006Z</time></trkpt><trkpt lat="44.533619866979784" lon="10.571671501532718"><ele>557.8</ele><time>2026-04-25T09:40:04.006Z</time></trkpt><trkpt lat="44.533563721804505" lon="10.571536527521879"><ele>558.0</ele><time>2026-04-25T09:40:05.006Z</time></trkpt><trkpt lat="44.533504353081696" lon="10.571409653026517"><ele>558.0</ele><time>2026-04-25T09:40:06.006Z</time></trkpt><trkpt lat="44.533450566678994" lon="10.571295656965098"><ele>558.0</ele><time>2026-04-25T09:40:07.006Z</time></trkpt><trkpt lat="44.53341022682534" lon="10.571200785110145"><ele>558.0</ele><time>2026-04-25T09:40:08.006Z</time></trkpt><trkpt lat="44.53335350225708" lon="10.571086697506415"><ele>558.0</ele><time>2026-04-25T09:40:09.006Z</time></trkpt><trkpt lat="44.53329297354142" lon="10.570935647548726"><ele>558.0</ele><time>2026-04-25T09:40:10.006Z</time></trkpt><trkpt lat="44.53322962917915" lon="10.570790552994078"><ele>561.0</ele><time>2026-04-25T09:40:11.006Z</time></trkpt><trkpt lat="44.533144106368326" lon="10.570650364030364"><ele>564.0</ele><time>2026-04-25T09:40:12.006Z</time></trkpt><trkpt lat="44.5330587701211" lon="10.5704959494569"><ele>567.0</ele><time>2026-04-25T09:40:13.006Z</time></trkpt><trkpt lat="44.532971493541915" lon="10.570351812163368"><ele>570.0</ele><time>2026-04-25T09:40:14.006Z</time></trkpt><trkpt lat="44.53289205045361" lon="10.570190169252543"><ele>565.0</ele><time>2026-04-25T09:40:15.006Z</time></trkpt><trkpt lat="44.53282023261421" lon="10.57002575105838"><ele>560.0</ele><time>2026-04-25T09:40:16.006Z</time></trkpt><trkpt lat="44.53275080665471" lon="10.569890813634569"><ele>555.0</ele><time>2026-04-25T09:40:17.006Z</time></trkpt><trkpt lat="44.5326837375219" lon="10.569759755452575"><ele>550.0</ele><time>2026-04-25T09:40:18.006Z</time></trkpt><trkpt lat="44.53261953666648" lon="10.56962844740058"><ele>554.2</ele><time>2026-04-25T09:40:19.006Z</time></trkpt><trkpt lat="44.53255147145773" lon="10.569506525835552"><ele>558.4</ele><time>2026-04-25T09:40:20.006Z</time></trkpt><trkpt lat="44.532489389529644" lon="10.569394377711037"><ele>562.6</ele><time>2026-04-25T09:40:21.006Z</time></trkpt><trkpt lat="44.53242344627016" lon="10.56929116266754"><ele>566.8</ele><time>2026-04-25T09:40:22.007Z</time></trkpt><trkpt lat="44.532353920758034" lon="10.569194024705872"><ele>571.0</ele><time>2026-04-25T09:40:23.007Z</time></trkpt><trkpt lat="44.53226713675665" lon="10.569098300159029"><ele>571.0</ele><time>2026-04-25T09:40:24.007Z</time></trkpt><trkpt lat="44.53219775015315" lon="10.568982744713264"><ele>571.0</ele><time>2026-04-25T09:40:25.007Z</time></trkpt><trkpt lat="44.532134148288755" lon="10.568856204749581"><ele>571.0</ele><time>2026-04-25T09:40:26.007Z</time></trkpt><trkpt lat="44.5320827447474" lon="10.568708814891943"><ele>571.0</ele><time>2026-04-25T09:40:27.007Z</time></trkpt><trkpt lat="44.53203521813333" lon="10.568565234224893"><ele>571.0</ele><time>2026-04-25T09:40:28.007Z</time></trkpt><trkpt lat="44.53198182677683" lon="10.568419059028924"><ele>565.5</ele><time>2026-04-25T09:40:29.007Z</time></trkpt><trkpt lat="44.53192467432858" lon="10.568269375505334"><ele>560.0</ele><time>2026-04-25T09:40:30.007Z</time></trkpt><trkpt lat="44.53186045760687" lon="10.56812170780028"><ele>554.5</ele><time>2026-04-25T09:40:31.007Z</time></trkpt><trkpt lat="44.53176743927524" lon="10.567988158255533"><ele>549.0</ele><time>2026-04-25T09:40:32.007Z</time></trkpt><trkpt lat="44.531666638477546" lon="10.56787686938829"><ele>553.4</ele><time>2026-04-25T09:40:33.007Z</time></trkpt><trkpt lat="44.531587252956314" lon="10.567752816704411"><ele>557.8</ele><time>2026-04-25T09:40:34.007Z</time></trkpt><trkpt lat="44.531531823617165" lon="10.567621781091201"><ele>562.2</ele><time>2026-04-25T09:40:35.007Z</time></trkpt><trkpt lat="44.53147232899149" lon="10.567495442652739"><ele>566.6</ele><time>2026-04-25T09:40:36.007Z</time></trkpt><trkpt lat="44.53141903400433" lon="10.567369226640707"><ele>571.0</ele><time>2026-04-25T09:40:37.007Z</time></trkpt><trkpt lat="44.531350194441366" lon="10.567266489231343"><ele>571.0</ele><time>2026-04-25T09:40:38.007Z</time></trkpt><trkpt lat="44.53130337424769" lon="10.567130048097775"><ele>571.0</ele><time>2026-04-25T09:40:39.007Z</time></trkpt><trkpt lat="44.531281109022764" lon="10.566975710577083"><ele>571.0</ele><time>2026-04-25T09:40:40.007Z</time></trkpt><trkpt lat="44.53127972315188" lon="10.566806486345293"><ele>571.0</ele><time>2026-04-25T09:40:41.007Z</time></trkpt><trkpt lat="44.531259141631324" lon="10.566658725169903"><ele>571.0</ele><time>2026-04-25T09:40:42.007Z</time></trkpt><trkpt lat="44.53121236725699" lon="10.56652544497493"><ele>567.8</ele><time>2026-04-25T09:40:43.007Z</time></trkpt><trkpt lat="44.531139274623065" lon="10.566418477332816"><ele>564.6</ele><time>2026-04-25T09:40:44.007Z</time></trkpt><trkpt lat="44.53105038980583" lon="10.56634738248184"><ele>561.4</ele><time>2026-04-25T09:40:45.007Z</time></trkpt><trkpt lat="44.53096613797719" lon="10.566303790594496"><ele>558.2</ele><time>2026-04-25T09:40:46.007Z</time></trkpt><trkpt lat="44.530884122902215" lon="10.56626223645084"><ele>555.0</ele><time>2026-04-25T09:40:47.007Z</time></trkpt><trkpt lat="44.53081051952781" lon="10.566200002285626"><ele>557.1666666666666</ele><time>2026-04-25T09:40:48.007Z</time></trkpt><trkpt lat="44.530747052194904" lon="10.56612428112025"><ele>559.3333333333334</ele><time>2026-04-25T09:40:49.007Z</time></trkpt><trkpt lat="44.530684538345206" lon="10.566029152406895"><ele>561.5</ele><time>2026-04-25T09:40:50.007Z</time></trkpt><trkpt lat="44.53063523015299" lon="10.565921564341735"><ele>563.6666666666667</ele><time>2026-04-25T09:40:51.007Z</time></trkpt><trkpt lat="44.53059274668419" lon="10.565817127642367"><ele>565.8333333333334</ele><time>2026-04-25T09:40:52.007Z</time></trkpt><trkpt lat="44.530556859897224" lon="10.565701354002021"><ele>568.0</ele><time>2026-04-25T09:40:53.007Z</time></trkpt><trkpt lat="44.53052732097249" lon="10.56556950156072"><ele>568.0</ele><time>2026-04-25T09:40:54.007Z</time></trkpt><trkpt lat="44.53050261687864" lon="10.565435629462426"><ele>568.0</ele><time>2026-04-25T09:40:55.007Z</time></trkpt><trkpt lat="44.53047629424625" lon="10.565305809979005"><ele>568.0</ele><time>2026-04-25T09:40:56.007Z</time></trkpt><trkpt lat="44.53042448435532" lon="10.565187894254894"><ele>568.0</ele><time>2026-04-25T09:40:57.007Z</time></trkpt><trkpt lat="44.5303706940863" lon="10.56507198613923"><ele>568.0</ele><time>2026-04-25T09:40:58.007Z</time></trkpt><trkpt lat="44.53032253717077" lon="10.5649482693219"><ele>562.1999999999999</ele><time>2026-04-25T09:40:59.007Z</time></trkpt><trkpt lat="44.53029453856391" lon="10.564816705957602"><ele>556.4</ele><time>2026-04-25T09:41:00.007Z</time></trkpt><trkpt lat="44.530295991414036" lon="10.564673766069838"><ele>550.5999999999999</ele><time>2026-04-25T09:41:01.007Z</time></trkpt><trkpt lat="44.53029729608374" lon="10.564501336776404"><ele>544.8</ele><time>2026-04-25T09:41:02.007Z</time></trkpt><trkpt lat="44.53031961323909" lon="10.564353185784"><ele>539.0</ele><time>2026-04-25T09:41:03.007Z</time></trkpt><trkpt lat="44.530373165431904" lon="10.564206426693953"><ele>543.5</ele><time>2026-04-25T09:41:04.007Z</time></trkpt><trkpt lat="44.53045808277726" lon="10.564108741361242"><ele>548.0</ele><time>2026-04-25T09:41:05.007Z</time></trkpt><trkpt lat="44.53056518527407" lon="10.564036608849685"><ele>552.5</ele><time>2026-04-25T09:41:06.007Z</time></trkpt><trkpt lat="44.5306805675169" lon="10.563986902699769"><ele>557.0</ele><time>2026-04-25T09:41:07.007Z</time></trkpt><trkpt lat="44.53078432349475" lon="10.563925981399873"><ele>557.0</ele><time>2026-04-25T09:41:08.007Z</time></trkpt><trkpt lat="44.53086386727822" lon="10.563812850898517"><ele>557.0</ele><time>2026-04-25T09:41:09.007Z</time></trkpt><trkpt lat="44.5309163557558" lon="10.563680296741783"><ele>557.0</ele><time>2026-04-25T09:41:10.007Z</time></trkpt><trkpt lat="44.53093065921817" lon="10.563554764824167"><ele>557.0</ele><time>2026-04-25T09:41:11.007Z</time></trkpt><trkpt lat="44.53090896579827" lon="10.563429025314196"><ele>557.0</ele><time>2026-04-25T09:41:12.007Z</time></trkpt><trkpt lat="44.53084996999555" lon="10.563317874961863"><ele>556.2</ele><time>2026-04-25T09:41:13.007Z</time></trkpt><trkpt lat="44.5307684964329" lon="10.563213389048954"><ele>555.4000000000001</ele><time>2026-04-25T09:41:14.007Z</time></trkpt><trkpt lat="44.53068562798016" lon="10.563144836326748"><ele>554.5999999999999</ele><time>2026-04-25T09:41:15.007Z</time></trkpt><trkpt lat="44.53061719493216" lon="10.563079621105834"><ele>553.8</ele><time>2026-04-25T09:41:16.007Z</time></trkpt><trkpt lat="44.53055936953721" lon="10.563005068494068"><ele>553.0</ele><time>2026-04-25T09:41:17.007Z</time></trkpt><trkpt lat="44.53050683397822" lon="10.562909819587505"><ele>555.0</ele><time>2026-04-25T09:41:18.007Z</time></trkpt><trkpt lat="44.5304605167293" lon="10.562794613550274"><ele>557.0</ele><time>2026-04-25T09:41:19.007Z</time></trkpt><trkpt lat="44.53043134294156" lon="10.56265886582615"><ele>559.0</ele><time>2026-04-25T09:41:20.007Z</time></trkpt><trkpt lat="44.530428824252176" lon="10.562524388153514"><ele>561.0</ele><time>2026-04-25T09:41:21.007Z</time></trkpt><trkpt lat="44.53046076886865" lon="10.56240258186535"><ele>563.0</ele><time>2026-04-25T09:41:22.007Z</time></trkpt><trkpt lat="44.530501835347444" lon="10.56230124385365"><ele>563.0</ele><time>2026-04-25T09:41:23.007Z</time></trkpt><trkpt lat="44.53055933669705" lon="10.562205327064758"><ele>563.0</ele><time>2026-04-25T09:41:24.007Z</time></trkpt><trkpt lat="44.53062113621151" lon="10.562126770794903"><ele>563.0</ele><time>2026-04-25T09:41:25.007Z</time></trkpt><trkpt lat="44.53067718751158" lon="10.562048767524853"><ele>563.0</ele><time>2026-04-25T09:41:26.007Z</time></trkpt><trkpt lat="44.530728815552884" lon="10.5619582483518"><ele>563.0</ele><time>2026-04-25T09:41:27.007Z</time></trkpt><trkpt lat="44.530763606042306" lon="10.561823868512768"><ele>563.0</ele><time>2026-04-25T09:41:28.007Z</time></trkpt><trkpt lat="44.530764719260134" lon="10.561673570843086"><ele>563.0</ele><time>2026-04-25T09:41:29.007Z</time></trkpt><trkpt lat="44.53073441519814" lon="10.561503235452248"><ele>563.0</ele><time>2026-04-25T09:41:30.007Z</time></trkpt><trkpt lat="44.530716685895335" lon="10.561332741741353"><ele>563.0</ele><time>2026-04-25T09:41:31.007Z</time></trkpt><trkpt lat="44.53071345284893" lon="10.561150685927071"><ele>563.0</ele><time>2026-04-25T09:41:32.007Z</time></trkpt><trkpt lat="44.530712949831816" lon="10.56096933695916"><ele>564.1999999999999</ele><time>2026-04-25T09:41:33.007Z</time></trkpt><trkpt lat="44.53070860895023" lon="10.560793112225763"><ele>565.4</ele><time>2026-04-25T09:41:34.007Z</time></trkpt><trkpt lat="44.53070276419911" lon="10.56062741839899"><ele>566.5999999999999</ele><time>2026-04-25T09:41:35.007Z</time></trkpt><trkpt lat="44.5306919299432" lon="10.560495629873426"><ele>567.8</ele><time>2026-04-25T09:41:36.007Z</time></trkpt><trkpt lat="44.530677317526916" lon="10.560372683973823"><ele>569.0</ele><time>2026-04-25T09:41:37.007Z</time></trkpt><trkpt lat="44.530643776141225" lon="10.560274205702436"><ele>570.3333333333333</ele><time>2026-04-25T09:41:38.007Z</time></trkpt><trkpt lat="44.5305933919738" lon="10.560191160202148"><ele>571.6666666666666</ele><time>2026-04-25T09:41:39.007Z</time></trkpt><trkpt lat="44.530543751513974" lon="10.56012319403737"><ele>573.0</ele><time>2026-04-25T09:41:40.007Z</time></trkpt><trkpt lat="44.53049685249488" lon="10.560040890196587"><ele>574.3333333333334</ele><time>2026-04-25T09:41:41.007Z</time></trkpt><trkpt lat="44.53045230742816" lon="10.559949258783373"><ele>575.6666666666667</ele><time>2026-04-25T09:41:42.007Z</time></trkpt><trkpt lat="44.5304006663254" lon="10.559851044423208"><ele>577.0</ele><time>2026-04-25T09:41:43.007Z</time></trkpt><trkpt lat="44.53033364042481" lon="10.559744951239407"><ele>574.5</ele><time>2026-04-25T09:41:44.007Z</time></trkpt><trkpt lat="44.53026541891083" lon="10.559628341635628"><ele>572.0</ele><time>2026-04-25T09:41:45.007Z</time></trkpt><trkpt lat="44.53019589433957" lon="10.559496681920857"><ele>569.5</ele><time>2026-04-25T09:41:46.007Z</time></trkpt><trkpt lat="44.53011565332672" lon="10.55936411126327"><ele>567.0</ele><time>2026-04-25T09:41:47.007Z</time></trkpt><trkpt lat="44.53002933221421" lon="10.559220129219092"><ele>567.0</ele><time>2026-04-25T09:41:48.007Z</time></trkpt><trkpt lat="44.529938875404646" lon="10.559073760285647"><ele>567.0</ele><time>2026-04-25T09:41:49.007Z</time></trkpt><trkpt lat="44.529842817393785" lon="10.558901439634651"><ele>567.0</ele><time>2026-04-25T09:41:50.007Z</time></trkpt><trkpt lat="44.529754029799776" lon="10.558738237600027"><ele>567.0</ele><time>2026-04-25T09:41:51.007Z</time></trkpt><trkpt lat="44.529664058654284" lon="10.558556595135276"><ele>566.0</ele><time>2026-04-25T09:41:52.007Z</time></trkpt><trkpt lat="44.52957509107342" lon="10.558380290645829"><ele>565.0</ele><time>2026-04-25T09:41:53.007Z</time></trkpt><trkpt lat="44.52948642666829" lon="10.558210994918797"><ele>564.0</ele><time>2026-04-25T09:41:54.007Z</time></trkpt><trkpt lat="44.52940102783382" lon="10.558067123814295"><ele>563.0</ele><time>2026-04-25T09:41:55.007Z</time></trkpt><trkpt lat="44.52933346955185" lon="10.557926117485765"><ele>564.1999999999999</ele><time>2026-04-25T09:41:56.007Z</time></trkpt><trkpt lat="44.52927996677271" lon="10.557810148268473"><ele>565.4</ele><time>2026-04-25T09:41:57.007Z</time></trkpt><trkpt lat="44.52923321874374" lon="10.557708353196706"><ele>566.5999999999999</ele><time>2026-04-25T09:41:58.007Z</time></trkpt><trkpt lat="44.5291918385285" lon="10.557625361607663"><ele>567.8</ele><time>2026-04-25T09:41:59.007Z</time></trkpt><trkpt lat="44.52912232181277" lon="10.557505490814036"><ele>569.0</ele><time>2026-04-25T09:42:01.007Z</time></trkpt><trkpt lat="44.5290747749769" lon="10.55740425971421"><ele>569.0</ele><time>2026-04-25T09:42:03.007Z</time></trkpt><trkpt lat="44.52901963518006" lon="10.557323278998869"><ele>569.0</ele><time>2026-04-25T09:42:07.007Z</time></trkpt><trkpt lat="44.528938718125275" lon="10.557224067360938"><ele>569.0</ele><time>2026-04-25T09:42:09.007Z</time></trkpt><trkpt lat="44.528886471622386" lon="10.557133403534898"><ele>569.0</ele><time>2026-04-25T09:42:10.007Z</time></trkpt><trkpt lat="44.52882386235065" lon="10.55704387094393"><ele>569.0</ele><time>2026-04-25T09:42:11.007Z</time></trkpt><trkpt lat="44.528762188208574" lon="10.556949083839319"><ele>568.6666666666666</ele><time>2026-04-25T09:42:12.007Z</time></trkpt><trkpt lat="44.52870208250889" lon="10.5568453050574"><ele>568.3333333333333</ele><time>2026-04-25T09:42:13.007Z</time></trkpt><trkpt lat="44.52864176980042" lon="10.556748457114544"><ele>568.0</ele><time>2026-04-25T09:42:14.007Z</time></trkpt><trkpt lat="44.528575692903146" lon="10.556654284929841"><ele>567.6666666666666</ele><time>2026-04-25T09:42:15.007Z</time></trkpt><trkpt lat="44.52851730571306" lon="10.556575185798398"><ele>567.3333333333334</ele><time>2026-04-25T09:42:16.007Z</time></trkpt><trkpt lat="44.528466191874905" lon="10.556504307386696"><ele>567.0</ele><time>2026-04-25T09:42:17.007Z</time></trkpt><trkpt lat="44.52840606286603" lon="10.55639599234947"><ele>567.0</ele><time>2026-04-25T09:42:19.007Z</time></trkpt><trkpt lat="44.52835078363741" lon="10.556309742329297"><ele>567.0</ele><time>2026-04-25T09:42:21.993Z</time></trkpt><trkpt lat="44.52827741788577" lon="10.556328243604455"><ele>567.0</ele><time>2026-04-25T09:42:26.993Z</time></trkpt><trkpt lat="44.528283932562196" lon="10.556240016167212"><ele>567.0</ele><time>2026-04-25T09:42:37.993Z</time></trkpt></trkseg><trkseg><trkpt lat="44.52834177414227" lon="10.55632431885403"><ele>567.0</ele><time>2026-04-25T10:44:58.806Z</time></trkpt><trkpt lat="44.528264414193615" lon="10.556255661424105"><ele>567.0</ele><time>2026-04-25T10:45:02.756Z</time></trkpt><trkpt lat="44.528326049894474" lon="10.556216201104242"><ele>567.0</ele><time>2026-04-25T10:46:38Z</time></trkpt><trkpt lat="44.5283267016624" lon="10.556092993742057"><ele>567.0</ele><time>2026-04-25T10:46:54.001Z</time></trkpt><trkpt lat="44.528243377341376" lon="10.555939221168877"><ele>567.0</ele><time>2026-04-25T10:46:56.001Z</time></trkpt><trkpt lat="44.52819087272283" lon="10.555838396499391"><ele>568.4</ele><time>2026-04-25T10:46:57.001Z</time></trkpt><trkpt lat="44.52813654008009" lon="10.5557326079566"><ele>569.8000000000001</ele><time>2026-04-25T10:46:58.001Z</time></trkpt><trkpt lat="44.52807991613232" lon="10.555604545997943"><ele>571.2</ele><time>2026-04-25T10:46:59.001Z</time></trkpt><trkpt lat="44.52803476060754" lon="10.555486040655442"><ele>572.6</ele><time>2026-04-25T10:47:00.001Z</time></trkpt><trkpt lat="44.527986541113044" lon="10.555362382533175"><ele>574.0</ele><time>2026-04-25T10:47:01.001Z</time></trkpt><trkpt lat="44.52793296893198" lon="10.555239537708065"><ele>573.6</ele><time>2026-04-25T10:47:02.001Z</time></trkpt><trkpt lat="44.527885042846236" lon="10.555129420324054"><ele>573.2</ele><time>2026-04-25T10:47:03.001Z</time></trkpt><trkpt lat="44.52784740622628" lon="10.555020529093246"><ele>572.8000000000001</ele><time>2026-04-25T10:47:04.001Z</time></trkpt><trkpt lat="44.52779331123829" lon="10.554908658171604"><ele>572.4</ele><time>2026-04-25T10:47:05.001Z</time></trkpt><trkpt lat="44.5277519271876" lon="10.55478782571549"><ele>572.0</ele><time>2026-04-25T10:47:06.001Z</time></trkpt><trkpt lat="44.52770922483936" lon="10.554684777960192"><ele>572.0</ele><time>2026-04-25T10:47:07.001Z</time></trkpt><trkpt lat="44.52764642064312" lon="10.554557695543984"><ele>572.0</ele><time>2026-04-25T10:47:08.001Z</time></trkpt><trkpt lat="44.527601037397076" lon="10.554430029483976"><ele>572.0</ele><time>2026-04-25T10:47:09.001Z</time></trkpt><trkpt lat="44.52755914622393" lon="10.554312136005272"><ele>572.0</ele><time>2026-04-25T10:47:10.001Z</time></trkpt><trkpt lat="44.527507120009325" lon="10.554198263079545"><ele>572.0</ele><time>2026-04-25T10:47:11.001Z</time></trkpt><trkpt lat="44.52745969457012" lon="10.554075814582026"><ele>572.1666666666666</ele><time>2026-04-25T10:47:12.001Z</time></trkpt><trkpt lat="44.52739629145965" lon="10.55397198486496"><ele>572.3333333333333</ele><time>2026-04-25T10:47:13.001Z</time></trkpt><trkpt lat="44.527339983433215" lon="10.553863641407347"><ele>572.5</ele><time>2026-04-25T10:47:14.001Z</time></trkpt><trkpt lat="44.52728111690531" lon="10.553764119677943"><ele>572.6666666666666</ele><time>2026-04-25T10:47:15.001Z</time></trkpt><trkpt lat="44.527219371205916" lon="10.553685983908553"><ele>572.8333333333334</ele><time>2026-04-25T10:47:16.001Z</time></trkpt><trkpt lat="44.52715065914026" lon="10.553650549523505"><ele>573.0</ele><time>2026-04-25T10:47:17.001Z</time></trkpt><trkpt lat="44.52705177451929" lon="10.5536644470662"><ele>573.8</ele><time>2026-04-25T10:47:18.001Z</time></trkpt><trkpt lat="44.52695380596473" lon="10.553678997495123"><ele>574.5999999999999</ele><time>2026-04-25T10:47:19.001Z</time></trkpt><trkpt lat="44.5268583066135" lon="10.553676427904588"><ele>575.4000000000001</ele><time>2026-04-25T10:47:20.001Z</time></trkpt><trkpt lat="44.52675461756036" lon="10.55364038031885"><ele>576.2</ele><time>2026-04-25T10:47:21.001Z</time></trkpt><trkpt lat="44.52667074705924" lon="10.553558223697074"><ele>577.0</ele><time>2026-04-25T10:47:22.001Z</time></trkpt><trkpt lat="44.5265761397868" lon="10.553519165870442"><ele>577.0</ele><time>2026-04-25T10:47:23.001Z</time></trkpt><trkpt lat="44.5264821907902" lon="10.553483817582888"><ele>577.0</ele><time>2026-04-25T10:47:24.001Z</time></trkpt><trkpt lat="44.526386779384" lon="10.553464369135273"><ele>577.0</ele><time>2026-04-25T10:47:25.001Z</time></trkpt><trkpt lat="44.5263011333016" lon="10.553493137515863"><ele>577.0</ele><time>2026-04-25T10:47:26.001Z</time></trkpt><trkpt lat="44.52620859414567" lon="10.55354283465091"><ele>577.0</ele><time>2026-04-25T10:47:27.001Z</time></trkpt><trkpt lat="44.52612826689286" lon="10.55366004596675"><ele>579.0</ele><time>2026-04-25T10:47:28.001Z</time></trkpt><trkpt lat="44.52604964244741" lon="10.553760043619722"><ele>581.0</ele><time>2026-04-25T10:47:29.001Z</time></trkpt><trkpt lat="44.52597946585278" lon="10.55384506982807"><ele>583.0</ele><time>2026-04-25T10:47:30.001Z</time></trkpt><trkpt lat="44.52590497499614" lon="10.553917086318876"><ele>585.0</ele><time>2026-04-25T10:47:31.001Z</time></trkpt><trkpt lat="44.5258229295442" lon="10.553967531116369"><ele>587.0</ele><time>2026-04-25T10:47:32.001Z</time></trkpt><trkpt lat="44.52573646821211" lon="10.554012303036329"><ele>587.0</ele><time>2026-04-25T10:47:33.001Z</time></trkpt><trkpt lat="44.52564193280131" lon="10.55405348189435"><ele>587.0</ele><time>2026-04-25T10:47:34.001Z</time></trkpt><trkpt lat="44.525549228392" lon="10.554087992225888"><ele>587.0</ele><time>2026-04-25T10:47:35.001Z</time></trkpt><trkpt lat="44.52545356309877" lon="10.554117223806616"><ele>587.0</ele><time>2026-04-25T10:47:36.001Z</time></trkpt><trkpt lat="44.52535876569676" lon="10.554145052695906"><ele>587.0</ele><time>2026-04-25T10:47:37.001Z</time></trkpt><trkpt lat="44.52527732140955" lon="10.554174527407483"><ele>590.1666666666666</ele><time>2026-04-25T10:47:38.001Z</time></trkpt><trkpt lat="44.52518755086883" lon="10.554214100129064"><ele>593.3333333333333</ele><time>2026-04-25T10:47:39.001Z</time></trkpt><trkpt lat="44.52510001307433" lon="10.554248099302264"><ele>596.5</ele><time>2026-04-25T10:47:40.001Z</time></trkpt><trkpt lat="44.52502456545914" lon="10.554290440064348"><ele>599.6666666666666</ele><time>2026-04-25T10:47:41.001Z</time></trkpt><trkpt lat="44.524956917045536" lon="10.554332953856624"><ele>602.8333333333334</ele><time>2026-04-25T10:47:42.001Z</time></trkpt><trkpt lat="44.52487939236204" lon="10.554328935177391"><ele>606.0</ele><time>2026-04-25T10:47:43.001Z</time></trkpt><trkpt lat="44.524791951958804" lon="10.55434735387908"><ele>606.0</ele><time>2026-04-25T10:47:44.001Z</time></trkpt><trkpt lat="44.52470816644029" lon="10.554373994807493"><ele>606.0</ele><time>2026-04-25T10:47:45.001Z</time></trkpt><trkpt lat="44.52461990693204" lon="10.554394752136668"><ele>606.0</ele><time>2026-04-25T10:47:46.001Z</time></trkpt><trkpt lat="44.52453046859997" lon="10.55440317072612"><ele>606.0</ele><time>2026-04-25T10:47:47.001Z</time></trkpt><trkpt lat="44.524436479364105" lon="10.554404993169822"><ele>606.0</ele><time>2026-04-25T10:47:48.001Z</time></trkpt><trkpt lat="44.52433470041399" lon="10.554425124010312"><ele>607.1666666666666</ele><time>2026-04-25T10:47:49.001Z</time></trkpt><trkpt lat="44.52424499480366" lon="10.554447546228847"><ele>608.3333333333334</ele><time>2026-04-25T10:47:50.001Z</time></trkpt><trkpt lat="44.52415188538518" lon="10.55447498907628"><ele>609.5</ele><time>2026-04-25T10:47:51.001Z</time></trkpt><trkpt lat="44.52406186496157" lon="10.55448624374245"><ele>610.6666666666667</ele><time>2026-04-25T10:47:52.001Z</time></trkpt><trkpt lat="44.52398258725724" lon="10.554453174546598"><ele>611.8333333333334</ele><time>2026-04-25T10:47:53.001Z</time></trkpt><trkpt lat="44.52392714996085" lon="10.554364584575564"><ele>613.0</ele><time>2026-04-25T10:47:54.001Z</time></trkpt><trkpt lat="44.52390267779597" lon="10.5542318454618"><ele>613.0</ele><time>2026-04-25T10:47:55.001Z</time></trkpt><trkpt lat="44.52387094471978" lon="10.55410681419445"><ele>613.0</ele><time>2026-04-25T10:47:56.001Z</time></trkpt><trkpt lat="44.52382320487486" lon="10.553993630683927"><ele>613.0</ele><time>2026-04-25T10:47:57.001Z</time></trkpt><trkpt lat="44.523744419820666" lon="10.553915789710944"><ele>613.0</ele><time>2026-04-25T10:47:58.001Z</time></trkpt><trkpt lat="44.523645376720744" lon="10.553867505811322"><ele>613.0</ele><time>2026-04-25T10:47:59.001Z</time></trkpt><trkpt lat="44.52355052505085" lon="10.553867481551002"><ele>611.6</ele><time>2026-04-25T10:48:00.001Z</time></trkpt><trkpt lat="44.52345849166027" lon="10.553878649432631"><ele>610.1999999999999</ele><time>2026-04-25T10:48:01.001Z</time></trkpt><trkpt lat="44.52336881998311" lon="10.553882121706293"><ele>608.8</ele><time>2026-04-25T10:48:02.001Z</time></trkpt><trkpt lat="44.52328602731865" lon="10.5538617956404"><ele>607.4</ele><time>2026-04-25T10:48:03.001Z</time></trkpt><trkpt lat="44.52320810191935" lon="10.553796345094709"><ele>606.0</ele><time>2026-04-25T10:48:04.001Z</time></trkpt><trkpt lat="44.52315595746821" lon="10.55368478536213"><ele>608.6</ele><time>2026-04-25T10:48:05.001Z</time></trkpt><trkpt lat="44.52310263074704" lon="10.553581803949248"><ele>611.2</ele><time>2026-04-25T10:48:06.001Z</time></trkpt><trkpt lat="44.523033361010086" lon="10.553497015806167"><ele>613.8</ele><time>2026-04-25T10:48:07.001Z</time></trkpt><trkpt lat="44.52297717528193" lon="10.553394050299222"><ele>616.4</ele><time>2026-04-25T10:48:08.001Z</time></trkpt><trkpt lat="44.522902124415324" lon="10.553313833773016"><ele>619.0</ele><time>2026-04-25T10:48:09.001Z</time></trkpt><trkpt lat="44.52281937316963" lon="10.553263490584184"><ele>619.0</ele><time>2026-04-25T10:48:10.001Z</time></trkpt><trkpt lat="44.522736577107764" lon="10.553203786077939"><ele>619.0</ele><time>2026-04-25T10:48:11.001Z</time></trkpt><trkpt lat="44.52265788965566" lon="10.553165537556838"><ele>619.0</ele><time>2026-04-25T10:48:12.001Z</time></trkpt><trkpt lat="44.5225911831257" lon="10.553131538953314"><ele>619.0</ele><time>2026-04-25T10:48:13.001Z</time></trkpt><trkpt lat="44.52253429145551" lon="10.5530891865748"><ele>619.0</ele><time>2026-04-25T10:48:14.001Z</time></trkpt><trkpt lat="44.52247953432047" lon="10.553022628639068"><ele>619.0</ele><time>2026-04-25T10:48:15.001Z</time></trkpt><trkpt lat="44.522455581503884" lon="10.552901352988572"><ele>620.0</ele><time>2026-04-25T10:48:16.001Z</time></trkpt><trkpt lat="44.522444658430025" lon="10.552791365165076"><ele>621.0</ele><time>2026-04-25T10:48:17.001Z</time></trkpt><trkpt lat="44.52243166450917" lon="10.552673650304387"><ele>622.0</ele><time>2026-04-25T10:48:18.001Z</time></trkpt><trkpt lat="44.52241277970264" lon="10.552552715184953"><ele>623.0</ele><time>2026-04-25T10:48:19.001Z</time></trkpt><trkpt lat="44.52239020459749" lon="10.552424027530222"><ele>624.0</ele><time>2026-04-25T10:48:20.001Z</time></trkpt><trkpt lat="44.522357510071934" lon="10.55230440320807"><ele>625.0</ele><time>2026-04-25T10:48:21.001Z</time></trkpt><trkpt lat="44.52231776251913" lon="10.552177052895221"><ele>625.0</ele><time>2026-04-25T10:48:22.001Z</time></trkpt><trkpt lat="44.52227399846589" lon="10.552058760213198"><ele>625.0</ele><time>2026-04-25T10:48:23.002Z</time></trkpt><trkpt lat="44.522234107732885" lon="10.551936644695548"><ele>625.0</ele><time>2026-04-25T10:48:24.002Z</time></trkpt><trkpt lat="44.52218583141432" lon="10.551832501746107"><ele>625.0</ele><time>2026-04-25T10:48:25.002Z</time></trkpt><trkpt lat="44.52213277874988" lon="10.55172116618666"><ele>625.0</ele><time>2026-04-25T10:48:26.002Z</time></trkpt><trkpt lat="44.52205576926597" lon="10.55162510500677"><ele>625.2</ele><time>2026-04-25T10:48:27.002Z</time></trkpt><trkpt lat="44.52196882177916" lon="10.551553947291163"><ele>625.4</ele><time>2026-04-25T10:48:28.002Z</time></trkpt><trkpt lat="44.521866480003254" lon="10.551517513388053"><ele>625.6</ele><time>2026-04-25T10:48:29.002Z</time></trkpt><trkpt lat="44.52175511353423" lon="10.55152578130365"><ele>625.8</ele><time>2026-04-25T10:48:30.002Z</time></trkpt><trkpt lat="44.5216472180009" lon="10.551551480993488"><ele>626.0</ele><time>2026-04-25T10:48:31.002Z</time></trkpt><trkpt lat="44.52153790214638" lon="10.55158428058154"><ele>626.0</ele><time>2026-04-25T10:48:32.002Z</time></trkpt><trkpt lat="44.52142028809548" lon="10.551614943270483"><ele>626.0</ele><time>2026-04-25T10:48:33.002Z</time></trkpt><trkpt lat="44.5212964652667" lon="10.551636269375065"><ele>626.0</ele><time>2026-04-25T10:48:34.002Z</time></trkpt><trkpt lat="44.521171869758334" lon="10.55163468134938"><ele>626.0</ele><time>2026-04-25T10:48:35.002Z</time></trkpt><trkpt lat="44.52104644827575" lon="10.551600091574425"><ele>626.75</ele><time>2026-04-25T10:48:36.002Z</time></trkpt><trkpt lat="44.520911120447366" lon="10.551544899565165"><ele>627.5</ele><time>2026-04-25T10:48:37.002Z</time></trkpt><trkpt lat="44.52077854416884" lon="10.551478510383715"><ele>628.25</ele><time>2026-04-25T10:48:38.002Z</time></trkpt><trkpt lat="44.52065459522329" lon="10.551405801704858"><ele>629.0</ele><time>2026-04-25T10:48:39.002Z</time></trkpt><trkpt lat="44.5205477070036" lon="10.55131274417792"><ele>628.25</ele><time>2026-04-25T10:48:40.002Z</time></trkpt><trkpt lat="44.520464761654985" lon="10.551180604432764"><ele>627.5</ele><time>2026-04-25T10:48:41.002Z</time></trkpt><trkpt lat="44.52037458866038" lon="10.551034967855966"><ele>626.75</ele><time>2026-04-25T10:48:42.002Z</time></trkpt><trkpt lat="44.520287202084944" lon="10.550890251151278"><ele>626.0</ele><time>2026-04-25T10:48:43.002Z</time></trkpt><trkpt lat="44.5202100808786" lon="10.550745444175268"><ele>626.0</ele><time>2026-04-25T10:48:44.002Z</time></trkpt><trkpt lat="44.520145156502046" lon="10.550581269818046"><ele>626.0</ele><time>2026-04-25T10:48:45.002Z</time></trkpt><trkpt lat="44.52010185388064" lon="10.550409310294759"><ele>626.0</ele><time>2026-04-25T10:48:46.002Z</time></trkpt><trkpt lat="44.520076766916425" lon="10.550227669089809"><ele>626.0</ele><time>2026-04-25T10:48:47.002Z</time></trkpt><trkpt lat="44.52007075140205" lon="10.550048334932296"><ele>626.25</ele><time>2026-04-25T10:48:48.002Z</time></trkpt><trkpt lat="44.52008697237075" lon="10.549858173419825"><ele>626.5</ele><time>2026-04-25T10:48:49.002Z</time></trkpt><trkpt lat="44.5201010389208" lon="10.549662228680884"><ele>626.75</ele><time>2026-04-25T10:48:50.002Z</time></trkpt><trkpt lat="44.5201436773699" lon="10.549483532499805"><ele>627.0</ele><time>2026-04-25T10:48:51.002Z</time></trkpt><trkpt lat="44.52018732644916" lon="10.549312710978361"><ele>626.5</ele><time>2026-04-25T10:48:52.002Z</time></trkpt><trkpt lat="44.520229541356116" lon="10.54914650317572"><ele>626.0</ele><time>2026-04-25T10:48:53.002Z</time></trkpt><trkpt lat="44.52026988878885" lon="10.548982329701"><ele>625.5</ele><time>2026-04-25T10:48:54.002Z</time></trkpt><trkpt lat="44.52031169563804" lon="10.548818621587351"><ele>625.0</ele><time>2026-04-25T10:48:55.002Z</time></trkpt><trkpt lat="44.5203520821229" lon="10.548664512179876"><ele>624.0</ele><time>2026-04-25T10:48:56.002Z</time></trkpt><trkpt lat="44.52039289831413" lon="10.548523192025602"><ele>623.0</ele><time>2026-04-25T10:48:57.002Z</time></trkpt><trkpt lat="44.520439354175544" lon="10.548398972047808"><ele>622.0</ele><time>2026-04-25T10:48:58.002Z</time></trkpt><trkpt lat="44.52052355766778" lon="10.54827237950698"><ele>621.0</ele><time>2026-04-25T10:48:59.002Z</time></trkpt><trkpt lat="44.5206359691498" lon="10.54818009778999"><ele>623.0</ele><time>2026-04-25T10:49:00.002Z</time></trkpt><trkpt lat="44.520762124144994" lon="10.548107703801476"><ele>625.0</ele><time>2026-04-25T10:49:01.002Z</time></trkpt><trkpt lat="44.520891445611085" lon="10.548046956042848"><ele>627.0</ele><time>2026-04-25T10:49:02.002Z</time></trkpt><trkpt lat="44.521013399765756" lon="10.547959647442076"><ele>629.0</ele><time>2026-04-25T10:49:03.002Z</time></trkpt><trkpt lat="44.521109752780006" lon="10.547848812889695"><ele>629.0</ele><time>2026-04-25T10:49:04.002Z</time></trkpt><trkpt lat="44.52117395817454" lon="10.54770195072473"><ele>629.0</ele><time>2026-04-25T10:49:05.002Z</time></trkpt><trkpt lat="44.5212192744388" lon="10.547527180955413"><ele>629.0</ele><time>2026-04-25T10:49:06.002Z</time></trkpt><trkpt lat="44.52126326601595" lon="10.547355491074677"><ele>629.0</ele><time>2026-04-25T10:49:07.002Z</time></trkpt><trkpt lat="44.52131817995011" lon="10.547195096334773"><ele>631.0</ele><time>2026-04-25T10:49:08.002Z</time></trkpt><trkpt lat="44.52136306630518" lon="10.547023114477186"><ele>633.0</ele><time>2026-04-25T10:49:09.002Z</time></trkpt><trkpt lat="44.521403279846204" lon="10.546851081043542"><ele>635.0</ele><time>2026-04-25T10:49:10.002Z</time></trkpt><trkpt lat="44.521451635773246" lon="10.546685462908686"><ele>637.0</ele><time>2026-04-25T10:49:11.002Z</time></trkpt><trkpt lat="44.52151302704004" lon="10.546517549628764"><ele>637.0</ele><time>2026-04-25T10:49:12.002Z</time></trkpt><trkpt lat="44.521600099132165" lon="10.546366912773625"><ele>637.0</ele><time>2026-04-25T10:49:13.002Z</time></trkpt><trkpt lat="44.52167957531522" lon="10.54620333133598"><ele>637.0</ele><time>2026-04-25T10:49:14.002Z</time></trkpt><trkpt lat="44.52176910606018" lon="10.54605285592338"><ele>637.0</ele><time>2026-04-25T10:49:15.002Z</time></trkpt><trkpt lat="44.52186502721681" lon="10.545906747260624"><ele>635.6</ele><time>2026-04-25T10:49:16.002Z</time></trkpt><trkpt lat="44.52194727262217" lon="10.545775223793369"><ele>634.2</ele><time>2026-04-25T10:49:17.002Z</time></trkpt><trkpt lat="44.52199038587423" lon="10.545649830725985"><ele>632.8</ele><time>2026-04-25T10:49:18.002Z</time></trkpt><trkpt lat="44.52198966626447" lon="10.545516154351304"><ele>631.4</ele><time>2026-04-25T10:49:19.002Z</time></trkpt><trkpt lat="44.5219289997462" lon="10.545397548804106"><ele>630.0</ele><time>2026-04-25T10:49:20.002Z</time></trkpt><trkpt lat="44.52185479404549" lon="10.545277402582833"><ele>630.0</ele><time>2026-04-25T10:49:21.002Z</time></trkpt><trkpt lat="44.521727190209766" lon="10.545240131354383"><ele>630.0</ele><time>2026-04-25T10:49:22.002Z</time></trkpt><trkpt lat="44.521670522739385" lon="10.545139063251375"><ele>630.0</ele><time>2026-04-25T10:49:23.002Z</time></trkpt><trkpt lat="44.52164043735691" lon="10.54502266732845"><ele>630.0</ele><time>2026-04-25T10:49:24.002Z</time></trkpt><trkpt lat="44.521664039993595" lon="10.544884287730346"><ele>630.0</ele><time>2026-04-25T10:49:25.002Z</time></trkpt><trkpt lat="44.52170832355064" lon="10.544742225387353"><ele>630.0</ele><time>2026-04-25T10:49:26.002Z</time></trkpt><trkpt lat="44.52180180887009" lon="10.544620002960203"><ele>630.0</ele><time>2026-04-25T10:49:27.002Z</time></trkpt><trkpt lat="44.52192177666895" lon="10.544573441218843"><ele>630.0</ele><time>2026-04-25T10:49:28.002Z</time></trkpt><trkpt lat="44.522049805125015" lon="10.544526487709648"><ele>630.0</ele><time>2026-04-25T10:49:29.002Z</time></trkpt><trkpt lat="44.52216794479534" lon="10.544447572839216"><ele>631.25</ele><time>2026-04-25T10:49:30.002Z</time></trkpt><trkpt lat="44.52227093673176" lon="10.544368956532184"><ele>632.5</ele><time>2026-04-25T10:49:31.002Z</time></trkpt><trkpt lat="44.522366716008435" lon="10.544268262756168"><ele>633.75</ele><time>2026-04-25T10:49:32.002Z</time></trkpt><trkpt lat="44.52244851978509" lon="10.544103492287826"><ele>635.0</ele><time>2026-04-25T10:49:33.002Z</time></trkpt><trkpt lat="44.522507476529526" lon="10.543954676608415"><ele>635.0</ele><time>2026-04-25T10:49:34.002Z</time></trkpt><trkpt lat="44.52258698780008" lon="10.543806846918548"><ele>635.0</ele><time>2026-04-25T10:49:35.002Z</time></trkpt><trkpt lat="44.52266645252597" lon="10.543658292946738"><ele>635.0</ele><time>2026-04-25T10:49:36.002Z</time></trkpt><trkpt lat="44.52274616791986" lon="10.54352133018576"><ele>635.0</ele><time>2026-04-25T10:49:37.002Z</time></trkpt><trkpt lat="44.522822938895025" lon="10.543372728154592"><ele>636.0</ele><time>2026-04-25T10:49:38.002Z</time></trkpt><trkpt lat="44.52289201564521" lon="10.54323716254032"><ele>637.0</ele><time>2026-04-25T10:49:39.002Z</time></trkpt><trkpt lat="44.5229665628507" lon="10.543091781699495"><ele>638.0</ele><time>2026-04-25T10:49:40.002Z</time></trkpt><trkpt lat="44.52304467772956" lon="10.542946887499221"><ele>639.0</ele><time>2026-04-25T10:49:41.002Z</time></trkpt><trkpt lat="44.52312417922019" lon="10.54280694062471"><ele>633.75</ele><time>2026-04-25T10:49:42.002Z</time></trkpt><trkpt lat="44.52320153589189" lon="10.54267409541243"><ele>628.5</ele><time>2026-04-25T10:49:43.002Z</time></trkpt><trkpt lat="44.52328089548104" lon="10.542542208502637"><ele>623.25</ele><time>2026-04-25T10:49:44.002Z</time></trkpt><trkpt lat="44.52337878202285" lon="10.542442824971532"><ele>618.0</ele><time>2026-04-25T10:49:45.002Z</time></trkpt><trkpt lat="44.52346774988451" lon="10.542346519285564"><ele>618.0</ele><time>2026-04-25T10:49:46.002Z</time></trkpt><trkpt lat="44.5235846415269" lon="10.542337644406965"><ele>618.0</ele><time>2026-04-25T10:49:47.002Z</time></trkpt><trkpt lat="44.52369817584293" lon="10.54235657355588"><ele>618.0</ele><time>2026-04-25T10:49:48.002Z</time></trkpt><trkpt lat="44.52379405173297" lon="10.542343469605623"><ele>618.0</ele><time>2026-04-25T10:49:49.002Z</time></trkpt><trkpt lat="44.523881577108476" lon="10.542289702160312"><ele>618.0</ele><time>2026-04-25T10:49:50.002Z</time></trkpt><trkpt lat="44.52392313907298" lon="10.54214320082257"><ele>620.75</ele><time>2026-04-25T10:49:51.002Z</time></trkpt><trkpt lat="44.52393526306779" lon="10.542007708463691"><ele>623.5</ele><time>2026-04-25T10:49:52.002Z</time></trkpt><trkpt lat="44.52389244205402" lon="10.541860059958164"><ele>626.25</ele><time>2026-04-25T10:49:53.002Z</time></trkpt><trkpt lat="44.523862983789634" lon="10.541703129489617"><ele>629.0</ele><time>2026-04-25T10:49:54.002Z</time></trkpt><trkpt lat="44.523894458324" lon="10.541529094137298"><ele>629.0</ele><time>2026-04-25T10:49:55.002Z</time></trkpt><trkpt lat="44.52391668658542" lon="10.541332440767823"><ele>629.0</ele><time>2026-04-25T10:49:56.003Z</time></trkpt><trkpt lat="44.52394514659388" lon="10.54114941625676"><ele>629.0</ele><time>2026-04-25T10:49:57.003Z</time></trkpt><trkpt lat="44.52396282897659" lon="10.540974634953674"><ele>629.0</ele><time>2026-04-25T10:49:58.003Z</time></trkpt><trkpt lat="44.52397455826873" lon="10.540803852012377"><ele>627.0</ele><time>2026-04-25T10:49:59.003Z</time></trkpt><trkpt lat="44.52399038709521" lon="10.540639431115647"><ele>625.0</ele><time>2026-04-25T10:50:00.003Z</time></trkpt><trkpt lat="44.52400273931166" lon="10.540484278135173"><ele>623.0</ele><time>2026-04-25T10:50:01.003Z</time></trkpt><trkpt lat="44.52400805897516" lon="10.540338910669824"><ele>621.0</ele><time>2026-04-25T10:50:02.003Z</time></trkpt><trkpt lat="44.52402137150412" lon="10.540216784859073"><ele>619.0</ele><time>2026-04-25T10:50:03.003Z</time></trkpt><trkpt lat="44.52405936631729" lon="10.540112958623757"><ele>617.4</ele><time>2026-04-25T10:50:04.003Z</time></trkpt><trkpt lat="44.52414412022238" lon="10.540037106740039"><ele>615.8</ele><time>2026-04-25T10:50:05.003Z</time></trkpt><trkpt lat="44.52425862151801" lon="10.540040444081443"><ele>614.2</ele><time>2026-04-25T10:50:06.003Z</time></trkpt><trkpt lat="44.524379717947184" lon="10.54003636799967"><ele>612.6</ele><time>2026-04-25T10:50:07.003Z</time></trkpt><trkpt lat="44.52449221273775" lon="10.540041880537375"><ele>611.0</ele><time>2026-04-25T10:50:08.003Z</time></trkpt><trkpt lat="44.52460747870414" lon="10.540050822566986"><ele>611.0</ele><time>2026-04-25T10:50:09.003Z</time></trkpt><trkpt lat="44.524716165741765" lon="10.540060194203553"><ele>611.0</ele><time>2026-04-25T10:50:10.003Z</time></trkpt><trkpt lat="44.52481720758474" lon="10.540075907451605"><ele>611.0</ele><time>2026-04-25T10:50:11.003Z</time></trkpt><trkpt lat="44.524909149834905" lon="10.540068442668488"><ele>611.0</ele><time>2026-04-25T10:50:12.003Z</time></trkpt><trkpt lat="44.52498154891337" lon="10.54003098255302"><ele>611.0</ele><time>2026-04-25T10:50:13.003Z</time></trkpt><trkpt lat="44.52502489691999" lon="10.539927460453809"><ele>611.0</ele><time>2026-04-25T10:50:14.003Z</time></trkpt><trkpt lat="44.525025385136885" lon="10.539783985028572"><ele>611.0</ele><time>2026-04-25T10:50:15.003Z</time></trkpt><trkpt lat="44.5249934513704" lon="10.539687817718894"><ele>611.0</ele><time>2026-04-25T10:50:16.003Z</time></trkpt><trkpt lat="44.524966989863564" lon="10.53959859664809"><ele>611.0</ele><time>2026-04-25T10:50:17.003Z</time></trkpt><trkpt lat="44.524979513367775" lon="10.539410005733899"><ele>611.0</ele><time>2026-04-25T10:50:19.003Z</time></trkpt><trkpt lat="44.52499774700892" lon="10.53928611237735"><ele>608.8333333333333</ele><time>2026-04-25T10:50:20.003Z</time></trkpt><trkpt lat="44.525018547509134" lon="10.539182338881135"><ele>606.6666666666666</ele><time>2026-04-25T10:50:21.003Z</time></trkpt><trkpt lat="44.52503754520419" lon="10.539094168436858"><ele>604.5</ele><time>2026-04-25T10:50:22.003Z</time></trkpt><trkpt lat="44.525075877281644" lon="10.538943791437944"><ele>602.3333333333334</ele><time>2026-04-25T10:50:24.003Z</time></trkpt><trkpt lat="44.525146269492815" lon="10.53882425117514"><ele>600.1666666666667</ele><time>2026-04-25T10:50:26.003Z</time></trkpt><trkpt lat="44.52521518122226" lon="10.538786243406008"><ele>598.0</ele><time>2026-04-25T10:50:27.003Z</time></trkpt><trkpt lat="44.52529524027898" lon="10.538762451297474"><ele>598.0</ele><time>2026-04-25T10:50:28.003Z</time></trkpt><trkpt lat="44.52538628042445" lon="10.53875044458852"><ele>598.0</ele><time>2026-04-25T10:50:29.003Z</time></trkpt><trkpt lat="44.5254847458542" lon="10.538737954180293"><ele>598.0</ele><time>2026-04-25T10:50:30.003Z</time></trkpt><trkpt lat="44.525572448925004" lon="10.538691421115844"><ele>598.0</ele><time>2026-04-25T10:50:31.003Z</time></trkpt><trkpt lat="44.525640544239174" lon="10.538639299497609"><ele>598.0</ele><time>2026-04-25T10:50:32.003Z</time></trkpt><trkpt lat="44.52572133800511" lon="10.538552384923632"><ele>598.6</ele><time>2026-04-25T10:50:34.003Z</time></trkpt><trkpt lat="44.52573987767132" lon="10.538399854728956"><ele>599.1999999999999</ele><time>2026-04-25T10:50:36.003Z</time></trkpt><trkpt lat="44.52572900046142" lon="10.538306733261663"><ele>599.8</ele><time>2026-04-25T10:50:37.003Z</time></trkpt><trkpt lat="44.52570524764861" lon="10.538158535836839"><ele>600.4</ele><time>2026-04-25T10:50:39.003Z</time></trkpt><trkpt lat="44.52564752330723" lon="10.538048977329929"><ele>601.0</ele><time>2026-04-25T10:50:41.003Z</time></trkpt><trkpt lat="44.52558521627635" lon="10.53797555342695"><ele>601.0</ele><time>2026-04-25T10:50:43.003Z</time></trkpt><trkpt lat="44.52549738779203" lon="10.53789653480793"><ele>601.0</ele><time>2026-04-25T10:50:45.003Z</time></trkpt><trkpt lat="44.52539287051169" lon="10.537847029182267"><ele>601.0</ele><time>2026-04-25T10:50:47.003Z</time></trkpt><trkpt lat="44.525329848637966" lon="10.537832719073641"><ele>601.0</ele><time>2026-04-25T10:50:48.003Z</time></trkpt><trkpt lat="44.52525297589549" lon="10.53782316146003"><ele>601.0</ele><time>2026-04-25T10:50:49.003Z</time></trkpt><trkpt lat="44.52517712630418" lon="10.53781939372984"><ele>601.0</ele><time>2026-04-25T10:50:50.003Z</time></trkpt><trkpt lat="44.52510042426249" lon="10.537818832125902"><ele>600.5</ele><time>2026-04-25T10:50:51.003Z</time></trkpt><trkpt lat="44.525019478039" lon="10.537819618009587"><ele>600.0</ele><time>2026-04-25T10:50:52.003Z</time></trkpt><trkpt lat="44.52493233191902" lon="10.537825711787198"><ele>599.5</ele><time>2026-04-25T10:50:53.003Z</time></trkpt><trkpt lat="44.52484988027296" lon="10.537831585567938"><ele>599.0</ele><time>2026-04-25T10:50:54.003Z</time></trkpt><trkpt lat="44.52476617639812" lon="10.537858809135184"><ele>598.5</ele><time>2026-04-25T10:50:55.003Z</time></trkpt><trkpt lat="44.524684649070885" lon="10.537837260391315"><ele>598.0</ele><time>2026-04-25T10:50:56.003Z</time></trkpt><trkpt lat="44.524588518256174" lon="10.537848770376714"><ele>595.4</ele><time>2026-04-25T10:50:57.003Z</time></trkpt><trkpt lat="44.524491688947705" lon="10.53783837394089"><ele>592.8</ele><time>2026-04-25T10:50:58.003Z</time></trkpt><trkpt lat="44.52441450948953" lon="10.537762187502207"><ele>590.2</ele><time>2026-04-25T10:50:59.003Z</time></trkpt><trkpt lat="44.524329640051036" lon="10.537692621773889"><ele>587.6</ele><time>2026-04-25T10:51:00.003Z</time></trkpt><trkpt lat="44.524264793606186" lon="10.537595355609053"><ele>585.0</ele><time>2026-04-25T10:51:01.003Z</time></trkpt><trkpt lat="44.524215550902866" lon="10.53748598024406"><ele>585.0</ele><time>2026-04-25T10:51:02.003Z</time></trkpt><trkpt lat="44.524162730550565" lon="10.537383755757224"><ele>585.0</ele><time>2026-04-25T10:51:03.003Z</time></trkpt><trkpt lat="44.5241079212758" lon="10.537299857709382"><ele>585.0</ele><time>2026-04-25T10:51:04.003Z</time></trkpt><trkpt lat="44.524045166926484" lon="10.537237737761435"><ele>585.0</ele><time>2026-04-25T10:51:05.003Z</time></trkpt><trkpt lat="44.52398432065386" lon="10.537167927121557"><ele>585.0</ele><time>2026-04-25T10:51:06.003Z</time></trkpt><trkpt lat="44.52387830112065" lon="10.537181226050654"><ele>585.0</ele><time>2026-04-25T10:51:07.003Z</time></trkpt><trkpt lat="44.523785838353064" lon="10.537198097603493"><ele>583.4</ele><time>2026-04-25T10:51:08.003Z</time></trkpt><trkpt lat="44.52369432627632" lon="10.53722517213638"><ele>581.8</ele><time>2026-04-25T10:51:09.003Z</time></trkpt><trkpt lat="44.523603625628546" lon="10.537265916691439"><ele>580.2</ele><time>2026-04-25T10:51:10.003Z</time></trkpt><trkpt lat="44.523509799311256" lon="10.537350881700217"><ele>578.6</ele><time>2026-04-25T10:51:11.003Z</time></trkpt><trkpt lat="44.52342456908421" lon="10.53744817639678"><ele>577.0</ele><time>2026-04-25T10:51:12.003Z</time></trkpt><trkpt lat="44.52334761291153" lon="10.537580953733693"><ele>577.0</ele><time>2026-04-25T10:51:13.003Z</time></trkpt><trkpt lat="44.52326422016675" lon="10.537681276964008"><ele>577.0</ele><time>2026-04-25T10:51:14.003Z</time></trkpt><trkpt lat="44.523200043812984" lon="10.537763273345536"><ele>577.0</ele><time>2026-04-25T10:51:15.003Z</time></trkpt><trkpt lat="44.52312486275914" lon="10.537831942955197"><ele>577.0</ele><time>2026-04-25T10:51:16.003Z</time></trkpt><trkpt lat="44.52303681762984" lon="10.537893879776233"><ele>577.0</ele><time>2026-04-25T10:51:17.003Z</time></trkpt><trkpt lat="44.52294241225568" lon="10.537954196440582"><ele>576.4</ele><time>2026-04-25T10:51:18.003Z</time></trkpt><trkpt lat="44.522838534119984" lon="10.53802061297255"><ele>575.8000000000001</ele><time>2026-04-25T10:51:19.003Z</time></trkpt><trkpt lat="44.52274053403905" lon="10.53810779792063"><ele>575.2</ele><time>2026-04-25T10:51:20.003Z</time></trkpt><trkpt lat="44.522636668368726" lon="10.538161130216135"><ele>574.6</ele><time>2026-04-25T10:51:21.003Z</time></trkpt><trkpt lat="44.52254556870435" lon="10.538230617703368"><ele>574.0</ele><time>2026-04-25T10:51:22.003Z</time></trkpt><trkpt lat="44.52245941755516" lon="10.538291572278384"><ele>574.0</ele><time>2026-04-25T10:51:23.003Z</time></trkpt><trkpt lat="44.52236603834971" lon="10.53834891455391"><ele>574.0</ele><time>2026-04-25T10:51:24.003Z</time></trkpt><trkpt lat="44.52227700611126" lon="10.538408010127535"><ele>574.0</ele><time>2026-04-25T10:51:25.003Z</time></trkpt><trkpt lat="44.52217924075206" lon="10.538401778790949"><ele>574.0</ele><time>2026-04-25T10:51:26.003Z</time></trkpt><trkpt lat="44.52207726780212" lon="10.538412464762818"><ele>574.0</ele><time>2026-04-25T10:51:27.003Z</time></trkpt><trkpt lat="44.52197715071083" lon="10.538343169748034"><ele>572.4</ele><time>2026-04-25T10:51:28.003Z</time></trkpt><trkpt lat="44.521910744639364" lon="10.538247443343094"><ele>570.8</ele><time>2026-04-25T10:51:29.004Z</time></trkpt><trkpt lat="44.52188547445004" lon="10.538124942801717"><ele>569.2</ele><time>2026-04-25T10:51:30.004Z</time></trkpt><trkpt lat="44.52189659877105" lon="10.538005100150615"><ele>567.6</ele><time>2026-04-25T10:51:31.004Z</time></trkpt><trkpt lat="44.52198079233458" lon="10.537889625993019"><ele>566.0</ele><time>2026-04-25T10:51:32.004Z</time></trkpt><trkpt lat="44.522052911291084" lon="10.53775255337835"><ele>567.2</ele><time>2026-04-25T10:51:33.004Z</time></trkpt><trkpt lat="44.52210470185555" lon="10.537619784320272"><ele>568.4000000000001</ele><time>2026-04-25T10:51:34.004Z</time></trkpt><trkpt lat="44.5221597569295" lon="10.537504997332997"><ele>569.6</ele><time>2026-04-25T10:51:35.004Z</time></trkpt><trkpt lat="44.52219636859964" lon="10.537380617428973"><ele>570.8000000000001</ele><time>2026-04-25T10:51:36.004Z</time></trkpt><trkpt lat="44.52220595883054" lon="10.537244951665901"><ele>572.0</ele><time>2026-04-25T10:51:37.004Z</time></trkpt><trkpt lat="44.52218027044704" lon="10.537106614401754"><ele>568.75</ele><time>2026-04-25T10:51:38.004Z</time></trkpt><trkpt lat="44.52212109450943" lon="10.536971885482812"><ele>565.5</ele><time>2026-04-25T10:51:39.004Z</time></trkpt><trkpt lat="44.52203049066666" lon="10.53686803967572"><ele>562.25</ele><time>2026-04-25T10:51:40.004Z</time></trkpt><trkpt lat="44.5219322171852" lon="10.536779198086785"><ele>559.0</ele><time>2026-04-25T10:51:41.004Z</time></trkpt><trkpt lat="44.52184498730055" lon="10.536701420847685"><ele>559.0</ele><time>2026-04-25T10:51:42.004Z</time></trkpt><trkpt lat="44.52176174880815" lon="10.536619944800135"><ele>559.0</ele><time>2026-04-25T10:51:43.004Z</time></trkpt><trkpt lat="44.52167790114419" lon="10.536545646631074"><ele>559.0</ele><time>2026-04-25T10:51:44.004Z</time></trkpt><trkpt lat="44.5215974437516" lon="10.53647798373775"><ele>559.0</ele><time>2026-04-25T10:51:45.004Z</time></trkpt><trkpt lat="44.521514136484775" lon="10.536419391197114"><ele>559.0</ele><time>2026-04-25T10:51:46.004Z</time></trkpt><trkpt lat="44.52143023875456" lon="10.53637093146547"><ele>559.0</ele><time>2026-04-25T10:51:47.004Z</time></trkpt><trkpt lat="44.521338891254665" lon="10.536326294529777"><ele>559.0</ele><time>2026-04-25T10:51:48.004Z</time></trkpt><trkpt lat="44.52124710188045" lon="10.536287080722099"><ele>559.0</ele><time>2026-04-25T10:51:49.004Z</time></trkpt><trkpt lat="44.52115364015505" lon="10.536247497922492"><ele>559.0</ele><time>2026-04-25T10:51:50.004Z</time></trkpt><trkpt lat="44.521063279032624" lon="10.53617654967131"><ele>559.0</ele><time>2026-04-25T10:51:51.004Z</time></trkpt><trkpt lat="44.520994856173026" lon="10.536073194440158"><ele>562.0</ele><time>2026-04-25T10:51:52.004Z</time></trkpt><trkpt lat="44.52094661021593" lon="10.535941123662575"><ele>565.0</ele><time>2026-04-25T10:51:53.004Z</time></trkpt><trkpt lat="44.52090742524695" lon="10.535796307588951"><ele>568.0</ele><time>2026-04-25T10:51:54.004Z</time></trkpt><trkpt lat="44.52087893754856" lon="10.535655023703944"><ele>571.0</ele><time>2026-04-25T10:51:55.004Z</time></trkpt><trkpt lat="44.520855445356204" lon="10.535527157514165"><ele>574.0</ele><time>2026-04-25T10:51:56.004Z</time></trkpt><trkpt lat="44.52081151521668" lon="10.535428408003868"><ele>575.2</ele><time>2026-04-25T10:51:57.004Z</time></trkpt><trkpt lat="44.520736129146826" lon="10.535360228005143"><ele>576.4</ele><time>2026-04-25T10:51:58.004Z</time></trkpt><trkpt lat="44.520628952222474" lon="10.535326119573813"><ele>577.6</ele><time>2026-04-25T10:51:59.004Z</time></trkpt><trkpt lat="44.520527052908996" lon="10.535311658927004"><ele>578.8</ele><time>2026-04-25T10:52:00.004Z</time></trkpt><trkpt lat="44.52042391002784" lon="10.535308095389306"><ele>580.0</ele><time>2026-04-25T10:52:01.004Z</time></trkpt><trkpt lat="44.52033387263356" lon="10.535259064428837"><ele>580.0</ele><time>2026-04-25T10:52:02.004Z</time></trkpt><trkpt lat="44.520245930367956" lon="10.535216591195358"><ele>580.0</ele><time>2026-04-25T10:52:03.004Z</time></trkpt><trkpt lat="44.52017928855708" lon="10.535155812542522"><ele>580.0</ele><time>2026-04-25T10:52:04.004Z</time></trkpt><trkpt lat="44.52011298299178" lon="10.535089790153362"><ele>580.0</ele><time>2026-04-25T10:52:05.004Z</time></trkpt><trkpt lat="44.52004005560287" lon="10.535035896416895"><ele>580.0</ele><time>2026-04-25T10:52:06.004Z</time></trkpt><trkpt lat="44.519987607683554" lon="10.534948017915216"><ele>580.0</ele><time>2026-04-25T10:52:07.004Z</time></trkpt><trkpt lat="44.51994093431343" lon="10.534817150392737"><ele>580.0</ele><time>2026-04-25T10:52:08.004Z</time></trkpt><trkpt lat="44.5199251563512" lon="10.534671615915416"><ele>580.0</ele><time>2026-04-25T10:52:09.004Z</time></trkpt><trkpt lat="44.51990098549496" lon="10.534536185447184"><ele>580.0</ele><time>2026-04-25T10:52:10.004Z</time></trkpt><trkpt lat="44.519873169014616" lon="10.534417811568208"><ele>580.0</ele><time>2026-04-25T10:52:11.004Z</time></trkpt><trkpt lat="44.5198513424935" lon="10.53429868332165"><ele>580.0</ele><time>2026-04-25T10:52:12.004Z</time></trkpt><trkpt lat="44.51982765456401" lon="10.534197127032044"><ele>578.6666666666667</ele><time>2026-04-25T10:52:13.004Z</time></trkpt><trkpt lat="44.51981374454377" lon="10.534092894227157"><ele>577.3333333333334</ele><time>2026-04-25T10:52:14.004Z</time></trkpt><trkpt lat="44.51981397364026" lon="10.533991735225712"><ele>576.0</ele><time>2026-04-25T10:52:15.004Z</time></trkpt><trkpt lat="44.51982065200633" lon="10.533879144286542"><ele>574.6666666666666</ele><time>2026-04-25T10:52:16.004Z</time></trkpt><trkpt lat="44.51982969846999" lon="10.533769514324288"><ele>573.3333333333333</ele><time>2026-04-25T10:52:17.004Z</time></trkpt><trkpt lat="44.51982370268306" lon="10.533652801159066"><ele>572.0</ele><time>2026-04-25T10:52:18.004Z</time></trkpt><trkpt lat="44.519788192621576" lon="10.533552240423282"><ele>573.4</ele><time>2026-04-25T10:52:19.004Z</time></trkpt><trkpt lat="44.51974518218843" lon="10.533422024959142"><ele>574.8000000000001</ele><time>2026-04-25T10:52:20.004Z</time></trkpt><trkpt lat="44.51966237546321" lon="10.533313563083174"><ele>576.2</ele><time>2026-04-25T10:52:21.004Z</time></trkpt><trkpt lat="44.51958116597172" lon="10.533222991536498"><ele>577.6</ele><time>2026-04-25T10:52:22.004Z</time></trkpt><trkpt lat="44.5194907730641" lon="10.533144761658933"><ele>579.0</ele><time>2026-04-25T10:52:23.004Z</time></trkpt><trkpt lat="44.51939404904917" lon="10.533078749932432"><ele>579.0</ele><time>2026-04-25T10:52:24.004Z</time></trkpt><trkpt lat="44.51929155377691" lon="10.533027991190373"><ele>579.0</ele><time>2026-04-25T10:52:25.004Z</time></trkpt><trkpt lat="44.51919028073257" lon="10.532992855916369"><ele>579.0</ele><time>2026-04-25T10:52:26.004Z</time></trkpt><trkpt lat="44.519084557840756" lon="10.532972873471941"><ele>579.0</ele><time>2026-04-25T10:52:27.004Z</time></trkpt><trkpt lat="44.51898168177347" lon="10.532981335480295"><ele>579.0</ele><time>2026-04-25T10:52:28.004Z</time></trkpt><trkpt lat="44.518879286736954" lon="10.533015517756802"><ele>579.0</ele><time>2026-04-25T10:52:29.004Z</time></trkpt><trkpt lat="44.518781763589715" lon="10.53305953017333"><ele>579.0</ele><time>2026-04-25T10:52:30.004Z</time></trkpt><trkpt lat="44.518689474568646" lon="10.533105984851616"><ele>579.0</ele><time>2026-04-25T10:52:31.004Z</time></trkpt><trkpt lat="44.51859564605729" lon="10.533151357862833"><ele>579.0</ele><time>2026-04-25T10:52:32.004Z</time></trkpt><trkpt lat="44.51850046844879" lon="10.533194206098502"><ele>579.0</ele><time>2026-04-25T10:52:33.004Z</time></trkpt><trkpt lat="44.518412273785465" lon="10.533226423908685"><ele>579.0</ele><time>2026-04-25T10:52:34.004Z</time></trkpt><trkpt lat="44.518324268516" lon="10.533236364885601"><ele>579.0</ele><time>2026-04-25T10:52:35.004Z</time></trkpt><trkpt lat="44.51823432669769" lon="10.533203766117312"><ele>579.0</ele><time>2026-04-25T10:52:36.004Z</time></trkpt><trkpt lat="44.518160369974396" lon="10.533115668088055"><ele>579.0</ele><time>2026-04-25T10:52:37.004Z</time></trkpt><trkpt lat="44.518097291589605" lon="10.533009389432479"><ele>579.0</ele><time>2026-04-25T10:52:38.004Z</time></trkpt><trkpt lat="44.51808559510817" lon="10.532864824008813"><ele>579.0</ele><time>2026-04-25T10:52:39.004Z</time></trkpt><trkpt lat="44.51812326304049" lon="10.532721905649364"><ele>579.0</ele><time>2026-04-25T10:52:40.004Z</time></trkpt><trkpt lat="44.51818424348101" lon="10.532590520811583"><ele>579.0</ele><time>2026-04-25T10:52:41.004Z</time></trkpt><trkpt lat="44.51823388867081" lon="10.53246799708812"><ele>579.0</ele><time>2026-04-25T10:52:42.004Z</time></trkpt><trkpt lat="44.51827357005845" lon="10.532335269425738"><ele>579.0</ele><time>2026-04-25T10:52:43.004Z</time></trkpt><trkpt lat="44.51828796231305" lon="10.532198640807717"><ele>579.0</ele><time>2026-04-25T10:52:44.004Z</time></trkpt><trkpt lat="44.518278006542374" lon="10.532063293289847"><ele>579.0</ele><time>2026-04-25T10:52:45.004Z</time></trkpt><trkpt lat="44.51823108733767" lon="10.53194074094341"><ele>579.0</ele><time>2026-04-25T10:52:46.004Z</time></trkpt><trkpt lat="44.518159759897884" lon="10.531845701871248"><ele>579.0</ele><time>2026-04-25T10:52:47.004Z</time></trkpt><trkpt lat="44.518072915913145" lon="10.531783543816012"><ele>579.0</ele><time>2026-04-25T10:52:48.004Z</time></trkpt><trkpt lat="44.517996127465324" lon="10.531709450527817"><ele>578.6</ele><time>2026-04-25T10:52:49.004Z</time></trkpt><trkpt lat="44.51792471649385" lon="10.53164509168154"><ele>578.2</ele><time>2026-04-25T10:52:50.004Z</time></trkpt><trkpt lat="44.517868696607245" lon="10.531562581468467"><ele>577.8000000000001</ele><time>2026-04-25T10:52:51.004Z</time></trkpt><trkpt lat="44.5178483544759" lon="10.5314416629999"><ele>577.4</ele><time>2026-04-25T10:52:52.004Z</time></trkpt><trkpt lat="44.51783139037771" lon="10.53130495026715"><ele>577.0</ele><time>2026-04-25T10:52:53.004Z</time></trkpt><trkpt lat="44.51780140845885" lon="10.531161743905738"><ele>573.0</ele><time>2026-04-25T10:52:54.004Z</time></trkpt><trkpt lat="44.517788591419894" lon="10.531002541679296"><ele>569.0</ele><time>2026-04-25T10:52:55.004Z</time></trkpt><trkpt lat="44.51779151196385" lon="10.530827548453425"><ele>565.0</ele><time>2026-04-25T10:52:56.004Z</time></trkpt><trkpt lat="44.51777329908253" lon="10.530670706690925"><ele>561.0</ele><time>2026-04-25T10:52:57.004Z</time></trkpt><trkpt lat="44.51775012551316" lon="10.530523670952546"><ele>561.0</ele><time>2026-04-25T10:52:58.004Z</time></trkpt><trkpt lat="44.51771891432" lon="10.5303856666821"><ele>561.0</ele><time>2026-04-25T10:52:59.004Z</time></trkpt><trkpt lat="44.51767957111834" lon="10.53025614111748"><ele>561.0</ele><time>2026-04-25T10:53:00.004Z</time></trkpt><trkpt lat="44.51762875121088" lon="10.530128887155078"><ele>561.0</ele><time>2026-04-25T10:53:01.004Z</time></trkpt><trkpt lat="44.51756796107038" lon="10.530012135070223"><ele>561.0</ele><time>2026-04-25T10:53:02.004Z</time></trkpt><trkpt lat="44.517493945626235" lon="10.529904183887489"><ele>561.0</ele><time>2026-04-25T10:53:03.005Z</time></trkpt><trkpt lat="44.517409365672435" lon="10.529803208418745"><ele>561.0</ele><time>2026-04-25T10:53:04.005Z</time></trkpt><trkpt lat="44.517311148396026" lon="10.529711260912185"><ele>561.0</ele><time>2026-04-25T10:53:05.005Z</time></trkpt><trkpt lat="44.51720452322568" lon="10.529630243715772"><ele>561.0</ele><time>2026-04-25T10:53:06.005Z</time></trkpt><trkpt lat="44.51708901519915" lon="10.5295644954285"><ele>560.5</ele><time>2026-04-25T10:53:07.005Z</time></trkpt><trkpt lat="44.51696471507962" lon="10.529518285179666"><ele>560.0</ele><time>2026-04-25T10:53:08.005Z</time></trkpt><trkpt lat="44.516837789835776" lon="10.529489904827054"><ele>559.5</ele><time>2026-04-25T10:53:09.005Z</time></trkpt><trkpt lat="44.516711572474165" lon="10.529472746059156"><ele>559.0</ele><time>2026-04-25T10:53:10.005Z</time></trkpt><trkpt lat="44.51658925948935" lon="10.529456485828533"><ele>559.0</ele><time>2026-04-25T10:53:11.005Z</time></trkpt><trkpt lat="44.51647803995794" lon="10.529414650224071"><ele>559.0</ele><time>2026-04-25T10:53:12.005Z</time></trkpt><trkpt lat="44.5163569336254" lon="10.52940964671027"><ele>559.0</ele><time>2026-04-25T10:53:13.005Z</time></trkpt><trkpt lat="44.51623942706709" lon="10.529372885900672"><ele>559.0</ele><time>2026-04-25T10:53:14.005Z</time></trkpt><trkpt lat="44.51612254891223" lon="10.529330667234522"><ele>559.6</ele><time>2026-04-25T10:53:15.005Z</time></trkpt><trkpt lat="44.516015688331656" lon="10.529276911989578"><ele>560.2</ele><time>2026-04-25T10:53:16.005Z</time></trkpt><trkpt lat="44.51591925931002" lon="10.529225527750475"><ele>560.8000000000001</ele><time>2026-04-25T10:53:17.005Z</time></trkpt><trkpt lat="44.51582495392248" lon="10.529171771584718"><ele>561.4</ele><time>2026-04-25T10:53:18.005Z</time></trkpt><trkpt lat="44.51573622673394" lon="10.529114289113128"><ele>562.0</ele><time>2026-04-25T10:53:19.005Z</time></trkpt><trkpt lat="44.51565360699081" lon="10.529042939184636"><ele>562.0</ele><time>2026-04-25T10:53:20.005Z</time></trkpt><trkpt lat="44.515569091221636" lon="10.528952586918"><ele>562.0</ele><time>2026-04-25T10:53:21.005Z</time></trkpt><trkpt lat="44.51548676846769" lon="10.52885234732754"><ele>562.0</ele><time>2026-04-25T10:53:22.005Z</time></trkpt><trkpt lat="44.5154114305096" lon="10.528734822129417"><ele>562.0</ele><time>2026-04-25T10:53:23.005Z</time></trkpt><trkpt lat="44.51533470860916" lon="10.528616895300638"><ele>562.0</ele><time>2026-04-25T10:53:24.005Z</time></trkpt><trkpt lat="44.515249247256904" lon="10.528491853232241"><ele>562.25</ele><time>2026-04-25T10:53:25.005Z</time></trkpt><trkpt lat="44.51517221029148" lon="10.528364173831624"><ele>562.5</ele><time>2026-04-25T10:53:26.005Z</time></trkpt><trkpt lat="44.515096524343164" lon="10.528238769290374"><ele>562.75</ele><time>2026-04-25T10:53:27.005Z</time></trkpt><trkpt lat="44.515021532310975" lon="10.52812678893989"><ele>563.0</ele><time>2026-04-25T10:53:28.005Z</time></trkpt><trkpt lat="44.514946648269145" lon="10.528016851112337"><ele>563.0</ele><time>2026-04-25T10:53:29.005Z</time></trkpt><trkpt lat="44.51487301592694" lon="10.527907400658671"><ele>563.0</ele><time>2026-04-25T10:53:30.005Z</time></trkpt><trkpt lat="44.514799002484885" lon="10.527792856268336"><ele>563.0</ele><time>2026-04-25T10:53:31.005Z</time></trkpt><trkpt lat="44.51472332235257" lon="10.527680047178624"><ele>563.0</ele><time>2026-04-25T10:53:32.005Z</time></trkpt><trkpt lat="44.51464865217772" lon="10.527562016194077"><ele>563.0</ele><time>2026-04-25T10:53:33.005Z</time></trkpt><trkpt lat="44.51457236322057" lon="10.527442049069888"><ele>561.5</ele><time>2026-04-25T10:53:34.005Z</time></trkpt><trkpt lat="44.51450400726679" lon="10.527309086193661"><ele>560.0</ele><time>2026-04-25T10:53:35.005Z</time></trkpt><trkpt lat="44.51445988654977" lon="10.527159163597371"><ele>558.5</ele><time>2026-04-25T10:53:36.005Z</time></trkpt><trkpt lat="44.514433356730116" lon="10.526997464291279"><ele>557.0</ele><time>2026-04-25T10:53:37.005Z</time></trkpt><trkpt lat="44.514420591230916" lon="10.526854366329317"><ele>557.0</ele><time>2026-04-25T10:53:38.005Z</time></trkpt><trkpt lat="44.51442514271701" lon="10.5267258745544"><ele>557.0</ele><time>2026-04-25T10:53:39.005Z</time></trkpt><trkpt lat="44.51446568960094" lon="10.526609940104823"><ele>557.0</ele><time>2026-04-25T10:53:40.005Z</time></trkpt><trkpt lat="44.514503362661486" lon="10.526439613319761"><ele>557.0</ele><time>2026-04-25T10:53:41.005Z</time></trkpt><trkpt lat="44.51452862531041" lon="10.52628000714425"><ele>557.0</ele><time>2026-04-25T10:53:42.005Z</time></trkpt><trkpt lat="44.51450735778758" lon="10.526139575308312"><ele>559.5</ele><time>2026-04-25T10:53:43.005Z</time></trkpt><trkpt lat="44.514442703320874" lon="10.526011625740578"><ele>562.0</ele><time>2026-04-25T10:53:44.005Z</time></trkpt><trkpt lat="44.51434364310042" lon="10.52591949647731"><ele>564.5</ele><time>2026-04-25T10:53:45.005Z</time></trkpt><trkpt lat="44.514242888664775" lon="10.525846529087078"><ele>567.0</ele><time>2026-04-25T10:53:46.005Z</time></trkpt><trkpt lat="44.514150451205424" lon="10.525768632667825"><ele>567.0</ele><time>2026-04-25T10:53:47.005Z</time></trkpt><trkpt lat="44.51406423809782" lon="10.525712606025674"><ele>567.0</ele><time>2026-04-25T10:53:48.005Z</time></trkpt><trkpt lat="44.51397418057786" lon="10.525670232580264"><ele>567.0</ele><time>2026-04-25T10:53:49.005Z</time></trkpt><trkpt lat="44.5138780671283" lon="10.525630650687367"><ele>567.0</ele><time>2026-04-25T10:53:50.005Z</time></trkpt><trkpt lat="44.51378735809323" lon="10.525599295144426"><ele>567.0</ele><time>2026-04-25T10:53:51.005Z</time></trkpt><trkpt lat="44.51370148407393" lon="10.525571746528247"><ele>566.0</ele><time>2026-04-25T10:53:52.005Z</time></trkpt><trkpt lat="44.51361486343246" lon="10.525547896686483"><ele>565.0</ele><time>2026-04-25T10:53:53.005Z</time></trkpt><trkpt lat="44.51353245019449" lon="10.52548437474594"><ele>564.0</ele><time>2026-04-25T10:53:54.005Z</time></trkpt><trkpt lat="44.51343915036431" lon="10.525428460148696"><ele>563.0</ele><time>2026-04-25T10:53:55.005Z</time></trkpt><trkpt lat="44.51335522808919" lon="10.525344060333364"><ele>562.0</ele><time>2026-04-25T10:53:56.005Z</time></trkpt><trkpt lat="44.513273085133896" lon="10.525239646946304"><ele>565.5</ele><time>2026-04-25T10:53:57.005Z</time></trkpt><trkpt lat="44.513196250531834" lon="10.525139848699197"><ele>569.0</ele><time>2026-04-25T10:53:58.005Z</time></trkpt><trkpt lat="44.513113413659504" lon="10.5250237201992"><ele>572.5</ele><time>2026-04-25T10:53:59.005Z</time></trkpt><trkpt lat="44.51303376286103" lon="10.524900218665106"><ele>576.0</ele><time>2026-04-25T10:54:00.005Z</time></trkpt><trkpt lat="44.512950205514855" lon="10.52477995242088"><ele>577.0</ele><time>2026-04-25T10:54:01.005Z</time></trkpt><trkpt lat="44.5128680220621" lon="10.524650801098394"><ele>578.0</ele><time>2026-04-25T10:54:02.005Z</time></trkpt><trkpt lat="44.512776982158655" lon="10.524531269932314"><ele>579.0</ele><time>2026-04-25T10:54:03.005Z</time></trkpt><trkpt lat="44.51267818072965" lon="10.524423195947419"><ele>580.0</ele><time>2026-04-25T10:54:04.005Z</time></trkpt><trkpt lat="44.51257803647809" lon="10.524323456475116"><ele>580.0</ele><time>2026-04-25T10:54:05.005Z</time></trkpt><trkpt lat="44.5124805614359" lon="10.524231684519792"><ele>580.0</ele><time>2026-04-25T10:54:06.005Z</time></trkpt><trkpt lat="44.512385534897724" lon="10.524143718478516"><ele>580.0</ele><time>2026-04-25T10:54:07.005Z</time></trkpt><trkpt lat="44.512286090032994" lon="10.524081565133773"><ele>580.0</ele><time>2026-04-25T10:54:08.005Z</time></trkpt><trkpt lat="44.512190273752026" lon="10.52402603957865"><ele>580.0</ele><time>2026-04-25T10:54:09.005Z</time></trkpt><trkpt lat="44.51208149431706" lon="10.524025835913216"><ele>579.4</ele><time>2026-04-25T10:54:10.005Z</time></trkpt><trkpt lat="44.511968716984185" lon="10.524000999540664"><ele>578.8</ele><time>2026-04-25T10:54:11.005Z</time></trkpt><trkpt lat="44.51187614077216" lon="10.523988322060955"><ele>578.2</ele><time>2026-04-25T10:54:12.005Z</time></trkpt><trkpt lat="44.51179783023497" lon="10.523924734759259"><ele>577.6</ele><time>2026-04-25T10:54:13.005Z</time></trkpt><trkpt lat="44.51174061270606" lon="10.523823324201167"><ele>577.0</ele><time>2026-04-25T10:54:14.005Z</time></trkpt><trkpt lat="44.51171843992533" lon="10.523680519307932"><ele>578.8000000000001</ele><time>2026-04-25T10:54:15.005Z</time></trkpt><trkpt lat="44.51171394087104" lon="10.523520205848653"><ele>580.6</ele><time>2026-04-25T10:54:16.005Z</time></trkpt><trkpt lat="44.51168916790608" lon="10.5233734791024"><ele>582.4000000000001</ele><time>2026-04-25T10:54:17.005Z</time></trkpt><trkpt lat="44.511679460363766" lon="10.523243162236335"><ele>584.2</ele><time>2026-04-25T10:54:18.005Z</time></trkpt><trkpt lat="44.51165372657522" lon="10.523156576838089"><ele>586.0</ele><time>2026-04-25T10:54:19.005Z</time></trkpt><trkpt lat="44.51153121862788" lon="10.523159873190762"><ele>586.0</ele><time>2026-04-25T10:54:23.005Z</time></trkpt><trkpt lat="44.51146687934713" lon="10.52314341668448"><ele>586.0</ele><time>2026-04-25T10:54:24.005Z</time></trkpt><trkpt lat="44.51137926260147" lon="10.523127835718624"><ele>586.0</ele><time>2026-04-25T10:54:25.005Z</time></trkpt><trkpt lat="44.51128591120183" lon="10.523117760496767"><ele>586.0</ele><time>2026-04-25T10:54:26.005Z</time></trkpt><trkpt lat="44.5111834873386" lon="10.523108756817082"><ele>586.0</ele><time>2026-04-25T10:54:27.005Z</time></trkpt><trkpt lat="44.511073073283626" lon="10.523099050748678"><ele>585.75</ele><time>2026-04-25T10:54:28.005Z</time></trkpt><trkpt lat="44.510957864642265" lon="10.523085466501344"><ele>585.5</ele><time>2026-04-25T10:54:29.005Z</time></trkpt><trkpt lat="44.51084845613239" lon="10.523047458291568"><ele>585.25</ele><time>2026-04-25T10:54:30.005Z</time></trkpt><trkpt lat="44.51075216045451" lon="10.522967833409957"><ele>585.0</ele><time>2026-04-25T10:54:31.005Z</time></trkpt><trkpt lat="44.51068053549536" lon="10.522834219336623"><ele>587.25</ele><time>2026-04-25T10:54:32.005Z</time></trkpt><trkpt lat="44.510595832837225" lon="10.522696503915629"><ele>589.5</ele><time>2026-04-25T10:54:33.005Z</time></trkpt><trkpt lat="44.510522356339735" lon="10.522550480034127"><ele>591.75</ele><time>2026-04-25T10:54:34.005Z</time></trkpt><trkpt lat="44.51043381077054" lon="10.522425403250898"><ele>594.0</ele><time>2026-04-25T10:54:35.005Z</time></trkpt><trkpt lat="44.5103389862101" lon="10.522308678890854"><ele>594.0</ele><time>2026-04-25T10:54:36.006Z</time></trkpt><trkpt lat="44.51024657946954" lon="10.522189013673032"><ele>594.0</ele><time>2026-04-25T10:54:37.006Z</time></trkpt><trkpt lat="44.51015915004347" lon="10.522059451877041"><ele>594.0</ele><time>2026-04-25T10:54:38.006Z</time></trkpt><trkpt lat="44.510064063479305" lon="10.521953955306488"><ele>594.0</ele><time>2026-04-25T10:54:39.006Z</time></trkpt><trkpt lat="44.50995129240047" lon="10.521875111623975"><ele>597.25</ele><time>2026-04-25T10:54:40.006Z</time></trkpt><trkpt lat="44.50982490941346" lon="10.521831650492889"><ele>600.5</ele><time>2026-04-25T10:54:41.006Z</time></trkpt><trkpt lat="44.50970288518246" lon="10.521795958040464"><ele>603.75</ele><time>2026-04-25T10:54:42.006Z</time></trkpt><trkpt lat="44.50958667354738" lon="10.521752900159193"><ele>607.0</ele><time>2026-04-25T10:54:43.006Z</time></trkpt><trkpt lat="44.50947245316822" lon="10.521696395017269"><ele>608.0</ele><time>2026-04-25T10:54:44.006Z</time></trkpt><trkpt lat="44.509365966675546" lon="10.52163339864458"><ele>609.0</ele><time>2026-04-25T10:54:45.006Z</time></trkpt><trkpt lat="44.5092583027609" lon="10.52157277280019"><ele>610.0</ele><time>2026-04-25T10:54:46.006Z</time></trkpt><trkpt lat="44.509153182228424" lon="10.521521000393447"><ele>611.0</ele><time>2026-04-25T10:54:47.006Z</time></trkpt><trkpt lat="44.509062458344616" lon="10.52146634890619"><ele>612.0</ele><time>2026-04-25T10:54:48.006Z</time></trkpt><trkpt lat="44.5089980413862" lon="10.521382977517975"><ele>613.25</ele><time>2026-04-25T10:54:49.006Z</time></trkpt><trkpt lat="44.508954878612855" lon="10.521224862117919"><ele>614.5</ele><time>2026-04-25T10:54:50.006Z</time></trkpt><trkpt lat="44.50890410229625" lon="10.521088655922872"><ele>615.75</ele><time>2026-04-25T10:54:51.006Z</time></trkpt><trkpt lat="44.50882222368603" lon="10.520970588731117"><ele>617.0</ele><time>2026-04-25T10:54:52.006Z</time></trkpt><trkpt lat="44.50871481927512" lon="10.520887579988514"><ele>617.0</ele><time>2026-04-25T10:54:53.006Z</time></trkpt><trkpt lat="44.50860682947306" lon="10.52081867358079"><ele>617.0</ele><time>2026-04-25T10:54:54.006Z</time></trkpt><trkpt lat="44.50849852526152" lon="10.520737455404923"><ele>617.0</ele><time>2026-04-25T10:54:55.006Z</time></trkpt><trkpt lat="44.50837301813369" lon="10.520707168252635"><ele>617.0</ele><time>2026-04-25T10:54:56.006Z</time></trkpt><trkpt lat="44.508255847292645" lon="10.520628619838218"><ele>617.0</ele><time>2026-04-25T10:54:57.006Z</time></trkpt><trkpt lat="44.50813325419712" lon="10.520592143867376"><ele>617.0</ele><time>2026-04-25T10:54:58.006Z</time></trkpt><trkpt lat="44.50801409728658" lon="10.52055715957368"><ele>617.0</ele><time>2026-04-25T10:54:59.006Z</time></trkpt><trkpt lat="44.50790764574826" lon="10.52050724419852"><ele>617.0</ele><time>2026-04-25T10:55:00.006Z</time></trkpt><trkpt lat="44.50779913282298" lon="10.520486311338072"><ele>620.0</ele><time>2026-04-25T10:55:01.006Z</time></trkpt><trkpt lat="44.50768163646931" lon="10.520503800531934"><ele>623.0</ele><time>2026-04-25T10:55:02.006Z</time></trkpt><trkpt lat="44.507569280721256" lon="10.520560462440303"><ele>626.0</ele><time>2026-04-25T10:55:03.006Z</time></trkpt><trkpt lat="44.507471604946524" lon="10.52067080976464"><ele>629.0</ele><time>2026-04-25T10:55:04.006Z</time></trkpt><trkpt lat="44.50739929224655" lon="10.520806147359815"><ele>629.0</ele><time>2026-04-25T10:55:05.006Z</time></trkpt><trkpt lat="44.50735163633963" lon="10.520974138236621"><ele>629.0</ele><time>2026-04-25T10:55:06.006Z</time></trkpt><trkpt lat="44.50733893652593" lon="10.52115259358065"><ele>629.0</ele><time>2026-04-25T10:55:07.006Z</time></trkpt><trkpt lat="44.507344244173716" lon="10.521323521472853"><ele>629.0</ele><time>2026-04-25T10:55:08.006Z</time></trkpt><trkpt lat="44.507357993438745" lon="10.52149694028357"><ele>629.4</ele><time>2026-04-25T10:55:09.006Z</time></trkpt><trkpt lat="44.50737208870008" lon="10.521658893492063"><ele>629.8</ele><time>2026-04-25T10:55:10.006Z</time></trkpt><trkpt lat="44.507373350684674" lon="10.521821961577908"><ele>630.2</ele><time>2026-04-25T10:55:11.006Z</time></trkpt><trkpt lat="44.5073857905818" lon="10.521970986688757"><ele>630.6</ele><time>2026-04-25T10:55:12.006Z</time></trkpt><trkpt lat="44.50740668078441" lon="10.52211719442299"><ele>631.0</ele><time>2026-04-25T10:55:13.006Z</time></trkpt><trkpt lat="44.507418491586776" lon="10.522265561093787"><ele>632.4</ele><time>2026-04-25T10:55:14.006Z</time></trkpt><trkpt lat="44.50741421935086" lon="10.522418266838834"><ele>633.8</ele><time>2026-04-25T10:55:15.006Z</time></trkpt><trkpt lat="44.50736583436074" lon="10.522550609963753"><ele>635.1999999999999</ele><time>2026-04-25T10:55:16.006Z</time></trkpt><trkpt lat="44.5073065771895" lon="10.522682357093556"><ele>636.6</ele><time>2026-04-25T10:55:17.006Z</time></trkpt><trkpt lat="44.50723769419059" lon="10.522816359456295"><ele>638.0</ele><time>2026-04-25T10:55:18.006Z</time></trkpt><trkpt lat="44.507183520908924" lon="10.522962436245443"><ele>638.75</ele><time>2026-04-25T10:55:19.006Z</time></trkpt><trkpt lat="44.50712471418744" lon="10.523106361215191"><ele>639.5</ele><time>2026-04-25T10:55:20.006Z</time></trkpt><trkpt lat="44.507085743849586" lon="10.523252020212134"><ele>640.25</ele><time>2026-04-25T10:55:21.006Z</time></trkpt><trkpt lat="44.50706638817235" lon="10.523408727661772"><ele>641.0</ele><time>2026-04-25T10:55:22.006Z</time></trkpt><trkpt lat="44.50704588220189" lon="10.523565030417911"><ele>647.5</ele><time>2026-04-25T10:55:23.006Z</time></trkpt><trkpt lat="44.507042370427" lon="10.52371688074292"><ele>654.0</ele><time>2026-04-25T10:55:24.006Z</time></trkpt><trkpt lat="44.50703096568875" lon="10.523874971064684"><ele>660.5</ele><time>2026-04-25T10:55:25.006Z</time></trkpt><trkpt lat="44.50705697768054" lon="10.52403515654119"><ele>667.0</ele><time>2026-04-25T10:55:26.006Z</time></trkpt><trkpt lat="44.50704707092164" lon="10.524190993904245"><ele>667.0</ele><time>2026-04-25T10:55:27.006Z</time></trkpt><trkpt lat="44.507042043008504" lon="10.524343710205391"><ele>667.0</ele><time>2026-04-25T10:55:28.006Z</time></trkpt><trkpt lat="44.50702954046429" lon="10.524494487604473"><ele>667.0</ele><time>2026-04-25T10:55:29.006Z</time></trkpt><trkpt lat="44.50701405396523" lon="10.524644991997153"><ele>667.0</ele><time>2026-04-25T10:55:30.006Z</time></trkpt><trkpt lat="44.507009948835744" lon="10.524799569288383"><ele>667.0</ele><time>2026-04-25T10:55:31.006Z</time></trkpt><trkpt lat="44.50701219355629" lon="10.524953089752636"><ele>666.6666666666667</ele><time>2026-04-25T10:55:32.006Z</time></trkpt><trkpt lat="44.50701772869535" lon="10.525103243877764"><ele>666.3333333333334</ele><time>2026-04-25T10:55:33.006Z</time></trkpt><trkpt lat="44.50702511070384" lon="10.525246723956803"><ele>666.0</ele><time>2026-04-25T10:55:34.006Z</time></trkpt><trkpt lat="44.50703308304523" lon="10.525367743710552"><ele>665.6666666666666</ele><time>2026-04-25T10:55:35.006Z</time></trkpt><trkpt lat="44.50702106138029" lon="10.525465670943461"><ele>665.3333333333333</ele><time>2026-04-25T10:55:36.006Z</time></trkpt><trkpt lat="44.50697307640049" lon="10.525530858787125"><ele>665.0</ele><time>2026-04-25T10:55:37.006Z</time></trkpt><trkpt lat="44.50690443933787" lon="10.525544805426897"><ele>664.0</ele><time>2026-04-25T10:55:38.006Z</time></trkpt><trkpt lat="44.506834605821304" lon="10.52552858615342"><ele>663.0</ele><time>2026-04-25T10:55:39.006Z</time></trkpt><trkpt lat="44.50676817608561" lon="10.525495166104037"><ele>662.0</ele><time>2026-04-25T10:55:40.006Z</time></trkpt><trkpt lat="44.506688101060746" lon="10.52548007286461"><ele>661.0</ele><time>2026-04-25T10:55:41.006Z</time></trkpt><trkpt lat="44.50659285439813" lon="10.525464288130875"><ele>660.0</ele><time>2026-04-25T10:55:42.006Z</time></trkpt><trkpt lat="44.50649298622384" lon="10.525471586195835"><ele>659.0</ele><time>2026-04-25T10:55:43.006Z</time></trkpt><trkpt lat="44.50638274847109" lon="10.525467962157283"><ele>659.0</ele><time>2026-04-25T10:55:44.006Z</time></trkpt><trkpt lat="44.50627404101356" lon="10.525475457243788"><ele>659.0</ele><time>2026-04-25T10:55:45.006Z</time></trkpt><trkpt lat="44.506160679918544" lon="10.525492831112453"><ele>659.0</ele><time>2026-04-25T10:55:46.006Z</time></trkpt><trkpt lat="44.506049464131614" lon="10.525515398112686"><ele>659.0</ele><time>2026-04-25T10:55:47.006Z</time></trkpt><trkpt lat="44.50594133487619" lon="10.525529226205519"><ele>659.0</ele><time>2026-04-25T10:55:48.006Z</time></trkpt><trkpt lat="44.50583645547193" lon="10.52554695442983"><ele>658.3333333333333</ele><time>2026-04-25T10:55:49.006Z</time></trkpt><trkpt lat="44.50573391777958" lon="10.525563122179959"><ele>657.6666666666666</ele><time>2026-04-25T10:55:50.006Z</time></trkpt><trkpt lat="44.50564137005521" lon="10.525576983252465"><ele>657.0</ele><time>2026-04-25T10:55:51.006Z</time></trkpt><trkpt lat="44.505559407387025" lon="10.525575348383082"><ele>656.3333333333334</ele><time>2026-04-25T10:55:52.006Z</time></trkpt><trkpt lat="44.50547636222295" lon="10.525564829711515"><ele>655.6666666666667</ele><time>2026-04-25T10:55:53.006Z</time></trkpt><trkpt lat="44.50539186601806" lon="10.525545112618232"><ele>655.0</ele><time>2026-04-25T10:55:54.006Z</time></trkpt><trkpt lat="44.50530271106168" lon="10.52555230193862"><ele>655.0</ele><time>2026-04-25T10:55:55.006Z</time></trkpt><trkpt lat="44.50522571929716" lon="10.525596605995219"><ele>655.0</ele><time>2026-04-25T10:55:56.006Z</time></trkpt><trkpt lat="44.50517462506485" lon="10.525676949929641"><ele>655.0</ele><time>2026-04-25T10:55:57.006Z</time></trkpt><trkpt lat="44.50513235602042" lon="10.5257858774531"><ele>655.0</ele><time>2026-04-25T10:55:58.006Z</time></trkpt><trkpt lat="44.50509988325365" lon="10.525892119223373"><ele>655.0</ele><time>2026-04-25T10:55:59.006Z</time></trkpt><trkpt lat="44.50505770212224" lon="10.525989811862228"><ele>655.0</ele><time>2026-04-25T10:56:00.006Z</time></trkpt><trkpt lat="44.50501222746923" lon="10.526076750066713"><ele>655.0</ele><time>2026-04-25T10:56:01.006Z</time></trkpt><trkpt lat="44.504948517758784" lon="10.52612592327078"><ele>655.0</ele><time>2026-04-25T10:56:02.006Z</time></trkpt><trkpt lat="44.50485205426243" lon="10.526104535999774"><ele>655.0</ele><time>2026-04-25T10:56:03.006Z</time></trkpt><trkpt lat="44.50476804136749" lon="10.52603047888717"><ele>655.0</ele><time>2026-04-25T10:56:04.006Z</time></trkpt><trkpt lat="44.504692501842825" lon="10.525970844546551"><ele>655.0</ele><time>2026-04-25T10:56:05.006Z</time></trkpt><trkpt lat="44.5046047804886" lon="10.52596787583364"><ele>655.0</ele><time>2026-04-25T10:56:06.006Z</time></trkpt><trkpt lat="44.504528298002846" lon="10.526033628300107"><ele>653.5</ele><time>2026-04-25T10:56:07.006Z</time></trkpt><trkpt lat="44.50445455064007" lon="10.526172158633072"><ele>652.0</ele><time>2026-04-25T10:56:08.006Z</time></trkpt><trkpt lat="44.504400005008556" lon="10.526306320446075"><ele>650.5</ele><time>2026-04-25T10:56:09.007Z</time></trkpt><trkpt lat="44.50434041376658" lon="10.526432103422513"><ele>649.0</ele><time>2026-04-25T10:56:10.007Z</time></trkpt><trkpt lat="44.5042463578488" lon="10.526521212931861"><ele>649.0</ele><time>2026-04-25T10:56:11.007Z</time></trkpt><trkpt lat="44.50416084144615" lon="10.526631879091779"><ele>649.0</ele><time>2026-04-25T10:56:12.007Z</time></trkpt><trkpt lat="44.5040886426266" lon="10.526755191893637"><ele>649.0</ele><time>2026-04-25T10:56:13.007Z</time></trkpt><trkpt lat="44.50403590396634" lon="10.526891264135925"><ele>649.0</ele><time>2026-04-25T10:56:14.007Z</time></trkpt><trkpt lat="44.50401714060301" lon="10.527072772109262"><ele>646.4000000000001</ele><time>2026-04-25T10:56:15.007Z</time></trkpt><trkpt lat="44.50400661271053" lon="10.527228926069334"><ele>643.8000000000001</ele><time>2026-04-25T10:56:16.007Z</time></trkpt><trkpt lat="44.50398852001291" lon="10.527381188280648"><ele>641.2</ele><time>2026-04-25T10:56:17.007Z</time></trkpt><trkpt lat="44.503960562615994" lon="10.527520039557094"><ele>638.6</ele><time>2026-04-25T10:56:18.007Z</time></trkpt><trkpt lat="44.50392913336401" lon="10.527664510219592"><ele>636.0</ele><time>2026-04-25T10:56:19.007Z</time></trkpt><trkpt lat="44.503893891901654" lon="10.527793327613688"><ele>635.2</ele><time>2026-04-25T10:56:20.007Z</time></trkpt><trkpt lat="44.50384815553814" lon="10.527918192167116"><ele>634.4000000000001</ele><time>2026-04-25T10:56:21.007Z</time></trkpt><trkpt lat="44.50379355215978" lon="10.528029020275225"><ele>633.6</ele><time>2026-04-25T10:56:22.007Z</time></trkpt><trkpt lat="44.50372588033944" lon="10.528139794868395"><ele>632.8000000000001</ele><time>2026-04-25T10:56:23.007Z</time></trkpt><trkpt lat="44.50365485840554" lon="10.528238774214165"><ele>632.0</ele><time>2026-04-25T10:56:24.007Z</time></trkpt><trkpt lat="44.50359108143828" lon="10.528338872794741"><ele>632.2</ele><time>2026-04-25T10:56:25.007Z</time></trkpt><trkpt lat="44.50352334351271" lon="10.528445827078311"><ele>632.4000000000001</ele><time>2026-04-25T10:56:26.007Z</time></trkpt><trkpt lat="44.50345667281251" lon="10.528554485770595"><ele>632.5999999999999</ele><time>2026-04-25T10:56:27.007Z</time></trkpt><trkpt lat="44.50339455280653" lon="10.528652683773092"><ele>632.8</ele><time>2026-04-25T10:56:28.007Z</time></trkpt><trkpt lat="44.503332055851054" lon="10.528738318592008"><ele>633.0</ele><time>2026-04-25T10:56:29.007Z</time></trkpt><trkpt lat="44.503265375881384" lon="10.528809794512219"><ele>633.0</ele><time>2026-04-25T10:56:30.007Z</time></trkpt><trkpt lat="44.503195553256276" lon="10.528878621691987"><ele>633.0</ele><time>2026-04-25T10:56:31.007Z</time></trkpt><trkpt lat="44.50312301487684" lon="10.52894606597588"><ele>633.0</ele><time>2026-04-25T10:56:32.007Z</time></trkpt><trkpt lat="44.503053379274576" lon="10.52900968175314"><ele>633.0</ele><time>2026-04-25T10:56:33.007Z</time></trkpt><trkpt lat="44.50299162449541" lon="10.529063783353433"><ele>633.0</ele><time>2026-04-25T10:56:34.007Z</time></trkpt><trkpt lat="44.50292643114162" lon="10.529113863722884"><ele>633.0</ele><time>2026-04-25T10:56:35.007Z</time></trkpt><trkpt lat="44.50286417729221" lon="10.529144457102605"><ele>633.8571428571429</ele><time>2026-04-25T10:56:36.007Z</time></trkpt><trkpt lat="44.50279376915482" lon="10.529156590072246"><ele>634.7142857142858</ele><time>2026-04-25T10:56:37.007Z</time></trkpt><trkpt lat="44.50272077247085" lon="10.529157467994967"><ele>635.5714285714287</ele><time>2026-04-25T10:56:38.007Z</time></trkpt><trkpt lat="44.50265009172553" lon="10.529147328964228"><ele>636.4285714285714</ele><time>2026-04-25T10:56:39.007Z</time></trkpt><trkpt lat="44.502582787272594" lon="10.529134380158618"><ele>637.2857142857143</ele><time>2026-04-25T10:56:40.007Z</time></trkpt><trkpt lat="44.50251326690336" lon="10.529120759394742"><ele>638.1428571428572</ele><time>2026-04-25T10:56:41.007Z</time></trkpt><trkpt lat="44.50244565686049" lon="10.529116899358005"><ele>639.0</ele><time>2026-04-25T10:56:42.007Z</time></trkpt><trkpt lat="44.50237255847572" lon="10.529117219518982"><ele>639.0</ele><time>2026-04-25T10:56:43.007Z</time></trkpt><trkpt lat="44.50230672510427" lon="10.529089913652472"><ele>639.0</ele><time>2026-04-25T10:56:44.007Z</time></trkpt><trkpt lat="44.502234296235635" lon="10.529103334829442"><ele>639.0</ele><time>2026-04-25T10:56:45.007Z</time></trkpt><trkpt lat="44.50216296320316" lon="10.529083644395145"><ele>639.0</ele><time>2026-04-25T10:56:46.007Z</time></trkpt><trkpt lat="44.50209687738242" lon="10.529070933558591"><ele>639.0</ele><time>2026-04-25T10:56:47.007Z</time></trkpt><trkpt lat="44.50203249939143" lon="10.529067497319717"><ele>639.0</ele><time>2026-04-25T10:56:48.007Z</time></trkpt><trkpt lat="44.501915804453915" lon="10.529054640768203"><ele>639.8</ele><time>2026-04-25T10:56:50.007Z</time></trkpt><trkpt lat="44.50180429555367" lon="10.529038942333804"><ele>640.5999999999999</ele><time>2026-04-25T10:56:52.007Z</time></trkpt><trkpt lat="44.501698905155024" lon="10.529026360736843"><ele>641.4</ele><time>2026-04-25T10:56:54.007Z</time></trkpt><trkpt lat="44.5015913757788" lon="10.52901901635139"><ele>642.1999999999999</ele><time>2026-04-25T10:56:56.007Z</time></trkpt><trkpt lat="44.50151025966239" lon="10.529019686370315"><ele>643.0</ele><time>2026-04-25T10:56:58.007Z</time></trkpt><trkpt lat="44.50143241367435" lon="10.529029923446732"><ele>643.0</ele><time>2026-04-25T10:57:02.007Z</time></trkpt><trkpt lat="44.50134526125434" lon="10.529042004077347"><ele>643.0</ele><time>2026-04-25T10:57:17.007Z</time></trkpt><trkpt lat="44.501218131045285" lon="10.529116610102081"><ele>643.0</ele><time>2026-04-25T10:57:19.007Z</time></trkpt><trkpt lat="44.50114994187831" lon="10.529172814607252"><ele>643.0</ele><time>2026-04-25T10:57:20.007Z</time></trkpt><trkpt lat="44.5010857523377" lon="10.529256840758038"><ele>643.0</ele><time>2026-04-25T10:57:21.007Z</time></trkpt><trkpt lat="44.50103968059769" lon="10.529366594678724"><ele>642.3333333333334</ele><time>2026-04-25T10:57:22.007Z</time></trkpt><trkpt lat="44.50101798930456" lon="10.529486812189356"><ele>641.6666666666667</ele><time>2026-04-25T10:57:23.007Z</time></trkpt><trkpt lat="44.501028231198994" lon="10.529600659805515"><ele>641.0</ele><time>2026-04-25T10:57:24.007Z</time></trkpt><trkpt lat="44.501031388903655" lon="10.529717359473155"><ele>640.3333333333334</ele><time>2026-04-25T10:57:25.007Z</time></trkpt><trkpt lat="44.50104420897628" lon="10.529835795250014"><ele>639.6666666666666</ele><time>2026-04-25T10:57:26.007Z</time></trkpt><trkpt lat="44.50106619090666" lon="10.529953174599287"><ele>639.0</ele><time>2026-04-25T10:57:27.007Z</time></trkpt><trkpt lat="44.501060698383334" lon="10.530062862708933"><ele>639.0</ele><time>2026-04-25T10:57:28.007Z</time></trkpt><trkpt lat="44.501065831066114" lon="10.53018068517856"><ele>639.0</ele><time>2026-04-25T10:57:29.007Z</time></trkpt><trkpt lat="44.50105290350319" lon="10.530296498563535"><ele>639.0</ele><time>2026-04-25T10:57:30.007Z</time></trkpt><trkpt lat="44.501006393406094" lon="10.530395848937477"><ele>639.0</ele><time>2026-04-25T10:57:31.007Z</time></trkpt><trkpt lat="44.500951609360754" lon="10.530507633976793"><ele>639.0</ele><time>2026-04-25T10:57:32.007Z</time></trkpt><trkpt lat="44.50088485385346" lon="10.530627730970643"><ele>636.2</ele><time>2026-04-25T10:57:33.007Z</time></trkpt><trkpt lat="44.500819555266986" lon="10.530755448882873"><ele>633.4</ele><time>2026-04-25T10:57:34.007Z</time></trkpt><trkpt lat="44.50077231488705" lon="10.53088715315133"><ele>630.6</ele><time>2026-04-25T10:57:35.007Z</time></trkpt><trkpt lat="44.500698708853456" lon="10.53099017361206"><ele>627.8</ele><time>2026-04-25T10:57:36.007Z</time></trkpt><trkpt lat="44.500641070872646" lon="10.531100053997882"><ele>625.0</ele><time>2026-04-25T10:57:37.007Z</time></trkpt><trkpt lat="44.500594062325064" lon="10.53121689686286"><ele>624.8333333333334</ele><time>2026-04-25T10:57:38.007Z</time></trkpt><trkpt lat="44.500502998135055" lon="10.531246592836322"><ele>624.6666666666667</ele><time>2026-04-25T10:57:39.007Z</time></trkpt><trkpt lat="44.500414412164226" lon="10.531270925780332"><ele>624.5</ele><time>2026-04-25T10:57:40.007Z</time></trkpt><trkpt lat="44.50032891991731" lon="10.53130079850789"><ele>624.3333333333334</ele><time>2026-04-25T10:57:41.007Z</time></trkpt><trkpt lat="44.50024139607528" lon="10.531305598100877"><ele>624.1666666666666</ele><time>2026-04-25T10:57:42.007Z</time></trkpt><trkpt lat="44.500152539172696" lon="10.531311043636686"><ele>624.0</ele><time>2026-04-25T10:57:43.008Z</time></trkpt><trkpt lat="44.500053572815645" lon="10.531326629423738"><ele>624.0</ele><time>2026-04-25T10:57:44.008Z</time></trkpt><trkpt lat="44.49994919343793" lon="10.531360186889"><ele>624.0</ele><time>2026-04-25T10:57:45.008Z</time></trkpt><trkpt lat="44.499841253509885" lon="10.531388739815172"><ele>624.0</ele><time>2026-04-25T10:57:46.008Z</time></trkpt><trkpt lat="44.49973519496947" lon="10.531475225951954"><ele>624.0</ele><time>2026-04-25T10:57:47.008Z</time></trkpt><trkpt lat="44.499657371206325" lon="10.531608679392594"><ele>622.8</ele><time>2026-04-25T10:57:48.008Z</time></trkpt><trkpt lat="44.499564213842184" lon="10.53174587345886"><ele>621.5999999999999</ele><time>2026-04-25T10:57:49.008Z</time></trkpt><trkpt lat="44.49949649030207" lon="10.53188984435609"><ele>620.4</ele><time>2026-04-25T10:57:50.008Z</time></trkpt><trkpt lat="44.49944079784775" lon="10.532009827970942"><ele>619.1999999999999</ele><time>2026-04-25T10:57:51.008Z</time></trkpt><trkpt lat="44.49938106389775" lon="10.532090740832187"><ele>618.0</ele><time>2026-04-25T10:57:52.008Z</time></trkpt><trkpt lat="44.49926668779335" lon="10.532074334369318"><ele>621.75</ele><time>2026-04-25T10:57:54.008Z</time></trkpt><trkpt lat="44.49921870737259" lon="10.531812626587124"><ele>625.5</ele><time>2026-04-25T10:57:56.008Z</time></trkpt><trkpt lat="44.499173936254216" lon="10.531667989703845"><ele>629.25</ele><time>2026-04-25T10:57:57.008Z</time></trkpt><trkpt lat="44.4991436381941" lon="10.531534258136519"><ele>633.0</ele><time>2026-04-25T10:57:58.008Z</time></trkpt><trkpt lat="44.49911657244551" lon="10.531388771147489"><ele>633.0</ele><time>2026-04-25T10:57:59.008Z</time></trkpt><trkpt lat="44.49908681405859" lon="10.531264810122945"><ele>633.0</ele><time>2026-04-25T10:58:00.008Z</time></trkpt><trkpt lat="44.49903580491531" lon="10.531185765537508"><ele>633.0</ele><time>2026-04-25T10:58:01.008Z</time></trkpt><trkpt lat="44.49895434519413" lon="10.531155107698876"><ele>633.0</ele><time>2026-04-25T10:58:02.008Z</time></trkpt><trkpt lat="44.49887228639819" lon="10.531193486147382"><ele>633.0</ele><time>2026-04-25T10:58:03.008Z</time></trkpt><trkpt lat="44.49881136923465" lon="10.531385231798842"><ele>633.0</ele><time>2026-04-25T10:58:04.008Z</time></trkpt><trkpt lat="44.49875892281051" lon="10.531536777103108"><ele>633.0</ele><time>2026-04-25T10:58:05.008Z</time></trkpt><trkpt lat="44.49870938186063" lon="10.531660695346819"><ele>633.0</ele><time>2026-04-25T10:58:06.008Z</time></trkpt><trkpt lat="44.498661266187916" lon="10.531804538724732"><ele>633.0</ele><time>2026-04-25T10:58:07.008Z</time></trkpt><trkpt lat="44.498610079491655" lon="10.531938081057648"><ele>633.0</ele><time>2026-04-25T10:58:08.008Z</time></trkpt><trkpt lat="44.498557386193355" lon="10.532048671394676"><ele>632.5</ele><time>2026-04-25T10:58:09.008Z</time></trkpt><trkpt lat="44.49849438718553" lon="10.532125526563151"><ele>632.0</ele><time>2026-04-25T10:58:10.008Z</time></trkpt><trkpt lat="44.49842542418663" lon="10.53216193261818"><ele>631.5</ele><time>2026-04-25T10:58:11.008Z</time></trkpt><trkpt lat="44.49835797260527" lon="10.532220473443953"><ele>631.0</ele><time>2026-04-25T10:58:12.008Z</time></trkpt><trkpt lat="44.498298486286814" lon="10.532277133660134"><ele>630.5</ele><time>2026-04-25T10:58:34.008Z</time></trkpt><trkpt lat="44.4982503684862" lon="10.532348743808274"><ele>630.0</ele><time>2026-04-25T10:58:39.008Z</time></trkpt><trkpt lat="44.49814317609089" lon="10.532442647717389"><ele>630.0</ele><time>2026-04-25T10:58:42.008Z</time></trkpt><trkpt lat="44.49809000817413" lon="10.53254174351565"><ele>630.0</ele><time>2026-04-25T10:58:43.008Z</time></trkpt><trkpt lat="44.49801751484286" lon="10.532655000701341"><ele>630.0</ele><time>2026-04-25T10:58:44.008Z</time></trkpt><trkpt lat="44.49793476079171" lon="10.532731687008589"><ele>630.0</ele><time>2026-04-25T10:58:45.008Z</time></trkpt><trkpt lat="44.497869116666976" lon="10.532805064230642"><ele>630.0</ele><time>2026-04-25T10:58:46.008Z</time></trkpt><trkpt lat="44.497823046443074" lon="10.532878839829126"><ele>629.3333333333334</ele><time>2026-04-25T10:58:47.008Z</time></trkpt><trkpt lat="44.497779805671556" lon="10.532955419522548"><ele>628.6666666666666</ele><time>2026-04-25T10:58:48.008Z</time></trkpt><trkpt lat="44.49773527540319" lon="10.533027934411171"><ele>628.0</ele><time>2026-04-25T10:58:49.008Z</time></trkpt><trkpt lat="44.49766941079033" lon="10.533129481263309"><ele>627.3333333333333</ele><time>2026-04-25T10:58:51.008Z</time></trkpt><trkpt lat="44.49773571104836" lon="10.533103937404434"><ele>626.6666666666666</ele><time>2026-04-25T10:59:02.008Z</time></trkpt><trkpt lat="44.49778852462113" lon="10.533036764547168"><ele>626.0</ele><time>2026-04-25T10:59:06.008Z</time></trkpt><trkpt lat="44.49783593262225" lon="10.532922505073323"><ele>626.0</ele><time>2026-04-25T10:59:37.009Z</time></trkpt><trkpt lat="44.497895355360484" lon="10.532842643939254"><ele>642.0</ele><time>2026-04-25T10:59:39.009Z</time></trkpt><trkpt lat="44.49794446667103" lon="10.532758136465871"><ele>630.0</ele><time>2026-04-25T10:59:42.009Z</time></trkpt><trkpt lat="44.49794446667103" lon="10.532758136465871"><ele>630.0</ele><time>2026-04-25T10:59:42.009Z</time></trkpt></trkseg><trkseg><trkpt lat="44.497838401618445" lon="10.532948625440751"><ele>626.8</ele><time>2026-04-25T14:22:36.013Z</time></trkpt><trkpt lat="44.49787832869021" lon="10.532874199007468"><ele>627.6</ele><time>2026-04-25T14:23:14.014Z</time></trkpt><trkpt lat="44.497950692538524" lon="10.532766498645302"><ele>628.4</ele><time>2026-04-25T14:23:16.014Z</time></trkpt><trkpt lat="44.49800670268668" lon="10.532670857078914"><ele>629.2</ele><time>2026-04-25T14:23:17.014Z</time></trkpt><trkpt lat="44.49807009919691" lon="10.532576285010089"><ele>630.0</ele><time>2026-04-25T14:23:18.014Z</time></trkpt><trkpt lat="44.49814244230995" lon="10.532472530544737"><ele>630.0</ele><time>2026-04-25T14:23:19.014Z</time></trkpt><trkpt lat="44.49822639749695" lon="10.53240999927017"><ele>630.0</ele><time>2026-04-25T14:23:20.014Z</time></trkpt><trkpt lat="44.498304624321186" lon="10.532323380730514"><ele>630.0</ele><time>2026-04-25T14:23:21.014Z</time></trkpt><trkpt lat="44.498369250268496" lon="10.532195495595147"><ele>630.0</ele><time>2026-04-25T14:23:22.014Z</time></trkpt><trkpt lat="44.49843960000045" lon="10.532141214598802"><ele>630.0</ele><time>2026-04-25T14:23:23.014Z</time></trkpt><trkpt lat="44.49850670797338" lon="10.5321046267782"><ele>630.0</ele><time>2026-04-25T14:23:24.014Z</time></trkpt><trkpt lat="44.498577899587545" lon="10.53206373634864"><ele>630.0</ele><time>2026-04-25T14:23:25.014Z</time></trkpt><trkpt lat="44.498642535634694" lon="10.531991225399038"><ele>630.0</ele><time>2026-04-25T14:23:26.014Z</time></trkpt><trkpt lat="44.49867721035419" lon="10.531868909737938"><ele>630.0</ele><time>2026-04-25T14:23:27.014Z</time></trkpt><trkpt lat="44.498693961066365" lon="10.531764506885015"><ele>630.0</ele><time>2026-04-25T14:23:28.014Z</time></trkpt><trkpt lat="44.498733828130945" lon="10.531646604443516"><ele>630.0</ele><time>2026-04-25T14:23:29.014Z</time></trkpt><trkpt lat="44.49877625977271" lon="10.53153108083779"><ele>630.5</ele><time>2026-04-25T14:23:30.014Z</time></trkpt><trkpt lat="44.49881470599668" lon="10.531422073193424"><ele>631.0</ele><time>2026-04-25T14:23:31.014Z</time></trkpt><trkpt lat="44.498851111254574" lon="10.531325549606034"><ele>631.5</ele><time>2026-04-25T14:23:32.014Z</time></trkpt><trkpt lat="44.498889395288685" lon="10.53125290109089"><ele>632.0</ele><time>2026-04-25T14:23:33.014Z</time></trkpt><trkpt lat="44.49900371882" lon="10.531194638315176"><ele>632.5</ele><time>2026-04-25T14:23:35.014Z</time></trkpt><trkpt lat="44.49907807600277" lon="10.531244671207372"><ele>633.0</ele><time>2026-04-25T14:23:36.014Z</time></trkpt><trkpt lat="44.49912399852061" lon="10.53135649560282"><ele>633.0</ele><time>2026-04-25T14:23:37.014Z</time></trkpt><trkpt lat="44.49915837706443" lon="10.531484825968665"><ele>633.0</ele><time>2026-04-25T14:23:38.014Z</time></trkpt><trkpt lat="44.499183307063504" lon="10.531632984143078"><ele>633.0</ele><time>2026-04-25T14:23:39.014Z</time></trkpt><trkpt lat="44.49920554018998" lon="10.531797982892373"><ele>633.0</ele><time>2026-04-25T14:23:40.014Z</time></trkpt><trkpt lat="44.49923246392897" lon="10.531947447842947"><ele>633.0</ele><time>2026-04-25T14:23:41.014Z</time></trkpt><trkpt lat="44.49926589278927" lon="10.532069558505231"><ele>633.0</ele><time>2026-04-25T14:23:42.014Z</time></trkpt><trkpt lat="44.49932350093629" lon="10.532136652827385"><ele>633.0</ele><time>2026-04-25T14:23:43.014Z</time></trkpt><trkpt lat="44.499401933766734" lon="10.53212399593608"><ele>633.0</ele><time>2026-04-25T14:23:44.014Z</time></trkpt><trkpt lat="44.499469379749094" lon="10.53203830180729"><ele>633.0</ele><time>2026-04-25T14:23:45.014Z</time></trkpt><trkpt lat="44.49951603621302" lon="10.5319227197868"><ele>633.0</ele><time>2026-04-25T14:23:46.014Z</time></trkpt><trkpt lat="44.49957323148198" lon="10.531784025186539"><ele>631.1999999999999</ele><time>2026-04-25T14:23:47.014Z</time></trkpt><trkpt lat="44.49964466299196" lon="10.531644214616938"><ele>629.4</ele><time>2026-04-25T14:23:48.014Z</time></trkpt><trkpt lat="44.499717927136054" lon="10.531530467657142"><ele>627.5999999999999</ele><time>2026-04-25T14:23:49.014Z</time></trkpt><trkpt lat="44.49979006890574" lon="10.531444544731334"><ele>625.8</ele><time>2026-04-25T14:23:50.014Z</time></trkpt><trkpt lat="44.49987950638246" lon="10.531378524857304"><ele>624.0</ele><time>2026-04-25T14:23:51.014Z</time></trkpt><trkpt lat="44.49996919206859" lon="10.531337877197545"><ele>624.0</ele><time>2026-04-25T14:23:52.014Z</time></trkpt><trkpt lat="44.5000567744833" lon="10.531309799414831"><ele>624.0</ele><time>2026-04-25T14:23:53.015Z</time></trkpt><trkpt lat="44.500159262697125" lon="10.531298304886423"><ele>624.0</ele><time>2026-04-25T14:23:54.015Z</time></trkpt><trkpt lat="44.50026820182597" lon="10.531297507920517"><ele>624.0</ele><time>2026-04-25T14:23:55.015Z</time></trkpt><trkpt lat="44.500388920787074" lon="10.53129810462814"><ele>624.0</ele><time>2026-04-25T14:23:56.015Z</time></trkpt><trkpt lat="44.50051250478625" lon="10.531283959898445"><ele>624.2</ele><time>2026-04-25T14:23:57.015Z</time></trkpt><trkpt lat="44.500611522833886" lon="10.531222411936032"><ele>624.4</ele><time>2026-04-25T14:23:58.015Z</time></trkpt><trkpt lat="44.50069419870292" lon="10.531139320801376"><ele>624.6</ele><time>2026-04-25T14:23:59.015Z</time></trkpt><trkpt lat="44.5007411882166" lon="10.531004076804916"><ele>624.8</ele><time>2026-04-25T14:24:00.015Z</time></trkpt><trkpt lat="44.500803741875636" lon="10.530866407230532"><ele>625.0</ele><time>2026-04-25T14:24:01.015Z</time></trkpt><trkpt lat="44.50086227463814" lon="10.530751922835798"><ele>625.0</ele><time>2026-04-25T14:24:02.015Z</time></trkpt><trkpt lat="44.50089649662879" lon="10.53064838372713"><ele>625.0</ele><time>2026-04-25T14:24:03.015Z</time></trkpt><trkpt lat="44.500956898410095" lon="10.530573324286005"><ele>625.0</ele><time>2026-04-25T14:24:04.015Z</time></trkpt><trkpt lat="44.50100909711501" lon="10.530476130016345"><ele>625.0</ele><time>2026-04-25T14:24:05.015Z</time></trkpt><trkpt lat="44.50105108848969" lon="10.530359547789724"><ele>625.0</ele><time>2026-04-25T14:24:06.015Z</time></trkpt><trkpt lat="44.50109338907326" lon="10.530239052033934"><ele>625.0</ele><time>2026-04-25T14:24:07.015Z</time></trkpt><trkpt lat="44.501101997745614" lon="10.530098330342565"><ele>627.3333333333334</ele><time>2026-04-25T14:24:08.015Z</time></trkpt><trkpt lat="44.501077049510286" lon="10.52997376340992"><ele>629.6666666666667</ele><time>2026-04-25T14:24:09.015Z</time></trkpt><trkpt lat="44.50107459790154" lon="10.529846049312775"><ele>632.0</ele><time>2026-04-25T14:24:10.015Z</time></trkpt><trkpt lat="44.50104880073541" lon="10.529728575199911"><ele>634.3333333333334</ele><time>2026-04-25T14:24:11.015Z</time></trkpt><trkpt lat="44.50105263817029" lon="10.529626180728588"><ele>636.6666666666666</ele><time>2026-04-25T14:24:12.015Z</time></trkpt><trkpt lat="44.501050946715935" lon="10.529516116340385"><ele>639.0</ele><time>2026-04-25T14:24:13.015Z</time></trkpt><trkpt lat="44.501055697494984" lon="10.529377403932061"><ele>639.8</ele><time>2026-04-25T14:24:14.015Z</time></trkpt><trkpt lat="44.501110975888864" lon="10.529255544130729"><ele>640.5999999999999</ele><time>2026-04-25T14:24:15.015Z</time></trkpt><trkpt lat="44.50119994176932" lon="10.529158488775145"><ele>641.4</ele><time>2026-04-25T14:24:16.015Z</time></trkpt><trkpt lat="44.50130316116903" lon="10.529093874823989"><ele>642.1999999999999</ele><time>2026-04-25T14:24:17.015Z</time></trkpt><trkpt lat="44.50141916726368" lon="10.529056359870674"><ele>643.0</ele><time>2026-04-25T14:24:18.015Z</time></trkpt><trkpt lat="44.5015220646942" lon="10.529039700373515"><ele>643.0</ele><time>2026-04-25T14:24:19.015Z</time></trkpt><trkpt lat="44.50162959143266" lon="10.529045970457478"><ele>643.0</ele><time>2026-04-25T14:24:20.015Z</time></trkpt><trkpt lat="44.50174183332207" lon="10.529060823402041"><ele>643.0</ele><time>2026-04-25T14:24:21.015Z</time></trkpt><trkpt lat="44.501855320661136" lon="10.529078075565687"><ele>643.0</ele><time>2026-04-25T14:24:22.015Z</time></trkpt><trkpt lat="44.50196017679137" lon="10.529100673024374"><ele>643.0</ele><time>2026-04-25T14:24:23.015Z</time></trkpt><trkpt lat="44.50207350285728" lon="10.52912056246308"><ele>642.1999999999999</ele><time>2026-04-25T14:24:24.015Z</time></trkpt><trkpt lat="44.50218324344042" lon="10.529133109255179"><ele>641.4</ele><time>2026-04-25T14:24:25.015Z</time></trkpt><trkpt lat="44.50229451293245" lon="10.529144684790852"><ele>640.5999999999999</ele><time>2026-04-25T14:24:26.015Z</time></trkpt><trkpt lat="44.50240949931558" lon="10.529168715446039"><ele>639.8</ele><time>2026-04-25T14:24:27.015Z</time></trkpt><trkpt lat="44.50251716967435" lon="10.529179939212714"><ele>639.0</ele><time>2026-04-25T14:24:28.015Z</time></trkpt><trkpt lat="44.50263033023009" lon="10.529177392988744"><ele>639.0</ele><time>2026-04-25T14:24:29.015Z</time></trkpt><trkpt lat="44.50273795940477" lon="10.529182128058409"><ele>639.0</ele><time>2026-04-25T14:24:30.015Z</time></trkpt><trkpt lat="44.50284282092361" lon="10.529195786422067"><ele>639.0</ele><time>2026-04-25T14:24:31.015Z</time></trkpt><trkpt lat="44.5029390208005" lon="10.529145440144475"><ele>639.0</ele><time>2026-04-25T14:24:32.015Z</time></trkpt><trkpt lat="44.50303963209777" lon="10.529053491843221"><ele>639.0</ele><time>2026-04-25T14:24:33.015Z</time></trkpt><trkpt lat="44.50313651824362" lon="10.528956704516384"><ele>637.8</ele><time>2026-04-25T14:24:34.015Z</time></trkpt><trkpt lat="44.50322237470581" lon="10.52887391494655"><ele>636.5999999999999</ele><time>2026-04-25T14:24:35.015Z</time></trkpt><trkpt lat="44.50330476970439" lon="10.528791112862658"><ele>635.4</ele><time>2026-04-25T14:24:36.015Z</time></trkpt><trkpt lat="44.503387190572326" lon="10.528695888508341"><ele>634.1999999999999</ele><time>2026-04-25T14:24:37.015Z</time></trkpt><trkpt lat="44.50346004698225" lon="10.528584861475565"><ele>633.0</ele><time>2026-04-25T14:24:38.015Z</time></trkpt><trkpt lat="44.50353985209764" lon="10.528464837543172"><ele>632.75</ele><time>2026-04-25T14:24:39.015Z</time></trkpt><trkpt lat="44.503633513220684" lon="10.528330626166683"><ele>632.5</ele><time>2026-04-25T14:24:40.015Z</time></trkpt><trkpt lat="44.50373093159301" lon="10.528206759445286"><ele>632.25</ele><time>2026-04-25T14:24:41.015Z</time></trkpt><trkpt lat="44.5038186409011" lon="10.528070574881436"><ele>632.0</ele><time>2026-04-25T14:24:42.016Z</time></trkpt><trkpt lat="44.50389263025017" lon="10.527932176056417"><ele>633.0</ele><time>2026-04-25T14:24:43.016Z</time></trkpt><trkpt lat="44.50394954380502" lon="10.527786137767764"><ele>634.0</ele><time>2026-04-25T14:24:44.016Z</time></trkpt><trkpt lat="44.50399361325488" lon="10.52761656333773"><ele>635.0</ele><time>2026-04-25T14:24:45.016Z</time></trkpt><trkpt lat="44.504023618074115" lon="10.527444761756477"><ele>636.0</ele><time>2026-04-25T14:24:46.016Z</time></trkpt><trkpt lat="44.504040890703166" lon="10.527274401641384"><ele>636.0</ele><time>2026-04-25T14:24:47.016Z</time></trkpt><trkpt lat="44.50405524562718" lon="10.527110672827888"><ele>636.0</ele><time>2026-04-25T14:24:48.016Z</time></trkpt><trkpt lat="44.50405813617406" lon="10.526966226035011"><ele>636.0</ele><time>2026-04-25T14:24:49.016Z</time></trkpt><trkpt lat="44.50408798337245" lon="10.526837778388746"><ele>636.0</ele><time>2026-04-25T14:24:50.016Z</time></trkpt><trkpt lat="44.50412444629832" lon="10.526731602975943"><ele>636.0</ele><time>2026-04-25T14:24:51.016Z</time></trkpt><trkpt lat="44.504198970323145" lon="10.526642248948782"><ele>638.6</ele><time>2026-04-25T14:24:52.016Z</time></trkpt><trkpt lat="44.50428248055875" lon="10.52653703454032"><ele>641.2</ele><time>2026-04-25T14:24:53.016Z</time></trkpt><trkpt lat="44.50436384990518" lon="10.526418052766045"><ele>643.8000000000001</ele><time>2026-04-25T14:24:54.016Z</time></trkpt><trkpt lat="44.504441383880646" lon="10.526297737677696"><ele>646.4000000000001</ele><time>2026-04-25T14:24:55.016Z</time></trkpt><trkpt lat="44.50448775212334" lon="10.526185536911951"><ele>649.0</ele><time>2026-04-25T14:24:56.016Z</time></trkpt><trkpt lat="44.50452857043641" lon="10.526090090614769"><ele>650.0</ele><time>2026-04-25T14:24:57.016Z</time></trkpt><trkpt lat="44.50459135821884" lon="10.526028792416193"><ele>651.0</ele><time>2026-04-25T14:24:58.016Z</time></trkpt><trkpt lat="44.50464854286119" lon="10.52596960025244"><ele>652.0</ele><time>2026-04-25T14:24:59.016Z</time></trkpt><trkpt lat="44.504730301231994" lon="10.52599521401838"><ele>653.0</ele><time>2026-04-25T14:25:00.016Z</time></trkpt><trkpt lat="44.50482833298119" lon="10.526109112804853"><ele>654.0</ele><time>2026-04-25T14:25:01.016Z</time></trkpt><trkpt lat="44.50490489517678" lon="10.52615014336706"><ele>655.0</ele><time>2026-04-25T14:25:02.016Z</time></trkpt><trkpt lat="44.50497378799231" lon="10.526133781851634"><ele>655.0</ele><time>2026-04-25T14:25:03.016Z</time></trkpt><trkpt lat="44.50505675728103" lon="10.526075760499046"><ele>655.0</ele><time>2026-04-25T14:25:04.016Z</time></trkpt><trkpt lat="44.50509589324899" lon="10.525938149295047"><ele>655.0</ele><time>2026-04-25T14:25:05.016Z</time></trkpt><trkpt lat="44.505154383753776" lon="10.52583841869157"><ele>655.0</ele><time>2026-04-25T14:25:06.016Z</time></trkpt><trkpt lat="44.50520650867106" lon="10.52572410112034"><ele>655.0</ele><time>2026-04-25T14:25:07.016Z</time></trkpt><trkpt lat="44.50525926737177" lon="10.525621320550513"><ele>655.0</ele><time>2026-04-25T14:25:08.016Z</time></trkpt><trkpt lat="44.50533947982001" lon="10.525582484984186"><ele>655.0</ele><time>2026-04-25T14:25:09.016Z</time></trkpt><trkpt lat="44.50543861996009" lon="10.525608050143884"><ele>655.0</ele><time>2026-04-25T14:25:10.016Z</time></trkpt><trkpt lat="44.505536796179555" lon="10.525603597161572"><ele>655.0</ele><time>2026-04-25T14:25:11.016Z</time></trkpt><trkpt lat="44.505651122781906" lon="10.525615460743776"><ele>655.0</ele><time>2026-04-25T14:25:12.016Z</time></trkpt><trkpt lat="44.50575105029759" lon="10.525607170971565"><ele>654.0</ele><time>2026-04-25T14:25:13.016Z</time></trkpt><trkpt lat="44.505846902419776" lon="10.525592086813184"><ele>653.0</ele><time>2026-04-25T14:25:14.016Z</time></trkpt><trkpt lat="44.5059369198128" lon="10.525574374402336"><ele>652.0</ele><time>2026-04-25T14:25:15.016Z</time></trkpt><trkpt lat="44.50603557412911" lon="10.525556442839115"><ele>651.0</ele><time>2026-04-25T14:25:16.016Z</time></trkpt><trkpt lat="44.50613408651021" lon="10.525536986705358"><ele>650.0</ele><time>2026-04-25T14:25:17.016Z</time></trkpt><trkpt lat="44.50622738392743" lon="10.525521547189106"><ele>651.8</ele><time>2026-04-25T14:25:18.016Z</time></trkpt><trkpt lat="44.506321634098306" lon="10.525501705956403"><ele>653.6</ele><time>2026-04-25T14:25:19.016Z</time></trkpt><trkpt lat="44.50641047882404" lon="10.525511359480006"><ele>655.4000000000001</ele><time>2026-04-25T14:25:20.016Z</time></trkpt><trkpt lat="44.50649553414843" lon="10.525500483243341"><ele>657.2</ele><time>2026-04-25T14:25:21.016Z</time></trkpt><trkpt lat="44.506590056418005" lon="10.525504910991913"><ele>659.0</ele><time>2026-04-25T14:25:22.016Z</time></trkpt><trkpt lat="44.506683936446684" lon="10.52551133852615"><ele>659.0</ele><time>2026-04-25T14:25:23.016Z</time></trkpt><trkpt lat="44.506779948871056" lon="10.525525129353802"><ele>659.0</ele><time>2026-04-25T14:25:24.016Z</time></trkpt><trkpt lat="44.506869057964245" lon="10.525551674004443"><ele>659.0</ele><time>2026-04-25T14:25:25.016Z</time></trkpt><trkpt lat="44.50694725129867" lon="10.525554579765242"><ele>659.0</ele><time>2026-04-25T14:25:26.016Z</time></trkpt><trkpt lat="44.50701011694023" lon="10.525509243169951"><ele>659.0</ele><time>2026-04-25T14:25:27.016Z</time></trkpt><trkpt lat="44.50706460963308" lon="10.52542258777175"><ele>659.0</ele><time>2026-04-25T14:25:28.016Z</time></trkpt><trkpt lat="44.50705308737529" lon="10.525249164094214"><ele>660.5</ele><time>2026-04-25T14:25:29.016Z</time></trkpt><trkpt lat="44.5070412477858" lon="10.525088135062958"><ele>662.0</ele><time>2026-04-25T14:25:30.017Z</time></trkpt><trkpt lat="44.507032454338336" lon="10.524902058754952"><ele>663.5</ele><time>2026-04-25T14:25:31.017Z</time></trkpt><trkpt lat="44.50703444083051" lon="10.524724700193582"><ele>665.0</ele><time>2026-04-25T14:25:32.017Z</time></trkpt><trkpt lat="44.50704277424145" lon="10.524547358276635"><ele>665.5</ele><time>2026-04-25T14:25:33.017Z</time></trkpt><trkpt lat="44.50705686345049" lon="10.524372463076629"><ele>666.0</ele><time>2026-04-25T14:25:34.017Z</time></trkpt><trkpt lat="44.507068197837434" lon="10.524196781737345"><ele>666.5</ele><time>2026-04-25T14:25:35.017Z</time></trkpt><trkpt lat="44.507073721272235" lon="10.524020654539385"><ele>667.0</ele><time>2026-04-25T14:25:36.017Z</time></trkpt><trkpt lat="44.507062951890674" lon="10.523839604017514"><ele>667.0</ele><time>2026-04-25T14:25:37.017Z</time></trkpt><trkpt lat="44.50706114665882" lon="10.523667218733813"><ele>667.0</ele><time>2026-04-25T14:25:38.017Z</time></trkpt><trkpt lat="44.50707634032489" lon="10.523495683285773"><ele>667.0</ele><time>2026-04-25T14:25:39.017Z</time></trkpt><trkpt lat="44.507107881643584" lon="10.52333077230554"><ele>667.0</ele><time>2026-04-25T14:25:40.017Z</time></trkpt><trkpt lat="44.50714637213585" lon="10.523168431183109"><ele>660.5</ele><time>2026-04-25T14:25:41.017Z</time></trkpt><trkpt lat="44.50719628645377" lon="10.522999859043496"><ele>654.0</ele><time>2026-04-25T14:25:42.017Z</time></trkpt><trkpt lat="44.50725975425283" lon="10.52285070778669"><ele>647.5</ele><time>2026-04-25T14:25:43.017Z</time></trkpt><trkpt lat="44.507332868938576" lon="10.52270894466791"><ele>641.0</ele><time>2026-04-25T14:25:44.017Z</time></trkpt><trkpt lat="44.50740122175254" lon="10.522554035750609"><ele>640.25</ele><time>2026-04-25T14:25:45.017Z</time></trkpt><trkpt lat="44.50742873825229" lon="10.522390315160218"><ele>639.5</ele><time>2026-04-25T14:25:46.017Z</time></trkpt><trkpt lat="44.50744273163959" lon="10.522212265002814"><ele>638.75</ele><time>2026-04-25T14:25:47.017Z</time></trkpt><trkpt lat="44.507425919560994" lon="10.522027018342321"><ele>638.0</ele><time>2026-04-25T14:25:48.017Z</time></trkpt><trkpt lat="44.507407497081246" lon="10.521847786724216"><ele>636.25</ele><time>2026-04-25T14:25:49.017Z</time></trkpt><trkpt lat="44.50739247324037" lon="10.52167083431719"><ele>634.5</ele><time>2026-04-25T14:25:50.017Z</time></trkpt><trkpt lat="44.507359810409284" lon="10.521487890849496"><ele>632.75</ele><time>2026-04-25T14:25:51.017Z</time></trkpt><trkpt lat="44.507356365791985" lon="10.521310113242372"><ele>631.0</ele><time>2026-04-25T14:25:52.017Z</time></trkpt><trkpt lat="44.507367937667205" lon="10.521128975779503"><ele>630.5</ele><time>2026-04-25T14:25:53.017Z</time></trkpt><trkpt lat="44.50739011342703" lon="10.520966889998242"><ele>630.0</ele><time>2026-04-25T14:25:54.017Z</time></trkpt><trkpt lat="44.507428728346525" lon="10.520786914664972"><ele>629.5</ele><time>2026-04-25T14:25:55.017Z</time></trkpt><trkpt lat="44.50753299606194" lon="10.520642576327349"><ele>629.0</ele><time>2026-04-25T14:25:56.017Z</time></trkpt><trkpt lat="44.50764805495891" lon="10.520540860744704"><ele>629.0</ele><time>2026-04-25T14:25:57.017Z</time></trkpt><trkpt lat="44.507791593866195" lon="10.520542039956588"><ele>629.0</ele><time>2026-04-25T14:25:58.017Z</time></trkpt><trkpt lat="44.507922304621644" lon="10.520561823816765"><ele>629.0</ele><time>2026-04-25T14:25:59.017Z</time></trkpt><trkpt lat="44.5080490390602" lon="10.520605613313885"><ele>629.0</ele><time>2026-04-25T14:26:00.017Z</time></trkpt><trkpt lat="44.50817539572686" lon="10.520654327912224"><ele>626.0</ele><time>2026-04-25T14:26:01.017Z</time></trkpt><trkpt lat="44.508294617076224" lon="10.520701515890174"><ele>623.0</ele><time>2026-04-25T14:26:02.017Z</time></trkpt><trkpt lat="44.508409597320885" lon="10.520747711416648"><ele>620.0</ele><time>2026-04-25T14:26:03.017Z</time></trkpt><trkpt lat="44.50852489155505" lon="10.520799677611372"><ele>617.0</ele><time>2026-04-25T14:26:04.017Z</time></trkpt><trkpt lat="44.50864031310775" lon="10.520878922923456"><ele>617.75</ele><time>2026-04-25T14:26:05.017Z</time></trkpt><trkpt lat="44.50874408475852" lon="10.520974314345256"><ele>618.5</ele><time>2026-04-25T14:26:06.017Z</time></trkpt><trkpt lat="44.50883869944124" lon="10.521085040035045"><ele>619.25</ele><time>2026-04-25T14:26:07.017Z</time></trkpt><trkpt lat="44.50892524156349" lon="10.521213542996799"><ele>620.0</ele><time>2026-04-25T14:26:08.017Z</time></trkpt><trkpt lat="44.50897747738457" lon="10.521375171014029"><ele>618.4</ele><time>2026-04-25T14:26:09.017Z</time></trkpt><trkpt lat="44.50903724294065" lon="10.521478798273396"><ele>616.8</ele><time>2026-04-25T14:26:10.017Z</time></trkpt><trkpt lat="44.50911735111207" lon="10.52156210057783"><ele>615.2</ele><time>2026-04-25T14:26:11.017Z</time></trkpt><trkpt lat="44.50921655642135" lon="10.521633099842557"><ele>613.6</ele><time>2026-04-25T14:26:12.017Z</time></trkpt><trkpt lat="44.50932584045125" lon="10.521690894198583"><ele>612.0</ele><time>2026-04-25T14:26:13.017Z</time></trkpt><trkpt lat="44.509461016118394" lon="10.52173332235805"><ele>610.75</ele><time>2026-04-25T14:26:14.017Z</time></trkpt><trkpt lat="44.50958755112717" lon="10.52178549985568"><ele>609.5</ele><time>2026-04-25T14:26:15.017Z</time></trkpt><trkpt lat="44.50970338075791" lon="10.5218230479554"><ele>608.25</ele><time>2026-04-25T14:26:16.017Z</time></trkpt><trkpt lat="44.509821399561275" lon="10.52188447428456"><ele>607.0</ele><time>2026-04-25T14:26:17.017Z</time></trkpt><trkpt lat="44.50993654680034" lon="10.521936629007447"><ele>607.0</ele><time>2026-04-25T14:26:18.017Z</time></trkpt><trkpt lat="44.510053539895495" lon="10.521974063122874"><ele>607.0</ele><time>2026-04-25T14:26:19.018Z</time></trkpt><trkpt lat="44.51014424885463" lon="10.522099035141023"><ele>607.0</ele><time>2026-04-25T14:26:20.018Z</time></trkpt><trkpt lat="44.51024620278788" lon="10.522231898075106"><ele>607.0</ele><time>2026-04-25T14:26:21.018Z</time></trkpt><trkpt lat="44.5103463767691" lon="10.522363355920552"><ele>604.5</ele><time>2026-04-25T14:26:22.018Z</time></trkpt><trkpt lat="44.510439526778804" lon="10.5225044220222"><ele>602.0</ele><time>2026-04-25T14:26:23.018Z</time></trkpt><trkpt lat="44.51052481234466" lon="10.52264957801222"><ele>599.5</ele><time>2026-04-25T14:26:24.018Z</time></trkpt><trkpt lat="44.51061769175395" lon="10.52279151125329"><ele>597.0</ele><time>2026-04-25T14:26:25.018Z</time></trkpt><trkpt lat="44.51070158371273" lon="10.522931380078006"><ele>594.0</ele><time>2026-04-25T14:26:26.018Z</time></trkpt><trkpt lat="44.51077273969098" lon="10.523046849490798"><ele>591.0</ele><time>2026-04-25T14:26:27.018Z</time></trkpt><trkpt lat="44.51086662225576" lon="10.52311840195515"><ele>588.0</ele><time>2026-04-25T14:26:28.018Z</time></trkpt><trkpt lat="44.510980040731816" lon="10.523150832326925"><ele>585.0</ele><time>2026-04-25T14:26:29.018Z</time></trkpt><trkpt lat="44.51110166854837" lon="10.523152890967765"><ele>585.0</ele><time>2026-04-25T14:26:30.018Z</time></trkpt><trkpt lat="44.51121017459065" lon="10.523137307563966"><ele>585.0</ele><time>2026-04-25T14:26:31.018Z</time></trkpt><trkpt lat="44.51132160279907" lon="10.523164579264437"><ele>585.0</ele><time>2026-04-25T14:26:32.018Z</time></trkpt><trkpt lat="44.51141398004082" lon="10.523176930764992"><ele>585.0</ele><time>2026-04-25T14:26:33.018Z</time></trkpt><trkpt lat="44.51148596451107" lon="10.523191603261113"><ele>585.0</ele><time>2026-04-25T14:26:34.018Z</time></trkpt><trkpt lat="44.511554634295855" lon="10.523208211572115"><ele>585.2</ele><time>2026-04-25T14:26:37.018Z</time></trkpt><trkpt lat="44.51161743940864" lon="10.523225505223476"><ele>585.4</ele><time>2026-04-25T14:26:40.018Z</time></trkpt><trkpt lat="44.51165558652462" lon="10.523342681681324"><ele>585.6</ele><time>2026-04-25T14:26:42.018Z</time></trkpt><trkpt lat="44.51169359788683" lon="10.523478887902773"><ele>585.8</ele><time>2026-04-25T14:26:44.018Z</time></trkpt><trkpt lat="44.51169266689136" lon="10.523644414536324"><ele>586.0</ele><time>2026-04-25T14:26:46.018Z</time></trkpt><trkpt lat="44.51170698219997" lon="10.523743298904776"><ele>584.2</ele><time>2026-04-25T14:26:47.018Z</time></trkpt><trkpt lat="44.511738153484764" lon="10.52384991136058"><ele>582.4000000000001</ele><time>2026-04-25T14:26:48.018Z</time></trkpt><trkpt lat="44.51177734179188" lon="10.523959494571193"><ele>580.6</ele><time>2026-04-25T14:26:49.018Z</time></trkpt><trkpt lat="44.5118448380454" lon="10.524027071432368"><ele>578.8000000000001</ele><time>2026-04-25T14:26:50.018Z</time></trkpt><trkpt lat="44.511940109289284" lon="10.524030294625662"><ele>577.0</ele><time>2026-04-25T14:26:51.018Z</time></trkpt><trkpt lat="44.51204494825792" lon="10.52403612364261"><ele>577.6</ele><time>2026-04-25T14:26:52.018Z</time></trkpt><trkpt lat="44.51214000556457" lon="10.52404298179532"><ele>578.2</ele><time>2026-04-25T14:26:53.018Z</time></trkpt><trkpt lat="44.51223920992126" lon="10.524081044330826"><ele>578.8</ele><time>2026-04-25T14:26:54.018Z</time></trkpt><trkpt lat="44.51233131491605" lon="10.52415557571229"><ele>579.4</ele><time>2026-04-25T14:26:55.018Z</time></trkpt><trkpt lat="44.51242621339819" lon="10.524227723263111"><ele>580.0</ele><time>2026-04-25T14:26:56.018Z</time></trkpt><trkpt lat="44.51251135293891" lon="10.52429973667454"><ele>580.0</ele><time>2026-04-25T14:26:57.018Z</time></trkpt><trkpt lat="44.51258953960824" lon="10.524373213047681"><ele>580.0</ele><time>2026-04-25T14:26:58.018Z</time></trkpt><trkpt lat="44.51266097518388" lon="10.524449162108349"><ele>580.0</ele><time>2026-04-25T14:26:59.018Z</time></trkpt><trkpt lat="44.512740216520434" lon="10.52451014720788"><ele>580.0</ele><time>2026-04-25T14:27:00.018Z</time></trkpt><trkpt lat="44.51280093917635" lon="10.524595984034459"><ele>580.0</ele><time>2026-04-25T14:27:01.018Z</time></trkpt><trkpt lat="44.512862725752264" lon="10.524676675801777"><ele>580.0</ele><time>2026-04-25T14:27:02.018Z</time></trkpt><trkpt lat="44.5129255977115" lon="10.524754969520924"><ele>579.3333333333334</ele><time>2026-04-25T14:27:03.018Z</time></trkpt><trkpt lat="44.512956975504714" lon="10.524856372017183"><ele>578.6666666666667</ele><time>2026-04-25T14:27:04.018Z</time></trkpt><trkpt lat="44.51300666163977" lon="10.524937501335128"><ele>578.0</ele><time>2026-04-25T14:27:05.018Z</time></trkpt><trkpt lat="44.513059603852845" lon="10.52501596703454"><ele>577.3333333333334</ele><time>2026-04-25T14:27:06.018Z</time></trkpt><trkpt lat="44.51311592383613" lon="10.525098950672536"><ele>576.6666666666666</ele><time>2026-04-25T14:27:07.019Z</time></trkpt><trkpt lat="44.513169058905184" lon="10.525188135516515"><ele>576.0</ele><time>2026-04-25T14:27:08.019Z</time></trkpt><trkpt lat="44.51323207902956" lon="10.52526668080495"><ele>576.0</ele><time>2026-04-25T14:27:09.019Z</time></trkpt><trkpt lat="44.513295203662764" lon="10.52533615009652"><ele>576.0</ele><time>2026-04-25T14:27:10.019Z</time></trkpt><trkpt lat="44.513367437933276" lon="10.525402737512326"><ele>576.0</ele><time>2026-04-25T14:27:11.019Z</time></trkpt><trkpt lat="44.513434145199334" lon="10.525473214748127"><ele>576.0</ele><time>2026-04-25T14:27:12.019Z</time></trkpt><trkpt lat="44.5135014017432" lon="10.525531830342645"><ele>576.0</ele><time>2026-04-25T14:27:13.019Z</time></trkpt><trkpt lat="44.513573736950434" lon="10.525578686026039"><ele>576.0</ele><time>2026-04-25T14:27:14.019Z</time></trkpt><trkpt lat="44.513665147995226" lon="10.525601564007292"><ele>574.5</ele><time>2026-04-25T14:27:15.019Z</time></trkpt><trkpt lat="44.513745258494254" lon="10.525627187437708"><ele>573.0</ele><time>2026-04-25T14:27:16.019Z</time></trkpt><trkpt lat="44.51383133631334" lon="10.525655849302428"><ele>571.5</ele><time>2026-04-25T14:27:17.019Z</time></trkpt><trkpt lat="44.51391618271858" lon="10.525693187649349"><ele>570.0</ele><time>2026-04-25T14:27:18.019Z</time></trkpt><trkpt lat="44.51398503360353" lon="10.525731713744797"><ele>568.5</ele><time>2026-04-25T14:27:19.019Z</time></trkpt><trkpt lat="44.514072757019754" lon="10.525782354868904"><ele>567.0</ele><time>2026-04-25T14:27:20.019Z</time></trkpt><trkpt lat="44.514170599900275" lon="10.525842497525"><ele>567.0</ele><time>2026-04-25T14:27:21.019Z</time></trkpt><trkpt lat="44.51426219226322" lon="10.525921891753958"><ele>567.0</ele><time>2026-04-25T14:27:22.019Z</time></trkpt><trkpt lat="44.514345213692856" lon="10.526000965939327"><ele>567.0</ele><time>2026-04-25T14:27:23.019Z</time></trkpt><trkpt lat="44.51441679945953" lon="10.526091297321873"><ele>567.0</ele><time>2026-04-25T14:27:24.019Z</time></trkpt><trkpt lat="44.51447334301029" lon="10.526203634943318"><ele>567.0</ele><time>2026-04-25T14:27:25.019Z</time></trkpt><trkpt lat="44.51449813957787" lon="10.526344031760651"><ele>565.0</ele><time>2026-04-25T14:27:26.019Z</time></trkpt><trkpt lat="44.51446434927425" lon="10.526486463001259"><ele>563.0</ele><time>2026-04-25T14:27:27.019Z</time></trkpt><trkpt lat="44.51444029540909" lon="10.526627919113817"><ele>561.0</ele><time>2026-04-25T14:27:28.019Z</time></trkpt><trkpt lat="44.51440041336631" lon="10.526748479086159"><ele>559.0</ele><time>2026-04-25T14:27:29.019Z</time></trkpt><trkpt lat="44.514381443036775" lon="10.526871931214403"><ele>557.0</ele><time>2026-04-25T14:27:30.019Z</time></trkpt><trkpt lat="44.51437804965027" lon="10.526994309457827"><ele>556.2</ele><time>2026-04-25T14:27:31.019Z</time></trkpt><trkpt lat="44.51439824650074" lon="10.527133808567996"><ele>555.4000000000001</ele><time>2026-04-25T14:27:32.019Z</time></trkpt><trkpt lat="44.514432916294226" lon="10.527275785224298"><ele>554.5999999999999</ele><time>2026-04-25T14:27:33.019Z</time></trkpt><trkpt lat="44.514492337746255" lon="10.52740363481678"><ele>553.8</ele><time>2026-04-25T14:27:34.019Z</time></trkpt><trkpt lat="44.514551464063636" lon="10.527505723880962"><ele>553.0</ele><time>2026-04-25T14:27:35.019Z</time></trkpt><trkpt lat="44.51462253103282" lon="10.527611027566115"><ele>554.6</ele><time>2026-04-25T14:27:36.019Z</time></trkpt><trkpt lat="44.5146919596591" lon="10.527717400896176"><ele>556.1999999999999</ele><time>2026-04-25T14:27:37.019Z</time></trkpt><trkpt lat="44.51475942211773" lon="10.527819206555996"><ele>557.8</ele><time>2026-04-25T14:27:38.019Z</time></trkpt><trkpt lat="44.51483511382265" lon="10.527915744679428"><ele>559.4</ele><time>2026-04-25T14:27:39.019Z</time></trkpt><trkpt lat="44.514905024817246" lon="10.528018706774697"><ele>561.0</ele><time>2026-04-25T14:27:40.019Z</time></trkpt><trkpt lat="44.51497134739545" lon="10.528124148402203"><ele>561.4</ele><time>2026-04-25T14:27:41.019Z</time></trkpt><trkpt lat="44.51503548101471" lon="10.528223110700907"><ele>561.8</ele><time>2026-04-25T14:27:42.019Z</time></trkpt><trkpt lat="44.51510466446599" lon="10.528317229480098"><ele>562.1999999999999</ele><time>2026-04-25T14:27:43.019Z</time></trkpt><trkpt lat="44.51516956126684" lon="10.528413104026484"><ele>562.6</ele><time>2026-04-25T14:27:44.019Z</time></trkpt><trkpt lat="44.515224759182665" lon="10.528513526374182"><ele>563.0</ele><time>2026-04-25T14:27:45.019Z</time></trkpt><trkpt lat="44.5152872810483" lon="10.528607834750108"><ele>563.0</ele><time>2026-04-25T14:27:46.019Z</time></trkpt><trkpt lat="44.51536026998337" lon="10.528701018245924"><ele>563.0</ele><time>2026-04-25T14:27:47.019Z</time></trkpt><trkpt lat="44.51542390507552" lon="10.528813388627977"><ele>563.0</ele><time>2026-04-25T14:27:48.019Z</time></trkpt><trkpt lat="44.51549146312346" lon="10.52891466339577"><ele>563.0</ele><time>2026-04-25T14:27:49.019Z</time></trkpt><trkpt lat="44.5155765372108" lon="10.529018853541485"><ele>563.0</ele><time>2026-04-25T14:27:50.019Z</time></trkpt><trkpt lat="44.515659669735044" lon="10.529120732459234"><ele>562.75</ele><time>2026-04-25T14:27:51.019Z</time></trkpt><trkpt lat="44.51576050707188" lon="10.52918983513765"><ele>562.5</ele><time>2026-04-25T14:27:52.019Z</time></trkpt><trkpt lat="44.51587636903567" lon="10.529244981225254"><ele>562.25</ele><time>2026-04-25T14:27:53.019Z</time></trkpt><trkpt lat="44.51600457467542" lon="10.529307644067076"><ele>562.0</ele><time>2026-04-25T14:27:54.019Z</time></trkpt><trkpt lat="44.516133069094685" lon="10.529376941968103"><ele>561.25</ele><time>2026-04-25T14:27:55.019Z</time></trkpt><trkpt lat="44.51626946622634" lon="10.529429980164725"><ele>560.5</ele><time>2026-04-25T14:27:56.02Z</time></trkpt><trkpt lat="44.51641070900992" lon="10.529456415843988"><ele>559.75</ele><time>2026-04-25T14:27:57.02Z</time></trkpt><trkpt lat="44.51654147233603" lon="10.52946957202659"><ele>559.0</ele><time>2026-04-25T14:27:58.02Z</time></trkpt><trkpt lat="44.51666634345228" lon="10.529507410735068"><ele>559.0</ele><time>2026-04-25T14:27:59.02Z</time></trkpt><trkpt lat="44.51677848158997" lon="10.52950735471044"><ele>559.0</ele><time>2026-04-25T14:28:00.02Z</time></trkpt><trkpt lat="44.51688605672153" lon="10.52952443742612"><ele>559.0</ele><time>2026-04-25T14:28:01.02Z</time></trkpt><trkpt lat="44.51699785518178" lon="10.529581066690632"><ele>559.0</ele><time>2026-04-25T14:28:02.02Z</time></trkpt><trkpt lat="44.51711046715553" lon="10.529607007115446"><ele>559.5</ele><time>2026-04-25T14:28:03.02Z</time></trkpt><trkpt lat="44.51721228309515" lon="10.529680965452005"><ele>560.0</ele><time>2026-04-25T14:28:04.02Z</time></trkpt><trkpt lat="44.517318898644774" lon="10.529750659866272"><ele>560.5</ele><time>2026-04-25T14:28:05.02Z</time></trkpt><trkpt lat="44.51740017302025" lon="10.52984816342184"><ele>561.0</ele><time>2026-04-25T14:28:06.02Z</time></trkpt><trkpt lat="44.5174916089936" lon="10.529951245355589"><ele>561.0</ele><time>2026-04-25T14:28:07.02Z</time></trkpt><trkpt lat="44.51756357874365" lon="10.53007326070767"><ele>561.0</ele><time>2026-04-25T14:28:08.02Z</time></trkpt><trkpt lat="44.517623120888366" lon="10.530210213829555"><ele>561.0</ele><time>2026-04-25T14:28:09.02Z</time></trkpt><trkpt lat="44.517673492516145" lon="10.530359129600496"><ele>561.0</ele><time>2026-04-25T14:28:10.02Z</time></trkpt><trkpt lat="44.51770824723893" lon="10.530508569990099"><ele>561.0</ele><time>2026-04-25T14:28:11.02Z</time></trkpt><trkpt lat="44.517729603300445" lon="10.530657199778364"><ele>561.0</ele><time>2026-04-25T14:28:12.02Z</time></trkpt><trkpt lat="44.51775549600848" lon="10.530800479636769"><ele>561.0</ele><time>2026-04-25T14:28:13.02Z</time></trkpt><trkpt lat="44.51777318160343" lon="10.530942686502943"><ele>561.0</ele><time>2026-04-25T14:28:14.02Z</time></trkpt><trkpt lat="44.51778694247087" lon="10.531086470100307"><ele>561.0</ele><time>2026-04-25T14:28:15.02Z</time></trkpt><trkpt lat="44.51779961768864" lon="10.531233147943913"><ele>561.0</ele><time>2026-04-25T14:28:16.02Z</time></trkpt><trkpt lat="44.517813861877514" lon="10.531381351051357"><ele>561.0</ele><time>2026-04-25T14:28:17.02Z</time></trkpt><trkpt lat="44.51783471708793" lon="10.53152432312522"><ele>561.0</ele><time>2026-04-25T14:28:18.02Z</time></trkpt><trkpt lat="44.517867405636395" lon="10.531654003801348"><ele>561.0</ele><time>2026-04-25T14:28:19.02Z</time></trkpt><trkpt lat="44.51794072625387" lon="10.53175623244645"><ele>561.0</ele><time>2026-04-25T14:28:20.02Z</time></trkpt><trkpt lat="44.51804872224423" lon="10.531828410429837"><ele>564.2</ele><time>2026-04-25T14:28:21.02Z</time></trkpt><trkpt lat="44.5181503539206" lon="10.531890003611839"><ele>567.4000000000001</ele><time>2026-04-25T14:28:22.02Z</time></trkpt><trkpt lat="44.51823724808612" lon="10.531996370811205"><ele>570.6</ele><time>2026-04-25T14:28:23.02Z</time></trkpt><trkpt lat="44.51826407298945" lon="10.53215314734229"><ele>573.8000000000001</ele><time>2026-04-25T14:28:24.02Z</time></trkpt><trkpt lat="44.51823746202848" lon="10.53229565356412"><ele>577.0</ele><time>2026-04-25T14:28:25.02Z</time></trkpt><trkpt lat="44.518190766981014" lon="10.532441957201005"><ele>577.5</ele><time>2026-04-25T14:28:26.02Z</time></trkpt><trkpt lat="44.5181357860594" lon="10.532592323777864"><ele>578.0</ele><time>2026-04-25T14:28:27.02Z</time></trkpt><trkpt lat="44.51808686412222" lon="10.532747418821065"><ele>578.5</ele><time>2026-04-25T14:28:28.02Z</time></trkpt><trkpt lat="44.518060399152986" lon="10.532903984976002"><ele>579.0</ele><time>2026-04-25T14:28:29.02Z</time></trkpt><trkpt lat="44.51809207464887" lon="10.533052397251819"><ele>577.0</ele><time>2026-04-25T14:28:30.02Z</time></trkpt><trkpt lat="44.518150663873506" lon="10.533183796676454"><ele>575.0</ele><time>2026-04-25T14:28:31.02Z</time></trkpt><trkpt lat="44.518255780284186" lon="10.533264529664095"><ele>573.0</ele><time>2026-04-25T14:28:32.02Z</time></trkpt><trkpt lat="44.51834964105929" lon="10.53331226200552"><ele>571.0</ele><time>2026-04-25T14:28:33.02Z</time></trkpt><trkpt lat="44.51845241452197" lon="10.533290528007742"><ele>569.0</ele><time>2026-04-25T14:28:34.02Z</time></trkpt><trkpt lat="44.5185542316032" lon="10.533232325431962"><ele>569.0</ele><time>2026-04-25T14:28:35.02Z</time></trkpt><trkpt lat="44.518661213059175" lon="10.533165245412915"><ele>569.0</ele><time>2026-04-25T14:28:36.02Z</time></trkpt><trkpt lat="44.518755513202436" lon="10.533117601190074"><ele>569.0</ele><time>2026-04-25T14:28:37.02Z</time></trkpt><trkpt lat="44.51884297633828" lon="10.533072284996472"><ele>569.0</ele><time>2026-04-25T14:28:38.02Z</time></trkpt><trkpt lat="44.51893105424122" lon="10.533022943788907"><ele>569.0</ele><time>2026-04-25T14:28:39.02Z</time></trkpt><trkpt lat="44.519024314841026" lon="10.533024151588327"><ele>571.0</ele><time>2026-04-25T14:28:40.02Z</time></trkpt><trkpt lat="44.51911427876038" lon="10.533018759054272"><ele>573.0</ele><time>2026-04-25T14:28:41.02Z</time></trkpt><trkpt lat="44.519196162626386" lon="10.533039461686931"><ele>575.0</ele><time>2026-04-25T14:28:42.02Z</time></trkpt><trkpt lat="44.51928909966663" lon="10.53307462275745"><ele>577.0</ele><time>2026-04-25T14:28:43.02Z</time></trkpt><trkpt lat="44.519384723925675" lon="10.53312249252189"><ele>579.0</ele><time>2026-04-25T14:28:44.021Z</time></trkpt><trkpt lat="44.51948126028042" lon="10.53318957349273"><ele>576.0</ele><time>2026-04-25T14:28:45.021Z</time></trkpt><trkpt lat="44.519572478185815" lon="10.533271798620472"><ele>573.0</ele><time>2026-04-25T14:28:46.021Z</time></trkpt><trkpt lat="44.51965517262592" lon="10.533365831989839"><ele>570.0</ele><time>2026-04-25T14:28:47.021Z</time></trkpt><trkpt lat="44.51972231497665" lon="10.533458838795054"><ele>567.0</ele><time>2026-04-25T14:28:48.021Z</time></trkpt><trkpt lat="44.51977372673528" lon="10.533557667278096"><ele>564.0</ele><time>2026-04-25T14:28:49.021Z</time></trkpt><trkpt lat="44.519807310641134" lon="10.533678297504549"><ele>566.0</ele><time>2026-04-25T14:28:50.021Z</time></trkpt><trkpt lat="44.51980380510943" lon="10.533853982097233"><ele>568.0</ele><time>2026-04-25T14:28:51.021Z</time></trkpt><trkpt lat="44.519783663344626" lon="10.534011279332736"><ele>570.0</ele><time>2026-04-25T14:28:52.021Z</time></trkpt><trkpt lat="44.51981238035188" lon="10.534167480161601"><ele>572.0</ele><time>2026-04-25T14:28:53.021Z</time></trkpt><trkpt lat="44.519842699562595" lon="10.534326831335855"><ele>572.0</ele><time>2026-04-25T14:28:54.021Z</time></trkpt><trkpt lat="44.519843384292756" lon="10.53447805912844"><ele>572.0</ele><time>2026-04-25T14:28:55.021Z</time></trkpt><trkpt lat="44.519871917267096" lon="10.534629305913962"><ele>572.0</ele><time>2026-04-25T14:28:56.021Z</time></trkpt><trkpt lat="44.5198991804575" lon="10.534776984969923"><ele>572.0</ele><time>2026-04-25T14:28:57.021Z</time></trkpt><trkpt lat="44.51992518725018" lon="10.534910194811845"><ele>572.0</ele><time>2026-04-25T14:28:58.021Z</time></trkpt><trkpt lat="44.5199565105475" lon="10.535027783151522"><ele>574.0</ele><time>2026-04-25T14:28:59.021Z</time></trkpt><trkpt lat="44.52004095621084" lon="10.53513044562935"><ele>576.0</ele><time>2026-04-25T14:29:00.021Z</time></trkpt><trkpt lat="44.52012920846238" lon="10.535202043061894"><ele>578.0</ele><time>2026-04-25T14:29:01.021Z</time></trkpt><trkpt lat="44.520235711557305" lon="10.535243273705108"><ele>580.0</ele><time>2026-04-25T14:29:02.021Z</time></trkpt><trkpt lat="44.52035875759223" lon="10.535316437937631"><ele>578.8</ele><time>2026-04-25T14:29:03.021Z</time></trkpt><trkpt lat="44.5204740471614" lon="10.535342889069481"><ele>577.6</ele><time>2026-04-25T14:29:04.021Z</time></trkpt><trkpt lat="44.52057931582776" lon="10.535362724473208"><ele>576.4</ele><time>2026-04-25T14:29:05.021Z</time></trkpt><trkpt lat="44.52066858027355" lon="10.53538937343517"><ele>575.2</ele><time>2026-04-25T14:29:06.021Z</time></trkpt><trkpt lat="44.520744036927184" lon="10.53542345979627"><ele>574.0</ele><time>2026-04-25T14:29:07.021Z</time></trkpt><trkpt lat="44.52081484076406" lon="10.53549555697221"><ele>574.0</ele><time>2026-04-25T14:29:08.021Z</time></trkpt><trkpt lat="44.520859109894694" lon="10.535651387437895"><ele>574.0</ele><time>2026-04-25T14:29:09.021Z</time></trkpt><trkpt lat="44.52088762316994" lon="10.535809913054687"><ele>574.0</ele><time>2026-04-25T14:29:10.021Z</time></trkpt><trkpt lat="44.52091894232232" lon="10.535960756041638"><ele>574.0</ele><time>2026-04-25T14:29:11.021Z</time></trkpt><trkpt lat="44.52096640041167" lon="10.53610111850481"><ele>574.0</ele><time>2026-04-25T14:29:12.021Z</time></trkpt><trkpt lat="44.5210295505763" lon="10.536211433038154"><ele>574.0</ele><time>2026-04-25T14:29:13.021Z</time></trkpt><trkpt lat="44.521125083082204" lon="10.5362962091502"><ele>574.0</ele><time>2026-04-25T14:29:14.021Z</time></trkpt><trkpt lat="44.52123579757054" lon="10.536335327045617"><ele>574.0</ele><time>2026-04-25T14:29:15.021Z</time></trkpt><trkpt lat="44.521338303594376" lon="10.536378548529097"><ele>574.0</ele><time>2026-04-25T14:29:16.021Z</time></trkpt><trkpt lat="44.52144009557513" lon="10.536428890633792"><ele>571.0</ele><time>2026-04-25T14:29:17.021Z</time></trkpt><trkpt lat="44.52154645908856" lon="10.53648654472782"><ele>568.0</ele><time>2026-04-25T14:29:18.021Z</time></trkpt><trkpt lat="44.52164128032656" lon="10.536557209571468"><ele>565.0</ele><time>2026-04-25T14:29:19.021Z</time></trkpt><trkpt lat="44.521729517971764" lon="10.536638936695459"><ele>562.0</ele><time>2026-04-25T14:29:20.021Z</time></trkpt><trkpt lat="44.521814792631915" lon="10.53672043823394"><ele>559.0</ele><time>2026-04-25T14:29:21.021Z</time></trkpt><trkpt lat="44.521906759895266" lon="10.536807231083678"><ele>559.0</ele><time>2026-04-25T14:29:22.021Z</time></trkpt><trkpt lat="44.521994872297284" lon="10.536899131808386"><ele>559.0</ele><time>2026-04-25T14:29:23.021Z</time></trkpt><trkpt lat="44.5220810419205" lon="10.5369908352501"><ele>559.0</ele><time>2026-04-25T14:29:24.021Z</time></trkpt><trkpt lat="44.52212937817492" lon="10.53711714555656"><ele>559.0</ele><time>2026-04-25T14:29:25.021Z</time></trkpt><trkpt lat="44.5221824300052" lon="10.537238676735436"><ele>559.0</ele><time>2026-04-25T14:29:26.021Z</time></trkpt><trkpt lat="44.522181619947006" lon="10.537387538539525"><ele>559.6</ele><time>2026-04-25T14:29:27.021Z</time></trkpt><trkpt lat="44.52212518684285" lon="10.537525671682271"><ele>560.2</ele><time>2026-04-25T14:29:28.021Z</time></trkpt><trkpt lat="44.52206585072965" lon="10.537639787907562"><ele>560.8000000000001</ele><time>2026-04-25T14:29:29.021Z</time></trkpt><trkpt lat="44.52201242663337" lon="10.537772865706195"><ele>561.4</ele><time>2026-04-25T14:29:30.021Z</time></trkpt><trkpt lat="44.52195214173476" lon="10.537886710654357"><ele>562.0</ele><time>2026-04-25T14:29:31.021Z</time></trkpt><trkpt lat="44.521896936043674" lon="10.537998826980527"><ele>562.8000000000001</ele><time>2026-04-25T14:29:32.021Z</time></trkpt><trkpt lat="44.52186512231298" lon="10.538104224907269"><ele>563.6</ele><time>2026-04-25T14:29:33.022Z</time></trkpt><trkpt lat="44.52187515511158" lon="10.538221231505721"><ele>564.4000000000001</ele><time>2026-04-25T14:29:34.022Z</time></trkpt><trkpt lat="44.521916368294974" lon="10.538325049258464"><ele>565.2</ele><time>2026-04-25T14:29:35.022Z</time></trkpt><trkpt lat="44.521990918186916" lon="10.538416653248227"><ele>566.0</ele><time>2026-04-25T14:29:36.022Z</time></trkpt><trkpt lat="44.52211180898974" lon="10.53846452927049"><ele>567.6</ele><time>2026-04-25T14:29:37.022Z</time></trkpt><trkpt lat="44.522229800380266" lon="10.538448311685604"><ele>569.2</ele><time>2026-04-25T14:29:38.022Z</time></trkpt><trkpt lat="44.5223254319822" lon="10.538411460852316"><ele>570.8</ele><time>2026-04-25T14:29:39.022Z</time></trkpt><trkpt lat="44.522423864783356" lon="10.53835026512192"><ele>572.4</ele><time>2026-04-25T14:29:40.022Z</time></trkpt><trkpt lat="44.52251186863929" lon="10.538283071488223"><ele>574.0</ele><time>2026-04-25T14:29:41.022Z</time></trkpt><trkpt lat="44.522601494683535" lon="10.538220268387116"><ele>574.0</ele><time>2026-04-25T14:29:42.022Z</time></trkpt><trkpt lat="44.522685533370115" lon="10.538157544861797"><ele>574.0</ele><time>2026-04-25T14:29:43.022Z</time></trkpt><trkpt lat="44.5227656304355" lon="10.538096666314697"><ele>574.0</ele><time>2026-04-25T14:29:44.022Z</time></trkpt><trkpt lat="44.522855784932254" lon="10.538062493636545"><ele>574.0</ele><time>2026-04-25T14:29:45.022Z</time></trkpt><trkpt lat="44.52294166267483" lon="10.53800400197224"><ele>574.0</ele><time>2026-04-25T14:29:46.022Z</time></trkpt><trkpt lat="44.523025633940804" lon="10.537955965788854"><ele>574.0</ele><time>2026-04-25T14:29:47.022Z</time></trkpt><trkpt lat="44.52310237164118" lon="10.537913203687133"><ele>574.0</ele><time>2026-04-25T14:29:48.022Z</time></trkpt><trkpt lat="44.52317523435338" lon="10.53785655142554"><ele>574.0</ele><time>2026-04-25T14:29:49.022Z</time></trkpt><trkpt lat="44.52324009240998" lon="10.537783041345827"><ele>574.0</ele><time>2026-04-25T14:29:50.022Z</time></trkpt><trkpt lat="44.52330050476763" lon="10.537698294427004"><ele>574.0</ele><time>2026-04-25T14:29:51.022Z</time></trkpt><trkpt lat="44.523357074143874" lon="10.537595367913447"><ele>574.0</ele><time>2026-04-25T14:29:52.022Z</time></trkpt><trkpt lat="44.523426329378175" lon="10.537486062230526"><ele>574.6</ele><time>2026-04-25T14:29:53.022Z</time></trkpt><trkpt lat="44.52349181729087" lon="10.537379270668435"><ele>575.2</ele><time>2026-04-25T14:29:54.022Z</time></trkpt><trkpt lat="44.52359216802002" lon="10.537323079184205"><ele>575.8000000000001</ele><time>2026-04-25T14:29:55.022Z</time></trkpt><trkpt lat="44.52368755427832" lon="10.537251924616678"><ele>576.4</ele><time>2026-04-25T14:29:56.022Z</time></trkpt><trkpt lat="44.523793449530295" lon="10.537234875005105"><ele>577.0</ele><time>2026-04-25T14:29:57.022Z</time></trkpt><trkpt lat="44.523882160343064" lon="10.537222715330067"><ele>578.6</ele><time>2026-04-25T14:29:58.022Z</time></trkpt><trkpt lat="44.52395856883403" lon="10.537223857033606"><ele>580.2</ele><time>2026-04-25T14:29:59.022Z</time></trkpt><trkpt lat="44.524035126782394" lon="10.537263633167811"><ele>581.8</ele><time>2026-04-25T14:30:00.022Z</time></trkpt><trkpt lat="44.52410948149234" lon="10.53735178348946"><ele>583.4</ele><time>2026-04-25T14:30:01.022Z</time></trkpt><trkpt lat="44.52417086856591" lon="10.537471618880936"><ele>585.0</ele><time>2026-04-25T14:30:02.022Z</time></trkpt><trkpt lat="44.52422596616736" lon="10.537582381558904"><ele>585.0</ele><time>2026-04-25T14:30:03.022Z</time></trkpt><trkpt lat="44.52429054720946" lon="10.53767950939337"><ele>585.0</ele><time>2026-04-25T14:30:04.022Z</time></trkpt><trkpt lat="44.52435136228167" lon="10.537770637794456"><ele>585.0</ele><time>2026-04-25T14:30:05.022Z</time></trkpt><trkpt lat="44.524421500408444" lon="10.537840205596163"><ele>585.0</ele><time>2026-04-25T14:30:06.022Z</time></trkpt><trkpt lat="44.52451553705339" lon="10.537891626434622"><ele>585.0</ele><time>2026-04-25T14:30:07.022Z</time></trkpt><trkpt lat="44.52462036665842" lon="10.537906433422624"><ele>586.25</ele><time>2026-04-25T14:30:08.022Z</time></trkpt><trkpt lat="44.52472488242346" lon="10.537892730138795"><ele>587.5</ele><time>2026-04-25T14:30:09.022Z</time></trkpt><trkpt lat="44.52486192109942" lon="10.53788209064463"><ele>588.75</ele><time>2026-04-25T14:30:10.022Z</time></trkpt><trkpt lat="44.52497415791037" lon="10.53786758260971"><ele>590.0</ele><time>2026-04-25T14:30:11.022Z</time></trkpt><trkpt lat="44.525068897638555" lon="10.537849341196596"><ele>590.0</ele><time>2026-04-25T14:30:12.022Z</time></trkpt><trkpt lat="44.52515012729607" lon="10.537847396711813"><ele>590.0</ele><time>2026-04-25T14:30:13.022Z</time></trkpt><trkpt lat="44.525237930771574" lon="10.53786854813878"><ele>590.0</ele><time>2026-04-25T14:30:14.022Z</time></trkpt><trkpt lat="44.525311367234885" lon="10.537877319950105"><ele>590.0</ele><time>2026-04-25T14:30:15.022Z</time></trkpt><trkpt lat="44.525389442247196" lon="10.537893860090824"><ele>590.0</ele><time>2026-04-25T14:30:16.022Z</time></trkpt><trkpt lat="44.52546640467934" lon="10.537925632121388"><ele>590.0</ele><time>2026-04-25T14:30:17.022Z</time></trkpt><trkpt lat="44.525537767328814" lon="10.53797351389895"><ele>592.2</ele><time>2026-04-25T14:30:18.022Z</time></trkpt><trkpt lat="44.52560921661983" lon="10.538058464607293"><ele>594.4</ele><time>2026-04-25T14:30:19.022Z</time></trkpt><trkpt lat="44.52568725399007" lon="10.53815504629584"><ele>596.6</ele><time>2026-04-25T14:30:20.022Z</time></trkpt><trkpt lat="44.5257204501569" lon="10.538309983930223"><ele>598.8</ele><time>2026-04-25T14:30:21.023Z</time></trkpt><trkpt lat="44.52572457621132" lon="10.53846123113338"><ele>601.0</ele><time>2026-04-25T14:30:22.023Z</time></trkpt><trkpt lat="44.52567119063798" lon="10.538608054601877"><ele>601.0</ele><time>2026-04-25T14:30:23.023Z</time></trkpt><trkpt lat="44.52555439415698" lon="10.538672683153333"><ele>601.0</ele><time>2026-04-25T14:30:24.023Z</time></trkpt><trkpt lat="44.52544315132976" lon="10.538719596469969"><ele>601.0</ele><time>2026-04-25T14:30:25.023Z</time></trkpt><trkpt lat="44.52532369123929" lon="10.538733345327982"><ele>601.0</ele><time>2026-04-25T14:30:26.023Z</time></trkpt><trkpt lat="44.52522564228298" lon="10.538756796502843"><ele>600.4</ele><time>2026-04-25T14:30:27.023Z</time></trkpt><trkpt lat="44.52514182766432" lon="10.538768368548343"><ele>599.8</ele><time>2026-04-25T14:30:28.023Z</time></trkpt><trkpt lat="44.52506813640933" lon="10.538801432217651"><ele>599.1999999999999</ele><time>2026-04-25T14:30:29.023Z</time></trkpt><trkpt lat="44.52503496681935" lon="10.538946210758283"><ele>598.6</ele><time>2026-04-25T14:30:30.023Z</time></trkpt><trkpt lat="44.52500913771646" lon="10.539090591492563"><ele>598.0</ele><time>2026-04-25T14:30:31.023Z</time></trkpt><trkpt lat="44.524982394005605" lon="10.539241031818806"><ele>598.0</ele><time>2026-04-25T14:30:32.023Z</time></trkpt><trkpt lat="44.52496139163725" lon="10.539380190956274"><ele>598.0</ele><time>2026-04-25T14:30:33.023Z</time></trkpt><trkpt lat="44.52493641060709" lon="10.539504927563755"><ele>598.0</ele><time>2026-04-25T14:30:34.023Z</time></trkpt><trkpt lat="44.524928577701964" lon="10.539624057688966"><ele>598.0</ele><time>2026-04-25T14:30:35.023Z</time></trkpt><trkpt lat="44.524971646202864" lon="10.53974362998859"><ele>598.0</ele><time>2026-04-25T14:30:36.023Z</time></trkpt><trkpt lat="44.5249802663379" lon="10.539872285214564"><ele>598.8</ele><time>2026-04-25T14:30:37.023Z</time></trkpt><trkpt lat="44.52491473984351" lon="10.539997724921887"><ele>599.5999999999999</ele><time>2026-04-25T14:30:39.023Z</time></trkpt><trkpt lat="44.52485190697904" lon="10.540040365880316"><ele>600.4000000000001</ele><time>2026-04-25T14:30:40.023Z</time></trkpt><trkpt lat="44.52474487854309" lon="10.540026948261486"><ele>601.2</ele><time>2026-04-25T14:30:41.023Z</time></trkpt><trkpt lat="44.52460200508435" lon="10.54001033754051"><ele>602.0</ele><time>2026-04-25T14:30:42.023Z</time></trkpt><trkpt lat="44.52448672038476" lon="10.540002788709764"><ele>602.0</ele><time>2026-04-25T14:30:43.023Z</time></trkpt><trkpt lat="44.524382654759826" lon="10.540001136059399"><ele>602.0</ele><time>2026-04-25T14:30:44.023Z</time></trkpt><trkpt lat="44.52428893448379" lon="10.539975151878687"><ele>602.0</ele><time>2026-04-25T14:30:45.023Z</time></trkpt><trkpt lat="44.52419735292496" lon="10.539989983489626"><ele>602.0</ele><time>2026-04-25T14:30:46.023Z</time></trkpt><trkpt lat="44.52410860132872" lon="10.540024421530372"><ele>602.0</ele><time>2026-04-25T14:30:47.023Z</time></trkpt><trkpt lat="44.524027913553454" lon="10.540080323086672"><ele>602.0</ele><time>2026-04-25T14:30:48.023Z</time></trkpt><trkpt lat="44.523967484073765" lon="10.540212423540924"><ele>602.0</ele><time>2026-04-25T14:30:49.023Z</time></trkpt><trkpt lat="44.52395849044181" lon="10.540395201242841"><ele>602.0</ele><time>2026-04-25T14:30:50.023Z</time></trkpt><trkpt lat="44.523949907401466" lon="10.540549583730888"><ele>602.0</ele><time>2026-04-25T14:30:51.023Z</time></trkpt><trkpt lat="44.52394033467014" lon="10.540697936152897"><ele>605.4</ele><time>2026-04-25T14:30:52.023Z</time></trkpt><trkpt lat="44.523929542442666" lon="10.540854001183966"><ele>608.8000000000001</ele><time>2026-04-25T14:30:53.023Z</time></trkpt><trkpt lat="44.5239182713234" lon="10.541012014642286"><ele>612.2</ele><time>2026-04-25T14:30:54.023Z</time></trkpt><trkpt lat="44.52390785005524" lon="10.541165172021095"><ele>615.6</ele><time>2026-04-25T14:30:55.023Z</time></trkpt><trkpt lat="44.523903437345126" lon="10.54130554636313"><ele>619.0</ele><time>2026-04-25T14:30:56.023Z</time></trkpt><trkpt lat="44.52387191020128" lon="10.541432438953217"><ele>621.0</ele><time>2026-04-25T14:30:57.023Z</time></trkpt><trkpt lat="44.52386314994636" lon="10.541564195018065"><ele>623.0</ele><time>2026-04-25T14:30:58.023Z</time></trkpt><trkpt lat="44.52383611570016" lon="10.54168634245613"><ele>625.0</ele><time>2026-04-25T14:30:59.023Z</time></trkpt><trkpt lat="44.523830468769724" lon="10.541818661522411"><ele>627.0</ele><time>2026-04-25T14:31:00.023Z</time></trkpt><trkpt lat="44.523857242075884" lon="10.541953989548949"><ele>629.0</ele><time>2026-04-25T14:31:01.023Z</time></trkpt><trkpt lat="44.523862975146464" lon="10.54208451241307"><ele>631.2</ele><time>2026-04-25T14:31:02.023Z</time></trkpt><trkpt lat="44.523879131186426" lon="10.542193323220214"><ele>633.4</ele><time>2026-04-25T14:31:03.023Z</time></trkpt><trkpt lat="44.52384094272423" lon="10.54229720020841"><ele>635.6</ele><time>2026-04-25T14:31:04.023Z</time></trkpt><trkpt lat="44.52373729591672" lon="10.542342818063451"><ele>637.8</ele><time>2026-04-25T14:31:05.023Z</time></trkpt><trkpt lat="44.52363536202536" lon="10.542308542830972"><ele>640.0</ele><time>2026-04-25T14:31:06.023Z</time></trkpt><trkpt lat="44.52352869692271" lon="10.542326887656586"><ele>634.5</ele><time>2026-04-25T14:31:07.023Z</time></trkpt><trkpt lat="44.52342882668488" lon="10.542348651546758"><ele>629.0</ele><time>2026-04-25T14:31:08.023Z</time></trkpt><trkpt lat="44.523326865383645" lon="10.542414291084448"><ele>623.5</ele><time>2026-04-25T14:31:09.023Z</time></trkpt><trkpt lat="44.52324516979822" lon="10.542536847325996"><ele>618.0</ele><time>2026-04-25T14:31:10.024Z</time></trkpt><trkpt lat="44.52317103161071" lon="10.542669250983115"><ele>618.0</ele><time>2026-04-25T14:31:11.024Z</time></trkpt><trkpt lat="44.52310631925403" lon="10.542802295604906"><ele>618.0</ele><time>2026-04-25T14:31:12.024Z</time></trkpt><trkpt lat="44.52302109612751" lon="10.54291919643002"><ele>618.0</ele><time>2026-04-25T14:31:13.024Z</time></trkpt><trkpt lat="44.522953358265596" lon="10.543050512691794"><ele>618.0</ele><time>2026-04-25T14:31:14.024Z</time></trkpt><trkpt lat="44.52288285856226" lon="10.543178416320577"><ele>618.1999999999999</ele><time>2026-04-25T14:31:15.024Z</time></trkpt><trkpt lat="44.52283935411434" lon="10.543297082115453"><ele>618.4</ele><time>2026-04-25T14:31:16.024Z</time></trkpt><trkpt lat="44.52280669927542" lon="10.543382095543004"><ele>618.5999999999999</ele><time>2026-04-25T14:31:17.024Z</time></trkpt><trkpt lat="44.52275591887613" lon="10.543445189496508"><ele>618.8</ele><time>2026-04-25T14:31:18.024Z</time></trkpt><trkpt lat="44.522682828723774" lon="10.543584109084051"><ele>619.0</ele><time>2026-04-25T14:31:20.024Z</time></trkpt><trkpt lat="44.52260916477292" lon="10.543722533373654"><ele>621.6666666666667</ele><time>2026-04-25T14:31:22.024Z</time></trkpt><trkpt lat="44.52254359649225" lon="10.543845744813616"><ele>624.3333333333334</ele><time>2026-04-25T14:31:24.024Z</time></trkpt><trkpt lat="44.52247976882246" lon="10.543977537023736"><ele>627.0</ele><time>2026-04-25T14:31:26.024Z</time></trkpt><trkpt lat="44.52243246137902" lon="10.544049577757429"><ele>629.6666666666666</ele><time>2026-04-25T14:31:27.024Z</time></trkpt><trkpt lat="44.52239263159575" lon="10.544131451438405"><ele>632.3333333333333</ele><time>2026-04-25T14:31:28.024Z</time></trkpt><trkpt lat="44.522339483526494" lon="10.544214223294006"><ele>635.0</ele><time>2026-04-25T14:31:29.024Z</time></trkpt><trkpt lat="44.522305051216335" lon="10.544301952636216"><ele>635.0</ele><time>2026-04-25T14:31:30.024Z</time></trkpt><trkpt lat="44.52217129498457" lon="10.544402481999079"><ele>635.0</ele><time>2026-04-25T14:31:32.024Z</time></trkpt><trkpt lat="44.522073231553" lon="10.544450945627112"><ele>635.0</ele><time>2026-04-25T14:31:33.024Z</time></trkpt><trkpt lat="44.521978081589054" lon="10.544490417415249"><ele>635.0</ele><time>2026-04-25T14:31:34.024Z</time></trkpt><trkpt lat="44.52187694312021" lon="10.544529949038404"><ele>634.0</ele><time>2026-04-25T14:31:35.024Z</time></trkpt><trkpt lat="44.52179052333911" lon="10.544588165737052"><ele>633.0</ele><time>2026-04-25T14:31:36.024Z</time></trkpt><trkpt lat="44.52172097640991" lon="10.544654772844785"><ele>632.0</ele><time>2026-04-25T14:31:37.024Z</time></trkpt><trkpt lat="44.521664745377954" lon="10.544757113924113"><ele>631.0</ele><time>2026-04-25T14:31:38.024Z</time></trkpt><trkpt lat="44.52164098719163" lon="10.544882716666475"><ele>630.0</ele><time>2026-04-25T14:31:39.024Z</time></trkpt><trkpt lat="44.52161799731003" lon="10.54499818432086"><ele>630.0</ele><time>2026-04-25T14:31:40.024Z</time></trkpt><trkpt lat="44.52162640559686" lon="10.545107441745385"><ele>630.0</ele><time>2026-04-25T14:31:41.024Z</time></trkpt><trkpt lat="44.521666835475564" lon="10.545208208898233"><ele>630.0</ele><time>2026-04-25T14:31:42.024Z</time></trkpt><trkpt lat="44.52172161073827" lon="10.545287695390709"><ele>630.0</ele><time>2026-04-25T14:31:43.024Z</time></trkpt><trkpt lat="44.52179008429451" lon="10.545342670988498"><ele>630.0</ele><time>2026-04-25T14:31:44.024Z</time></trkpt><trkpt lat="44.52186511312137" lon="10.545379790631499"><ele>630.0</ele><time>2026-04-25T14:31:45.024Z</time></trkpt><trkpt lat="44.5219249001047" lon="10.54547066245033"><ele>629.8</ele><time>2026-04-25T14:31:46.024Z</time></trkpt><trkpt lat="44.521960981385085" lon="10.545603334865245"><ele>629.6</ele><time>2026-04-25T14:31:47.024Z</time></trkpt><trkpt lat="44.521932592954684" lon="10.545761732801443"><ele>629.4</ele><time>2026-04-25T14:31:48.024Z</time></trkpt><trkpt lat="44.52184221284784" lon="10.545871370535059"><ele>629.2</ele><time>2026-04-25T14:31:49.024Z</time></trkpt><trkpt lat="44.5217870567655" lon="10.545970846763701"><ele>629.0</ele><time>2026-04-25T14:31:50.024Z</time></trkpt><trkpt lat="44.521726949968645" lon="10.546063886207884"><ele>629.0</ele><time>2026-04-25T14:31:51.024Z</time></trkpt><trkpt lat="44.52166097892028" lon="10.546165144859035"><ele>629.0</ele><time>2026-04-25T14:31:52.024Z</time></trkpt><trkpt lat="44.52159471638117" lon="10.546282708722286"><ele>629.0</ele><time>2026-04-25T14:31:53.024Z</time></trkpt><trkpt lat="44.52153697929499" lon="10.546404186014163"><ele>629.0</ele><time>2026-04-25T14:31:54.024Z</time></trkpt><trkpt lat="44.5214825010567" lon="10.546540233529791"><ele>629.0</ele><time>2026-04-25T14:31:55.01Z</time></trkpt><trkpt lat="44.521436762385605" lon="10.546674528647529"><ele>631.0</ele><time>2026-04-25T14:31:56.01Z</time></trkpt><trkpt lat="44.52138877381068" lon="10.546820395820163"><ele>633.0</ele><time>2026-04-25T14:31:57.01Z</time></trkpt><trkpt lat="44.521347663530264" lon="10.546989146712964"><ele>635.0</ele><time>2026-04-25T14:31:58.01Z</time></trkpt><trkpt lat="44.521304022754904" lon="10.547149474266595"><ele>637.0</ele><time>2026-04-25T14:31:59.01Z</time></trkpt><trkpt lat="44.521255530923305" lon="10.547317712919991"><ele>637.4</ele><time>2026-04-25T14:32:00.01Z</time></trkpt><trkpt lat="44.52118967883769" lon="10.547469708584979"><ele>637.8000000000001</ele><time>2026-04-25T14:32:01.01Z</time></trkpt><trkpt lat="44.52113548162275" lon="10.547603299165203"><ele>638.2</ele><time>2026-04-25T14:32:02.01Z</time></trkpt><trkpt lat="44.521085991704695" lon="10.547730954501937"><ele>638.6</ele><time>2026-04-25T14:32:03.01Z</time></trkpt><trkpt lat="44.521032119293366" lon="10.547851924916634"><ele>639.0</ele><time>2026-04-25T14:32:04.01Z</time></trkpt><trkpt lat="44.520972107487616" lon="10.547961049076102"><ele>639.0</ele><time>2026-04-25T14:32:05.01Z</time></trkpt><trkpt lat="44.52088769237077" lon="10.548000649584687"><ele>639.0</ele><time>2026-04-25T14:32:06.01Z</time></trkpt><trkpt lat="44.52079150112833" lon="10.54805893828949"><ele>639.0</ele><time>2026-04-25T14:32:07.01Z</time></trkpt><trkpt lat="44.520707515441025" lon="10.548130726510365"><ele>639.0</ele><time>2026-04-25T14:32:08.01Z</time></trkpt><trkpt lat="44.52060973856705" lon="10.548179804280151"><ele>639.0</ele><time>2026-04-25T14:32:09.01Z</time></trkpt><trkpt lat="44.52052848428949" lon="10.548246727802768"><ele>639.0</ele><time>2026-04-25T14:32:10.01Z</time></trkpt><trkpt lat="44.52045538839998" lon="10.548335610846776"><ele>639.0</ele><time>2026-04-25T14:32:11.01Z</time></trkpt><trkpt lat="44.52039330202919" lon="10.548442871323866"><ele>639.0</ele><time>2026-04-25T14:32:12.01Z</time></trkpt><trkpt lat="44.5203526134707" lon="10.548570509557889"><ele>639.0</ele><time>2026-04-25T14:32:13.01Z</time></trkpt><trkpt lat="44.520318826206605" lon="10.548717141528876"><ele>639.0</ele><time>2026-04-25T14:32:14.01Z</time></trkpt><trkpt lat="44.52029040045084" lon="10.548863250242434"><ele>635.5</ele><time>2026-04-25T14:32:15.01Z</time></trkpt><trkpt lat="44.52023645536407" lon="10.549009088898831"><ele>632.0</ele><time>2026-04-25T14:32:16.01Z</time></trkpt><trkpt lat="44.52020069404128" lon="10.549171194505668"><ele>628.5</ele><time>2026-04-25T14:32:17.01Z</time></trkpt><trkpt lat="44.52016301615753" lon="10.549334710516963"><ele>625.0</ele><time>2026-04-25T14:32:18.01Z</time></trkpt><trkpt lat="44.52012542387334" lon="10.54950688720798"><ele>625.4</ele><time>2026-04-25T14:32:19.01Z</time></trkpt><trkpt lat="44.52008847233593" lon="10.549664430864864"><ele>625.8</ele><time>2026-04-25T14:32:20.01Z</time></trkpt><trkpt lat="44.5200594105764" lon="10.549808139985547"><ele>626.2</ele><time>2026-04-25T14:32:21.01Z</time></trkpt><trkpt lat="44.52004162138978" lon="10.549962812747506"><ele>626.6</ele><time>2026-04-25T14:32:22.01Z</time></trkpt><trkpt lat="44.52003967197088" lon="10.550116895870449"><ele>627.0</ele><time>2026-04-25T14:32:23.01Z</time></trkpt><trkpt lat="44.52005059073001" lon="10.550271974097399"><ele>626.75</ele><time>2026-04-25T14:32:24.01Z</time></trkpt><trkpt lat="44.5200753313506" lon="10.550423745845697"><ele>626.5</ele><time>2026-04-25T14:32:25.01Z</time></trkpt><trkpt lat="44.52011567451745" lon="10.550570377790507"><ele>626.25</ele><time>2026-04-25T14:32:26.01Z</time></trkpt><trkpt lat="44.520162285073745" lon="10.550711377618743"><ele>626.0</ele><time>2026-04-25T14:32:27.01Z</time></trkpt><trkpt lat="44.520232205905465" lon="10.550848868285359"><ele>626.0</ele><time>2026-04-25T14:32:28.01Z</time></trkpt><trkpt lat="44.520311139900826" lon="10.551008551419125"><ele>626.0</ele><time>2026-04-25T14:32:29.01Z</time></trkpt><trkpt lat="44.52040476446191" lon="10.55114751601816"><ele>626.0</ele><time>2026-04-25T14:32:30.01Z</time></trkpt><trkpt lat="44.520485056877206" lon="10.551278140089234"><ele>626.0</ele><time>2026-04-25T14:32:31.01Z</time></trkpt><trkpt lat="44.520561090660635" lon="10.551394106350468"><ele>626.75</ele><time>2026-04-25T14:32:32.01Z</time></trkpt><trkpt lat="44.52065715598988" lon="10.55147572444403"><ele>627.5</ele><time>2026-04-25T14:32:33.01Z</time></trkpt><trkpt lat="44.52074636387397" lon="10.551556968408352"><ele>628.25</ele><time>2026-04-25T14:32:34.01Z</time></trkpt><trkpt lat="44.5208630358204" lon="10.55158783457541"><ele>629.0</ele><time>2026-04-25T14:32:35.011Z</time></trkpt><trkpt lat="44.5209740138121" lon="10.551636193906214"><ele>629.0</ele><time>2026-04-25T14:32:36.011Z</time></trkpt><trkpt lat="44.52107772622789" lon="10.55168345306294"><ele>629.0</ele><time>2026-04-25T14:32:37.011Z</time></trkpt><trkpt lat="44.52118049790147" lon="10.55170922788693"><ele>629.0</ele><time>2026-04-25T14:32:38.011Z</time></trkpt><trkpt lat="44.521286834289434" lon="10.55170086557823"><ele>629.0</ele><time>2026-04-25T14:32:39.011Z</time></trkpt><trkpt lat="44.521394609730315" lon="10.551669230447505"><ele>629.0</ele><time>2026-04-25T14:32:40.011Z</time></trkpt><trkpt lat="44.52150413565186" lon="10.55164251879824"><ele>628.4</ele><time>2026-04-25T14:32:41.011Z</time></trkpt><trkpt lat="44.521616434751685" lon="10.551608749542515"><ele>627.8</ele><time>2026-04-25T14:32:42.011Z</time></trkpt><trkpt lat="44.521721253692704" lon="10.55157058355572"><ele>627.2</ele><time>2026-04-25T14:32:43.011Z</time></trkpt><trkpt lat="44.52182068447244" lon="10.551549500631307"><ele>626.6</ele><time>2026-04-25T14:32:44.011Z</time></trkpt><trkpt lat="44.521916535224065" lon="10.551568987981021"><ele>626.0</ele><time>2026-04-25T14:32:45.009Z</time></trkpt><trkpt lat="44.522010963597616" lon="10.551628611783613"><ele>625.8</ele><time>2026-04-25T14:32:46.009Z</time></trkpt><trkpt lat="44.52209715207411" lon="10.551723495557228"><ele>625.6</ele><time>2026-04-25T14:32:47.009Z</time></trkpt><trkpt lat="44.522169450917744" lon="10.551839287006192"><ele>625.4</ele><time>2026-04-25T14:32:48.01Z</time></trkpt><trkpt lat="44.522227743572586" lon="10.551961711989552"><ele>625.2</ele><time>2026-04-25T14:32:49.009Z</time></trkpt><trkpt lat="44.522270219828734" lon="10.552094172555345"><ele>625.0</ele><time>2026-04-25T14:32:50.009Z</time></trkpt><trkpt lat="44.52230748064689" lon="10.55222690103825"><ele>625.0</ele><time>2026-04-25T14:32:51.009Z</time></trkpt><trkpt lat="44.5223404812218" lon="10.552357999047675"><ele>625.0</ele><time>2026-04-25T14:32:52.009Z</time></trkpt><trkpt lat="44.52236658405399" lon="10.552494261762817"><ele>625.0</ele><time>2026-04-25T14:32:53.009Z</time></trkpt><trkpt lat="44.52239342127968" lon="10.55262652044177"><ele>625.0</ele><time>2026-04-25T14:32:54.009Z</time></trkpt><trkpt lat="44.52241759064459" lon="10.552764284194692"><ele>625.0</ele><time>2026-04-25T14:32:55.01Z</time></trkpt><trkpt lat="44.52243724094261" lon="10.5528941922851"><ele>623.8</ele><time>2026-04-25T14:32:56.01Z</time></trkpt><trkpt lat="44.52246975598985" lon="10.553017053431123"><ele>622.6</ele><time>2026-04-25T14:32:57.009Z</time></trkpt><trkpt lat="44.52252050091228" lon="10.553121457583133"><ele>621.4</ele><time>2026-04-25T14:32:58.009Z</time></trkpt><trkpt lat="44.52258524939497" lon="10.55321406897958"><ele>620.2</ele><time>2026-04-25T14:32:59.009Z</time></trkpt><trkpt lat="44.52267006717171" lon="10.553268419959043"><ele>619.0</ele><time>2026-04-25T14:33:00.009Z</time></trkpt><trkpt lat="44.52280349105682" lon="10.553289371754383"><ele>620.0</ele><time>2026-04-25T14:33:01.009Z</time></trkpt><trkpt lat="44.52290477420412" lon="10.553357428442224"><ele>621.0</ele><time>2026-04-25T14:33:02.009Z</time></trkpt><trkpt lat="44.52298078199976" lon="10.553456698152639"><ele>622.0</ele><time>2026-04-25T14:33:03.009Z</time></trkpt><trkpt lat="44.52305133749198" lon="10.55356170198754"><ele>623.0</ele><time>2026-04-25T14:33:04.009Z</time></trkpt><trkpt lat="44.52311285954255" lon="10.553682883953146"><ele>624.0</ele><time>2026-04-25T14:33:05.009Z</time></trkpt><trkpt lat="44.52318645829037" lon="10.553793469281803"><ele>620.4</ele><time>2026-04-25T14:33:06.009Z</time></trkpt><trkpt lat="44.52327367504621" lon="10.553889809269968"><ele>616.8</ele><time>2026-04-25T14:33:07.009Z</time></trkpt><trkpt lat="44.52337490063938" lon="10.55394125957103"><ele>613.2</ele><time>2026-04-25T14:33:08.009Z</time></trkpt><trkpt lat="44.523481759622484" lon="10.55392248076157"><ele>609.6</ele><time>2026-04-25T14:33:09.009Z</time></trkpt><trkpt lat="44.5236014489106" lon="10.553933972879966"><ele>606.0</ele><time>2026-04-25T14:33:10.01Z</time></trkpt><trkpt lat="44.52370237487249" lon="10.553967754738713"><ele>607.4</ele><time>2026-04-25T14:33:11.01Z</time></trkpt><trkpt lat="44.523793980951346" lon="10.554058584905206"><ele>608.8</ele><time>2026-04-25T14:33:12.01Z</time></trkpt><trkpt lat="44.52384619465256" lon="10.554179913145534"><ele>610.1999999999999</ele><time>2026-04-25T14:33:13.01Z</time></trkpt><trkpt lat="44.52387946411274" lon="10.554326579530901"><ele>611.6</ele><time>2026-04-25T14:33:14.01Z</time></trkpt><trkpt lat="44.52392713382342" lon="10.55444347431257"><ele>613.0</ele><time>2026-04-25T14:33:15.01Z</time></trkpt><trkpt lat="44.52399877726733" lon="10.55453234188096"><ele>613.0</ele><time>2026-04-25T14:33:16.01Z</time></trkpt><trkpt lat="44.524101994042546" lon="10.554556311343951"><ele>613.0</ele><time>2026-04-25T14:33:17.01Z</time></trkpt><trkpt lat="44.5242057711244" lon="10.554498254391318"><ele>613.0</ele><time>2026-04-25T14:33:18.01Z</time></trkpt><trkpt lat="44.52431390063434" lon="10.554466660665861"><ele>613.0</ele><time>2026-04-25T14:33:19.01Z</time></trkpt><trkpt lat="44.524422625177564" lon="10.554456139579088"><ele>613.0</ele><time>2026-04-25T14:33:20.01Z</time></trkpt><trkpt lat="44.52454118217975" lon="10.554448933034898"><ele>611.25</ele><time>2026-04-25T14:33:21.01Z</time></trkpt><trkpt lat="44.524662062770325" lon="10.554439272831166"><ele>609.5</ele><time>2026-04-25T14:33:22.01Z</time></trkpt><trkpt lat="44.524783676429955" lon="10.554419108150155"><ele>607.75</ele><time>2026-04-25T14:33:23.01Z</time></trkpt><trkpt lat="44.52489577826839" lon="10.55438899100612"><ele>606.0</ele><time>2026-04-25T14:33:24.01Z</time></trkpt><trkpt lat="44.52500224940754" lon="10.554321448931592"><ele>606.0</ele><time>2026-04-25T14:33:25.01Z</time></trkpt><trkpt lat="44.52511664960497" lon="10.5542761769437"><ele>606.0</ele><time>2026-04-25T14:33:26.01Z</time></trkpt><trkpt lat="44.52522893181628" lon="10.554218158988089"><ele>606.0</ele><time>2026-04-25T14:33:27.01Z</time></trkpt><trkpt lat="44.525359137721054" lon="10.554200155032834"><ele>606.0</ele><time>2026-04-25T14:33:28.01Z</time></trkpt><trkpt lat="44.52547374874026" lon="10.554171180025813"><ele>601.25</ele><time>2026-04-25T14:33:29.01Z</time></trkpt><trkpt lat="44.52558895538429" lon="10.554132244436827"><ele>596.5</ele><time>2026-04-25T14:33:30.01Z</time></trkpt><trkpt lat="44.525707151457986" lon="10.55407746974588"><ele>591.75</ele><time>2026-04-25T14:33:31.01Z</time></trkpt><trkpt lat="44.52582615242322" lon="10.554024313742357"><ele>587.0</ele><time>2026-04-25T14:33:32.01Z</time></trkpt><trkpt lat="44.52593605213114" lon="10.553954256578342"><ele>587.0</ele><time>2026-04-25T14:33:33.01Z</time></trkpt><trkpt lat="44.52604587883256" lon="10.553860429150376"><ele>587.0</ele><time>2026-04-25T14:33:34.01Z</time></trkpt><trkpt lat="44.526135029812885" lon="10.553734005610202"><ele>587.0</ele><time>2026-04-25T14:33:35.01Z</time></trkpt><trkpt lat="44.52622046775582" lon="10.5535968436852"><ele>587.0</ele><time>2026-04-25T14:33:36.01Z</time></trkpt><trkpt lat="44.52631411009271" lon="10.55350712595476"><ele>584.5</ele><time>2026-04-25T14:33:37.01Z</time></trkpt><trkpt lat="44.52642362137559" lon="10.553495131014817"><ele>582.0</ele><time>2026-04-25T14:33:38.01Z</time></trkpt><trkpt lat="44.52653969680965" lon="10.553537245884483"><ele>579.5</ele><time>2026-04-25T14:33:39.01Z</time></trkpt><trkpt lat="44.526664905995034" lon="10.553604984927222"><ele>577.0</ele><time>2026-04-25T14:33:40.01Z</time></trkpt><trkpt lat="44.526786178179876" lon="10.553662213888535"><ele>577.0</ele><time>2026-04-25T14:33:41.01Z</time></trkpt><trkpt lat="44.52690154598778" lon="10.553691150527197"><ele>577.0</ele><time>2026-04-25T14:33:42.01Z</time></trkpt><trkpt lat="44.527020982730704" lon="10.553703422339792"><ele>577.0</ele><time>2026-04-25T14:33:43.01Z</time></trkpt><trkpt lat="44.527132759593435" lon="10.553694100292747"><ele>577.0</ele><time>2026-04-25T14:33:44.01Z</time></trkpt><trkpt lat="44.52722502443996" lon="10.553745694956902"><ele>577.0</ele><time>2026-04-25T14:33:45.01Z</time></trkpt><trkpt lat="44.527282917519045" lon="10.553822099950354"><ele>576.8000000000001</ele><time>2026-04-25T14:33:46.01Z</time></trkpt><trkpt lat="44.527331089995855" lon="10.553943000620913"><ele>576.6</ele><time>2026-04-25T14:33:47.01Z</time></trkpt><trkpt lat="44.527402254926805" lon="10.554054260566009"><ele>576.4000000000001</ele><time>2026-04-25T14:33:48.01Z</time></trkpt><trkpt lat="44.52745826852954" lon="10.554168786210436"><ele>576.2</ele><time>2026-04-25T14:33:49.01Z</time></trkpt><trkpt lat="44.52751359393298" lon="10.554287464376454"><ele>576.0</ele><time>2026-04-25T14:33:50.01Z</time></trkpt><trkpt lat="44.527550680600136" lon="10.55441791751065"><ele>575.0</ele><time>2026-04-25T14:33:51.01Z</time></trkpt><trkpt lat="44.52759774889381" lon="10.554556726803401"><ele>574.0</ele><time>2026-04-25T14:33:52.01Z</time></trkpt><trkpt lat="44.527661614224854" lon="10.55468524171038"><ele>573.0</ele><time>2026-04-25T14:33:53.01Z</time></trkpt><trkpt lat="44.52772493923789" lon="10.554823715788784"><ele>572.0</ele><time>2026-04-25T14:33:54.01Z</time></trkpt><trkpt lat="44.5277898792659" lon="10.554973246510912"><ele>572.0</ele><time>2026-04-25T14:33:55.01Z</time></trkpt><trkpt lat="44.52785000071947" lon="10.555134674539556"><ele>572.0</ele><time>2026-04-25T14:33:56.01Z</time></trkpt><trkpt lat="44.52790741320619" lon="10.555305128641121"><ele>572.0</ele><time>2026-04-25T14:33:57.01Z</time></trkpt><trkpt lat="44.5279701874423" lon="10.555465341182241"><ele>572.0</ele><time>2026-04-25T14:33:58.01Z</time></trkpt><trkpt lat="44.52803213411118" lon="10.555615022422204"><ele>572.4</ele><time>2026-04-25T14:33:59.011Z</time></trkpt><trkpt lat="44.52809426565572" lon="10.555758848130408"><ele>572.8000000000001</ele><time>2026-04-25T14:34:00.011Z</time></trkpt><trkpt lat="44.528154671572544" lon="10.555888254349151"><ele>573.2</ele><time>2026-04-25T14:34:01.011Z</time></trkpt><trkpt lat="44.52820719832495" lon="10.556004312225957"><ele>573.6</ele><time>2026-04-25T14:34:02.011Z</time></trkpt><trkpt lat="44.528252768708505" lon="10.556107057981981"><ele>574.0</ele><time>2026-04-25T14:34:03.011Z</time></trkpt><trkpt lat="44.528295717998205" lon="10.556192924205456"><ele>572.6</ele><time>2026-04-25T14:34:04.011Z</time></trkpt><trkpt lat="44.52834294484173" lon="10.556280435841183"><ele>571.2</ele><time>2026-04-25T14:34:05.011Z</time></trkpt><trkpt lat="44.52838779593839" lon="10.556367257930694"><ele>569.8000000000001</ele><time>2026-04-25T14:34:06.011Z</time></trkpt><trkpt lat="44.528457737531255" lon="10.556478693515325"><ele>568.4</ele><time>2026-04-25T14:34:07.011Z</time></trkpt><trkpt lat="44.52853959659449" lon="10.556598277631663"><ele>567.0</ele><time>2026-04-25T14:34:08.011Z</time></trkpt><trkpt lat="44.52862447555236" lon="10.556727137082392"><ele>567.0</ele><time>2026-04-25T14:34:09.011Z</time></trkpt><trkpt lat="44.52870549863305" lon="10.556868876419456"><ele>567.0</ele><time>2026-04-25T14:34:10.011Z</time></trkpt><trkpt lat="44.528782221204104" lon="10.557005749040977"><ele>567.0</ele><time>2026-04-25T14:34:11.011Z</time></trkpt><trkpt lat="44.52885498522163" lon="10.557122226483987"><ele>567.0</ele><time>2026-04-25T14:34:12.011Z</time></trkpt><trkpt lat="44.52892373870222" lon="10.55723303646698"><ele>567.5</ele><time>2026-04-25T14:34:13.011Z</time></trkpt><trkpt lat="44.528993907723425" lon="10.557356234507807"><ele>568.0</ele><time>2026-04-25T14:34:14.011Z</time></trkpt><trkpt lat="44.52906880091919" lon="10.557465855851726"><ele>568.5</ele><time>2026-04-25T14:34:15.011Z</time></trkpt><trkpt lat="44.52914459634722" lon="10.557585820409502"><ele>569.0</ele><time>2026-04-25T14:34:16.011Z</time></trkpt><trkpt lat="44.52921498111994" lon="10.557718065958206"><ele>569.0</ele><time>2026-04-25T14:34:17.011Z</time></trkpt><trkpt lat="44.52928082338715" lon="10.557864324046975"><ele>569.0</ele><time>2026-04-25T14:34:18.011Z</time></trkpt><trkpt lat="44.529355358924505" lon="10.558001600985229"><ele>569.0</ele><time>2026-04-25T14:34:19.011Z</time></trkpt><trkpt lat="44.529428295329005" lon="10.55813811204066"><ele>569.0</ele><time>2026-04-25T14:34:20.011Z</time></trkpt><trkpt lat="44.529501889607225" lon="10.558275277132335"><ele>568.5</ele><time>2026-04-25T14:34:21.011Z</time></trkpt><trkpt lat="44.52957030982908" lon="10.558407678903448"><ele>568.0</ele><time>2026-04-25T14:34:22.011Z</time></trkpt><trkpt lat="44.5296413640408" lon="10.558547958206802"><ele>567.5</ele><time>2026-04-25T14:34:23.011Z</time></trkpt><trkpt lat="44.529705844352236" lon="10.558680680137144"><ele>567.0</ele><time>2026-04-25T14:34:24.011Z</time></trkpt><trkpt lat="44.52978427326118" lon="10.558829350548288"><ele>567.0</ele><time>2026-04-25T14:34:25.011Z</time></trkpt><trkpt lat="44.52985830938115" lon="10.558974582762001"><ele>567.0</ele><time>2026-04-25T14:34:26.011Z</time></trkpt><trkpt lat="44.52992952810169" lon="10.55909473305802"><ele>567.0</ele><time>2026-04-25T14:34:27.011Z</time></trkpt><trkpt lat="44.530000619830226" lon="10.559204807774018"><ele>567.0</ele><time>2026-04-25T14:34:28.011Z</time></trkpt><trkpt lat="44.530067250847004" lon="10.55931092172346"><ele>567.0</ele><time>2026-04-25T14:34:29.011Z</time></trkpt><trkpt lat="44.53013483735572" lon="10.559412740097383"><ele>567.0</ele><time>2026-04-25T14:34:30.011Z</time></trkpt><trkpt lat="44.53020184503064" lon="10.559526511596424"><ele>567.0</ele><time>2026-04-25T14:34:31.011Z</time></trkpt><trkpt lat="44.53026860984823" lon="10.55963878838204"><ele>567.0</ele><time>2026-04-25T14:34:32.011Z</time></trkpt><trkpt lat="44.53033364454951" lon="10.559750824177263"><ele>567.0</ele><time>2026-04-25T14:34:33.011Z</time></trkpt><trkpt lat="44.53039479647944" lon="10.559866937666673"><ele>567.0</ele><time>2026-04-25T14:34:34.011Z</time></trkpt><trkpt lat="44.53045532430593" lon="10.559984393328214"><ele>567.5</ele><time>2026-04-25T14:34:35.011Z</time></trkpt><trkpt lat="44.5305136986835" lon="10.560105990579073"><ele>568.0</ele><time>2026-04-25T14:34:36.011Z</time></trkpt><trkpt lat="44.53057799749334" lon="10.56023303698115"><ele>568.5</ele><time>2026-04-25T14:34:37.011Z</time></trkpt><trkpt lat="44.53064825514182" lon="10.560375203760026"><ele>569.0</ele><time>2026-04-25T14:34:38.011Z</time></trkpt><trkpt lat="44.53067591721896" lon="10.560543102529692"><ele>569.0</ele><time>2026-04-25T14:34:39.011Z</time></trkpt><trkpt lat="44.53070226258483" lon="10.560727359599923"><ele>569.0</ele><time>2026-04-25T14:34:40.011Z</time></trkpt><trkpt lat="44.53070250878299" lon="10.560904228637042"><ele>569.0</ele><time>2026-04-25T14:34:41.011Z</time></trkpt><trkpt lat="44.530698195856814" lon="10.561066842463696"><ele>569.0</ele><time>2026-04-25T14:34:42.011Z</time></trkpt><trkpt lat="44.53070141437529" lon="10.561226294846408"><ele>567.5</ele><time>2026-04-25T14:34:43.011Z</time></trkpt><trkpt lat="44.53069097491197" lon="10.56138936880576"><ele>566.0</ele><time>2026-04-25T14:34:44.011Z</time></trkpt><trkpt lat="44.530710587574916" lon="10.561540802941154"><ele>564.5</ele><time>2026-04-25T14:34:45.011Z</time></trkpt><trkpt lat="44.53072557644841" lon="10.56170617980745"><ele>563.0</ele><time>2026-04-25T14:34:46.011Z</time></trkpt><trkpt lat="44.53072687822639" lon="10.561857387637843"><ele>563.0</ele><time>2026-04-25T14:34:47.012Z</time></trkpt><trkpt lat="44.53068631728353" lon="10.562013341163544"><ele>563.0</ele><time>2026-04-25T14:34:48.012Z</time></trkpt><trkpt lat="44.53058252231291" lon="10.562121076902947"><ele>563.0</ele><time>2026-04-25T14:34:49.012Z</time></trkpt><trkpt lat="44.53049574219676" lon="10.562236519391275"><ele>563.0</ele><time>2026-04-25T14:34:50.012Z</time></trkpt><trkpt lat="44.530442860773796" lon="10.562365013231227"><ele>563.0</ele><time>2026-04-25T14:34:51.01Z</time></trkpt><trkpt lat="44.53041055623485" lon="10.562505464592075"><ele>563.0</ele><time>2026-04-25T14:34:52.01Z</time></trkpt><trkpt lat="44.53041622040687" lon="10.562680369001082"><ele>563.0</ele><time>2026-04-25T14:34:53.01Z</time></trkpt><trkpt lat="44.5304442838919" lon="10.562827010051802"><ele>563.0</ele><time>2026-04-25T14:34:54.01Z</time></trkpt><trkpt lat="44.5305097025236" lon="10.562977472723645"><ele>560.5</ele><time>2026-04-25T14:34:55.01Z</time></trkpt><trkpt lat="44.53058444665086" lon="10.563117006583497"><ele>558.0</ele><time>2026-04-25T14:34:56.01Z</time></trkpt><trkpt lat="44.5306879993697" lon="10.5632179298566"><ele>555.5</ele><time>2026-04-25T14:34:57.01Z</time></trkpt><trkpt lat="44.53078399743551" lon="10.56329039352998"><ele>553.0</ele><time>2026-04-25T14:34:58.01Z</time></trkpt><trkpt lat="44.53084954776891" lon="10.563414045021277"><ele>553.0</ele><time>2026-04-25T14:34:59.011Z</time></trkpt><trkpt lat="44.53088360981161" lon="10.563558682469868"><ele>553.0</ele><time>2026-04-25T14:35:00.011Z</time></trkpt><trkpt lat="44.53086816504655" lon="10.563704256456473"><ele>553.0</ele><time>2026-04-25T14:35:01.01Z</time></trkpt><trkpt lat="44.53080681286047" lon="10.563842819355905"><ele>553.0</ele><time>2026-04-25T14:35:02.01Z</time></trkpt><trkpt lat="44.53071478720907" lon="10.563914322545584"><ele>553.0</ele><time>2026-04-25T14:35:03.01Z</time></trkpt><trkpt lat="44.53060881139805" lon="10.563986166069279"><ele>554.0</ele><time>2026-04-25T14:35:04.011Z</time></trkpt><trkpt lat="44.53049874168127" lon="10.564079133174289"><ele>555.0</ele><time>2026-04-25T14:35:05.011Z</time></trkpt><trkpt lat="44.53040593640717" lon="10.564146092156268"><ele>556.0</ele><time>2026-04-25T14:35:06.011Z</time></trkpt><trkpt lat="44.53032201762669" lon="10.564257784964152"><ele>557.0</ele><time>2026-04-25T14:35:07.011Z</time></trkpt><trkpt lat="44.53029446019471" lon="10.56441814266632"><ele>552.5</ele><time>2026-04-25T14:35:08.011Z</time></trkpt><trkpt lat="44.53027889405259" lon="10.564595579710279"><ele>548.0</ele><time>2026-04-25T14:35:09.011Z</time></trkpt><trkpt lat="44.53027313252465" lon="10.56476868934219"><ele>543.5</ele><time>2026-04-25T14:35:10.011Z</time></trkpt><trkpt lat="44.530297798897976" lon="10.564931989471914"><ele>539.0</ele><time>2026-04-25T14:35:11.011Z</time></trkpt><trkpt lat="44.53035291733558" lon="10.565075500986872"><ele>544.8</ele><time>2026-04-25T14:35:12.011Z</time></trkpt><trkpt lat="44.530397625924316" lon="10.565206837744622"><ele>550.5999999999999</ele><time>2026-04-25T14:35:13.011Z</time></trkpt><trkpt lat="44.53045719388141" lon="10.56536036048339"><ele>556.4</ele><time>2026-04-25T14:35:14.011Z</time></trkpt><trkpt lat="44.530496672830836" lon="10.565503725981213"><ele>562.1999999999999</ele><time>2026-04-25T14:35:15.011Z</time></trkpt><trkpt lat="44.53052278786612" lon="10.565645236750639"><ele>568.0</ele><time>2026-04-25T14:35:16.011Z</time></trkpt><trkpt lat="44.53057290049194" lon="10.565772780172134"><ele>568.0</ele><time>2026-04-25T14:35:17.011Z</time></trkpt><trkpt lat="44.5306212828008" lon="10.565905623586847"><ele>568.0</ele><time>2026-04-25T14:35:18.011Z</time></trkpt><trkpt lat="44.53067448784147" lon="10.566032253427354"><ele>568.0</ele><time>2026-04-25T14:35:19.011Z</time></trkpt><trkpt lat="44.53075954768136" lon="10.566147880661763"><ele>568.0</ele><time>2026-04-25T14:35:20.011Z</time></trkpt><trkpt lat="44.53084225133317" lon="10.56624118437194"><ele>568.0</ele><time>2026-04-25T14:35:21.011Z</time></trkpt><trkpt lat="44.530935762507326" lon="10.56630903485156"><ele>565.4</ele><time>2026-04-25T14:35:22.011Z</time></trkpt><trkpt lat="44.53101607871499" lon="10.56638484789234"><ele>562.8</ele><time>2026-04-25T14:35:23.011Z</time></trkpt><trkpt lat="44.531104120166944" lon="10.566437801906059"><ele>560.2</ele><time>2026-04-25T14:35:24.011Z</time></trkpt><trkpt lat="44.53117604897602" lon="10.566516303013575"><ele>557.6</ele><time>2026-04-25T14:35:25.011Z</time></trkpt><trkpt lat="44.531243689998256" lon="10.566611589359628"><ele>555.0</ele><time>2026-04-25T14:35:26.011Z</time></trkpt><trkpt lat="44.531275349229574" lon="10.566765336109366"><ele>558.2</ele><time>2026-04-25T14:35:27.011Z</time></trkpt><trkpt lat="44.53127845432588" lon="10.566922107718586"><ele>561.4</ele><time>2026-04-25T14:35:28.011Z</time></trkpt><trkpt lat="44.531298812787114" lon="10.567072908131466"><ele>564.6</ele><time>2026-04-25T14:35:29.011Z</time></trkpt><trkpt lat="44.53133419968567" lon="10.567217339003712"><ele>567.8</ele><time>2026-04-25T14:35:30.011Z</time></trkpt><trkpt lat="44.53138159102939" lon="10.567329699275058"><ele>571.0</ele><time>2026-04-25T14:35:31.011Z</time></trkpt><trkpt lat="44.531450205390406" lon="10.56744517795291"><ele>571.0</ele><time>2026-04-25T14:35:32.011Z</time></trkpt><trkpt lat="44.531500150430915" lon="10.567574870813331"><ele>571.0</ele><time>2026-04-25T14:35:33.011Z</time></trkpt><trkpt lat="44.531564324675" lon="10.567699894826962"><ele>571.0</ele><time>2026-04-25T14:35:34.011Z</time></trkpt><trkpt lat="44.53162985370633" lon="10.567819868511476"><ele>571.0</ele><time>2026-04-25T14:35:35.011Z</time></trkpt><trkpt lat="44.53170422836975" lon="10.567906133015558"><ele>571.0</ele><time>2026-04-25T14:35:36.011Z</time></trkpt><trkpt lat="44.53175963876096" lon="10.568006767929818"><ele>567.3333333333334</ele><time>2026-04-25T14:35:37.011Z</time></trkpt><trkpt lat="44.53182351083575" lon="10.56807576451487"><ele>563.6666666666667</ele><time>2026-04-25T14:35:38.011Z</time></trkpt><trkpt lat="44.53188771746706" lon="10.56816750934758"><ele>560.0</ele><time>2026-04-25T14:35:39.012Z</time></trkpt><trkpt lat="44.53193895925638" lon="10.568266839357651"><ele>556.3333333333334</ele><time>2026-04-25T14:35:40.012Z</time></trkpt><trkpt lat="44.53197255041416" lon="10.568371112704108"><ele>552.6666666666666</ele><time>2026-04-25T14:35:41.012Z</time></trkpt><trkpt lat="44.53201468398591" lon="10.568472835886638"><ele>549.0</ele><time>2026-04-25T14:35:42.012Z</time></trkpt><trkpt lat="44.532043613939166" lon="10.56860236186168"><ele>553.4</ele><time>2026-04-25T14:35:43.012Z</time></trkpt><trkpt lat="44.53208921993576" lon="10.568731230981797"><ele>557.8</ele><time>2026-04-25T14:35:44.012Z</time></trkpt><trkpt lat="44.53213665953745" lon="10.56885192268933"><ele>562.2</ele><time>2026-04-25T14:35:45.012Z</time></trkpt><trkpt lat="44.532191534170714" lon="10.56896159464446"><ele>566.6</ele><time>2026-04-25T14:35:46.012Z</time></trkpt><trkpt lat="44.53225221233678" lon="10.56906301314335"><ele>571.0</ele><time>2026-04-25T14:35:47.012Z</time></trkpt><trkpt lat="44.53232621283081" lon="10.569162209102842"><ele>571.0</ele><time>2026-04-25T14:35:48.012Z</time></trkpt><trkpt lat="44.5324037966746" lon="10.569262851070704"><ele>571.0</ele><time>2026-04-25T14:35:49.012Z</time></trkpt><trkpt lat="44.53247939533655" lon="10.569377031317405"><ele>571.0</ele><time>2026-04-25T14:35:50.012Z</time></trkpt><trkpt lat="44.53255831132567" lon="10.569494356336532"><ele>571.0</ele><time>2026-04-25T14:35:51.012Z</time></trkpt><trkpt lat="44.53261617555652" lon="10.569634419565968"><ele>571.0</ele><time>2026-04-25T14:35:52.012Z</time></trkpt><trkpt lat="44.532681547229814" lon="10.569763536086178"><ele>566.8</ele><time>2026-04-25T14:35:53.012Z</time></trkpt><trkpt lat="44.53274340856039" lon="10.569891368266795"><ele>562.6</ele><time>2026-04-25T14:35:54.012Z</time></trkpt><trkpt lat="44.53280049085698" lon="10.570009324902925"><ele>558.4</ele><time>2026-04-25T14:35:55.012Z</time></trkpt><trkpt lat="44.53287183415372" lon="10.570111911548853"><ele>554.2</ele><time>2026-04-25T14:35:56.012Z</time></trkpt><trkpt lat="44.532915587849786" lon="10.570237283781278"><ele>550.0</ele><time>2026-04-25T14:35:57.012Z</time></trkpt><trkpt lat="44.532971397674174" lon="10.570346320752687"><ele>554.0</ele><time>2026-04-25T14:35:58.012Z</time></trkpt><trkpt lat="44.53302729258978" lon="10.570454137667431"><ele>558.0</ele><time>2026-04-25T14:35:59.012Z</time></trkpt><trkpt lat="44.533087571100104" lon="10.570568805561257"><ele>562.0</ele><time>2026-04-25T14:36:00.012Z</time></trkpt><trkpt lat="44.53316082552269" lon="10.570666476188999"><ele>566.0</ele><time>2026-04-25T14:36:01.012Z</time></trkpt><trkpt lat="44.533208395035444" lon="10.570774229996665"><ele>570.0</ele><time>2026-04-25T14:36:02.012Z</time></trkpt><trkpt lat="44.5332626435316" lon="10.57088620720722"><ele>570.0</ele><time>2026-04-25T14:36:03.012Z</time></trkpt><trkpt lat="44.53331172799586" lon="10.571005278075951"><ele>570.0</ele><time>2026-04-25T14:36:04.012Z</time></trkpt><trkpt lat="44.53337176138625" lon="10.571120744989495"><ele>570.0</ele><time>2026-04-25T14:36:05.012Z</time></trkpt><trkpt lat="44.53342039921756" lon="10.571221449653336"><ele>570.0</ele><time>2026-04-25T14:36:06.012Z</time></trkpt><trkpt lat="44.533452968650536" lon="10.571325992470767"><ele>570.0</ele><time>2026-04-25T14:36:07.012Z</time></trkpt><trkpt lat="44.53349328178285" lon="10.571427811683938"><ele>568.0</ele><time>2026-04-25T14:36:08.012Z</time></trkpt><trkpt lat="44.533538104173765" lon="10.571528606756612"><ele>566.0</ele><time>2026-04-25T14:36:09.012Z</time></trkpt><trkpt lat="44.53358145731078" lon="10.57163300511096"><ele>564.0</ele><time>2026-04-25T14:36:10.012Z</time></trkpt><trkpt lat="44.533603627937104" lon="10.571752265918272"><ele>562.0</ele><time>2026-04-25T14:36:11.012Z</time></trkpt><trkpt lat="44.533637093856406" lon="10.571835599224679"><ele>560.0</ele><time>2026-04-25T14:36:12.012Z</time></trkpt><trkpt lat="44.53364676137253" lon="10.571951154025037"><ele>558.0</ele><time>2026-04-25T14:36:13.012Z</time></trkpt><trkpt lat="44.53362830348393" lon="10.572086085584035"><ele>557.8</ele><time>2026-04-25T14:36:14.012Z</time></trkpt><trkpt lat="44.53359267686942" lon="10.572216418043475"><ele>557.5999999999999</ele><time>2026-04-25T14:36:15.012Z</time></trkpt><trkpt lat="44.53352636255976" lon="10.572333461831578"><ele>557.4000000000001</ele><time>2026-04-25T14:36:16.012Z</time></trkpt><trkpt lat="44.53349667598484" lon="10.572484438121126"><ele>557.2</ele><time>2026-04-25T14:36:17.012Z</time></trkpt><trkpt lat="44.53344187167591" lon="10.57260831580051"><ele>557.0</ele><time>2026-04-25T14:36:18.012Z</time></trkpt><trkpt lat="44.53341945175033" lon="10.572738602094294"><ele>557.4</ele><time>2026-04-25T14:36:19.012Z</time></trkpt><trkpt lat="44.5333860700582" lon="10.572858554781288"><ele>557.8000000000001</ele><time>2026-04-25T14:36:20.012Z</time></trkpt><trkpt lat="44.53335354823651" lon="10.57299030709097"><ele>558.2</ele><time>2026-04-25T14:36:21.012Z</time></trkpt><trkpt lat="44.53330917015835" lon="10.573134560435179"><ele>558.6</ele><time>2026-04-25T14:36:22.012Z</time></trkpt><trkpt lat="44.533273128103474" lon="10.57327565159589"><ele>559.0</ele><time>2026-04-25T14:36:23.012Z</time></trkpt><trkpt lat="44.53323181066593" lon="10.57341680253367"><ele>559.0</ele><time>2026-04-25T14:36:24.012Z</time></trkpt><trkpt lat="44.53320780640668" lon="10.57354546836794"><ele>559.0</ele><time>2026-04-25T14:36:25.012Z</time></trkpt><trkpt lat="44.53318263362498" lon="10.573661517366746"><ele>559.0</ele><time>2026-04-25T14:36:26.012Z</time></trkpt><trkpt lat="44.533151582702324" lon="10.573775179036643"><ele>559.0</ele><time>2026-04-25T14:36:27.012Z</time></trkpt><trkpt lat="44.53311960410216" lon="10.573872160581356"><ele>559.0</ele><time>2026-04-25T14:36:28.013Z</time></trkpt><trkpt lat="44.53309338601358" lon="10.57397392162313"><ele>559.0</ele><time>2026-04-25T14:36:29.013Z</time></trkpt><trkpt lat="44.533073706934154" lon="10.57408089713512"><ele>558.4</ele><time>2026-04-25T14:36:30.013Z</time></trkpt><trkpt lat="44.533057467609225" lon="10.574188556748863"><ele>557.8</ele><time>2026-04-25T14:36:31.013Z</time></trkpt><trkpt lat="44.53304719086196" lon="10.574315289627854"><ele>557.2</ele><time>2026-04-25T14:36:32.013Z</time></trkpt><trkpt lat="44.53303724847156" lon="10.574456694444939"><ele>556.6</ele><time>2026-04-25T14:36:33.013Z</time></trkpt><trkpt lat="44.533082526662604" lon="10.574598794425473"><ele>556.0</ele><time>2026-04-25T14:36:34.013Z</time></trkpt><trkpt lat="44.53311782476133" lon="10.574724046313666"><ele>556.0</ele><time>2026-04-25T14:36:35.013Z</time></trkpt><trkpt lat="44.53317138727679" lon="10.574824791876473"><ele>556.0</ele><time>2026-04-25T14:36:36.013Z</time></trkpt><trkpt lat="44.53324351088298" lon="10.574895823711069"><ele>556.0</ele><time>2026-04-25T14:36:37.013Z</time></trkpt><trkpt lat="44.53331062193254" lon="10.57495098682853"><ele>556.0</ele><time>2026-04-25T14:36:38.013Z</time></trkpt><trkpt lat="44.533353029378105" lon="10.575019469892053"><ele>556.0</ele><time>2026-04-25T14:36:39.013Z</time></trkpt><trkpt lat="44.53341461677219" lon="10.575074278480335"><ele>556.0</ele><time>2026-04-25T14:36:40.013Z</time></trkpt><trkpt lat="44.53346842624934" lon="10.575121506940825"><ele>556.0</ele><time>2026-04-25T14:36:41.013Z</time></trkpt><trkpt lat="44.53353440545184" lon="10.575157357032186"><ele>556.0</ele><time>2026-04-25T14:36:42.013Z</time></trkpt><trkpt lat="44.533594246105956" lon="10.575214191573556"><ele>556.0</ele><time>2026-04-25T14:36:43.013Z</time></trkpt><trkpt lat="44.53367443162831" lon="10.57525975395247"><ele>556.0</ele><time>2026-04-25T14:36:44.013Z</time></trkpt><trkpt lat="44.5337637133991" lon="10.575325802367942"><ele>556.0</ele><time>2026-04-25T14:36:45.013Z</time></trkpt><trkpt lat="44.53384467224841" lon="10.575377346815033"><ele>556.0</ele><time>2026-04-25T14:36:46.013Z</time></trkpt><trkpt lat="44.53392112086284" lon="10.575444388197257"><ele>554.2</ele><time>2026-04-25T14:36:47.013Z</time></trkpt><trkpt lat="44.53401043371783" lon="10.575473695160364"><ele>552.4000000000001</ele><time>2026-04-25T14:36:48.013Z</time></trkpt><trkpt lat="44.534095225060206" lon="10.575481903148692"><ele>550.6</ele><time>2026-04-25T14:36:49.013Z</time></trkpt><trkpt lat="44.53418103340623" lon="10.575485267999586"><ele>548.8000000000001</ele><time>2026-04-25T14:36:50.013Z</time></trkpt><trkpt lat="44.534286418378635" lon="10.575491223442903"><ele>547.0</ele><time>2026-04-25T14:36:51.013Z</time></trkpt><trkpt lat="44.5343996097418" lon="10.575515649563526"><ele>547.0</ele><time>2026-04-25T14:36:52.013Z</time></trkpt><trkpt lat="44.534491652639005" lon="10.575551870848864"><ele>547.0</ele><time>2026-04-25T14:36:53.013Z</time></trkpt><trkpt lat="44.53458473144095" lon="10.575585470736478"><ele>547.0</ele><time>2026-04-25T14:36:54.013Z</time></trkpt><trkpt lat="44.53466799078922" lon="10.575604113839752"><ele>547.0</ele><time>2026-04-25T14:36:55.013Z</time></trkpt><trkpt lat="44.53473949147336" lon="10.575649735542251"><ele>547.0</ele><time>2026-04-25T14:36:56.013Z</time></trkpt><trkpt lat="44.534803733813256" lon="10.575669664184732"><ele>547.0</ele><time>2026-04-25T14:36:57.011Z</time></trkpt><trkpt lat="44.534890018116585" lon="10.575733034586797"><ele>550.4</ele><time>2026-04-25T14:36:58.011Z</time></trkpt><trkpt lat="44.53497608251897" lon="10.575828607558106"><ele>553.8000000000001</ele><time>2026-04-25T14:36:59.011Z</time></trkpt><trkpt lat="44.53503842371645" lon="10.575928999150841"><ele>557.2</ele><time>2026-04-25T14:37:00.011Z</time></trkpt><trkpt lat="44.53510353249117" lon="10.57602583434091"><ele>560.6</ele><time>2026-04-25T14:37:01.011Z</time></trkpt><trkpt lat="44.53517104703486" lon="10.576107901766463"><ele>564.0</ele><time>2026-04-25T14:37:02.011Z</time></trkpt><trkpt lat="44.53522847712269" lon="10.5761728896187"><ele>566.1666666666666</ele><time>2026-04-25T14:37:03.011Z</time></trkpt><trkpt lat="44.5352810756949" lon="10.576224376471387"><ele>568.3333333333334</ele><time>2026-04-25T14:37:04.012Z</time></trkpt><trkpt lat="44.535329354025954" lon="10.576281599375791"><ele>570.5</ele><time>2026-04-25T14:37:05.012Z</time></trkpt><trkpt lat="44.535399356043705" lon="10.576379462399812"><ele>572.6666666666667</ele><time>2026-04-25T14:37:07.012Z</time></trkpt><trkpt lat="44.53545517697863" lon="10.576444200704294"><ele>574.8333333333334</ele><time>2026-04-25T14:37:09.012Z</time></trkpt><trkpt lat="44.535508822326825" lon="10.57655248709058"><ele>577.0</ele><time>2026-04-25T14:37:11.012Z</time></trkpt><trkpt lat="44.535547103204095" lon="10.576703355878688"><ele>577.0</ele><time>2026-04-25T14:37:13.012Z</time></trkpt><trkpt lat="44.53556511376756" lon="10.576877489349434"><ele>577.0</ele><time>2026-04-25T14:37:15.012Z</time></trkpt><trkpt lat="44.53556673553498" lon="10.576967968902547"><ele>577.0</ele><time>2026-04-25T14:37:16.012Z</time></trkpt><trkpt lat="44.53558451462592" lon="10.577058685216054"><ele>577.0</ele><time>2026-04-25T14:37:17.012Z</time></trkpt><trkpt lat="44.535594137221175" lon="10.577172456800167"><ele>577.0</ele><time>2026-04-25T14:37:18.012Z</time></trkpt><trkpt lat="44.53565102765112" lon="10.577283989558095"><ele>577.0</ele><time>2026-04-25T14:37:19.012Z</time></trkpt><trkpt lat="44.53570246652045" lon="10.577376708388266"><ele>574.0</ele><time>2026-04-25T14:37:20.012Z</time></trkpt><trkpt lat="44.53574653914892" lon="10.577460387151762"><ele>571.0</ele><time>2026-04-25T14:37:21.012Z</time></trkpt><trkpt lat="44.535805366030424" lon="10.5775622256092"><ele>568.0</ele><time>2026-04-25T14:37:22.012Z</time></trkpt><trkpt lat="44.53584562995297" lon="10.577702381111587"><ele>565.0</ele><time>2026-04-25T14:37:23.012Z</time></trkpt><trkpt lat="44.53584063429169" lon="10.577863070732972"><ele>562.0</ele><time>2026-04-25T14:37:24.012Z</time></trkpt><trkpt lat="44.53587015981942" lon="10.578003001896052"><ele>560.2</ele><time>2026-04-25T14:37:25.012Z</time></trkpt><trkpt lat="44.53588366461187" lon="10.578128895477127"><ele>558.4000000000001</ele><time>2026-04-25T14:37:26.012Z</time></trkpt><trkpt lat="44.535924401525335" lon="10.578244379857425"><ele>556.5999999999999</ele><time>2026-04-25T14:37:27.012Z</time></trkpt><trkpt lat="44.53597479779418" lon="10.578347691318553"><ele>554.8</ele><time>2026-04-25T14:37:28.012Z</time></trkpt><trkpt lat="44.53607551761254" lon="10.57839097056387"><ele>553.0</ele><time>2026-04-25T14:37:29.012Z</time></trkpt><trkpt lat="44.53618669822793" lon="10.578336212828866"><ele>555.4</ele><time>2026-04-25T14:37:30.012Z</time></trkpt><trkpt lat="44.53628113714231" lon="10.578295370890899"><ele>557.8</ele><time>2026-04-25T14:37:31.012Z</time></trkpt><trkpt lat="44.53638234278632" lon="10.57823846817505"><ele>560.2</ele><time>2026-04-25T14:37:32.012Z</time></trkpt><trkpt lat="44.5364878064959" lon="10.578182676737397"><ele>562.6</ele><time>2026-04-25T14:37:33.012Z</time></trkpt><trkpt lat="44.5365803301495" lon="10.578118980171412"><ele>565.0</ele><time>2026-04-25T14:37:34.012Z</time></trkpt><trkpt lat="44.536677331094786" lon="10.578050889571092"><ele>565.0</ele><time>2026-04-25T14:37:35.012Z</time></trkpt><trkpt lat="44.536768387450984" lon="10.577977083127656"><ele>565.0</ele><time>2026-04-25T14:37:36.012Z</time></trkpt><trkpt lat="44.53684311283939" lon="10.577876307085177"><ele>565.0</ele><time>2026-04-25T14:37:37.012Z</time></trkpt><trkpt lat="44.53689079706731" lon="10.577739560837655"><ele>565.0</ele><time>2026-04-25T14:37:38.012Z</time></trkpt><trkpt lat="44.53694832917792" lon="10.577610452561677"><ele>565.0</ele><time>2026-04-25T14:37:39.012Z</time></trkpt><trkpt lat="44.537047463059295" lon="10.577536528703686"><ele>561.25</ele><time>2026-04-25T14:37:40.012Z</time></trkpt><trkpt lat="44.53715561185945" lon="10.577496369150815"><ele>557.5</ele><time>2026-04-25T14:37:41.012Z</time></trkpt><trkpt lat="44.53727834486877" lon="10.577444974597018"><ele>553.75</ele><time>2026-04-25T14:37:42.012Z</time></trkpt><trkpt lat="44.53740203626386" lon="10.577421670984437"><ele>550.0</ele><time>2026-04-25T14:37:43.013Z</time></trkpt><trkpt lat="44.53752225056473" lon="10.577391986959983"><ele>550.0</ele><time>2026-04-25T14:37:44.013Z</time></trkpt><trkpt lat="44.537625326718775" lon="10.57734129675477"><ele>550.0</ele><time>2026-04-25T14:37:45.013Z</time></trkpt><trkpt lat="44.53770875271079" lon="10.577293662749797"><ele>550.0</ele><time>2026-04-25T14:37:46.013Z</time></trkpt><trkpt lat="44.53777721334212" lon="10.577258342289747"><ele>550.0</ele><time>2026-04-25T14:37:47.013Z</time></trkpt><trkpt lat="44.53786291032163" lon="10.577261371686186"><ele>550.0</ele><time>2026-04-25T14:37:49.013Z</time></trkpt><trkpt lat="44.537862952496184" lon="10.57743105841474"><ele>550.0</ele><time>2026-04-25T14:37:51.013Z</time></trkpt><trkpt lat="44.53780427284557" lon="10.577516717480364"><ele>550.0</ele><time>2026-04-25T14:37:52.013Z</time></trkpt><trkpt lat="44.537707002632736" lon="10.57753274624735"><ele>550.0</ele><time>2026-04-25T14:37:53.013Z</time></trkpt><trkpt lat="44.537623867415576" lon="10.57758448017275"><ele>550.0</ele><time>2026-04-25T14:37:54.013Z</time></trkpt><trkpt lat="44.537535924109775" lon="10.577639322364403"><ele>550.0</ele><time>2026-04-25T14:37:55.013Z</time></trkpt><trkpt lat="44.53745972999096" lon="10.577696295585563"><ele>550.0</ele><time>2026-04-25T14:37:56.013Z</time></trkpt><trkpt lat="44.53739334424616" lon="10.577777854208222"><ele>550.0</ele><time>2026-04-25T14:37:57.013Z</time></trkpt><trkpt lat="44.53733176325903" lon="10.5778550742414"><ele>550.0</ele><time>2026-04-25T14:37:58.013Z</time></trkpt><trkpt lat="44.53729536526674" lon="10.577961568672707"><ele>550.0</ele><time>2026-04-25T14:37:59.013Z</time></trkpt><trkpt lat="44.537291449074075" lon="10.578075847578603"><ele>550.0</ele><time>2026-04-25T14:38:00.013Z</time></trkpt><trkpt lat="44.53729581519412" lon="10.578178258652533"><ele>550.0</ele><time>2026-04-25T14:38:01.013Z</time></trkpt><trkpt lat="44.537321088240056" lon="10.578276710345516"><ele>547.0</ele><time>2026-04-25T14:38:02.013Z</time></trkpt><trkpt lat="44.537386259202776" lon="10.578411218208405"><ele>544.0</ele><time>2026-04-25T14:38:04.013Z</time></trkpt><trkpt lat="44.53750731727257" lon="10.578273305329004"><ele>541.0</ele><time>2026-04-25T14:38:05.013Z</time></trkpt><trkpt lat="44.53756747824632" lon="10.578177490176454"><ele>538.0</ele><time>2026-04-25T14:38:06.013Z</time></trkpt><trkpt lat="44.53762972859657" lon="10.578089010592464"><ele>538.0</ele><time>2026-04-25T14:38:07.013Z</time></trkpt><trkpt lat="44.537700564735296" lon="10.577998067516823"><ele>538.0</ele><time>2026-04-25T14:38:08.013Z</time></trkpt><trkpt lat="44.53779285985852" lon="10.577917944543975"><ele>538.0</ele><time>2026-04-25T14:38:09.013Z</time></trkpt><trkpt lat="44.537867416669584" lon="10.577820434518483"><ele>538.0</ele><time>2026-04-25T14:38:10.013Z</time></trkpt><trkpt lat="44.537947457133825" lon="10.577725652428345"><ele>538.0</ele><time>2026-04-25T14:38:11.013Z</time></trkpt><trkpt lat="44.53802823689651" lon="10.577623589055706"><ele>535.1999999999999</ele><time>2026-04-25T14:38:12.013Z</time></trkpt><trkpt lat="44.53810135434802" lon="10.577523687241596"><ele>532.4</ele><time>2026-04-25T14:38:13.013Z</time></trkpt><trkpt lat="44.53817574205239" lon="10.577422991830515"><ele>529.5999999999999</ele><time>2026-04-25T14:38:14.013Z</time></trkpt><trkpt lat="44.53825638469289" lon="10.57732472126837"><ele>526.8</ele><time>2026-04-25T14:38:15.013Z</time></trkpt><trkpt lat="44.538343147576825" lon="10.577223342939241"><ele>524.0</ele><time>2026-04-25T14:38:16.013Z</time></trkpt><trkpt lat="44.538427603626616" lon="10.577116764796711"><ele>524.0</ele><time>2026-04-25T14:38:17.013Z</time></trkpt><trkpt lat="44.53850639180008" lon="10.577020266408555"><ele>524.0</ele><time>2026-04-25T14:38:18.013Z</time></trkpt><trkpt lat="44.53858737959857" lon="10.576917861567615"><ele>524.0</ele><time>2026-04-25T14:38:19.013Z</time></trkpt><trkpt lat="44.53866668210217" lon="10.576811308889596"><ele>524.0</ele><time>2026-04-25T14:38:20.013Z</time></trkpt><trkpt lat="44.538756055735405" lon="10.57671754961441"><ele>524.0</ele><time>2026-04-25T14:38:21.013Z</time></trkpt><trkpt lat="44.53885805695011" lon="10.57663004187433"><ele>522.75</ele><time>2026-04-25T14:38:22.013Z</time></trkpt><trkpt lat="44.53896832173772" lon="10.576552042329864"><ele>521.5</ele><time>2026-04-25T14:38:23.013Z</time></trkpt><trkpt lat="44.539076814616514" lon="10.576477322169339"><ele>520.25</ele><time>2026-04-25T14:38:24.013Z</time></trkpt><trkpt lat="44.53917859043659" lon="10.576403217273574"><ele>519.0</ele><time>2026-04-25T14:38:25.013Z</time></trkpt><trkpt lat="44.53928306567548" lon="10.576350328565066"><ele>519.0</ele><time>2026-04-25T14:38:26.013Z</time></trkpt><trkpt lat="44.539389736859114" lon="10.576355173170652"><ele>519.0</ele><time>2026-04-25T14:38:27.013Z</time></trkpt><trkpt lat="44.53949757354963" lon="10.576327054050083"><ele>519.0</ele><time>2026-04-25T14:38:28.013Z</time></trkpt><trkpt lat="44.53960965242142" lon="10.576310718592287"><ele>519.0</ele><time>2026-04-25T14:38:29.013Z</time></trkpt><trkpt lat="44.539719888588124" lon="10.576275515188257"><ele>519.0</ele><time>2026-04-25T14:38:30.013Z</time></trkpt><trkpt lat="44.5398468703978" lon="10.576246841355738"><ele>518.25</ele><time>2026-04-25T14:38:31.013Z</time></trkpt><trkpt lat="44.53997130866691" lon="10.576170458911646"><ele>517.5</ele><time>2026-04-25T14:38:32.014Z</time></trkpt><trkpt lat="44.54010750943231" lon="10.576104696117916"><ele>516.75</ele><time>2026-04-25T14:38:33.014Z</time></trkpt><trkpt lat="44.5402319969444" lon="10.576026666771792"><ele>516.0</ele><time>2026-04-25T14:38:34.014Z</time></trkpt><trkpt lat="44.54033909627472" lon="10.575940899554288"><ele>512.6</ele><time>2026-04-25T14:38:35.014Z</time></trkpt><trkpt lat="44.54043120182805" lon="10.575852147869526"><ele>509.20000000000005</ele><time>2026-04-25T14:38:36.014Z</time></trkpt><trkpt lat="44.540513202840586" lon="10.575747525100182"><ele>505.79999999999995</ele><time>2026-04-25T14:38:37.014Z</time></trkpt><trkpt lat="44.54057098446175" lon="10.575621945972495"><ele>502.4</ele><time>2026-04-25T14:38:38.014Z</time></trkpt><trkpt lat="44.5406312866674" lon="10.575496286855518"><ele>499.0</ele><time>2026-04-25T14:38:39.014Z</time></trkpt><trkpt lat="44.54068172960987" lon="10.575373592412483"><ele>501.0</ele><time>2026-04-25T14:38:40.014Z</time></trkpt><trkpt lat="44.540718463530396" lon="10.575240277994588"><ele>503.0</ele><time>2026-04-25T14:38:41.014Z</time></trkpt><trkpt lat="44.54073260295205" lon="10.57510036328933"><ele>505.0</ele><time>2026-04-25T14:38:42.014Z</time></trkpt><trkpt lat="44.540721907793625" lon="10.574964798319977"><ele>507.0</ele><time>2026-04-25T14:38:43.014Z</time></trkpt><trkpt lat="44.540717112663884" lon="10.574824965276186"><ele>509.0</ele><time>2026-04-25T14:38:44.014Z</time></trkpt><trkpt lat="44.54072281768224" lon="10.574684195841149"><ele>509.0</ele><time>2026-04-25T14:38:45.014Z</time></trkpt><trkpt lat="44.54074899659379" lon="10.574566335747155"><ele>509.0</ele><time>2026-04-25T14:38:46.014Z</time></trkpt><trkpt lat="44.54080195707539" lon="10.574466368372818"><ele>509.0</ele><time>2026-04-25T14:38:47.014Z</time></trkpt><trkpt lat="44.540888802950555" lon="10.574389044132413"><ele>509.0</ele><time>2026-04-25T14:38:48.014Z</time></trkpt><trkpt lat="44.54099095939119" lon="10.574370332495903"><ele>509.0</ele><time>2026-04-25T14:38:49.014Z</time></trkpt><trkpt lat="44.54109226054708" lon="10.574398413470682"><ele>508.16666666666663</ele><time>2026-04-25T14:38:50.014Z</time></trkpt><trkpt lat="44.54118113646829" lon="10.574465868173975"><ele>507.3333333333333</ele><time>2026-04-25T14:38:51.014Z</time></trkpt><trkpt lat="44.541259994309655" lon="10.574540912208892"><ele>506.5</ele><time>2026-04-25T14:38:52.014Z</time></trkpt><trkpt lat="44.54132734916744" lon="10.574619299225464"><ele>505.66666666666663</ele><time>2026-04-25T14:38:53.014Z</time></trkpt><trkpt lat="44.54138639581944" lon="10.57469275133842"><ele>504.8333333333333</ele><time>2026-04-25T14:38:54.014Z</time></trkpt><trkpt lat="44.541446520098205" lon="10.574778005737967"><ele>504.0</ele><time>2026-04-25T14:38:55.014Z</time></trkpt><trkpt lat="44.541506431621386" lon="10.574859792767512"><ele>504.0</ele><time>2026-04-25T14:38:56.014Z</time></trkpt><trkpt lat="44.541574286692374" lon="10.574944016934248"><ele>504.0</ele><time>2026-04-25T14:38:57.014Z</time></trkpt><trkpt lat="44.541656420265944" lon="10.574999548109512"><ele>504.0</ele><time>2026-04-25T14:38:58.014Z</time></trkpt><trkpt lat="44.54174572889684" lon="10.575031248422839"><ele>504.0</ele><time>2026-04-25T14:38:59.014Z</time></trkpt><trkpt lat="44.54183050694291" lon="10.575059104685126"><ele>504.0</ele><time>2026-04-25T14:39:00.014Z</time></trkpt><trkpt lat="44.541915508396364" lon="10.575055223649377"><ele>504.0</ele><time>2026-04-25T14:39:01.014Z</time></trkpt><trkpt lat="44.5420039482656" lon="10.575049332535217"><ele>504.1666666666667</ele><time>2026-04-25T14:39:02.014Z</time></trkpt><trkpt lat="44.54209092653995" lon="10.575036385523019"><ele>504.33333333333337</ele><time>2026-04-25T14:39:03.013Z</time></trkpt><trkpt lat="44.54216796405038" lon="10.575012056498567"><ele>504.5</ele><time>2026-04-25T14:39:04.012Z</time></trkpt><trkpt lat="44.542237453958435" lon="10.574964101183708"><ele>504.6666666666667</ele><time>2026-04-25T14:39:05.012Z</time></trkpt><trkpt lat="44.54230176825422" lon="10.574894741536486"><ele>504.83333333333337</ele><time>2026-04-25T14:39:06.013Z</time></trkpt><trkpt lat="44.54235682616944" lon="10.574798730031064"><ele>505.0</ele><time>2026-04-25T14:39:07.013Z</time></trkpt><trkpt lat="44.54239063967202" lon="10.574690852773122"><ele>505.0</ele><time>2026-04-25T14:39:08.013Z</time></trkpt><trkpt lat="44.542416098537714" lon="10.574572817656952"><ele>505.0</ele><time>2026-04-25T14:39:09.013Z</time></trkpt><trkpt lat="44.54244569641192" lon="10.5744497682306"><ele>505.0</ele><time>2026-04-25T14:39:10.012Z</time></trkpt><trkpt lat="44.54250568929625" lon="10.574351018679442"><ele>505.0</ele><time>2026-04-25T14:39:11.012Z</time></trkpt><trkpt lat="44.542547273283425" lon="10.574238797080993"><ele>505.0</ele><time>2026-04-25T14:39:12.012Z</time></trkpt><trkpt lat="44.5426025128529" lon="10.574143348846953"><ele>504.4</ele><time>2026-04-25T14:39:13.012Z</time></trkpt><trkpt lat="44.5426779197222" lon="10.574057305530578"><ele>503.8</ele><time>2026-04-25T14:39:14.012Z</time></trkpt><trkpt lat="44.542735528979904" lon="10.573968009097666"><ele>503.20000000000005</ele><time>2026-04-25T14:39:15.013Z</time></trkpt><trkpt lat="44.54281737425061" lon="10.573900576883037"><ele>502.6</ele><time>2026-04-25T14:39:16.013Z</time></trkpt><trkpt lat="44.54292260462702" lon="10.573897936334818"><ele>502.0</ele><time>2026-04-25T14:39:17.013Z</time></trkpt><trkpt lat="44.54302302679179" lon="10.57389044899206"><ele>502.0</ele><time>2026-04-25T14:39:18.013Z</time></trkpt><trkpt lat="44.543118808969346" lon="10.573915637264147"><ele>502.00000000000006</ele><time>2026-04-25T14:39:19.013Z</time></trkpt><trkpt lat="44.54320853489759" lon="10.57395734546375"><ele>502.00000000000006</ele><time>2026-04-25T14:39:20.013Z</time></trkpt><trkpt lat="44.543295771249504" lon="10.57402248866887"><ele>502.0</ele><time>2026-04-25T14:39:21.013Z</time></trkpt><trkpt lat="44.54336952741019" lon="10.574110215255862"><ele>502.0</ele><time>2026-04-25T14:39:22.013Z</time></trkpt><trkpt lat="44.54343695556563" lon="10.57421262895864"><ele>502.0</ele><time>2026-04-25T14:39:23.013Z</time></trkpt><trkpt lat="44.54349081220205" lon="10.574328225552978"><ele>502.00000000000006</ele><time>2026-04-25T14:39:24.013Z</time></trkpt><trkpt lat="44.54352464393166" lon="10.574455125113735"><ele>502.00000000000006</ele><time>2026-04-25T14:39:25.013Z</time></trkpt><trkpt lat="44.54355246148533" lon="10.574596128273523"><ele>502.0</ele><time>2026-04-25T14:39:26.013Z</time></trkpt><trkpt lat="44.54358094738251" lon="10.574734609035156"><ele>502.0</ele><time>2026-04-25T14:39:27.013Z</time></trkpt><trkpt lat="44.54363642990602" lon="10.574868005999232"><ele>501.6</ele><time>2026-04-25T14:39:28.013Z</time></trkpt><trkpt lat="44.543692653535764" lon="10.57499874354357"><ele>501.20000000000005</ele><time>2026-04-25T14:39:29.013Z</time></trkpt><trkpt lat="44.543765941812744" lon="10.575115205780657"><ele>500.8</ele><time>2026-04-25T14:39:30.013Z</time></trkpt><trkpt lat="44.54385030952678" lon="10.57521467185773"><ele>500.4</ele><time>2026-04-25T14:39:31.013Z</time></trkpt><trkpt lat="44.54393219051667" lon="10.575313728200472"><ele>500.0</ele><time>2026-04-25T14:39:32.013Z</time></trkpt><trkpt lat="44.54401818342093" lon="10.575412723443367"><ele>497.0</ele><time>2026-04-25T14:39:33.013Z</time></trkpt><trkpt lat="44.54410418134438" lon="10.575499163531092"><ele>494.0</ele><time>2026-04-25T14:39:34.013Z</time></trkpt><trkpt lat="44.54419059732474" lon="10.575593129683273"><ele>491.0</ele><time>2026-04-25T14:39:35.013Z</time></trkpt><trkpt lat="44.544269930903" lon="10.575704113600617"><ele>488.0</ele><time>2026-04-25T14:39:36.013Z</time></trkpt><trkpt lat="44.54434182110095" lon="10.57582046447924"><ele>485.0</ele><time>2026-04-25T14:39:37.013Z</time></trkpt><trkpt lat="44.54440916599232" lon="10.57592824815194"><ele>485.0</ele><time>2026-04-25T14:39:38.013Z</time></trkpt><trkpt lat="44.54448049053624" lon="10.576022315534535"><ele>485.0</ele><time>2026-04-25T14:39:39.013Z</time></trkpt><trkpt lat="44.544573901343455" lon="10.576086478249916"><ele>485.0</ele><time>2026-04-25T14:39:40.013Z</time></trkpt><trkpt lat="44.54467855679134" lon="10.576103738097771"><ele>485.0</ele><time>2026-04-25T14:39:41.013Z</time></trkpt><trkpt lat="44.5447867798933" lon="10.576105347936736"><ele>485.0</ele><time>2026-04-25T14:39:42.013Z</time></trkpt><trkpt lat="44.54488332397656" lon="10.576109579638542"><ele>484.0</ele><time>2026-04-25T14:39:43.013Z</time></trkpt><trkpt lat="44.54497559865149" lon="10.576172731358708"><ele>483.0</ele><time>2026-04-25T14:39:44.013Z</time></trkpt><trkpt lat="44.54505875101306" lon="10.576254931421607"><ele>482.0</ele><time>2026-04-25T14:39:45.013Z</time></trkpt><trkpt lat="44.54513734969693" lon="10.576354376316996"><ele>481.0</ele><time>2026-04-25T14:39:46.013Z</time></trkpt><trkpt lat="44.54521660978258" lon="10.576457205697182"><ele>480.0</ele><time>2026-04-25T14:39:47.013Z</time></trkpt><trkpt lat="44.54529588678956" lon="10.576559242055952"><ele>482.75</ele><time>2026-04-25T14:39:48.013Z</time></trkpt><trkpt lat="44.54538962120525" lon="10.576638686360624"><ele>485.5</ele><time>2026-04-25T14:39:49.013Z</time></trkpt><trkpt lat="44.54548388384185" lon="10.576719934855584"><ele>488.25</ele><time>2026-04-25T14:39:50.014Z</time></trkpt><trkpt lat="44.54560284895236" lon="10.576726171598828"><ele>491.0</ele><time>2026-04-25T14:39:51.014Z</time></trkpt><trkpt lat="44.545718426877706" lon="10.576693496628174"><ele>491.0</ele><time>2026-04-25T14:39:52.014Z</time></trkpt><trkpt lat="44.545819577716756" lon="10.576662525920495"><ele>491.0</ele><time>2026-04-25T14:39:53.014Z</time></trkpt><trkpt lat="44.54591990560695" lon="10.576615946199983"><ele>491.0</ele><time>2026-04-25T14:39:54.014Z</time></trkpt><trkpt lat="44.54602335782449" lon="10.576558937464851"><ele>491.0</ele><time>2026-04-25T14:39:55.014Z</time></trkpt><trkpt lat="44.54612228357229" lon="10.576494752957519"><ele>491.0</ele><time>2026-04-25T14:39:56.014Z</time></trkpt><trkpt lat="44.54622005806498" lon="10.576426456195312"><ele>491.6</ele><time>2026-04-25T14:39:57.014Z</time></trkpt><trkpt lat="44.54631083500479" lon="10.576324701008794"><ele>492.20000000000005</ele><time>2026-04-25T14:39:58.014Z</time></trkpt><trkpt lat="44.54639359288727" lon="10.576228513198274"><ele>492.79999999999995</ele><time>2026-04-25T14:39:59.014Z</time></trkpt><trkpt lat="44.54647543853652" lon="10.576128141765889"><ele>493.4</ele><time>2026-04-25T14:40:00.014Z</time></trkpt><trkpt lat="44.546538034333814" lon="10.576027476378387"><ele>494.0</ele><time>2026-04-25T14:40:01.014Z</time></trkpt><trkpt lat="44.54658372347969" lon="10.575911256711862"><ele>493.99999999999994</ele><time>2026-04-25T14:40:02.014Z</time></trkpt><trkpt lat="44.546653986733936" lon="10.57583509647273"><ele>494.0</ele><time>2026-04-25T14:40:03.014Z</time></trkpt><trkpt lat="44.54672146538451" lon="10.575785895824053"><ele>494.0</ele><time>2026-04-25T14:40:04.014Z</time></trkpt><trkpt lat="44.54678327630578" lon="10.575854282947335"><ele>494.0</ele><time>2026-04-25T14:40:05.014Z</time></trkpt><trkpt lat="44.546827752525175" lon="10.575933093377724"><ele>493.99999999999994</ele><time>2026-04-25T14:40:06.014Z</time></trkpt><trkpt lat="44.54683872014254" lon="10.57609722055683"><ele>494.0</ele><time>2026-04-25T14:40:07.014Z</time></trkpt><trkpt lat="44.54686603028952" lon="10.576254391556148"><ele>493.99999999999994</ele><time>2026-04-25T14:40:08.014Z</time></trkpt><trkpt lat="44.5468755163478" lon="10.576381885102757"><ele>494.0</ele><time>2026-04-25T14:40:09.014Z</time></trkpt><trkpt lat="44.546917068007915" lon="10.576452548006719"><ele>494.0</ele><time>2026-04-25T14:40:10.014Z</time></trkpt><trkpt lat="44.54698241353628" lon="10.576490526275673"><ele>494.0</ele><time>2026-04-25T14:40:11.014Z</time></trkpt><trkpt lat="44.54708201803555" lon="10.576440913705968"><ele>493.99999999999994</ele><time>2026-04-25T14:40:12.014Z</time></trkpt><trkpt lat="44.54715926831505" lon="10.57632497705443"><ele>494.0</ele><time>2026-04-25T14:40:13.014Z</time></trkpt><trkpt lat="44.547228403907035" lon="10.576184894208703"><ele>491.5</ele><time>2026-04-25T14:40:14.014Z</time></trkpt><trkpt lat="44.54728617225936" lon="10.57603843920899"><ele>489.0</ele><time>2026-04-25T14:40:15.014Z</time></trkpt><trkpt lat="44.547336079642946" lon="10.575889211479165"><ele>486.5</ele><time>2026-04-25T14:40:16.014Z</time></trkpt><trkpt lat="44.54737633411593" lon="10.57574114582127"><ele>484.0</ele><time>2026-04-25T14:40:17.014Z</time></trkpt><trkpt lat="44.547415539795516" lon="10.575609632350414"><ele>484.0</ele><time>2026-04-25T14:40:18.014Z</time></trkpt><trkpt lat="44.547448019521404" lon="10.575471339404002"><ele>484.0</ele><time>2026-04-25T14:40:19.014Z</time></trkpt><trkpt lat="44.54750402429619" lon="10.575342490144385"><ele>484.0</ele><time>2026-04-25T14:40:20.014Z</time></trkpt><trkpt lat="44.54754538525675" lon="10.575209134520328"><ele>484.0</ele><time>2026-04-25T14:40:21.014Z</time></trkpt><trkpt lat="44.54759368289526" lon="10.57506930237469"><ele>484.0</ele><time>2026-04-25T14:40:22.014Z</time></trkpt><trkpt lat="44.54765062692525" lon="10.574938595024223"><ele>481.0</ele><time>2026-04-25T14:40:23.014Z</time></trkpt><trkpt lat="44.54771594273216" lon="10.57480945038899"><ele>478.0</ele><time>2026-04-25T14:40:24.014Z</time></trkpt><trkpt lat="44.547781373830986" lon="10.574680257625184"><ele>475.0</ele><time>2026-04-25T14:40:25.014Z</time></trkpt><trkpt lat="44.54785242466043" lon="10.574580765301882"><ele>472.0</ele><time>2026-04-25T14:40:26.014Z</time></trkpt><trkpt lat="44.54791381829979" lon="10.574457761394612"><ele>469.0</ele><time>2026-04-25T14:40:27.014Z</time></trkpt><trkpt lat="44.54797933844514" lon="10.574352205748555"><ele>467.79999999999995</ele><time>2026-04-25T14:40:28.014Z</time></trkpt><trkpt lat="44.54804805847393" lon="10.574235096344028"><ele>466.59999999999997</ele><time>2026-04-25T14:40:29.014Z</time></trkpt><trkpt lat="44.54814666297664" lon="10.574163590884897"><ele>465.4</ele><time>2026-04-25T14:40:30.014Z</time></trkpt><trkpt lat="44.54824287893069" lon="10.574093849528078"><ele>464.2</ele><time>2026-04-25T14:40:31.014Z</time></trkpt><trkpt lat="44.548346297547" lon="10.57403305457755"><ele>463.0</ele><time>2026-04-25T14:40:32.014Z</time></trkpt><trkpt lat="44.54845222688406" lon="10.573981565422011"><ele>463.0</ele><time>2026-04-25T14:40:33.014Z</time></trkpt><trkpt lat="44.54856316882412" lon="10.573939580469316"><ele>463.0</ele><time>2026-04-25T14:40:34.014Z</time></trkpt><trkpt lat="44.54867694091246" lon="10.573916931776902"><ele>463.0</ele><time>2026-04-25T14:40:35.014Z</time></trkpt><trkpt lat="44.54878823427131" lon="10.573902814245324"><ele>463.0</ele><time>2026-04-25T14:40:36.014Z</time></trkpt><trkpt lat="44.548905444201765" lon="10.573889728443882"><ele>462.75</ele><time>2026-04-25T14:40:37.014Z</time></trkpt><trkpt lat="44.549017563161364" lon="10.573856333602475"><ele>462.5</ele><time>2026-04-25T14:40:38.015Z</time></trkpt><trkpt lat="44.54913222824921" lon="10.57385756490275"><ele>462.25</ele><time>2026-04-25T14:40:39.015Z</time></trkpt><trkpt lat="44.549245801353095" lon="10.573872528406438"><ele>462.0</ele><time>2026-04-25T14:40:40.015Z</time></trkpt><trkpt lat="44.549354554538226" lon="10.573861354432598"><ele>462.0</ele><time>2026-04-25T14:40:41.015Z</time></trkpt><trkpt lat="44.549464797736114" lon="10.573883656161021"><ele>462.00000000000006</ele><time>2026-04-25T14:40:42.015Z</time></trkpt><trkpt lat="44.549573405314334" lon="10.573907822346943"><ele>462.00000000000006</ele><time>2026-04-25T14:40:43.015Z</time></trkpt><trkpt lat="44.549681997029666" lon="10.573937220589789"><ele>462.0</ele><time>2026-04-25T14:40:44.015Z</time></trkpt><trkpt lat="44.54978734899059" lon="10.57396849894559"><ele>462.0</ele><time>2026-04-25T14:40:45.015Z</time></trkpt><trkpt lat="44.54987470329406" lon="10.57402771949712"><ele>460.20000000000005</ele><time>2026-04-25T14:40:46.015Z</time></trkpt><trkpt lat="44.54997217104621" lon="10.574092762189002"><ele>458.40000000000003</ele><time>2026-04-25T14:40:47.015Z</time></trkpt><trkpt lat="44.55008084762594" lon="10.574089405521805"><ele>456.59999999999997</ele><time>2026-04-25T14:40:48.015Z</time></trkpt><trkpt lat="44.55017153019733" lon="10.574065918725024"><ele>454.79999999999995</ele><time>2026-04-25T14:40:49.015Z</time></trkpt><trkpt lat="44.55027938688566" lon="10.57406084156514"><ele>453.0</ele><time>2026-04-25T14:40:50.015Z</time></trkpt><trkpt lat="44.55036740699359" lon="10.574125097851791"><ele>452.5</ele><time>2026-04-25T14:40:51.015Z</time></trkpt><trkpt lat="44.55044788148269" lon="10.574168182714855"><ele>452.0</ele><time>2026-04-25T14:40:52.015Z</time></trkpt><trkpt lat="44.55052798966557" lon="10.574211933095649"><ele>451.5</ele><time>2026-04-25T14:40:53.015Z</time></trkpt><trkpt lat="44.550601497502996" lon="10.574268170340389"><ele>451.0</ele><time>2026-04-25T14:40:54.015Z</time></trkpt><trkpt lat="44.55066197479671" lon="10.574350411735837"><ele>450.5</ele><time>2026-04-25T14:40:55.015Z</time></trkpt><trkpt lat="44.55071525183178" lon="10.574447543991827"><ele>450.0</ele><time>2026-04-25T14:40:56.015Z</time></trkpt><trkpt lat="44.55076250984444" lon="10.574568684848298"><ele>450.0</ele><time>2026-04-25T14:40:57.015Z</time></trkpt><trkpt lat="44.5508118590555" lon="10.574692956652411"><ele>450.0</ele><time>2026-04-25T14:40:58.015Z</time></trkpt><trkpt lat="44.55086158079822" lon="10.574819957576995"><ele>450.0</ele><time>2026-04-25T14:40:59.015Z</time></trkpt><trkpt lat="44.55091059237191" lon="10.574940617946629"><ele>450.0</ele><time>2026-04-25T14:41:00.015Z</time></trkpt><trkpt lat="44.55096108961811" lon="10.575056505451116"><ele>450.0</ele><time>2026-04-25T14:41:01.015Z</time></trkpt><trkpt lat="44.55103369088218" lon="10.575151992449053"><ele>450.0</ele><time>2026-04-25T14:41:02.015Z</time></trkpt><trkpt lat="44.551104586205966" lon="10.575240457760417"><ele>450.0</ele><time>2026-04-25T14:41:03.015Z</time></trkpt><trkpt lat="44.55120111311937" lon="10.575285219924037"><ele>450.0</ele><time>2026-04-25T14:41:04.015Z</time></trkpt><trkpt lat="44.55131837409842" lon="10.575280881423542"><ele>450.0</ele><time>2026-04-25T14:41:05.015Z</time></trkpt><trkpt lat="44.55141753621497" lon="10.575233676944878"><ele>450.0</ele><time>2026-04-25T14:41:06.015Z</time></trkpt><trkpt lat="44.5515085655769" lon="10.575128266236126"><ele>444.0</ele><time>2026-04-25T14:41:07.015Z</time></trkpt><trkpt lat="44.55158120591903" lon="10.574999453704814"><ele>438.0</ele><time>2026-04-25T14:41:08.015Z</time></trkpt><trkpt lat="44.5516611988944" lon="10.574879780987088"><ele>432.0</ele><time>2026-04-25T14:41:09.014Z</time></trkpt><trkpt lat="44.551754733409076" lon="10.574769025366313"><ele>426.0</ele><time>2026-04-25T14:41:10.014Z</time></trkpt><trkpt lat="44.55182326375399" lon="10.574649222030109"><ele>426.0</ele><time>2026-04-25T14:41:11.014Z</time></trkpt><trkpt lat="44.55189866997285" lon="10.574522866596231"><ele>426.0</ele><time>2026-04-25T14:41:12.013Z</time></trkpt><trkpt lat="44.55197349821767" lon="10.574390216032427"><ele>426.0</ele><time>2026-04-25T14:41:13.014Z</time></trkpt><trkpt lat="44.552032211659935" lon="10.5742465449349"><ele>426.0</ele><time>2026-04-25T14:41:14.014Z</time></trkpt><trkpt lat="44.55207677907353" lon="10.57410299792483"><ele>427.0</ele><time>2026-04-25T14:41:15.014Z</time></trkpt><trkpt lat="44.55212432465612" lon="10.573967671436579"><ele>428.0</ele><time>2026-04-25T14:41:16.013Z</time></trkpt><trkpt lat="44.55216225138108" lon="10.573833337336751"><ele>429.0</ele><time>2026-04-25T14:41:17.013Z</time></trkpt><trkpt lat="44.5522006178112" lon="10.573699215496973"><ele>430.0</ele><time>2026-04-25T14:41:18.014Z</time></trkpt><trkpt lat="44.552239270731" lon="10.573573328512985"><ele>431.0</ele><time>2026-04-25T14:41:19.014Z</time></trkpt><trkpt lat="44.55227207923008" lon="10.573445784502505"><ele>431.0</ele><time>2026-04-25T14:41:20.014Z</time></trkpt><trkpt lat="44.552313038817694" lon="10.5733124729349"><ele>431.0</ele><time>2026-04-25T14:41:21.014Z</time></trkpt><trkpt lat="44.552358011036496" lon="10.573181120145973"><ele>431.0</ele><time>2026-04-25T14:41:22.014Z</time></trkpt><trkpt lat="44.552431838662045" lon="10.57304598807829"><ele>431.0</ele><time>2026-04-25T14:41:23.014Z</time></trkpt><trkpt lat="44.5524976605746" lon="10.572907484829779"><ele>431.0</ele><time>2026-04-25T14:41:24.014Z</time></trkpt><trkpt lat="44.552572234353406" lon="10.572761402679985"><ele>431.0</ele><time>2026-04-25T14:41:25.014Z</time></trkpt><trkpt lat="44.55265110667107" lon="10.572625955642703"><ele>431.0</ele><time>2026-04-25T14:41:26.014Z</time></trkpt><trkpt lat="44.55272829954402" lon="10.57250920535235"><ele>431.0</ele><time>2026-04-25T14:41:27.014Z</time></trkpt><trkpt lat="44.552800565258046" lon="10.572403534330832"><ele>431.0</ele><time>2026-04-25T14:41:28.014Z</time></trkpt><trkpt lat="44.552870840285216" lon="10.572305770951537"><ele>431.0</ele><time>2026-04-25T14:41:29.014Z</time></trkpt><trkpt lat="44.55293408494893" lon="10.572207997479858"><ele>430.99999999999994</ele><time>2026-04-25T14:41:30.014Z</time></trkpt><trkpt lat="44.55299999701304" lon="10.572120125625279"><ele>431.0</ele><time>2026-04-25T14:41:31.014Z</time></trkpt><trkpt lat="44.55306460569017" lon="10.572040464672545"><ele>431.0</ele><time>2026-04-25T14:41:32.014Z</time></trkpt><trkpt lat="44.55313097042007" lon="10.571964276082058"><ele>431.0</ele><time>2026-04-25T14:41:33.014Z</time></trkpt><trkpt lat="44.55319377523873" lon="10.571889655290514"><ele>430.99999999999994</ele><time>2026-04-25T14:41:34.014Z</time></trkpt><trkpt lat="44.553265550341976" lon="10.571828411990314"><ele>431.0</ele><time>2026-04-25T14:41:35.014Z</time></trkpt><trkpt lat="44.55334433198202" lon="10.571796503901735"><ele>430.99999999999994</ele><time>2026-04-25T14:41:36.014Z</time></trkpt><trkpt lat="44.553415791901145" lon="10.571760530439946"><ele>431.0</ele><time>2026-04-25T14:41:37.014Z</time></trkpt><trkpt lat="44.55349074955552" lon="10.571739538177637"><ele>431.0</ele><time>2026-04-25T14:41:38.014Z</time></trkpt><trkpt lat="44.55356754776159" lon="10.571737411250838"><ele>431.0</ele><time>2026-04-25T14:41:39.014Z</time></trkpt><trkpt lat="44.55364457955727" lon="10.571838282482586"><ele>430.99999999999994</ele><time>2026-04-25T14:41:40.014Z</time></trkpt><trkpt lat="44.55373502749805" lon="10.571913007619825"><ele>431.0</ele><time>2026-04-25T14:41:41.014Z</time></trkpt><trkpt lat="44.55381737193884" lon="10.571985085702787"><ele>430.8</ele><time>2026-04-25T14:41:42.014Z</time></trkpt><trkpt lat="44.553900406212335" lon="10.572054269433924"><ele>430.6</ele><time>2026-04-25T14:41:43.014Z</time></trkpt><trkpt lat="44.55399338937114" lon="10.572102228853852"><ele>430.4</ele><time>2026-04-25T14:41:44.014Z</time></trkpt><trkpt lat="44.55407095151413" lon="10.57219057370946"><ele>430.2</ele><time>2026-04-25T14:41:45.014Z</time></trkpt><trkpt lat="44.55416615399522" lon="10.572259331991676"><ele>430.0</ele><time>2026-04-25T14:41:46.014Z</time></trkpt><trkpt lat="44.55426011225472" lon="10.57232977536753"><ele>430.0</ele><time>2026-04-25T14:41:47.014Z</time></trkpt><trkpt lat="44.55436022802959" lon="10.572398472077863"><ele>430.0</ele><time>2026-04-25T14:41:48.014Z</time></trkpt><trkpt lat="44.55446274295251" lon="10.57247222520099"><ele>430.0</ele><time>2026-04-25T14:41:49.014Z</time></trkpt><trkpt lat="44.55455879568312" lon="10.572547309643"><ele>430.0</ele><time>2026-04-25T14:41:50.014Z</time></trkpt><trkpt lat="44.55464804160923" lon="10.572620613201357"><ele>430.0</ele><time>2026-04-25T14:41:51.014Z</time></trkpt><trkpt lat="44.554739053734906" lon="10.572683646654745"><ele>430.50000000000006</ele><time>2026-04-25T14:41:52.014Z</time></trkpt><trkpt lat="44.5548217206926" lon="10.57275963751059"><ele>431.0</ele><time>2026-04-25T14:41:53.014Z</time></trkpt><trkpt lat="44.554899269859845" lon="10.572824495081928"><ele>431.5</ele><time>2026-04-25T14:41:54.014Z</time></trkpt><trkpt lat="44.5549765532025" lon="10.572886755160255"><ele>432.0</ele><time>2026-04-25T14:41:55.014Z</time></trkpt><trkpt lat="44.55504936216426" lon="10.572941117748076"><ele>432.50000000000006</ele><time>2026-04-25T14:41:56.014Z</time></trkpt><trkpt lat="44.555119172023716" lon="10.572987652183514"><ele>433.0</ele><time>2026-04-25T14:41:57.014Z</time></trkpt><trkpt lat="44.55517906224059" lon="10.573061602402085"><ele>433.00000000000006</ele><time>2026-04-25T14:41:58.014Z</time></trkpt><trkpt lat="44.555245542561536" lon="10.573095139193601"><ele>433.0</ele><time>2026-04-25T14:41:59.014Z</time></trkpt><trkpt lat="44.555357240437466" lon="10.573137306143698"><ele>433.0</ele><time>2026-04-25T14:42:01.014Z</time></trkpt><trkpt lat="44.555417650050266" lon="10.573175517668805"><ele>433.0</ele><time>2026-04-25T14:42:02.014Z</time></trkpt><trkpt lat="44.55547615823901" lon="10.57322081733194"><ele>433.00000000000006</ele><time>2026-04-25T14:42:03.014Z</time></trkpt><trkpt lat="44.55557531702791" lon="10.573306502468439"><ele>433.0</ele><time>2026-04-25T14:42:05.014Z</time></trkpt><trkpt lat="44.555631698374675" lon="10.57335949514502"><ele>432.99999999999994</ele><time>2026-04-25T14:42:06.014Z</time></trkpt><trkpt lat="44.55568517235369" lon="10.573418540200437"><ele>433.0</ele><time>2026-04-25T14:42:07.014Z</time></trkpt><trkpt lat="44.555739657823665" lon="10.573478455432955"><ele>433.0</ele><time>2026-04-25T14:42:08.015Z</time></trkpt><trkpt lat="44.55579266130091" lon="10.573542855726325"><ele>433.0</ele><time>2026-04-25T14:42:09.015Z</time></trkpt><trkpt lat="44.555840622082634" lon="10.573615771640481"><ele>433.0</ele><time>2026-04-25T14:42:10.015Z</time></trkpt><trkpt lat="44.555909507323264" lon="10.573665089589381"><ele>432.99999999999994</ele><time>2026-04-25T14:42:11.015Z</time></trkpt><trkpt lat="44.55597754623253" lon="10.573715087679169"><ele>433.0</ele><time>2026-04-25T14:42:12.015Z</time></trkpt><trkpt lat="44.55604063112999" lon="10.57377360951368"><ele>432.00000000000006</ele><time>2026-04-25T14:42:13.015Z</time></trkpt><trkpt lat="44.5561160028113" lon="10.57382074936265"><ele>431.0</ele><time>2026-04-25T14:42:14.015Z</time></trkpt><trkpt lat="44.55618235969115" lon="10.573865027274763"><ele>430.0</ele><time>2026-04-25T14:42:15.015Z</time></trkpt><trkpt lat="44.55623887588109" lon="10.573932448763598"><ele>429.0</ele><time>2026-04-25T14:42:16.015Z</time></trkpt><trkpt lat="44.55629937696946" lon="10.573969509479312"><ele>428.00000000000006</ele><time>2026-04-25T14:42:17.015Z</time></trkpt><trkpt lat="44.55635877559286" lon="10.574009234369573"><ele>427.0</ele><time>2026-04-25T14:42:18.015Z</time></trkpt><trkpt lat="44.55648059059715" lon="10.574061493408315"><ele>427.0</ele><time>2026-04-25T14:42:20.015Z</time></trkpt><trkpt lat="44.55654387601662" lon="10.574089906139234"><ele>427.00000000000006</ele><time>2026-04-25T14:42:21.015Z</time></trkpt><trkpt lat="44.55664849688357" lon="10.574141092549745"><ele>427.00000000000006</ele><time>2026-04-25T14:42:23.015Z</time></trkpt><trkpt lat="44.55674105938887" lon="10.574189297604574"><ele>427.0</ele><time>2026-04-25T14:42:25.015Z</time></trkpt><trkpt lat="44.55683628644513" lon="10.574220275631319"><ele>427.0</ele><time>2026-04-25T14:42:27.015Z</time></trkpt><trkpt lat="44.55693680777893" lon="10.574255210106486"><ele>427.0</ele><time>2026-04-25T14:42:29.015Z</time></trkpt><trkpt lat="44.55703273806541" lon="10.574311774286267"><ele>427.00000000000006</ele><time>2026-04-25T14:42:31.015Z</time></trkpt><trkpt lat="44.55714414590087" lon="10.57432646411413"><ele>427.00000000000006</ele><time>2026-04-25T14:42:33.015Z</time></trkpt><trkpt lat="44.55720826427315" lon="10.574375197504871"><ele>427.0</ele><time>2026-04-25T14:42:34.015Z</time></trkpt><trkpt lat="44.55727427916293" lon="10.57438186569047"><ele>427.0</ele><time>2026-04-25T14:42:35.015Z</time></trkpt><trkpt lat="44.55738508870926" lon="10.574406251500655"><ele>427.1666666666667</ele><time>2026-04-25T14:42:37.015Z</time></trkpt><trkpt lat="44.55748890125844" lon="10.57443979118263"><ele>427.33333333333337</ele><time>2026-04-25T14:42:39.015Z</time></trkpt><trkpt lat="44.557558333488004" lon="10.574474777538038"><ele>427.5</ele><time>2026-04-25T14:42:40.015Z</time></trkpt><trkpt lat="44.557627322252415" lon="10.574491926806411"><ele>427.66666666666663</ele><time>2026-04-25T14:42:41.015Z</time></trkpt><trkpt lat="44.55770326689776" lon="10.57450215349075"><ele>427.8333333333333</ele><time>2026-04-25T14:42:42.015Z</time></trkpt><trkpt lat="44.55778826486688" lon="10.574528608036353"><ele>428.0</ele><time>2026-04-25T14:42:43.015Z</time></trkpt><trkpt lat="44.55787553236853" lon="10.574559359165631"><ele>428.99999999999994</ele><time>2026-04-25T14:42:44.015Z</time></trkpt><trkpt lat="44.55796977019005" lon="10.574576249857213"><ele>430.0</ele><time>2026-04-25T14:42:45.015Z</time></trkpt><trkpt lat="44.558052673436215" lon="10.574601377118467"><ele>431.0</ele><time>2026-04-25T14:42:46.015Z</time></trkpt><trkpt lat="44.5581344896937" lon="10.574630405231263"><ele>432.0</ele><time>2026-04-25T14:42:47.015Z</time></trkpt><trkpt lat="44.55821568528009" lon="10.574664420215262"><ele>432.99999999999994</ele><time>2026-04-25T14:42:48.015Z</time></trkpt><trkpt lat="44.558293470960734" lon="10.574696641611146"><ele>434.0</ele><time>2026-04-25T14:42:49.015Z</time></trkpt><trkpt lat="44.55837131161239" lon="10.574736088323872"><ele>433.99999999999994</ele><time>2026-04-25T14:42:50.015Z</time></trkpt><trkpt lat="44.558439495318325" lon="10.574771217975336"><ele>434.0</ele><time>2026-04-25T14:42:51.015Z</time></trkpt><trkpt lat="44.55851124551996" lon="10.574810443655357"><ele>434.0</ele><time>2026-04-25T14:42:52.015Z</time></trkpt><trkpt lat="44.558584923797234" lon="10.574847529283115"><ele>434.0</ele><time>2026-04-25T14:42:53.015Z</time></trkpt><trkpt lat="44.55866426758763" lon="10.574888316841925"><ele>433.99999999999994</ele><time>2026-04-25T14:42:54.015Z</time></trkpt><trkpt lat="44.5587376984612" lon="10.57494155983422"><ele>434.0</ele><time>2026-04-25T14:42:55.015Z</time></trkpt><trkpt lat="44.55880584666507" lon="10.574986541368974"><ele>434.66666666666663</ele><time>2026-04-25T14:42:56.016Z</time></trkpt><trkpt lat="44.55887762477952" lon="10.575021925181668"><ele>435.3333333333333</ele><time>2026-04-25T14:42:57.016Z</time></trkpt><trkpt lat="44.55894654153431" lon="10.575064572206468"><ele>436.0</ele><time>2026-04-25T14:42:58.016Z</time></trkpt><trkpt lat="44.55902007869443" lon="10.575111854984016"><ele>436.66666666666663</ele><time>2026-04-25T14:42:59.016Z</time></trkpt><trkpt lat="44.55909302842879" lon="10.57516360675212"><ele>437.3333333333333</ele><time>2026-04-25T14:43:00.016Z</time></trkpt><trkpt lat="44.55916238258684" lon="10.575212169487829"><ele>438.0</ele><time>2026-04-25T14:43:01.016Z</time></trkpt><trkpt lat="44.55923367874356" lon="10.575265280996703"><ele>438.0</ele><time>2026-04-25T14:43:02.016Z</time></trkpt><trkpt lat="44.55930233639963" lon="10.575316192779619"><ele>438.0</ele><time>2026-04-25T14:43:03.016Z</time></trkpt><trkpt lat="44.55937201222305" lon="10.575350726770266"><ele>438.0</ele><time>2026-04-25T14:43:04.016Z</time></trkpt><trkpt lat="44.55946083941893" lon="10.575389377628682"><ele>438.0</ele><time>2026-04-25T14:43:05.016Z</time></trkpt><trkpt lat="44.55954456926737" lon="10.575451968445336"><ele>438.0</ele><time>2026-04-25T14:43:06.016Z</time></trkpt><trkpt lat="44.5596269786672" lon="10.575534564468619"><ele>438.0</ele><time>2026-04-25T14:43:07.016Z</time></trkpt><trkpt lat="44.55970732796103" lon="10.575622133940124"><ele>435.75</ele><time>2026-04-25T14:43:08.016Z</time></trkpt><trkpt lat="44.55979870799446" lon="10.575732836847815"><ele>433.5</ele><time>2026-04-25T14:43:09.016Z</time></trkpt><trkpt lat="44.559877625547415" lon="10.575863074803946"><ele>431.25</ele><time>2026-04-25T14:43:10.016Z</time></trkpt><trkpt lat="44.55997457406299" lon="10.575956758231186"><ele>429.0</ele><time>2026-04-25T14:43:11.016Z</time></trkpt><trkpt lat="44.560071788984644" lon="10.57603085758456"><ele>429.0</ele><time>2026-04-25T14:43:12.016Z</time></trkpt><trkpt lat="44.56016942014686" lon="10.576101519209312"><ele>429.0</ele><time>2026-04-25T14:43:13.016Z</time></trkpt><trkpt lat="44.56026673184379" lon="10.576174597345839"><ele>429.0</ele><time>2026-04-25T14:43:14.016Z</time></trkpt><trkpt lat="44.56038031414331" lon="10.57624437907036"><ele>429.0</ele><time>2026-04-25T14:43:15.015Z</time></trkpt><trkpt lat="44.560490939984774" lon="10.57630567771131"><ele>427.79999999999995</ele><time>2026-04-25T14:43:16.015Z</time></trkpt><trkpt lat="44.560590479990495" lon="10.576363433466662"><ele>426.59999999999997</ele><time>2026-04-25T14:43:17.015Z</time></trkpt><trkpt lat="44.56069683739336" lon="10.576414588505486"><ele>425.4</ele><time>2026-04-25T14:43:18.014Z</time></trkpt><trkpt lat="44.56079897762396" lon="10.576470288869285"><ele>424.2</ele><time>2026-04-25T14:43:19.015Z</time></trkpt><trkpt lat="44.56089148724085" lon="10.576540265640052"><ele>423.0</ele><time>2026-04-25T14:43:20.015Z</time></trkpt><trkpt lat="44.560962051833044" lon="10.576649814117573"><ele>423.0</ele><time>2026-04-25T14:43:21.015Z</time></trkpt><trkpt lat="44.56103764122729" lon="10.576761189366994"><ele>423.0</ele><time>2026-04-25T14:43:22.015Z</time></trkpt><trkpt lat="44.561106729717096" lon="10.576858947916167"><ele>423.0</ele><time>2026-04-25T14:43:23.015Z</time></trkpt><trkpt lat="44.56113077113643" lon="10.576968757566895"><ele>423.0</ele><time>2026-04-25T14:43:24.015Z</time></trkpt><trkpt lat="44.56108661615166" lon="10.577086669511713"><ele>423.0</ele><time>2026-04-25T14:43:25.015Z</time></trkpt><trkpt lat="44.56101592630853" lon="10.577179191875189"><ele>422.0</ele><time>2026-04-25T14:43:26.015Z</time></trkpt><trkpt lat="44.56093051782583" lon="10.577218851370775"><ele>421.0</ele><time>2026-04-25T14:43:27.015Z</time></trkpt><trkpt lat="44.560875247692756" lon="10.57726532153913"><ele>420.0</ele><time>2026-04-25T14:43:28.015Z</time></trkpt><trkpt lat="44.56087752776375" lon="10.577356555556781"><ele>419.0</ele><time>2026-04-25T14:43:29.015Z</time></trkpt><trkpt lat="44.560921081459746" lon="10.577445230935865"><ele>418.0</ele><time>2026-04-25T14:43:30.015Z</time></trkpt><trkpt lat="44.5610239838696" lon="10.577473520020376"><ele>417.0</ele><time>2026-04-25T14:43:31.015Z</time></trkpt><trkpt lat="44.561113513811655" lon="10.577475940756937"><ele>416.1666666666667</ele><time>2026-04-25T14:43:32.015Z</time></trkpt><trkpt lat="44.56121141138998" lon="10.577463957866414"><ele>415.33333333333337</ele><time>2026-04-25T14:43:33.015Z</time></trkpt><trkpt lat="44.561297684877054" lon="10.577494245230337"><ele>414.5</ele><time>2026-04-25T14:43:34.015Z</time></trkpt><trkpt lat="44.56138397578928" lon="10.57750849430657"><ele>413.6666666666667</ele><time>2026-04-25T14:43:35.015Z</time></trkpt><trkpt lat="44.56146535887989" lon="10.577524089705252"><ele>412.83333333333337</ele><time>2026-04-25T14:43:36.015Z</time></trkpt><trkpt lat="44.56154142306352" lon="10.57752374871007"><ele>412.0</ele><time>2026-04-25T14:43:37.015Z</time></trkpt><trkpt lat="44.561614640476975" lon="10.57756945686471"><ele>412.00000000000006</ele><time>2026-04-25T14:43:38.015Z</time></trkpt><trkpt lat="44.56167186317145" lon="10.577629634706238"><ele>412.0</ele><time>2026-04-25T14:43:39.015Z</time></trkpt><trkpt lat="44.561726433836114" lon="10.577696551071828"><ele>412.0</ele><time>2026-04-25T14:43:40.015Z</time></trkpt><trkpt lat="44.56179762595655" lon="10.577815074870886"><ele>412.0</ele><time>2026-04-25T14:43:42.015Z</time></trkpt><trkpt lat="44.56184667413737" lon="10.577906184266224"><ele>412.00000000000006</ele><time>2026-04-25T14:43:44.015Z</time></trkpt><trkpt lat="44.56189280127958" lon="10.577986560940555"><ele>412.0</ele><time>2026-04-25T14:43:46.015Z</time></trkpt><trkpt lat="44.56193433806132" lon="10.578065413358495"><ele>412.0</ele><time>2026-04-25T14:43:48.015Z</time></trkpt><trkpt lat="44.56198001892226" lon="10.5781315349583"><ele>412.0</ele><time>2026-04-25T14:43:50.015Z</time></trkpt><trkpt lat="44.56205309891872" lon="10.578272934327599"><ele>412.0</ele><time>2026-04-25T14:43:52.015Z</time></trkpt><trkpt lat="44.56210846235267" lon="10.578371886467488"><ele>412.0</ele><time>2026-04-25T14:43:53.015Z</time></trkpt><trkpt lat="44.5621619949001" lon="10.578469150714106"><ele>412.0</ele><time>2026-04-25T14:43:54.015Z</time></trkpt><trkpt lat="44.562222888870394" lon="10.578580685515828"><ele>411.25</ele><time>2026-04-25T14:43:55.015Z</time></trkpt><trkpt lat="44.56229543666594" lon="10.578718992941162"><ele>410.5</ele><time>2026-04-25T14:43:56.015Z</time></trkpt><trkpt lat="44.56235701369471" lon="10.578848502075996"><ele>409.75</ele><time>2026-04-25T14:43:57.015Z</time></trkpt><trkpt lat="44.56243250143282" lon="10.578974850468859"><ele>409.0</ele><time>2026-04-25T14:43:58.015Z</time></trkpt><trkpt lat="44.56248929672034" lon="10.579115502208236"><ele>409.0</ele><time>2026-04-25T14:43:59.015Z</time></trkpt><trkpt lat="44.56254694362853" lon="10.579250346800157"><ele>409.0</ele><time>2026-04-25T14:44:00.015Z</time></trkpt><trkpt lat="44.56260805328325" lon="10.579379909587354"><ele>409.0</ele><time>2026-04-25T14:44:01.015Z</time></trkpt><trkpt lat="44.56266868868851" lon="10.579505182797002"><ele>409.0</ele><time>2026-04-25T14:44:02.015Z</time></trkpt><trkpt lat="44.56273442768818" lon="10.57962337757676"><ele>409.0</ele><time>2026-04-25T14:44:03.015Z</time></trkpt><trkpt lat="44.562805341396185" lon="10.579737187307005"><ele>408.6</ele><time>2026-04-25T14:44:04.015Z</time></trkpt><trkpt lat="44.562891679492935" lon="10.579819780605323"><ele>408.2</ele><time>2026-04-25T14:44:05.015Z</time></trkpt><trkpt lat="44.56299201260087" lon="10.579877029615309"><ele>407.8</ele><time>2026-04-25T14:44:06.015Z</time></trkpt><trkpt lat="44.5630974685249" lon="10.579906103337468"><ele>407.40000000000003</ele><time>2026-04-25T14:44:07.015Z</time></trkpt><trkpt lat="44.56320402879569" lon="10.5799270748351"><ele>407.0</ele><time>2026-04-25T14:44:08.016Z</time></trkpt><trkpt lat="44.56330084685655" lon="10.579990244526153"><ele>407.0</ele><time>2026-04-25T14:44:09.016Z</time></trkpt><trkpt lat="44.563399467649454" lon="10.58004760780512"><ele>407.0</ele><time>2026-04-25T14:44:10.016Z</time></trkpt><trkpt lat="44.56349188712901" lon="10.58013361461285"><ele>407.0</ele><time>2026-04-25T14:44:11.016Z</time></trkpt><trkpt lat="44.56356814329555" lon="10.580244336800172"><ele>407.0</ele><time>2026-04-25T14:44:12.016Z</time></trkpt><trkpt lat="44.5636278378986" lon="10.580383988183279"><ele>407.0</ele><time>2026-04-25T14:44:13.016Z</time></trkpt><trkpt lat="44.563671906590216" lon="10.580536381028281"><ele>408.20000000000005</ele><time>2026-04-25T14:44:14.016Z</time></trkpt><trkpt lat="44.563725666958995" lon="10.580675686487588"><ele>409.4</ele><time>2026-04-25T14:44:15.016Z</time></trkpt><trkpt lat="44.56380212010458" lon="10.580789248167783"><ele>410.6</ele><time>2026-04-25T14:44:16.016Z</time></trkpt><trkpt lat="44.56389228519211" lon="10.580883224300024"><ele>411.79999999999995</ele><time>2026-04-25T14:44:17.016Z</time></trkpt><trkpt lat="44.563991901728784" lon="10.580957344887508"><ele>413.0</ele><time>2026-04-25T14:44:18.016Z</time></trkpt><trkpt lat="44.56407174317963" lon="10.581059387299614"><ele>413.0</ele><time>2026-04-25T14:44:19.016Z</time></trkpt><trkpt lat="44.564148574557215" lon="10.5811635780995"><ele>413.0</ele><time>2026-04-25T14:44:20.016Z</time></trkpt><trkpt lat="44.56421231510588" lon="10.581295041951554"><ele>413.0</ele><time>2026-04-25T14:44:21.016Z</time></trkpt><trkpt lat="44.56427527834368" lon="10.581432494051437"><ele>413.0</ele><time>2026-04-25T14:44:22.016Z</time></trkpt><trkpt lat="44.56434349962554" lon="10.581574434753456"><ele>414.2</ele><time>2026-04-25T14:44:23.016Z</time></trkpt><trkpt lat="44.56441931258468" lon="10.581705973418183"><ele>415.4</ele><time>2026-04-25T14:44:24.016Z</time></trkpt><trkpt lat="44.56450186365097" lon="10.581820658684224"><ele>416.59999999999997</ele><time>2026-04-25T14:44:25.016Z</time></trkpt><trkpt lat="44.5645857973965" lon="10.581911744674608"><ele>417.79999999999995</ele><time>2026-04-25T14:44:26.016Z</time></trkpt><trkpt lat="44.56467237852614" lon="10.581997113948052"><ele>419.0</ele><time>2026-04-25T14:44:27.016Z</time></trkpt><trkpt lat="44.56472188341068" lon="10.58214185413304"><ele>419.0</ele><time>2026-04-25T14:44:28.016Z</time></trkpt><trkpt lat="44.56476817913759" lon="10.582296470217466"><ele>419.0</ele><time>2026-04-25T14:44:29.016Z</time></trkpt><trkpt lat="44.56478905539349" lon="10.582458519504364"><ele>419.0</ele><time>2026-04-25T14:44:30.016Z</time></trkpt><trkpt lat="44.56478348321831" lon="10.582606927494096"><ele>419.0</ele><time>2026-04-25T14:44:31.016Z</time></trkpt><trkpt lat="44.56477887379929" lon="10.582761594051044"><ele>418.5</ele><time>2026-04-25T14:44:32.016Z</time></trkpt><trkpt lat="44.564783311329506" lon="10.582918922873409"><ele>418.0</ele><time>2026-04-25T14:44:33.016Z</time></trkpt><trkpt lat="44.56479912819653" lon="10.583075626421559"><ele>417.5</ele><time>2026-04-25T14:44:34.016Z</time></trkpt><trkpt lat="44.56482420979799" lon="10.583231742550439"><ele>417.0</ele><time>2026-04-25T14:44:35.016Z</time></trkpt><trkpt lat="44.56486420516392" lon="10.583397869941919"><ele>417.0</ele><time>2026-04-25T14:44:36.016Z</time></trkpt><trkpt lat="44.564914364891244" lon="10.583543667673325"><ele>417.0</ele><time>2026-04-25T14:44:37.016Z</time></trkpt><trkpt lat="44.564956639527615" lon="10.583688234799318"><ele>417.0</ele><time>2026-04-25T14:44:38.016Z</time></trkpt><trkpt lat="44.56499792071264" lon="10.583814696328249"><ele>417.0</ele><time>2026-04-25T14:44:39.016Z</time></trkpt><trkpt lat="44.56504631133191" lon="10.583951504787992"><ele>417.0</ele><time>2026-04-25T14:44:40.016Z</time></trkpt><trkpt lat="44.565087598519305" lon="10.584082835277382"><ele>417.0</ele><time>2026-04-25T14:44:41.016Z</time></trkpt><trkpt lat="44.56512905585246" lon="10.584214319411652"><ele>417.0</ele><time>2026-04-25T14:44:42.016Z</time></trkpt><trkpt lat="44.565176155278586" lon="10.584335005099582"><ele>417.0</ele><time>2026-04-25T14:44:43.016Z</time></trkpt><trkpt lat="44.5652432062087" lon="10.584440274068397"><ele>417.0</ele><time>2026-04-25T14:44:44.016Z</time></trkpt><trkpt lat="44.56532565601822" lon="10.584527936730497"><ele>417.0</ele><time>2026-04-25T14:44:45.016Z</time></trkpt><trkpt lat="44.56541322112403" lon="10.584601168107707"><ele>417.0</ele><time>2026-04-25T14:44:46.016Z</time></trkpt><trkpt lat="44.565510425466265" lon="10.584660561085224"><ele>417.0</ele><time>2026-04-25T14:44:47.016Z</time></trkpt><trkpt lat="44.56562997797738" lon="10.58471132156539"><ele>417.0</ele><time>2026-04-25T14:44:48.016Z</time></trkpt><trkpt lat="44.5657344293526" lon="10.584808482126594"><ele>417.0</ele><time>2026-04-25T14:44:49.016Z</time></trkpt><trkpt lat="44.56585546169667" lon="10.58488087463978"><ele>417.0</ele><time>2026-04-25T14:44:50.016Z</time></trkpt><trkpt lat="44.56596975477744" lon="10.58497029450719"><ele>417.0</ele><time>2026-04-25T14:44:51.016Z</time></trkpt><trkpt lat="44.56608042015339" lon="10.585059030784434"><ele>417.0</ele><time>2026-04-25T14:44:52.016Z</time></trkpt><trkpt lat="44.56617457653802" lon="10.585161371320327"><ele>417.0</ele><time>2026-04-25T14:44:53.016Z</time></trkpt><trkpt lat="44.56626485066806" lon="10.585273683554577"><ele>416.75</ele><time>2026-04-25T14:44:54.016Z</time></trkpt><trkpt lat="44.56633706342198" lon="10.585392870928787"><ele>416.5</ele><time>2026-04-25T14:44:55.016Z</time></trkpt><trkpt lat="44.56640679401978" lon="10.585514667373497"><ele>416.25</ele><time>2026-04-25T14:44:56.017Z</time></trkpt><trkpt lat="44.56646114213696" lon="10.58565628078789"><ele>416.0</ele><time>2026-04-25T14:44:57.017Z</time></trkpt><trkpt lat="44.56652619628533" lon="10.585787065426151"><ele>416.0</ele><time>2026-04-25T14:44:58.017Z</time></trkpt><trkpt lat="44.56660182141093" lon="10.58590179122819"><ele>416.0</ele><time>2026-04-25T14:44:59.017Z</time></trkpt><trkpt lat="44.56667665730658" lon="10.586014920456204"><ele>416.0</ele><time>2026-04-25T14:45:00.017Z</time></trkpt><trkpt lat="44.566775765424715" lon="10.586099896451627"><ele>416.0</ele><time>2026-04-25T14:45:01.017Z</time></trkpt><trkpt lat="44.56687790359314" lon="10.58617017430687"><ele>413.0</ele><time>2026-04-25T14:45:02.017Z</time></trkpt><trkpt lat="44.56698524114684" lon="10.586212570331979"><ele>410.0</ele><time>2026-04-25T14:45:03.017Z</time></trkpt><trkpt lat="44.56709452062435" lon="10.586219063858566"><ele>407.0</ele><time>2026-04-25T14:45:04.017Z</time></trkpt><trkpt lat="44.56721542405684" lon="10.58621634530336"><ele>404.0</ele><time>2026-04-25T14:45:05.017Z</time></trkpt><trkpt lat="44.56733745733496" lon="10.58618340499749"><ele>408.0</ele><time>2026-04-25T14:45:06.017Z</time></trkpt><trkpt lat="44.567456293207755" lon="10.586124429891482"><ele>412.0</ele><time>2026-04-25T14:45:07.017Z</time></trkpt><trkpt lat="44.56755939926644" lon="10.586070092143231"><ele>416.0</ele><time>2026-04-25T14:45:08.017Z</time></trkpt><trkpt lat="44.567663859908784" lon="10.586007275154417"><ele>420.0</ele><time>2026-04-25T14:45:09.017Z</time></trkpt><trkpt lat="44.5677565471907" lon="10.58594953375469"><ele>420.0</ele><time>2026-04-25T14:45:10.017Z</time></trkpt><trkpt lat="44.56783834796212" lon="10.585863953651833"><ele>420.0</ele><time>2026-04-25T14:45:11.017Z</time></trkpt><trkpt lat="44.56791334441788" lon="10.585769109204895"><ele>420.0</ele><time>2026-04-25T14:45:12.017Z</time></trkpt><trkpt lat="44.56797440566515" lon="10.585667974454427"><ele>420.0</ele><time>2026-04-25T14:45:13.017Z</time></trkpt><trkpt lat="44.56803053796742" lon="10.585559296071938"><ele>420.0</ele><time>2026-04-25T14:45:14.017Z</time></trkpt><trkpt lat="44.568075787137836" lon="10.585452500645856"><ele>418.0</ele><time>2026-04-25T14:45:15.017Z</time></trkpt><trkpt lat="44.56814367355069" lon="10.585357311165398"><ele>416.0</ele><time>2026-04-25T14:45:16.017Z</time></trkpt><trkpt lat="44.56823838068217" lon="10.585296721167841"><ele>414.0</ele><time>2026-04-25T14:45:17.017Z</time></trkpt><trkpt lat="44.568345032359595" lon="10.585257059635747"><ele>412.0</ele><time>2026-04-25T14:45:18.017Z</time></trkpt><trkpt lat="44.5684574596747" lon="10.585257103829479"><ele>410.0</ele><time>2026-04-25T14:45:19.017Z</time></trkpt><trkpt lat="44.56856876469499" lon="10.58527362391382"><ele>413.4</ele><time>2026-04-25T14:45:20.017Z</time></trkpt><trkpt lat="44.56867526310909" lon="10.585272177743468"><ele>416.8</ele><time>2026-04-25T14:45:21.016Z</time></trkpt><trkpt lat="44.56878228220259" lon="10.585262700045865"><ele>420.20000000000005</ele><time>2026-04-25T14:45:22.016Z</time></trkpt><trkpt lat="44.568893231790724" lon="10.585248503773617"><ele>423.6</ele><time>2026-04-25T14:45:23.016Z</time></trkpt><trkpt lat="44.569001068138206" lon="10.585220324817032"><ele>427.0</ele><time>2026-04-25T14:45:24.016Z</time></trkpt><trkpt lat="44.56910638214075" lon="10.585169430121693"><ele>427.0</ele><time>2026-04-25T14:45:25.016Z</time></trkpt><trkpt lat="44.569209874304235" lon="10.585108761672569"><ele>427.00000000000006</ele><time>2026-04-25T14:45:26.016Z</time></trkpt><trkpt lat="44.569312085570026" lon="10.585039294101303"><ele>427.00000000000006</ele><time>2026-04-25T14:45:27.016Z</time></trkpt><trkpt lat="44.56940260267786" lon="10.584959240315504"><ele>427.0</ele><time>2026-04-25T14:45:28.016Z</time></trkpt><trkpt lat="44.56949248184758" lon="10.584878732643915"><ele>427.0</ele><time>2026-04-25T14:45:29.016Z</time></trkpt><trkpt lat="44.569591210164596" lon="10.584817775854523"><ele>427.20000000000005</ele><time>2026-04-25T14:45:30.016Z</time></trkpt><trkpt lat="44.5696909000441" lon="10.584776876031892"><ele>427.40000000000003</ele><time>2026-04-25T14:45:31.016Z</time></trkpt><trkpt lat="44.56979185718982" lon="10.58478372165362"><ele>427.59999999999997</ele><time>2026-04-25T14:45:32.016Z</time></trkpt><trkpt lat="44.569893231439536" lon="10.584787470693117"><ele>427.79999999999995</ele><time>2026-04-25T14:45:33.016Z</time></trkpt><trkpt lat="44.570001677224944" lon="10.58480266390901"><ele>428.0</ele><time>2026-04-25T14:45:34.016Z</time></trkpt><trkpt lat="44.57010632793069" lon="10.584829450130492"><ele>428.0</ele><time>2026-04-25T14:45:35.016Z</time></trkpt><trkpt lat="44.570222442523054" lon="10.584858842469409"><ele>428.0</ele><time>2026-04-25T14:45:36.016Z</time></trkpt><trkpt lat="44.570340461397016" lon="10.58489632139285"><ele>428.0</ele><time>2026-04-25T14:45:37.016Z</time></trkpt><trkpt lat="44.57045606535617" lon="10.58494517428607"><ele>428.0</ele><time>2026-04-25T14:45:38.016Z</time></trkpt><trkpt lat="44.57057526940288" lon="10.58499578090448"><ele>429.79999999999995</ele><time>2026-04-25T14:45:39.016Z</time></trkpt><trkpt lat="44.57068598321662" lon="10.585026083755487"><ele>431.59999999999997</ele><time>2026-04-25T14:45:40.016Z</time></trkpt><trkpt lat="44.57079446668356" lon="10.585087200348223"><ele>433.40000000000003</ele><time>2026-04-25T14:45:41.016Z</time></trkpt><trkpt lat="44.57088963929523" lon="10.585096942539783"><ele>435.20000000000005</ele><time>2026-04-25T14:45:42.016Z</time></trkpt><trkpt lat="44.57096753914776" lon="10.585109993841888"><ele>437.0</ele><time>2026-04-25T14:45:43.016Z</time></trkpt><trkpt lat="44.571045237704034" lon="10.585153353947204"><ele>437.0</ele><time>2026-04-25T14:45:44.016Z</time></trkpt><trkpt lat="44.571131836831285" lon="10.58519631159255"><ele>437.00000000000006</ele><time>2026-04-25T14:45:45.016Z</time></trkpt><trkpt lat="44.5712157948962" lon="10.585262203854061"><ele>437.00000000000006</ele><time>2026-04-25T14:45:46.016Z</time></trkpt><trkpt lat="44.571288099766925" lon="10.58535452390072"><ele>437.0</ele><time>2026-04-25T14:45:47.016Z</time></trkpt><trkpt lat="44.57135357530157" lon="10.585455080817626"><ele>437.0</ele><time>2026-04-25T14:45:48.016Z</time></trkpt><trkpt lat="44.571421756081826" lon="10.585561634737175"><ele>438.20000000000005</ele><time>2026-04-25T14:45:49.016Z</time></trkpt><trkpt lat="44.57150466325231" lon="10.585651178599704"><ele>439.40000000000003</ele><time>2026-04-25T14:45:50.016Z</time></trkpt><trkpt lat="44.571605748732296" lon="10.58569172891735"><ele>440.59999999999997</ele><time>2026-04-25T14:45:51.016Z</time></trkpt><trkpt lat="44.571703475038575" lon="10.58572528538451"><ele>441.79999999999995</ele><time>2026-04-25T14:45:52.016Z</time></trkpt><trkpt lat="44.57180387312122" lon="10.585776738160787"><ele>443.0</ele><time>2026-04-25T14:45:53.016Z</time></trkpt><trkpt lat="44.57189323695855" lon="10.58587025609946"><ele>443.0</ele><time>2026-04-25T14:45:54.016Z</time></trkpt><trkpt lat="44.57191206850613" lon="10.586034003162709"><ele>442.99999999999994</ele><time>2026-04-25T14:45:55.016Z</time></trkpt><trkpt lat="44.57196874209208" lon="10.586152392618398"><ele>442.99999999999994</ele><time>2026-04-25T14:45:56.016Z</time></trkpt><trkpt lat="44.572024562560024" lon="10.586265076189045"><ele>443.0</ele><time>2026-04-25T14:45:57.016Z</time></trkpt><trkpt lat="44.57208857872489" lon="10.586385145957593"><ele>443.0</ele><time>2026-04-25T14:45:58.016Z</time></trkpt><trkpt lat="44.57215647192929" lon="10.586492603596744"><ele>444.16666666666663</ele><time>2026-04-25T14:45:59.016Z</time></trkpt><trkpt lat="44.57222353772999" lon="10.58658125072356"><ele>445.3333333333333</ele><time>2026-04-25T14:46:00.017Z</time></trkpt><trkpt lat="44.572295702742736" lon="10.586658055449032"><ele>446.5</ele><time>2026-04-25T14:46:01.017Z</time></trkpt><trkpt lat="44.57236694639097" lon="10.586723643283987"><ele>447.66666666666663</ele><time>2026-04-25T14:46:02.017Z</time></trkpt><trkpt lat="44.572441218472285" lon="10.586774454411433"><ele>448.8333333333333</ele><time>2026-04-25T14:46:03.017Z</time></trkpt><trkpt lat="44.572521128057225" lon="10.586806809372634"><ele>450.0</ele><time>2026-04-25T14:46:04.017Z</time></trkpt><trkpt lat="44.572596375260815" lon="10.586831562600487"><ele>450.0</ele><time>2026-04-25T14:46:05.017Z</time></trkpt><trkpt lat="44.57268282727001" lon="10.586849856156825"><ele>450.0</ele><time>2026-04-25T14:46:06.017Z</time></trkpt><trkpt lat="44.57276209253584" lon="10.586864159624094"><ele>450.0</ele><time>2026-04-25T14:46:07.017Z</time></trkpt><trkpt lat="44.572832373217224" lon="10.586876635146082"><ele>450.0</ele><time>2026-04-25T14:46:08.017Z</time></trkpt><trkpt lat="44.57290185166653" lon="10.586888111095575"><ele>450.0</ele><time>2026-04-25T14:46:09.017Z</time></trkpt><trkpt lat="44.57300222698108" lon="10.586904953277465"><ele>450.0</ele><time>2026-04-25T14:46:10.017Z</time></trkpt><trkpt lat="44.57310586942539" lon="10.586878464962956"><ele>450.0</ele><time>2026-04-25T14:46:11.017Z</time></trkpt><trkpt lat="44.57320462901218" lon="10.586895517236504"><ele>450.0</ele><time>2026-04-25T14:46:12.017Z</time></trkpt><trkpt lat="44.57330598353347" lon="10.586917664437335"><ele>450.0</ele><time>2026-04-25T14:46:13.017Z</time></trkpt><trkpt lat="44.57339843012854" lon="10.586943474286818"><ele>450.0</ele><time>2026-04-25T14:46:14.017Z</time></trkpt><trkpt lat="44.57349249387917" lon="10.586972508808923"><ele>450.0</ele><time>2026-04-25T14:46:15.017Z</time></trkpt><trkpt lat="44.573576654440735" lon="10.586993836038438"><ele>450.8333333333333</ele><time>2026-04-25T14:46:16.017Z</time></trkpt><trkpt lat="44.57365456153068" lon="10.587025548793921"><ele>451.66666666666663</ele><time>2026-04-25T14:46:17.017Z</time></trkpt><trkpt lat="44.57371792349865" lon="10.58701951737088"><ele>452.5</ele><time>2026-04-25T14:46:18.017Z</time></trkpt><trkpt lat="44.57382365610681" lon="10.587053937014208"><ele>453.3333333333333</ele><time>2026-04-25T14:46:20.017Z</time></trkpt><trkpt lat="44.57391228991016" lon="10.587054348362813"><ele>454.16666666666663</ele><time>2026-04-25T14:46:22.017Z</time></trkpt><trkpt lat="44.57400128863612" lon="10.587071077321665"><ele>455.0</ele><time>2026-04-25T14:46:24.017Z</time></trkpt><trkpt lat="44.574123195539094" lon="10.587068391557237"><ele>455.66666666666663</ele><time>2026-04-25T14:46:26.017Z</time></trkpt><trkpt lat="44.57419572790543" lon="10.587058568709137"><ele>456.3333333333333</ele><time>2026-04-25T14:46:27.017Z</time></trkpt><trkpt lat="44.57427496812463" lon="10.58705442220875"><ele>457.0</ele><time>2026-04-25T14:46:28.017Z</time></trkpt><trkpt lat="44.574343918229175" lon="10.587066763602605"><ele>457.66666666666663</ele><time>2026-04-25T14:46:29.017Z</time></trkpt><trkpt lat="44.57440898199645" lon="10.58706538172671"><ele>458.3333333333333</ele><time>2026-04-25T14:46:30.017Z</time></trkpt><trkpt lat="44.574501410646974" lon="10.587065181134887"><ele>459.0</ele><time>2026-04-25T14:46:32.017Z</time></trkpt><trkpt lat="44.57423754138831" lon="10.586939117901933"><ele>459.0</ele><time>2026-04-25T14:46:38.017Z</time></trkpt><trkpt lat="44.574214036548625" lon="10.58703490607646"><ele>459.0</ele><time>2026-04-25T14:46:40.017Z</time></trkpt><trkpt lat="44.57412711071502" lon="10.587034840977347"><ele>459.0</ele><time>2026-04-25T14:46:41.017Z</time></trkpt><trkpt lat="44.57404431959821" lon="10.587023071471123"><ele>459.0</ele><time>2026-04-25T14:46:42.017Z</time></trkpt><trkpt lat="44.57396698659761" lon="10.587014726424613"><ele>459.0</ele><time>2026-04-25T14:46:43.017Z</time></trkpt><trkpt lat="44.573895102099264" lon="10.587007240432236"><ele>459.0</ele><time>2026-04-25T14:46:44.017Z</time></trkpt><trkpt lat="44.57382519305119" lon="10.587001858167111"><ele>457.2</ele><time>2026-04-25T14:46:45.017Z</time></trkpt><trkpt lat="44.57369784753368" lon="10.586987277496272"><ele>455.4</ele><time>2026-04-25T14:46:47.017Z</time></trkpt><trkpt lat="44.5735933731875" lon="10.586971042382512"><ele>453.6</ele><time>2026-04-25T14:46:49.018Z</time></trkpt><trkpt lat="44.57352933799098" lon="10.586959358141241"><ele>451.8</ele><time>2026-04-25T14:46:51.018Z</time></trkpt><trkpt lat="44.57361525163766" lon="10.586999543273581"><ele>450.0</ele><time>2026-04-25T14:47:02.018Z</time></trkpt><trkpt lat="44.57372541193527" lon="10.587008804539705"><ele>451.8</ele><time>2026-04-25T14:47:03.018Z</time></trkpt><trkpt lat="44.57381627000884" lon="10.587026016885336"><ele>453.6</ele><time>2026-04-25T14:47:04.018Z</time></trkpt><trkpt lat="44.573879963291176" lon="10.587041140884036"><ele>455.4</ele><time>2026-04-25T14:47:05.018Z</time></trkpt><trkpt lat="44.573973075738905" lon="10.587049850028848"><ele>457.2</ele><time>2026-04-25T14:47:07.018Z</time></trkpt><trkpt lat="44.5740534436138" lon="10.587032121829887"><ele>459.0</ele><time>2026-04-25T14:47:20.018Z</time></trkpt><trkpt lat="44.574181241656085" lon="10.587070022009456"><ele>459.0</ele><time>2026-04-25T14:47:22.018Z</time></trkpt><trkpt lat="44.57426313984649" lon="10.587067845448733"><ele>459.0</ele><time>2026-04-25T14:47:23.018Z</time></trkpt><trkpt lat="44.57435683413362" lon="10.58706659061698"><ele>459.0</ele><time>2026-04-25T14:47:24.018Z</time></trkpt><trkpt lat="44.574449777973136" lon="10.587064433799645"><ele>459.0</ele><time>2026-04-25T14:47:25.018Z</time></trkpt><trkpt lat="44.57454953974325" lon="10.587062115771326"><ele>459.0</ele><time>2026-04-25T14:47:26.018Z</time></trkpt><trkpt lat="44.574652161972644" lon="10.5870365732695"><ele>459.6</ele><time>2026-04-25T14:47:27.017Z</time></trkpt><trkpt lat="44.57475741443258" lon="10.587049431187964"><ele>460.2</ele><time>2026-04-25T14:47:28.017Z</time></trkpt><trkpt lat="44.57486492001155" lon="10.587037859619409"><ele>460.80000000000007</ele><time>2026-04-25T14:47:29.017Z</time></trkpt><trkpt lat="44.574973145245906" lon="10.58703536776174"><ele>461.40000000000003</ele><time>2026-04-25T14:47:30.017Z</time></trkpt><trkpt lat="44.575080915661715" lon="10.587036764474579"><ele>462.0</ele><time>2026-04-25T14:47:31.017Z</time></trkpt><trkpt lat="44.575193036453065" lon="10.587037605332958"><ele>462.0</ele><time>2026-04-25T14:47:32.017Z</time></trkpt><trkpt lat="44.57530964409778" lon="10.587036934116652"><ele>462.0</ele><time>2026-04-25T14:47:33.017Z</time></trkpt><trkpt lat="44.5754287376419" lon="10.587035467031807"><ele>462.0</ele><time>2026-04-25T14:47:34.018Z</time></trkpt><trkpt lat="44.57555285727822" lon="10.587034407428034"><ele>462.0</ele><time>2026-04-25T14:47:35.018Z</time></trkpt><trkpt lat="44.575680428626846" lon="10.587068772306624"><ele>460.75</ele><time>2026-04-25T14:47:36.017Z</time></trkpt><trkpt lat="44.575807045955024" lon="10.587132378115143"><ele>459.5</ele><time>2026-04-25T14:47:37.017Z</time></trkpt><trkpt lat="44.57592799581167" lon="10.587217101186388"><ele>458.25</ele><time>2026-04-25T14:47:38.017Z</time></trkpt><trkpt lat="44.57604437333298" lon="10.587286944277327"><ele>457.0</ele><time>2026-04-25T14:47:39.017Z</time></trkpt><trkpt lat="44.57617362051213" lon="10.587293043852783"><ele>457.0</ele><time>2026-04-25T14:47:40.017Z</time></trkpt><trkpt lat="44.5763064664011" lon="10.587246725918689"><ele>457.0</ele><time>2026-04-25T14:47:41.017Z</time></trkpt><trkpt lat="44.57643521031353" lon="10.587157320536278"><ele>457.0</ele><time>2026-04-25T14:47:42.017Z</time></trkpt><trkpt lat="44.5765666928771" lon="10.58711022007383"><ele>457.0</ele><time>2026-04-25T14:47:43.017Z</time></trkpt><trkpt lat="44.57669801890843" lon="10.58709296519756"><ele>457.0</ele><time>2026-04-25T14:47:44.017Z</time></trkpt><trkpt lat="44.576831881769834" lon="10.587100516607617"><ele>457.0</ele><time>2026-04-25T14:47:45.017Z</time></trkpt><trkpt lat="44.57695937632973" lon="10.587123746223408"><ele>457.0</ele><time>2026-04-25T14:47:46.017Z</time></trkpt><trkpt lat="44.57708299836947" lon="10.58716299917639"><ele>457.0</ele><time>2026-04-25T14:47:47.017Z</time></trkpt><trkpt lat="44.57720696069785" lon="10.587211785676699"><ele>455.75</ele><time>2026-04-25T14:47:48.017Z</time></trkpt><trkpt lat="44.57733972243785" lon="10.587278251960223"><ele>454.5</ele><time>2026-04-25T14:47:49.017Z</time></trkpt><trkpt lat="44.577467675469315" lon="10.587341176007413"><ele>453.25</ele><time>2026-04-25T14:47:50.017Z</time></trkpt><trkpt lat="44.577596187211725" lon="10.587376032564693"><ele>452.0</ele><time>2026-04-25T14:47:51.017Z</time></trkpt><trkpt lat="44.57773616260839" lon="10.587363428338989"><ele>451.75</ele><time>2026-04-25T14:47:52.017Z</time></trkpt><trkpt lat="44.577865221551185" lon="10.587352736983872"><ele>451.5</ele><time>2026-04-25T14:47:53.017Z</time></trkpt><trkpt lat="44.57799918372241" lon="10.587356428683913"><ele>451.25</ele><time>2026-04-25T14:47:54.017Z</time></trkpt><trkpt lat="44.578127489864734" lon="10.587356005774483"><ele>451.0</ele><time>2026-04-25T14:47:55.017Z</time></trkpt><trkpt lat="44.57824666165153" lon="10.587352501155479"><ele>451.0</ele><time>2026-04-25T14:47:56.017Z</time></trkpt><trkpt lat="44.578363561388386" lon="10.587328129966737"><ele>451.0</ele><time>2026-04-25T14:47:57.017Z</time></trkpt><trkpt lat="44.57847963696428" lon="10.58731056255398"><ele>451.0</ele><time>2026-04-25T14:47:58.017Z</time></trkpt><trkpt lat="44.578598747560775" lon="10.587309053809506"><ele>451.0</ele><time>2026-04-25T14:47:59.017Z</time></trkpt><trkpt lat="44.57872101494218" lon="10.587312727604067"><ele>450.25</ele><time>2026-04-25T14:48:00.017Z</time></trkpt><trkpt lat="44.57884363988238" lon="10.587337414136353"><ele>449.5</ele><time>2026-04-25T14:48:01.017Z</time></trkpt><trkpt lat="44.578966921135546" lon="10.587404343043001"><ele>448.75</ele><time>2026-04-25T14:48:02.017Z</time></trkpt><trkpt lat="44.57909509379988" lon="10.587430830915382"><ele>448.0</ele><time>2026-04-25T14:48:03.017Z</time></trkpt><trkpt lat="44.57921834560179" lon="10.58746847759609"><ele>448.0</ele><time>2026-04-25T14:48:04.017Z</time></trkpt><trkpt lat="44.57933789702336" lon="10.587490997173376"><ele>447.99999999999994</ele><time>2026-04-25T14:48:05.017Z</time></trkpt><trkpt lat="44.57945052929801" lon="10.587509599272087"><ele>447.99999999999994</ele><time>2026-04-25T14:48:06.017Z</time></trkpt><trkpt lat="44.5795538355468" lon="10.587533569074235"><ele>448.0</ele><time>2026-04-25T14:48:07.017Z</time></trkpt><trkpt lat="44.579660283053485" lon="10.587551118625328"><ele>448.0</ele><time>2026-04-25T14:48:08.017Z</time></trkpt><trkpt lat="44.579770521958665" lon="10.587539975901894"><ele>447.0</ele><time>2026-04-25T14:48:09.017Z</time></trkpt><trkpt lat="44.579879877095124" lon="10.587511472005907"><ele>445.99999999999994</ele><time>2026-04-25T14:48:10.017Z</time></trkpt><trkpt lat="44.57998514271794" lon="10.587466618939025"><ele>444.99999999999994</ele><time>2026-04-25T14:48:11.017Z</time></trkpt><trkpt lat="44.5800913305914" lon="10.587422616798726"><ele>444.0</ele><time>2026-04-25T14:48:12.017Z</time></trkpt><trkpt lat="44.58019169879317" lon="10.587399371786637"><ele>443.0</ele><time>2026-04-25T14:48:13.017Z</time></trkpt><trkpt lat="44.5802951614118" lon="10.587369914941515"><ele>441.4</ele><time>2026-04-25T14:48:14.017Z</time></trkpt><trkpt lat="44.58039006190708" lon="10.587336836929811"><ele>439.79999999999995</ele><time>2026-04-25T14:48:15.017Z</time></trkpt><trkpt lat="44.58049785432358" lon="10.587303774183587"><ele>438.2</ele><time>2026-04-25T14:48:16.017Z</time></trkpt><trkpt lat="44.580603478403496" lon="10.587304131782977"><ele>436.6</ele><time>2026-04-25T14:48:17.017Z</time></trkpt><trkpt lat="44.58070880599122" lon="10.587371102227936"><ele>435.0</ele><time>2026-04-25T14:48:18.018Z</time></trkpt><trkpt lat="44.5808327475765" lon="10.587440220518598"><ele>435.0</ele><time>2026-04-25T14:48:19.018Z</time></trkpt><trkpt lat="44.5809381578942" lon="10.587517086201188"><ele>435.0</ele><time>2026-04-25T14:48:20.018Z</time></trkpt><trkpt lat="44.58106438096051" lon="10.587583249417174"><ele>435.0</ele><time>2026-04-25T14:48:21.018Z</time></trkpt><trkpt lat="44.58118376803213" lon="10.587637735044666"><ele>435.0</ele><time>2026-04-25T14:48:22.018Z</time></trkpt><trkpt lat="44.5813014402082" lon="10.58769635097344"><ele>433.0</ele><time>2026-04-25T14:48:23.018Z</time></trkpt><trkpt lat="44.58141524225486" lon="10.58775462501315"><ele>431.0</ele><time>2026-04-25T14:48:24.018Z</time></trkpt><trkpt lat="44.58152715220839" lon="10.587808410405582"><ele>429.0</ele><time>2026-04-25T14:48:25.018Z</time></trkpt><trkpt lat="44.58163275411368" lon="10.5878711262534"><ele>427.0</ele><time>2026-04-25T14:48:26.018Z</time></trkpt><trkpt lat="44.58173611110756" lon="10.587927087837182"><ele>426.0</ele><time>2026-04-25T14:48:27.018Z</time></trkpt><trkpt lat="44.581845359943244" lon="10.587974868607734"><ele>425.00000000000006</ele><time>2026-04-25T14:48:28.018Z</time></trkpt><trkpt lat="44.581954866507516" lon="10.588006036062577"><ele>424.0</ele><time>2026-04-25T14:48:29.018Z</time></trkpt><trkpt lat="44.58206019299175" lon="10.58801803062075"><ele>423.0</ele><time>2026-04-25T14:48:30.018Z</time></trkpt><trkpt lat="44.582158315867545" lon="10.587999370916558"><ele>422.0</ele><time>2026-04-25T14:48:31.018Z</time></trkpt><trkpt lat="44.58226889102235" lon="10.587966553590729"><ele>421.20000000000005</ele><time>2026-04-25T14:48:32.018Z</time></trkpt><trkpt lat="44.58235525816666" lon="10.587923674936084"><ele>420.4</ele><time>2026-04-25T14:48:33.018Z</time></trkpt><trkpt lat="44.5824374655133" lon="10.587830371073514"><ele>419.6</ele><time>2026-04-25T14:48:34.018Z</time></trkpt><trkpt lat="44.58251344758122" lon="10.587694423208774"><ele>418.79999999999995</ele><time>2026-04-25T14:48:35.018Z</time></trkpt><trkpt lat="44.582575325323994" lon="10.587546249662678"><ele>418.0</ele><time>2026-04-25T14:48:36.018Z</time></trkpt><trkpt lat="44.58264864953965" lon="10.587436173577048"><ele>418.0</ele><time>2026-04-25T14:48:37.018Z</time></trkpt><trkpt lat="44.58272875285894" lon="10.587335628260245"><ele>418.0</ele><time>2026-04-25T14:48:38.018Z</time></trkpt><trkpt lat="44.58282624392038" lon="10.587265291861408"><ele>418.0</ele><time>2026-04-25T14:48:39.018Z</time></trkpt><trkpt lat="44.58294006429557" lon="10.587219665827575"><ele>418.0</ele><time>2026-04-25T14:48:40.018Z</time></trkpt><trkpt lat="44.58307093762642" lon="10.587168407980611"><ele>414.75</ele><time>2026-04-25T14:48:41.018Z</time></trkpt><trkpt lat="44.58320728575279" lon="10.587114830412338"><ele>411.5</ele><time>2026-04-25T14:48:42.018Z</time></trkpt><trkpt lat="44.583344579374774" lon="10.587060828270996"><ele>408.25</ele><time>2026-04-25T14:48:43.018Z</time></trkpt><trkpt lat="44.58348265074636" lon="10.587004852340321"><ele>405.0</ele><time>2026-04-25T14:48:44.018Z</time></trkpt><trkpt lat="44.58360475501569" lon="10.586933619811841"><ele>404.25</ele><time>2026-04-25T14:48:45.018Z</time></trkpt><trkpt lat="44.58373497930351" lon="10.586887478027288"><ele>403.5</ele><time>2026-04-25T14:48:46.018Z</time></trkpt><trkpt lat="44.58386212965426" lon="10.586844480364935"><ele>402.75</ele><time>2026-04-25T14:48:47.018Z</time></trkpt><trkpt lat="44.583984389706046" lon="10.586788952934766"><ele>402.0</ele><time>2026-04-25T14:48:48.018Z</time></trkpt><trkpt lat="44.58410797036696" lon="10.586739222420547"><ele>402.0</ele><time>2026-04-25T14:48:49.018Z</time></trkpt><trkpt lat="44.58423634071249" lon="10.586684984788574"><ele>402.0</ele><time>2026-04-25T14:48:50.018Z</time></trkpt><trkpt lat="44.58436376684789" lon="10.586631977076932"><ele>402.0</ele><time>2026-04-25T14:48:51.018Z</time></trkpt><trkpt lat="44.58449094733847" lon="10.586577030374881"><ele>402.0</ele><time>2026-04-25T14:48:52.018Z</time></trkpt><trkpt lat="44.584615036466175" lon="10.586515747100902"><ele>399.25</ele><time>2026-04-25T14:48:53.018Z</time></trkpt><trkpt lat="44.58473649104543" lon="10.586449420526405"><ele>396.5</ele><time>2026-04-25T14:48:54.018Z</time></trkpt><trkpt lat="44.584855061995796" lon="10.586372918138347"><ele>393.75</ele><time>2026-04-25T14:48:55.018Z</time></trkpt><trkpt lat="44.584979027869956" lon="10.586319666978556"><ele>391.0</ele><time>2026-04-25T14:48:56.018Z</time></trkpt><trkpt lat="44.58509418779691" lon="10.586249677429272"><ele>391.0</ele><time>2026-04-25T14:48:57.018Z</time></trkpt><trkpt lat="44.585213612117585" lon="10.586191821669614"><ele>391.0</ele><time>2026-04-25T14:48:58.018Z</time></trkpt><trkpt lat="44.58534908725923" lon="10.586182225756918"><ele>391.0</ele><time>2026-04-25T14:48:59.018Z</time></trkpt><trkpt lat="44.5854922374155" lon="10.586163759667585"><ele>391.0</ele><time>2026-04-25T14:49:00.018Z</time></trkpt><trkpt lat="44.58563555805996" lon="10.58614036394928"><ele>389.5</ele><time>2026-04-25T14:49:01.018Z</time></trkpt><trkpt lat="44.58577772272133" lon="10.586123702617064"><ele>388.0</ele><time>2026-04-25T14:49:02.018Z</time></trkpt><trkpt lat="44.5859158775811" lon="10.586094695420016"><ele>386.5</ele><time>2026-04-25T14:49:03.018Z</time></trkpt><trkpt lat="44.5860457199772" lon="10.586049859479864"><ele>385.0</ele><time>2026-04-25T14:49:04.018Z</time></trkpt><trkpt lat="44.586171397518555" lon="10.58599279339443"><ele>385.0</ele><time>2026-04-25T14:49:05.018Z</time></trkpt><trkpt lat="44.586294307779" lon="10.585930956023883"><ele>385.0</ele><time>2026-04-25T14:49:06.019Z</time></trkpt><trkpt lat="44.58641643133976" lon="10.585865728213403"><ele>385.0</ele><time>2026-04-25T14:49:07.019Z</time></trkpt><trkpt lat="44.586536607696196" lon="10.585797513859198"><ele>385.0</ele><time>2026-04-25T14:49:08.019Z</time></trkpt><trkpt lat="44.58665897601551" lon="10.585735819999293"><ele>385.0</ele><time>2026-04-25T14:49:09.019Z</time></trkpt><trkpt lat="44.586781077786725" lon="10.585671931026466"><ele>385.0</ele><time>2026-04-25T14:49:10.019Z</time></trkpt><trkpt lat="44.586902694520326" lon="10.585610868027546"><ele>385.0</ele><time>2026-04-25T14:49:11.019Z</time></trkpt><trkpt lat="44.58701879774902" lon="10.585581001179978"><ele>385.0</ele><time>2026-04-25T14:49:12.019Z</time></trkpt><trkpt lat="44.587133455748315" lon="10.5856247385194"><ele>384.25</ele><time>2026-04-25T14:49:13.019Z</time></trkpt><trkpt lat="44.58725771358408" lon="10.585671300474084"><ele>383.5</ele><time>2026-04-25T14:49:14.019Z</time></trkpt><trkpt lat="44.587388128414425" lon="10.585703130327685"><ele>382.75</ele><time>2026-04-25T14:49:15.019Z</time></trkpt><trkpt lat="44.58752838779082" lon="10.58570637998657"><ele>382.0</ele><time>2026-04-25T14:49:16.019Z</time></trkpt><trkpt lat="44.58766827639011" lon="10.585671350113044"><ele>382.0</ele><time>2026-04-25T14:49:17.019Z</time></trkpt><trkpt lat="44.587795034108076" lon="10.585606937879497"><ele>382.0</ele><time>2026-04-25T14:49:18.019Z</time></trkpt><trkpt lat="44.587920745724325" lon="10.585526747507839"><ele>382.0</ele><time>2026-04-25T14:49:19.019Z</time></trkpt><trkpt lat="44.58803474194895" lon="10.585417675922761"><ele>382.0</ele><time>2026-04-25T14:49:20.019Z</time></trkpt><trkpt lat="44.58814418911442" lon="10.585306056869545"><ele>380.25</ele><time>2026-04-25T14:49:21.019Z</time></trkpt><trkpt lat="44.588248673269234" lon="10.585182927364881"><ele>378.5</ele><time>2026-04-25T14:49:22.019Z</time></trkpt><trkpt lat="44.588346040700934" lon="10.585026773056965"><ele>376.75</ele><time>2026-04-25T14:49:23.019Z</time></trkpt><trkpt lat="44.58841770040587" lon="10.584876738798533"><ele>375.0</ele><time>2026-04-25T14:49:24.019Z</time></trkpt><trkpt lat="44.588487630227704" lon="10.584716038605565"><ele>375.0</ele><time>2026-04-25T14:49:25.019Z</time></trkpt><trkpt lat="44.58856335669193" lon="10.584585428997716"><ele>375.0</ele><time>2026-04-25T14:49:26.019Z</time></trkpt><trkpt lat="44.58866734111327" lon="10.584488556339526"><ele>375.0</ele><time>2026-04-25T14:49:27.019Z</time></trkpt><trkpt lat="44.58878396710425" lon="10.584407948014633"><ele>375.0</ele><time>2026-04-25T14:49:28.019Z</time></trkpt><trkpt lat="44.58890287508342" lon="10.584339249801046"><ele>373.75</ele><time>2026-04-25T14:49:29.019Z</time></trkpt><trkpt lat="44.58900352396031" lon="10.584252698668113"><ele>372.5</ele><time>2026-04-25T14:49:30.019Z</time></trkpt><trkpt lat="44.58908133714843" lon="10.584123784645591"><ele>371.25</ele><time>2026-04-25T14:49:31.019Z</time></trkpt><trkpt lat="44.58915814012274" lon="10.58400600650861"><ele>370.0</ele><time>2026-04-25T14:49:32.019Z</time></trkpt><trkpt lat="44.589217831717725" lon="10.58388534764266"><ele>370.0</ele><time>2026-04-25T14:49:33.018Z</time></trkpt><trkpt lat="44.589280580089245" lon="10.58380560343092"><ele>370.0</ele><time>2026-04-25T14:49:34.019Z</time></trkpt><trkpt lat="44.5893629886659" lon="10.583795082962355"><ele>370.0</ele><time>2026-04-25T14:49:35.019Z</time></trkpt><trkpt lat="44.58942960487373" lon="10.583865485936423"><ele>370.0</ele><time>2026-04-25T14:49:36.019Z</time></trkpt><trkpt lat="44.589518077330766" lon="10.583969050007374"><ele>370.0</ele><time>2026-04-25T14:49:37.019Z</time></trkpt><trkpt lat="44.58962050872519" lon="10.584070502757026"><ele>368.75</ele><time>2026-04-25T14:49:38.019Z</time></trkpt><trkpt lat="44.58972132744525" lon="10.584173389487459"><ele>367.5</ele><time>2026-04-25T14:49:39.018Z</time></trkpt><trkpt lat="44.589829820435405" lon="10.5842835302446"><ele>366.25</ele><time>2026-04-25T14:49:40.018Z</time></trkpt><trkpt lat="44.58995116684074" lon="10.584367391919905"><ele>365.0</ele><time>2026-04-25T14:49:41.018Z</time></trkpt><trkpt lat="44.590050743477036" lon="10.58448250262932"><ele>364.75</ele><time>2026-04-25T14:49:42.018Z</time></trkpt><trkpt lat="44.59016067955616" lon="10.58456541610364"><ele>364.5</ele><time>2026-04-25T14:49:43.018Z</time></trkpt><trkpt lat="44.590270606925806" lon="10.584642247354564"><ele>364.25</ele><time>2026-04-25T14:49:44.018Z</time></trkpt><trkpt lat="44.590376416602545" lon="10.584722088263339"><ele>364.0</ele><time>2026-04-25T14:49:45.019Z</time></trkpt><trkpt lat="44.590476133158205" lon="10.58479655273594"><ele>362.5</ele><time>2026-04-25T14:49:46.018Z</time></trkpt><trkpt lat="44.590574511230464" lon="10.584857919997374"><ele>361.0</ele><time>2026-04-25T14:49:47.018Z</time></trkpt><trkpt lat="44.590652631861595" lon="10.584921957709968"><ele>359.5</ele><time>2026-04-25T14:49:48.018Z</time></trkpt><trkpt lat="44.59072422842001" lon="10.5849760701522"><ele>358.0</ele><time>2026-04-25T14:49:49.018Z</time></trkpt><trkpt lat="44.590774551854096" lon="10.585041151160773"><ele>356.5</ele><time>2026-04-25T14:49:50.018Z</time></trkpt><trkpt lat="44.59078306307998" lon="10.58514555563584"><ele>355.0</ele><time>2026-04-25T14:49:51.018Z</time></trkpt><trkpt lat="44.5907382328847" lon="10.585253247798152"><ele>355.0</ele><time>2026-04-25T14:49:52.018Z</time></trkpt><trkpt lat="44.59066196908934" lon="10.585309173083575"><ele>355.0</ele><time>2026-04-25T14:49:53.018Z</time></trkpt><trkpt lat="44.590570631931506" lon="10.585263919090789"><ele>355.0</ele><time>2026-04-25T14:49:54.018Z</time></trkpt><trkpt lat="44.590488826418586" lon="10.58522274019356"><ele>355.0</ele><time>2026-04-25T14:49:55.018Z</time></trkpt><trkpt lat="44.59040589174531" lon="10.585215965382279"><ele>355.0</ele><time>2026-04-25T14:49:56.018Z</time></trkpt><trkpt lat="44.59032965339914" lon="10.585220680674915"><ele>355.0</ele><time>2026-04-25T14:49:57.018Z</time></trkpt><trkpt lat="44.59025725881358" lon="10.585338754435018"><ele>353.75</ele><time>2026-04-25T14:49:59.018Z</time></trkpt><trkpt lat="44.59027095281638" lon="10.58546627165168"><ele>352.5</ele><time>2026-04-25T14:50:00.018Z</time></trkpt><trkpt lat="44.59042276137824" lon="10.585520597299732"><ele>351.25</ele><time>2026-04-25T14:50:01.018Z</time></trkpt><trkpt lat="44.590518866342464" lon="10.585516985307054"><ele>350.0</ele><time>2026-04-25T14:50:02.018Z</time></trkpt><trkpt lat="44.59063559836548" lon="10.585515867391917"><ele>348.75</ele><time>2026-04-25T14:50:03.018Z</time></trkpt><trkpt lat="44.590745516540565" lon="10.585552205823381"><ele>347.5</ele><time>2026-04-25T14:50:04.019Z</time></trkpt><trkpt lat="44.590863981628" lon="10.585562431953585"><ele>346.25</ele><time>2026-04-25T14:50:05.019Z</time></trkpt><trkpt lat="44.590980969530875" lon="10.58554051780983"><ele>345.0</ele><time>2026-04-25T14:50:06.019Z</time></trkpt><trkpt lat="44.591104645947055" lon="10.585551037316263"><ele>343.8</ele><time>2026-04-25T14:50:07.019Z</time></trkpt><trkpt lat="44.59121633875916" lon="10.585540370094371"><ele>342.6</ele><time>2026-04-25T14:50:08.019Z</time></trkpt><trkpt lat="44.591322036513915" lon="10.585539073301941"><ele>341.4</ele><time>2026-04-25T14:50:09.019Z</time></trkpt><trkpt lat="44.59143911228076" lon="10.58554423489278"><ele>340.2</ele><time>2026-04-25T14:50:10.019Z</time></trkpt><trkpt lat="44.59154391682448" lon="10.585554639498806"><ele>339.0</ele><time>2026-04-25T14:50:11.019Z</time></trkpt><trkpt lat="44.59164301522627" lon="10.585601113766096"><ele>339.0</ele><time>2026-04-25T14:50:12.019Z</time></trkpt><trkpt lat="44.59173801433902" lon="10.585650537636418"><ele>339.0</ele><time>2026-04-25T14:50:13.019Z</time></trkpt><trkpt lat="44.591830767978635" lon="10.585714449068929"><ele>339.0</ele><time>2026-04-25T14:50:14.019Z</time></trkpt><trkpt lat="44.59192341609384" lon="10.585785355022105"><ele>339.0</ele><time>2026-04-25T14:50:15.019Z</time></trkpt><trkpt lat="44.59201236102672" lon="10.58586204849284"><ele>339.0</ele><time>2026-04-25T14:50:16.019Z</time></trkpt><trkpt lat="44.59211822775494" lon="10.58593582462495"><ele>336.25</ele><time>2026-04-25T14:50:17.019Z</time></trkpt><trkpt lat="44.59221598682611" lon="10.5860297315046"><ele>333.5</ele><time>2026-04-25T14:50:18.019Z</time></trkpt><trkpt lat="44.59231504575084" lon="10.586122713666725"><ele>330.75</ele><time>2026-04-25T14:50:19.019Z</time></trkpt><trkpt lat="44.592410229037576" lon="10.586212919636083"><ele>328.0</ele><time>2026-04-25T14:50:20.019Z</time></trkpt><trkpt lat="44.59250018124507" lon="10.5862971405043"><ele>328.0</ele><time>2026-04-25T14:50:21.019Z</time></trkpt><trkpt lat="44.59256851178883" lon="10.586383870750861"><ele>328.0</ele><time>2026-04-25T14:50:22.019Z</time></trkpt><trkpt lat="44.59266256689289" lon="10.586457779734056"><ele>328.0</ele><time>2026-04-25T14:50:23.019Z</time></trkpt><trkpt lat="44.59275943680994" lon="10.586538954360586"><ele>328.0</ele><time>2026-04-25T14:50:24.019Z</time></trkpt><trkpt lat="44.592842204881755" lon="10.586622079493068"><ele>328.0</ele><time>2026-04-25T14:50:25.019Z</time></trkpt><trkpt lat="44.59292778734834" lon="10.586717669860963"><ele>325.2</ele><time>2026-04-25T14:50:26.019Z</time></trkpt><trkpt lat="44.592992087622385" lon="10.586841391874072"><ele>322.4</ele><time>2026-04-25T14:50:27.019Z</time></trkpt><trkpt lat="44.5930223814978" lon="10.58697545435697"><ele>319.59999999999997</ele><time>2026-04-25T14:50:28.019Z</time></trkpt><trkpt lat="44.59302237187245" lon="10.587127756822913"><ele>316.79999999999995</ele><time>2026-04-25T14:50:29.019Z</time></trkpt><trkpt lat="44.59302095802959" lon="10.587279059603086"><ele>314.0</ele><time>2026-04-25T14:50:30.019Z</time></trkpt><trkpt lat="44.59303323622383" lon="10.58741648510135"><ele>314.0</ele><time>2026-04-25T14:50:31.019Z</time></trkpt><trkpt lat="44.593079587209445" lon="10.587537481504896"><ele>314.0</ele><time>2026-04-25T14:50:32.019Z</time></trkpt><trkpt lat="44.59315175052865" lon="10.587641105094452"><ele>314.0</ele><time>2026-04-25T14:50:33.019Z</time></trkpt><trkpt lat="44.59323952172423" lon="10.5877004278235"><ele>314.0</ele><time>2026-04-25T14:50:34.019Z</time></trkpt><trkpt lat="44.59334349295646" lon="10.587703250738814"><ele>314.0</ele><time>2026-04-25T14:50:35.019Z</time></trkpt><trkpt lat="44.59345234913916" lon="10.587674442787396"><ele>314.0</ele><time>2026-04-25T14:50:36.019Z</time></trkpt><trkpt lat="44.59355201414925" lon="10.587651727371007"><ele>314.0</ele><time>2026-04-25T14:50:37.019Z</time></trkpt><trkpt lat="44.593647652700085" lon="10.587616687200502"><ele>314.0</ele><time>2026-04-25T14:50:38.019Z</time></trkpt><trkpt lat="44.593735082160315" lon="10.587559175235972"><ele>314.0</ele><time>2026-04-25T14:50:39.019Z</time></trkpt><trkpt lat="44.59382846989193" lon="10.587544398439402"><ele>314.0</ele><time>2026-04-25T14:50:40.019Z</time></trkpt><trkpt lat="44.59391759081444" lon="10.587539078389648"><ele>312.6666666666667</ele><time>2026-04-25T14:50:41.019Z</time></trkpt><trkpt lat="44.59398564353841" lon="10.587594337215062"><ele>311.33333333333337</ele><time>2026-04-25T14:50:42.019Z</time></trkpt><trkpt lat="44.594028504828735" lon="10.58768041985549"><ele>310.0</ele><time>2026-04-25T14:50:43.019Z</time></trkpt><trkpt lat="44.59402720552873" lon="10.587781912162818"><ele>308.6666666666667</ele><time>2026-04-25T14:50:44.019Z</time></trkpt><trkpt lat="44.593990176640155" lon="10.587872414706395"><ele>307.3333333333333</ele><time>2026-04-25T14:50:45.019Z</time></trkpt><trkpt lat="44.59392762631581" lon="10.5879349242212"><ele>306.0</ele><time>2026-04-25T14:50:46.019Z</time></trkpt><trkpt lat="44.59384399144551" lon="10.587952955029161"><ele>305.8</ele><time>2026-04-25T14:50:47.019Z</time></trkpt><trkpt lat="44.59377176145267" lon="10.587929344644113"><ele>305.6</ele><time>2026-04-25T14:50:48.019Z</time></trkpt><trkpt lat="44.59365251738515" lon="10.587942260491376"><ele>305.4</ele><time>2026-04-25T14:50:50.019Z</time></trkpt><trkpt lat="44.59355521390794" lon="10.58794117979086"><ele>305.2</ele><time>2026-04-25T14:50:52.019Z</time></trkpt><trkpt lat="44.59347890403753" lon="10.588012534550582"><ele>305.0</ele><time>2026-04-25T14:50:54.02Z</time></trkpt><trkpt lat="44.593452809631664" lon="10.58810127752565"><ele>305.0</ele><time>2026-04-25T14:50:57.02Z</time></trkpt><trkpt lat="44.59352465474186" lon="10.588195632540511"><ele>305.0</ele><time>2026-04-25T14:51:19.017Z</time></trkpt><trkpt lat="44.59363460848537" lon="10.588212161741435"><ele>305.0</ele><time>2026-04-25T14:51:21.017Z</time></trkpt><trkpt lat="44.5937690793199" lon="10.588224408039265"><ele>305.0</ele><time>2026-04-25T14:51:23.017Z</time></trkpt><trkpt lat="44.593853624742096" lon="10.588232107618277"><ele>305.0</ele><time>2026-04-25T14:51:24.017Z</time></trkpt><trkpt lat="44.59394995088018" lon="10.588241014570432"><ele>304.6</ele><time>2026-04-25T14:51:25.017Z</time></trkpt><trkpt lat="44.59406268427291" lon="10.58825314617032"><ele>304.2</ele><time>2026-04-25T14:51:26.017Z</time></trkpt><trkpt lat="44.594172292244856" lon="10.588267137756949"><ele>303.8</ele><time>2026-04-25T14:51:27.017Z</time></trkpt><trkpt lat="44.594273892365926" lon="10.58829823398105"><ele>303.4</ele><time>2026-04-25T14:51:28.017Z</time></trkpt><trkpt lat="44.59436945410716" lon="10.588348284114367"><ele>303.0</ele><time>2026-04-25T14:51:29.017Z</time></trkpt><trkpt lat="44.5944787903509" lon="10.588401021912"><ele>300.0</ele><time>2026-04-25T14:51:30.017Z</time></trkpt><trkpt lat="44.59459059142705" lon="10.588435902835966"><ele>297.0</ele><time>2026-04-25T14:51:31.017Z</time></trkpt><trkpt lat="44.59470681793309" lon="10.588374173568258"><ele>294.0</ele><time>2026-04-25T14:51:32.017Z</time></trkpt><trkpt lat="44.594795591300716" lon="10.588283604375706"><ele>291.0</ele><time>2026-04-25T14:51:33.017Z</time></trkpt><trkpt lat="44.5948802217876" lon="10.588168457557058"><ele>291.0</ele><time>2026-04-25T14:51:34.017Z</time></trkpt><trkpt lat="44.59498336432871" lon="10.58808273088171"><ele>291.0</ele><time>2026-04-25T14:51:35.017Z</time></trkpt><trkpt lat="44.59505719285827" lon="10.587987009591105"><ele>291.0</ele><time>2026-04-25T14:51:36.017Z</time></trkpt><trkpt lat="44.5951326394763" lon="10.587892499800452"><ele>291.0</ele><time>2026-04-25T14:51:37.017Z</time></trkpt><trkpt lat="44.59520995758855" lon="10.587796261672299"><ele>291.0</ele><time>2026-04-25T14:51:38.017Z</time></trkpt><trkpt lat="44.595264841786786" lon="10.587694989908096"><ele>291.40000000000003</ele><time>2026-04-25T14:51:39.015Z</time></trkpt><trkpt lat="44.59531101494271" lon="10.587566641375075"><ele>291.8</ele><time>2026-04-25T14:51:40.015Z</time></trkpt><trkpt lat="44.59534897489797" lon="10.587442921546906"><ele>292.20000000000005</ele><time>2026-04-25T14:51:41.015Z</time></trkpt><trkpt lat="44.5954086854954" lon="10.58735314163186"><ele>292.6</ele><time>2026-04-25T14:51:42.016Z</time></trkpt><trkpt lat="44.59549732356073" lon="10.587330705453208"><ele>293.0</ele><time>2026-04-25T14:51:43.015Z</time></trkpt><trkpt lat="44.59558624227768" lon="10.58735769785809"><ele>289.8</ele><time>2026-04-25T14:51:44.015Z</time></trkpt><trkpt lat="44.59565249153535" lon="10.58745161974354"><ele>286.6</ele><time>2026-04-25T14:51:45.016Z</time></trkpt><trkpt lat="44.59568504865955" lon="10.587563998589669"><ele>283.4</ele><time>2026-04-25T14:51:46.015Z</time></trkpt><trkpt lat="44.595706152934795" lon="10.58768447516652"><ele>280.2</ele><time>2026-04-25T14:51:47.015Z</time></trkpt><trkpt lat="44.595662597604004" lon="10.58780301050499"><ele>277.0</ele><time>2026-04-25T14:51:48.015Z</time></trkpt><trkpt lat="44.59556310349811" lon="10.587881255400099"><ele>275.6</ele><time>2026-04-25T14:51:49.015Z</time></trkpt><trkpt lat="44.595489305103854" lon="10.587995252722264"><ele>274.2</ele><time>2026-04-25T14:51:50.015Z</time></trkpt><trkpt lat="44.59542230536796" lon="10.588114779048832"><ele>272.8</ele><time>2026-04-25T14:51:51.016Z</time></trkpt><trkpt lat="44.595365905695196" lon="10.588249708425588"><ele>271.4</ele><time>2026-04-25T14:51:52.015Z</time></trkpt><trkpt lat="44.59533712158485" lon="10.58840038275074"><ele>270.0</ele><time>2026-04-25T14:51:53.015Z</time></trkpt><trkpt lat="44.595357615483344" lon="10.588557478952026"><ele>269.25</ele><time>2026-04-25T14:51:54.015Z</time></trkpt><trkpt lat="44.59540305375379" lon="10.588720581957057"><ele>268.5</ele><time>2026-04-25T14:51:55.015Z</time></trkpt><trkpt lat="44.59545938270986" lon="10.588870718544374"><ele>267.75</ele><time>2026-04-25T14:51:56.015Z</time></trkpt><trkpt lat="44.59551704682093" lon="10.589005957980612"><ele>267.0</ele><time>2026-04-25T14:51:57.015Z</time></trkpt><trkpt lat="44.5955736797383" lon="10.589131587091"><ele>267.0</ele><time>2026-04-25T14:51:58.015Z</time></trkpt><trkpt lat="44.59562980739321" lon="10.589251898947746"><ele>267.0</ele><time>2026-04-25T14:51:59.015Z</time></trkpt><trkpt lat="44.59568799615506" lon="10.589369998572375"><ele>267.0</ele><time>2026-04-25T14:52:00.015Z</time></trkpt><trkpt lat="44.595743055429686" lon="10.589484658518387"><ele>267.0</ele><time>2026-04-25T14:52:01.015Z</time></trkpt><trkpt lat="44.59577586922135" lon="10.58961727300464"><ele>267.0</ele><time>2026-04-25T14:52:02.015Z</time></trkpt><trkpt lat="44.595832129567924" lon="10.589726538632968"><ele>267.0</ele><time>2026-04-25T14:52:03.015Z</time></trkpt><trkpt lat="44.595885828645784" lon="10.58983312491834"><ele>267.0</ele><time>2026-04-25T14:52:04.015Z</time></trkpt><trkpt lat="44.595938017064846" lon="10.589938625154248"><ele>267.0</ele><time>2026-04-25T14:52:05.015Z</time></trkpt><trkpt lat="44.595990113800596" lon="10.590043874098793"><ele>267.0</ele><time>2026-04-25T14:52:06.015Z</time></trkpt><trkpt lat="44.59605327417919" lon="10.590137903291089"><ele>267.0</ele><time>2026-04-25T14:52:07.015Z</time></trkpt><trkpt lat="44.59610396177317" lon="10.590230603464173"><ele>267.0</ele><time>2026-04-25T14:52:08.015Z</time></trkpt><trkpt lat="44.59616288124033" lon="10.590315394579042"><ele>267.0</ele><time>2026-04-25T14:52:09.015Z</time></trkpt><trkpt lat="44.596229100942644" lon="10.590382764699886"><ele>267.0</ele><time>2026-04-25T14:52:10.015Z</time></trkpt><trkpt lat="44.59630516727452" lon="10.590438656222707"><ele>267.0</ele><time>2026-04-25T14:52:11.015Z</time></trkpt><trkpt lat="44.596374150397935" lon="10.590491204146531"><ele>267.0</ele><time>2026-04-25T14:52:12.016Z</time></trkpt><trkpt lat="44.59644450968534" lon="10.590545541412725"><ele>267.0</ele><time>2026-04-25T14:52:13.016Z</time></trkpt><trkpt lat="44.596528709077155" lon="10.590586087423718"><ele>267.4</ele><time>2026-04-25T14:52:14.016Z</time></trkpt><trkpt lat="44.596613889509364" lon="10.590637837243085"><ele>267.79999999999995</ele><time>2026-04-25T14:52:15.016Z</time></trkpt><trkpt lat="44.59670137017864" lon="10.590688779070964"><ele>268.2</ele><time>2026-04-25T14:52:16.016Z</time></trkpt><trkpt lat="44.596790127736455" lon="10.590748348893339"><ele>268.59999999999997</ele><time>2026-04-25T14:52:17.016Z</time></trkpt><trkpt lat="44.5968826515012" lon="10.59079067636312"><ele>269.0</ele><time>2026-04-25T14:52:18.016Z</time></trkpt><trkpt lat="44.596978522525845" lon="10.590837441166965"><ele>268.8</ele><time>2026-04-25T14:52:19.016Z</time></trkpt><trkpt lat="44.5970754706952" lon="10.590892149324382"><ele>268.59999999999997</ele><time>2026-04-25T14:52:20.016Z</time></trkpt><trkpt lat="44.597169503392024" lon="10.59094785857548"><ele>268.4</ele><time>2026-04-25T14:52:21.016Z</time></trkpt><trkpt lat="44.597257697123325" lon="10.590997064250313"><ele>268.2</ele><time>2026-04-25T14:52:22.016Z</time></trkpt><trkpt lat="44.59733906998154" lon="10.591041280765076"><ele>268.0</ele><time>2026-04-25T14:52:23.016Z</time></trkpt><trkpt lat="44.597416979395106" lon="10.591110403099723"><ele>268.0</ele><time>2026-04-25T14:52:24.016Z</time></trkpt><trkpt lat="44.597494467665435" lon="10.591155940372666"><ele>268.0</ele><time>2026-04-25T14:52:25.016Z</time></trkpt><trkpt lat="44.59757406798395" lon="10.591199334755904"><ele>268.0</ele><time>2026-04-25T14:52:26.016Z</time></trkpt><trkpt lat="44.597654655457376" lon="10.591244432712822"><ele>268.0</ele><time>2026-04-25T14:52:27.016Z</time></trkpt><trkpt lat="44.59773441954206" lon="10.591285414726467"><ele>268.0</ele><time>2026-04-25T14:52:28.016Z</time></trkpt><trkpt lat="44.59781215318393" lon="10.591323269963295"><ele>268.0</ele><time>2026-04-25T14:52:29.016Z</time></trkpt><trkpt lat="44.59788664861598" lon="10.59137021869137"><ele>269.66666666666663</ele><time>2026-04-25T14:52:30.016Z</time></trkpt><trkpt lat="44.59796099843043" lon="10.591412039986231"><ele>271.3333333333333</ele><time>2026-04-25T14:52:31.016Z</time></trkpt><trkpt lat="44.59802181171741" lon="10.591446830661498"><ele>273.0</ele><time>2026-04-25T14:52:32.016Z</time></trkpt><trkpt lat="44.59809958683519" lon="10.591473253347347"><ele>274.6666666666667</ele><time>2026-04-25T14:52:33.016Z</time></trkpt><trkpt lat="44.59817315298513" lon="10.591489880957223"><ele>276.33333333333337</ele><time>2026-04-25T14:52:34.016Z</time></trkpt><trkpt lat="44.598248222246504" lon="10.591496716951903"><ele>278.0</ele><time>2026-04-25T14:52:35.016Z</time></trkpt><trkpt lat="44.59832420510374" lon="10.591483083623274"><ele>278.0</ele><time>2026-04-25T14:52:36.016Z</time></trkpt><trkpt lat="44.59839594962338" lon="10.591478570370807"><ele>278.0</ele><time>2026-04-25T14:52:37.016Z</time></trkpt><trkpt lat="44.598483156699864" lon="10.591481897690398"><ele>278.0</ele><time>2026-04-25T14:52:38.016Z</time></trkpt><trkpt lat="44.59856782476588" lon="10.5914894250208"><ele>278.0</ele><time>2026-04-25T14:52:39.016Z</time></trkpt><trkpt lat="44.59866053989457" lon="10.591492015119426"><ele>278.0</ele><time>2026-04-25T14:52:40.016Z</time></trkpt><trkpt lat="44.598750375139666" lon="10.591500547207643"><ele>278.0</ele><time>2026-04-25T14:52:41.016Z</time></trkpt><trkpt lat="44.59884215176521" lon="10.591507126718831"><ele>278.6666666666667</ele><time>2026-04-25T14:52:42.016Z</time></trkpt><trkpt lat="44.598927534534795" lon="10.59153417231329"><ele>279.33333333333337</ele><time>2026-04-25T14:52:43.016Z</time></trkpt><trkpt lat="44.59901118642414" lon="10.59154949880408"><ele>280.0</ele><time>2026-04-25T14:52:44.016Z</time></trkpt><trkpt lat="44.59908638044748" lon="10.591586298403914"><ele>280.6666666666667</ele><time>2026-04-25T14:52:45.016Z</time></trkpt><trkpt lat="44.59917395462606" lon="10.591603108039184"><ele>281.3333333333333</ele><time>2026-04-25T14:52:46.016Z</time></trkpt><trkpt lat="44.59924403409273" lon="10.5916086112482"><ele>282.0</ele><time>2026-04-25T14:52:47.016Z</time></trkpt><trkpt lat="44.59931934850127" lon="10.591628667432222"><ele>282.0</ele><time>2026-04-25T14:52:48.016Z</time></trkpt><trkpt lat="44.59939980166978" lon="10.591637381918062"><ele>282.0</ele><time>2026-04-25T14:52:49.016Z</time></trkpt><trkpt lat="44.59948322190484" lon="10.591643677960803"><ele>282.0</ele><time>2026-04-25T14:52:50.016Z</time></trkpt><trkpt lat="44.599571318868406" lon="10.591687817001759"><ele>282.0</ele><time>2026-04-25T14:52:51.016Z</time></trkpt><trkpt lat="44.59965670105156" lon="10.591687015823956"><ele>282.0</ele><time>2026-04-25T14:52:52.016Z</time></trkpt><trkpt lat="44.599749083392844" lon="10.59168397298483"><ele>282.0</ele><time>2026-04-25T14:52:53.016Z</time></trkpt><trkpt lat="44.599848823069166" lon="10.59169210409489"><ele>281.8</ele><time>2026-04-25T14:52:54.016Z</time></trkpt><trkpt lat="44.5999487004023" lon="10.59170508613042"><ele>281.6</ele><time>2026-04-25T14:52:55.016Z</time></trkpt><trkpt lat="44.60005181310563" lon="10.591712838996182"><ele>281.40000000000003</ele><time>2026-04-25T14:52:56.016Z</time></trkpt><trkpt lat="44.60015638826817" lon="10.591717657574463"><ele>281.2</ele><time>2026-04-25T14:52:57.016Z</time></trkpt><trkpt lat="44.600263082123625" lon="10.591711175279574"><ele>281.0</ele><time>2026-04-25T14:52:58.016Z</time></trkpt><trkpt lat="44.60036481158984" lon="10.591729402149925"><ele>280.0</ele><time>2026-04-25T14:52:59.016Z</time></trkpt><trkpt lat="44.60046236508807" lon="10.59172807351624"><ele>279.0</ele><time>2026-04-25T14:53:00.016Z</time></trkpt><trkpt lat="44.60054592887986" lon="10.591735795803949"><ele>278.0</ele><time>2026-04-25T14:53:01.016Z</time></trkpt><trkpt lat="44.6006271566616" lon="10.591732353834855"><ele>277.0</ele><time>2026-04-25T14:53:02.016Z</time></trkpt><trkpt lat="44.60073366211413" lon="10.591755282985037"><ele>276.0</ele><time>2026-04-25T14:53:04.016Z</time></trkpt><trkpt lat="44.60079812153516" lon="10.591783620462852"><ele>275.0</ele><time>2026-04-25T14:53:06.016Z</time></trkpt><trkpt lat="44.6008563976141" lon="10.591867337976073"><ele>276.6666666666667</ele><time>2026-04-25T14:53:08.017Z</time></trkpt><trkpt lat="44.600907005886114" lon="10.592026484892068"><ele>278.33333333333337</ele><time>2026-04-25T14:53:10.017Z</time></trkpt><trkpt lat="44.60092116814639" lon="10.592129019422028"><ele>280.0</ele><time>2026-04-25T14:53:11.017Z</time></trkpt><trkpt lat="44.600915184381996" lon="10.592222839655959"><ele>281.6666666666667</ele><time>2026-04-25T14:53:12.017Z</time></trkpt><trkpt lat="44.600896330795" lon="10.592316011343806"><ele>283.3333333333333</ele><time>2026-04-25T14:53:13.017Z</time></trkpt><trkpt lat="44.60088159197512" lon="10.592418116541879"><ele>285.0</ele><time>2026-04-25T14:53:14.017Z</time></trkpt><trkpt lat="44.6008710717929" lon="10.592511613675635"><ele>285.0</ele><time>2026-04-25T14:53:15.017Z</time></trkpt><trkpt lat="44.60085521575049" lon="10.592608668801411"><ele>285.0</ele><time>2026-04-25T14:53:16.017Z</time></trkpt><trkpt lat="44.60085835569794" lon="10.59271804958852"><ele>285.0</ele><time>2026-04-25T14:53:17.017Z</time></trkpt><trkpt lat="44.60084761358845" lon="10.592834016031752"><ele>285.0</ele><time>2026-04-25T14:53:18.017Z</time></trkpt><trkpt lat="44.60087851839059" lon="10.592947124824555"><ele>285.0</ele><time>2026-04-25T14:53:19.017Z</time></trkpt><trkpt lat="44.6009246195721" lon="10.59304268197033"><ele>285.0</ele><time>2026-04-25T14:53:20.017Z</time></trkpt><trkpt lat="44.60096100726153" lon="10.593136378218453"><ele>285.5</ele><time>2026-04-25T14:53:21.017Z</time></trkpt><trkpt lat="44.60098848577038" lon="10.593244762087844"><ele>286.0</ele><time>2026-04-25T14:53:22.017Z</time></trkpt><trkpt lat="44.60103481471582" lon="10.593342946839568"><ele>286.5</ele><time>2026-04-25T14:53:23.017Z</time></trkpt><trkpt lat="44.6010878931381" lon="10.593437310681434"><ele>287.0</ele><time>2026-04-25T14:53:24.017Z</time></trkpt><trkpt lat="44.6011451320324" lon="10.59351990460654"><ele>287.5</ele><time>2026-04-25T14:53:25.017Z</time></trkpt><trkpt lat="44.601213840217206" lon="10.593584915154088"><ele>288.0</ele><time>2026-04-25T14:53:26.017Z</time></trkpt><trkpt lat="44.601293586148905" lon="10.593640226491635"><ele>285.5</ele><time>2026-04-25T14:53:27.017Z</time></trkpt><trkpt lat="44.60136822684845" lon="10.593696196909105"><ele>283.0</ele><time>2026-04-25T14:53:28.017Z</time></trkpt><trkpt lat="44.60143632407336" lon="10.593757259737242"><ele>280.5</ele><time>2026-04-25T14:53:29.017Z</time></trkpt><trkpt lat="44.60149423221916" lon="10.593829461923674"><ele>278.0</ele><time>2026-04-25T14:53:30.017Z</time></trkpt><trkpt lat="44.60155786396734" lon="10.593906530503812"><ele>275.5</ele><time>2026-04-25T14:53:31.017Z</time></trkpt><trkpt lat="44.601626357255164" lon="10.593985016241584"><ele>273.0</ele><time>2026-04-25T14:53:32.017Z</time></trkpt><trkpt lat="44.6016976904078" lon="10.594050138881064"><ele>273.0</ele><time>2026-04-25T14:53:33.017Z</time></trkpt><trkpt lat="44.601776490229966" lon="10.594122192643022"><ele>273.0</ele><time>2026-04-25T14:53:34.017Z</time></trkpt><trkpt lat="44.60186094662586" lon="10.594180432342737"><ele>273.0</ele><time>2026-04-25T14:53:35.017Z</time></trkpt><trkpt lat="44.60193866837281" lon="10.594227109045509"><ele>273.0</ele><time>2026-04-25T14:53:36.017Z</time></trkpt><trkpt lat="44.60203277464734" lon="10.594261397062988"><ele>273.0</ele><time>2026-04-25T14:53:37.017Z</time></trkpt><trkpt lat="44.60212649394315" lon="10.594293854210898"><ele>270.2</ele><time>2026-04-25T14:53:38.017Z</time></trkpt><trkpt lat="44.60220422042121" lon="10.594340857231046"><ele>267.4</ele><time>2026-04-25T14:53:39.017Z</time></trkpt><trkpt lat="44.60229839320544" lon="10.5943670713402"><ele>264.59999999999997</ele><time>2026-04-25T14:53:40.017Z</time></trkpt><trkpt lat="44.60239372324792" lon="10.594404029410278"><ele>261.8</ele><time>2026-04-25T14:53:41.017Z</time></trkpt><trkpt lat="44.602481365420104" lon="10.594437190119718"><ele>259.0</ele><time>2026-04-25T14:53:42.017Z</time></trkpt><trkpt lat="44.60255932773936" lon="10.594486631680732"><ele>258.5</ele><time>2026-04-25T14:53:43.017Z</time></trkpt><trkpt lat="44.60263157393902" lon="10.594538159382852"><ele>258.0</ele><time>2026-04-25T14:53:44.017Z</time></trkpt><trkpt lat="44.60270143850129" lon="10.594590632250865"><ele>257.5</ele><time>2026-04-25T14:53:45.016Z</time></trkpt><trkpt lat="44.60276746496908" lon="10.594653902908151"><ele>257.0</ele><time>2026-04-25T14:53:46.016Z</time></trkpt><trkpt lat="44.602831360562604" lon="10.594730465240403"><ele>256.5</ele><time>2026-04-25T14:53:47.016Z</time></trkpt><trkpt lat="44.60289554735429" lon="10.594811201134613"><ele>256.0</ele><time>2026-04-25T14:53:48.016Z</time></trkpt><trkpt lat="44.602956057430696" lon="10.59489261599717"><ele>256.0</ele><time>2026-04-25T14:53:49.015Z</time></trkpt><trkpt lat="44.60301740346476" lon="10.594967450157998"><ele>256.0</ele><time>2026-04-25T14:53:50.016Z</time></trkpt><trkpt lat="44.603081516538744" lon="10.595041750700224"><ele>256.0</ele><time>2026-04-25T14:53:51.016Z</time></trkpt><trkpt lat="44.60315932527895" lon="10.595107877887974"><ele>256.0</ele><time>2026-04-25T14:53:52.016Z</time></trkpt><trkpt lat="44.603266033987275" lon="10.595168517224614"><ele>256.0</ele><time>2026-04-25T14:53:53.016Z</time></trkpt><trkpt lat="44.60338122037253" lon="10.595244875331376"><ele>256.0</ele><time>2026-04-25T14:53:54.016Z</time></trkpt><trkpt lat="44.603508924350635" lon="10.595289535518287"><ele>256.0</ele><time>2026-04-25T14:53:55.016Z</time></trkpt><trkpt lat="44.60363571594964" lon="10.595396629080058"><ele>256.0</ele><time>2026-04-25T14:53:56.016Z</time></trkpt><trkpt lat="44.60377201944739" lon="10.595477085379539"><ele>256.0</ele><time>2026-04-25T14:53:57.016Z</time></trkpt><trkpt lat="44.60392203317995" lon="10.595546244183867"><ele>255.33333333333331</ele><time>2026-04-25T14:53:58.016Z</time></trkpt><trkpt lat="44.60408527932874" lon="10.59562164984395"><ele>254.66666666666669</ele><time>2026-04-25T14:53:59.016Z</time></trkpt><trkpt lat="44.60423821286955" lon="10.595698432166408"><ele>254.0</ele><time>2026-04-25T14:54:00.016Z</time></trkpt><trkpt lat="44.60439524767872" lon="10.595783221029505"><ele>252.0</ele><time>2026-04-25T14:54:01.016Z</time></trkpt><trkpt lat="44.604553492223936" lon="10.595858104714901"><ele>250.0</ele><time>2026-04-25T14:54:02.016Z</time></trkpt><trkpt lat="44.604721642520445" lon="10.59594301031264"><ele>248.0</ele><time>2026-04-25T14:54:03.016Z</time></trkpt><trkpt lat="44.60488813781991" lon="10.596019317805597"><ele>248.0</ele><time>2026-04-25T14:54:04.016Z</time></trkpt><trkpt lat="44.605049183146825" lon="10.596093764857283"><ele>248.0</ele><time>2026-04-25T14:54:05.016Z</time></trkpt><trkpt lat="44.6052197214101" lon="10.596137400233655"><ele>248.0</ele><time>2026-04-25T14:54:06.016Z</time></trkpt><trkpt lat="44.605389609764856" lon="10.596197372710925"><ele>246.33333333333334</ele><time>2026-04-25T14:54:07.016Z</time></trkpt><trkpt lat="44.60556069562285" lon="10.596267495684002"><ele>244.66666666666669</ele><time>2026-04-25T14:54:08.016Z</time></trkpt><trkpt lat="44.60572482088552" lon="10.596357430299953"><ele>243.0</ele><time>2026-04-25T14:54:09.016Z</time></trkpt><trkpt lat="44.6059056883777" lon="10.596410901367753"><ele>243.0</ele><time>2026-04-25T14:54:10.016Z</time></trkpt><trkpt lat="44.60606748475501" lon="10.59650195052419"><ele>243.0</ele><time>2026-04-25T14:54:11.016Z</time></trkpt><trkpt lat="44.60622913935453" lon="10.596567103968603"><ele>243.0</ele><time>2026-04-25T14:54:12.016Z</time></trkpt><trkpt lat="44.60639937203315" lon="10.59661088265957"><ele>242.0</ele><time>2026-04-25T14:54:13.016Z</time></trkpt><trkpt lat="44.60656385555284" lon="10.59669747724648"><ele>241.0</ele><time>2026-04-25T14:54:14.016Z</time></trkpt><trkpt lat="44.606732357335176" lon="10.596737007771548"><ele>240.0</ele><time>2026-04-25T14:54:15.016Z</time></trkpt><trkpt lat="44.60690294294928" lon="10.596753431402869"><ele>238.0</ele><time>2026-04-25T14:54:16.016Z</time></trkpt><trkpt lat="44.6070744918453" lon="10.596750491026496"><ele>236.0</ele><time>2026-04-25T14:54:17.016Z</time></trkpt><trkpt lat="44.60723504186426" lon="10.596737174751588"><ele>234.0</ele><time>2026-04-25T14:54:18.016Z</time></trkpt><trkpt lat="44.607389939230124" lon="10.59671692364507"><ele>234.0</ele><time>2026-04-25T14:54:19.016Z</time></trkpt><trkpt lat="44.60752637638197" lon="10.596711305358347"><ele>234.0</ele><time>2026-04-25T14:54:20.016Z</time></trkpt><trkpt lat="44.60766220079454" lon="10.596719478949565"><ele>234.0</ele><time>2026-04-25T14:54:21.016Z</time></trkpt><trkpt lat="44.60780791242419" lon="10.596742870646384"><ele>234.0</ele><time>2026-04-25T14:54:22.016Z</time></trkpt><trkpt lat="44.60795672265872" lon="10.596817645006615"><ele>233.66666666666669</ele><time>2026-04-25T14:54:23.016Z</time></trkpt><trkpt lat="44.60810762442244" lon="10.596898704366886"><ele>233.33333333333334</ele><time>2026-04-25T14:54:24.016Z</time></trkpt><trkpt lat="44.60826073551872" lon="10.59697471500077"><ele>233.0</ele><time>2026-04-25T14:54:25.016Z</time></trkpt><trkpt lat="44.60840207756059" lon="10.597081268517854"><ele>233.0</ele><time>2026-04-25T14:54:26.016Z</time></trkpt><trkpt lat="44.6085428902852" lon="10.597195274289334"><ele>233.0</ele><time>2026-04-25T14:54:27.016Z</time></trkpt><trkpt lat="44.60868525005008" lon="10.597311015809021"><ele>233.0</ele><time>2026-04-25T14:54:28.016Z</time></trkpt><trkpt lat="44.608810203866646" lon="10.597461744117"><ele>229.0</ele><time>2026-04-25T14:54:29.016Z</time></trkpt><trkpt lat="44.60893542312604" lon="10.597571701646814"><ele>225.0</ele><time>2026-04-25T14:54:30.016Z</time></trkpt><trkpt lat="44.609059648991504" lon="10.597708399199833"><ele>221.0</ele><time>2026-04-25T14:54:31.016Z</time></trkpt><trkpt lat="44.60917865002661" lon="10.597832615145716"><ele>221.0</ele><time>2026-04-25T14:54:32.016Z</time></trkpt><trkpt lat="44.609309322941925" lon="10.59793925550961"><ele>221.0</ele><time>2026-04-25T14:54:33.017Z</time></trkpt><trkpt lat="44.609462369549576" lon="10.598025125861517"><ele>221.0</ele><time>2026-04-25T14:54:34.017Z</time></trkpt><trkpt lat="44.609605132549156" lon="10.598110750060835"><ele>219.33333333333334</ele><time>2026-04-25T14:54:35.017Z</time></trkpt><trkpt lat="44.6097575585902" lon="10.598196867352682"><ele>217.66666666666669</ele><time>2026-04-25T14:54:36.017Z</time></trkpt><trkpt lat="44.60990025002619" lon="10.59827655404877"><ele>216.0</ele><time>2026-04-25T14:54:37.017Z</time></trkpt><trkpt lat="44.61004378073595" lon="10.598353881612958"><ele>216.0</ele><time>2026-04-25T14:54:38.017Z</time></trkpt><trkpt lat="44.6101780725387" lon="10.598428181408792"><ele>216.0</ele><time>2026-04-25T14:54:39.017Z</time></trkpt><trkpt lat="44.610315219205326" lon="10.59849858135064"><ele>216.0</ele><time>2026-04-25T14:54:40.017Z</time></trkpt><trkpt lat="44.61046335501824" lon="10.598567239875338"><ele>216.0</ele><time>2026-04-25T14:54:41.017Z</time></trkpt><trkpt lat="44.61060994739905" lon="10.598642735358206"><ele>215.33333333333331</ele><time>2026-04-25T14:54:42.017Z</time></trkpt><trkpt lat="44.6107606598769" lon="10.598735468048972"><ele>214.66666666666666</ele><time>2026-04-25T14:54:43.017Z</time></trkpt><trkpt lat="44.61090616548643" lon="10.59881204499356"><ele>214.0</ele><time>2026-04-25T14:54:44.017Z</time></trkpt><trkpt lat="44.61105549986052" lon="10.598893742829361"><ele>211.0</ele><time>2026-04-25T14:54:45.017Z</time></trkpt><trkpt lat="44.61119800661347" lon="10.598987320039914"><ele>208.0</ele><time>2026-04-25T14:54:46.017Z</time></trkpt><trkpt lat="44.61133603793102" lon="10.599085874357948"><ele>205.0</ele><time>2026-04-25T14:54:47.017Z</time></trkpt><trkpt lat="44.61149233272092" lon="10.599176416614215"><ele>205.0</ele><time>2026-04-25T14:54:48.017Z</time></trkpt><trkpt lat="44.611635661870146" lon="10.599265394416692"><ele>205.0</ele><time>2026-04-25T14:54:49.017Z</time></trkpt><trkpt lat="44.61179001347558" lon="10.599340782170128"><ele>205.0</ele><time>2026-04-25T14:54:50.017Z</time></trkpt><trkpt lat="44.611927806126154" lon="10.59941720564919"><ele>204.75</ele><time>2026-04-25T14:54:51.017Z</time></trkpt><trkpt lat="44.61206096347422" lon="10.59950192922095"><ele>204.5</ele><time>2026-04-25T14:54:52.017Z</time></trkpt><trkpt lat="44.612193695967775" lon="10.599582226897084"><ele>204.25</ele><time>2026-04-25T14:54:53.017Z</time></trkpt><trkpt lat="44.61233778837909" lon="10.599666492464339"><ele>204.0</ele><time>2026-04-25T14:54:54.017Z</time></trkpt><trkpt lat="44.61247934950797" lon="10.599765305205064"><ele>204.0</ele><time>2026-04-25T14:54:55.017Z</time></trkpt><trkpt lat="44.61260079760103" lon="10.59985028629821"><ele>204.0</ele><time>2026-04-25T14:54:56.017Z</time></trkpt><trkpt lat="44.61273396494989" lon="10.599935389807142"><ele>204.0</ele><time>2026-04-25T14:54:57.017Z</time></trkpt><trkpt lat="44.61287532103041" lon="10.600020028015031"><ele>204.0</ele><time>2026-04-25T14:54:58.017Z</time></trkpt><trkpt lat="44.61301706695151" lon="10.600104101470205"><ele>201.33333333333331</ele><time>2026-04-25T14:54:59.017Z</time></trkpt><trkpt lat="44.61315565450697" lon="10.600182548069013"><ele>198.66666666666666</ele><time>2026-04-25T14:55:00.017Z</time></trkpt><trkpt lat="44.61329458049597" lon="10.600257720785086"><ele>196.0</ele><time>2026-04-25T14:55:01.017Z</time></trkpt><trkpt lat="44.61343968569909" lon="10.600318351451346"><ele>197.66666666666666</ele><time>2026-04-25T14:55:02.017Z</time></trkpt><trkpt lat="44.613587105873336" lon="10.600367726119286"><ele>199.33333333333331</ele><time>2026-04-25T14:55:03.017Z</time></trkpt><trkpt lat="44.613729964292865" lon="10.60042995683012"><ele>201.0</ele><time>2026-04-25T14:55:04.017Z</time></trkpt><trkpt lat="44.61387531238668" lon="10.600498776638624"><ele>201.0</ele><time>2026-04-25T14:55:05.017Z</time></trkpt><trkpt lat="44.6140167571767" lon="10.600593842869852"><ele>201.0</ele><time>2026-04-25T14:55:06.017Z</time></trkpt><trkpt lat="44.614161772217805" lon="10.600661818396862"><ele>201.0</ele><time>2026-04-25T14:55:07.017Z</time></trkpt><trkpt lat="44.61430399183948" lon="10.60072735304907"><ele>201.0</ele><time>2026-04-25T14:55:08.017Z</time></trkpt><trkpt lat="44.614442665106075" lon="10.600784834590431"><ele>201.0</ele><time>2026-04-25T14:55:09.017Z</time></trkpt><trkpt lat="44.61458703761782" lon="10.600826006371358"><ele>201.0</ele><time>2026-04-25T14:55:10.017Z</time></trkpt><trkpt lat="44.614738105517894" lon="10.600881645289617"><ele>201.0</ele><time>2026-04-25T14:55:11.017Z</time></trkpt><trkpt lat="44.61487296821729" lon="10.600930037943305"><ele>200.25</ele><time>2026-04-25T14:55:12.017Z</time></trkpt><trkpt lat="44.61501946941971" lon="10.600966769377578"><ele>199.5</ele><time>2026-04-25T14:55:13.017Z</time></trkpt><trkpt lat="44.61515229710604" lon="10.601057680932657"><ele>198.75</ele><time>2026-04-25T14:55:14.017Z</time></trkpt><trkpt lat="44.61528781467214" lon="10.601136046439827"><ele>198.0</ele><time>2026-04-25T14:55:15.017Z</time></trkpt><trkpt lat="44.61542454602568" lon="10.601215175920755"><ele>198.0</ele><time>2026-04-25T14:55:16.017Z</time></trkpt><trkpt lat="44.61555299505982" lon="10.601288150011861"><ele>198.0</ele><time>2026-04-25T14:55:17.017Z</time></trkpt><trkpt lat="44.615681554535925" lon="10.601360721930911"><ele>198.0</ele><time>2026-04-25T14:55:18.017Z</time></trkpt><trkpt lat="44.615808712263096" lon="10.601409605867177"><ele>198.0</ele><time>2026-04-25T14:55:19.017Z</time></trkpt><trkpt lat="44.61593251311495" lon="10.601431733431289"><ele>198.0</ele><time>2026-04-25T14:55:20.017Z</time></trkpt><trkpt lat="44.61606522802925" lon="10.601449871662165"><ele>198.0</ele><time>2026-04-25T14:55:21.017Z</time></trkpt><trkpt lat="44.61618277717549" lon="10.601431339718351"><ele>198.0</ele><time>2026-04-25T14:55:22.017Z</time></trkpt><trkpt lat="44.61628734688082" lon="10.601425052284629"><ele>198.0</ele><time>2026-04-25T14:55:23.017Z</time></trkpt><trkpt lat="44.61638041313568" lon="10.601476370207854"><ele>196.4</ele><time>2026-04-25T14:55:24.017Z</time></trkpt><trkpt lat="44.61644838687341" lon="10.60155900108636"><ele>194.8</ele><time>2026-04-25T14:55:25.017Z</time></trkpt><trkpt lat="44.61649464997941" lon="10.60170287125166"><ele>193.2</ele><time>2026-04-25T14:55:26.018Z</time></trkpt><trkpt lat="44.616506011127804" lon="10.601872182905492"><ele>191.6</ele><time>2026-04-25T14:55:27.018Z</time></trkpt><trkpt lat="44.61654802744302" lon="10.602035014980036"><ele>190.0</ele><time>2026-04-25T14:55:28.018Z</time></trkpt><trkpt lat="44.61659350498451" lon="10.602166408694657"><ele>190.0</ele><time>2026-04-25T14:55:29.018Z</time></trkpt><trkpt lat="44.61666546449613" lon="10.602263749918304"><ele>190.0</ele><time>2026-04-25T14:55:30.018Z</time></trkpt><trkpt lat="44.6167680890538" lon="10.602323921681776"><ele>190.0</ele><time>2026-04-25T14:55:31.018Z</time></trkpt><trkpt lat="44.616900069404636" lon="10.602325080926875"><ele>190.0</ele><time>2026-04-25T14:55:32.018Z</time></trkpt><trkpt lat="44.617018371975014" lon="10.602340267526033"><ele>185.5</ele><time>2026-04-25T14:55:33.018Z</time></trkpt><trkpt lat="44.61712955701353" lon="10.602382499555274"><ele>181.0</ele><time>2026-04-25T14:55:34.018Z</time></trkpt><trkpt lat="44.617244644341696" lon="10.602433438695156"><ele>176.5</ele><time>2026-04-25T14:55:35.018Z</time></trkpt><trkpt lat="44.617361302041374" lon="10.60247257363283"><ele>172.0</ele><time>2026-04-25T14:55:36.018Z</time></trkpt><trkpt lat="44.617475556644635" lon="10.602507881665009"><ele>172.0</ele><time>2026-04-25T14:55:37.018Z</time></trkpt><trkpt lat="44.61759541657909" lon="10.602548560295878"><ele>172.0</ele><time>2026-04-25T14:55:38.018Z</time></trkpt><trkpt lat="44.61770715389945" lon="10.602585654179435"><ele>172.0</ele><time>2026-04-25T14:55:39.018Z</time></trkpt><trkpt lat="44.617810347671494" lon="10.602623383009933"><ele>172.0</ele><time>2026-04-25T14:55:40.018Z</time></trkpt><trkpt lat="44.61790807128919" lon="10.602657411764884"><ele>172.0</ele><time>2026-04-25T14:55:41.018Z</time></trkpt><trkpt lat="44.618007709691156" lon="10.602694663559193"><ele>171.0</ele><time>2026-04-25T14:55:42.018Z</time></trkpt><trkpt lat="44.618095976594624" lon="10.602727988249566"><ele>170.0</ele><time>2026-04-25T14:55:43.018Z</time></trkpt><trkpt lat="44.6181813798733" lon="10.602765355309339"><ele>169.0</ele><time>2026-04-25T14:55:44.018Z</time></trkpt><trkpt lat="44.61826309466659" lon="10.602803630342626"><ele>168.0</ele><time>2026-04-25T14:55:45.018Z</time></trkpt><trkpt lat="44.618337228653985" lon="10.602787430899921"><ele>167.0</ele><time>2026-04-25T14:55:46.018Z</time></trkpt><trkpt lat="44.61841172788254" lon="10.602760361063128"><ele>166.0</ele><time>2026-04-25T14:55:47.018Z</time></trkpt><trkpt lat="44.61851033998643" lon="10.602755122973173"><ele>166.0</ele><time>2026-04-25T14:55:48.018Z</time></trkpt><trkpt lat="44.618606043182695" lon="10.602734900959147"><ele>166.0</ele><time>2026-04-25T14:55:49.018Z</time></trkpt><trkpt lat="44.61870412451633" lon="10.602670233454077"><ele>166.0</ele><time>2026-04-25T14:55:50.018Z</time></trkpt><trkpt lat="44.61880743458168" lon="10.602655120040895"><ele>166.0</ele><time>2026-04-25T14:55:51.017Z</time></trkpt><trkpt lat="44.61891010114874" lon="10.602632178416213"><ele>166.0</ele><time>2026-04-25T14:55:52.017Z</time></trkpt><trkpt lat="44.619008112623845" lon="10.60261826694976"><ele>165.66666666666669</ele><time>2026-04-25T14:55:53.017Z</time></trkpt><trkpt lat="44.61909961152689" lon="10.602595196790132"><ele>165.33333333333334</ele><time>2026-04-25T14:55:54.017Z</time></trkpt><trkpt lat="44.61918598205983" lon="10.60258446556281"><ele>165.0</ele><time>2026-04-25T14:55:55.016Z</time></trkpt><trkpt lat="44.61926839055018" lon="10.602577419506499"><ele>164.66666666666666</ele><time>2026-04-25T14:55:56.016Z</time></trkpt><trkpt lat="44.619339079927336" lon="10.60258062167754"><ele>164.33333333333331</ele><time>2026-04-25T14:55:57.016Z</time></trkpt><trkpt lat="44.61943369503198" lon="10.602604999487198"><ele>164.0</ele><time>2026-04-25T14:55:59.017Z</time></trkpt><trkpt lat="44.619511746472156" lon="10.602642874115817"><ele>163.99999999999997</ele><time>2026-04-25T14:56:01.017Z</time></trkpt><trkpt lat="44.61958619352733" lon="10.602659991768089"><ele>164.0</ele><time>2026-04-25T14:56:03.017Z</time></trkpt><trkpt lat="44.619666478321065" lon="10.602680068166832"><ele>164.0</ele><time>2026-04-25T14:56:06.017Z</time></trkpt><trkpt lat="44.619720115737636" lon="10.602729572626606"><ele>164.0</ele><time>2026-04-25T14:56:08.017Z</time></trkpt><trkpt lat="44.61976025760914" lon="10.60280084504485"><ele>164.0</ele><time>2026-04-25T14:56:49.018Z</time></trkpt><trkpt lat="44.61984185309397" lon="10.602829685838996"><ele>163.99999999999997</ele><time>2026-04-25T14:56:51.018Z</time></trkpt><trkpt lat="44.61990098083769" lon="10.602861757833079"><ele>164.0</ele><time>2026-04-25T14:56:52.018Z</time></trkpt><trkpt lat="44.6200128992521" lon="10.602885414384076"><ele>164.0</ele><time>2026-04-25T14:56:54.018Z</time></trkpt><trkpt lat="44.62010854223016" lon="10.602834330912923"><ele>164.0</ele><time>2026-04-25T14:56:56.018Z</time></trkpt><trkpt lat="44.62020769179343" lon="10.602768824429205"><ele>164.0</ele><time>2026-04-25T14:56:58.018Z</time></trkpt><trkpt lat="44.62028752021767" lon="10.602742435336578"><ele>164.0</ele><time>2026-04-25T14:57:00.018Z</time></trkpt><trkpt lat="44.620315384472285" lon="10.60262556043295"><ele>164.0</ele><time>2026-04-25T14:57:02.018Z</time></trkpt><trkpt lat="44.620371713912455" lon="10.602568002301199"><ele>163.0</ele><time>2026-04-25T14:57:05.018Z</time></trkpt></trkseg><trkseg><trkpt lat="44.62032621293181" lon="10.602587108417804"><ele>163.16666666666669</ele><time>2026-04-25T16:53:42.083Z</time></trkpt><trkpt lat="44.62027021166629" lon="10.60265237186066"><ele>163.33333333333334</ele><time>2026-04-25T16:53:44.001Z</time></trkpt><trkpt lat="44.62023904108366" lon="10.602733902663202"><ele>163.5</ele><time>2026-04-25T16:53:47.001Z</time></trkpt><trkpt lat="44.620296418965" lon="10.602797913887741"><ele>163.66666666666666</ele><time>2026-04-25T16:54:03.001Z</time></trkpt><trkpt lat="44.62036746776963" lon="10.60283420988868"><ele>163.83333333333331</ele><time>2026-04-25T16:54:05.001Z</time></trkpt><trkpt lat="44.62041897870373" lon="10.602889786669278"><ele>164.0</ele><time>2026-04-25T16:54:07.001Z</time></trkpt><trkpt lat="44.62054880211163" lon="10.602976004668275"><ele>163.2</ele><time>2026-04-25T16:54:09.001Z</time></trkpt><trkpt lat="44.62063418276831" lon="10.603042181092903"><ele>162.39999999999998</ele><time>2026-04-25T16:54:10.001Z</time></trkpt><trkpt lat="44.62072113624598" lon="10.603110137431202"><ele>161.6</ele><time>2026-04-25T16:54:11.001Z</time></trkpt><trkpt lat="44.62080389268825" lon="10.603153505193923"><ele>160.8</ele><time>2026-04-25T16:54:12.001Z</time></trkpt><trkpt lat="44.620871138724326" lon="10.603181000609863"><ele>160.0</ele><time>2026-04-25T16:54:13.001Z</time></trkpt><trkpt lat="44.62098560250449" lon="10.603227363173367"><ele>160.0</ele><time>2026-04-25T16:54:15.001Z</time></trkpt><trkpt lat="44.621067087536886" lon="10.603286060861612"><ele>160.0</ele><time>2026-04-25T16:54:17.001Z</time></trkpt><trkpt lat="44.62113529858108" lon="10.603323761542578"><ele>160.0</ele><time>2026-04-25T16:54:24.001Z</time></trkpt><trkpt lat="44.621184469333045" lon="10.603411034526143"><ele>160.0</ele><time>2026-04-25T16:54:33.001Z</time></trkpt><trkpt lat="44.62124437268176" lon="10.603510123660522"><ele>160.0</ele><time>2026-04-25T16:54:35.001Z</time></trkpt><trkpt lat="44.62134175153615" lon="10.603507288672944"><ele>160.0</ele><time>2026-04-25T16:54:37.001Z</time></trkpt><trkpt lat="44.62138377195455" lon="10.60332105436187"><ele>159.5</ele><time>2026-04-25T16:54:39.001Z</time></trkpt><trkpt lat="44.62139178498939" lon="10.603203933946483"><ele>159.0</ele><time>2026-04-25T16:54:40.001Z</time></trkpt><trkpt lat="44.621415560360205" lon="10.603086447232238"><ele>158.5</ele><time>2026-04-25T16:54:41.001Z</time></trkpt><trkpt lat="44.62144657069872" lon="10.60297997551071"><ele>158.0</ele><time>2026-04-25T16:54:42.001Z</time></trkpt><trkpt lat="44.621485318888205" lon="10.602871567434669"><ele>157.5</ele><time>2026-04-25T16:54:43.001Z</time></trkpt><trkpt lat="44.62151739587424" lon="10.602756291576405"><ele>157.0</ele><time>2026-04-25T16:54:44.001Z</time></trkpt><trkpt lat="44.62156179402579" lon="10.602646539475993"><ele>157.0</ele><time>2026-04-25T16:54:45.001Z</time></trkpt><trkpt lat="44.621606931375254" lon="10.602528776752948"><ele>157.0</ele><time>2026-04-25T16:54:46.001Z</time></trkpt><trkpt lat="44.621656969643176" lon="10.602408953113235"><ele>157.0</ele><time>2026-04-25T16:54:47.001Z</time></trkpt><trkpt lat="44.621701854715965" lon="10.602283829917164"><ele>157.0</ele><time>2026-04-25T16:54:48.001Z</time></trkpt><trkpt lat="44.621744583933406" lon="10.602159135854182"><ele>157.0</ele><time>2026-04-25T16:54:49.001Z</time></trkpt><trkpt lat="44.62180033221133" lon="10.602026387491081"><ele>157.5</ele><time>2026-04-25T16:54:50.001Z</time></trkpt><trkpt lat="44.621866136147986" lon="10.60187122041799"><ele>158.0</ele><time>2026-04-25T16:54:51.001Z</time></trkpt><trkpt lat="44.62193205325766" lon="10.601682096413636"><ele>158.5</ele><time>2026-04-25T16:54:52.001Z</time></trkpt><trkpt lat="44.6219990802988" lon="10.601492219071107"><ele>159.0</ele><time>2026-04-25T16:54:53.001Z</time></trkpt><trkpt lat="44.62205931519143" lon="10.601289320336324"><ele>157.33333333333334</ele><time>2026-04-25T16:54:54.001Z</time></trkpt><trkpt lat="44.6221514642701" lon="10.601112032408587"><ele>155.66666666666669</ele><time>2026-04-25T16:54:55.001Z</time></trkpt><trkpt lat="44.62222483321323" lon="10.600920643047457"><ele>154.0</ele><time>2026-04-25T16:54:56.001Z</time></trkpt><trkpt lat="44.622300519633995" lon="10.600723208202345"><ele>154.0</ele><time>2026-04-25T16:54:57.001Z</time></trkpt><trkpt lat="44.62237270518395" lon="10.60053490596911"><ele>154.0</ele><time>2026-04-25T16:54:58.001Z</time></trkpt><trkpt lat="44.62244513939698" lon="10.60034450133675"><ele>154.0</ele><time>2026-04-25T16:54:59.001Z</time></trkpt><trkpt lat="44.62251961091614" lon="10.60014729072139"><ele>151.33333333333334</ele><time>2026-04-25T16:55:00.001Z</time></trkpt><trkpt lat="44.62259156797399" lon="10.599956568755008"><ele>148.66666666666666</ele><time>2026-04-25T16:55:01.001Z</time></trkpt><trkpt lat="44.622662843660166" lon="10.599768649248343"><ele>146.0</ele><time>2026-04-25T16:55:02.001Z</time></trkpt><trkpt lat="44.62273084345709" lon="10.599585160819265"><ele>144.33333333333331</ele><time>2026-04-25T16:55:03.001Z</time></trkpt><trkpt lat="44.62279816434695" lon="10.599397206796306"><ele>142.66666666666666</ele><time>2026-04-25T16:55:04.001Z</time></trkpt><trkpt lat="44.62285844008663" lon="10.599206739821701"><ele>141.0</ele><time>2026-04-25T16:55:05.001Z</time></trkpt><trkpt lat="44.62288155702876" lon="10.598996254042342"><ele>140.5</ele><time>2026-04-25T16:55:06.001Z</time></trkpt><trkpt lat="44.6229094793693" lon="10.59879340697767"><ele>140.0</ele><time>2026-04-25T16:55:07.001Z</time></trkpt><trkpt lat="44.62292080213115" lon="10.598584008412342"><ele>139.5</ele><time>2026-04-25T16:55:08.001Z</time></trkpt><trkpt lat="44.622920746065084" lon="10.598373249622984"><ele>139.0</ele><time>2026-04-25T16:55:09.001Z</time></trkpt><trkpt lat="44.62292420795053" lon="10.598170818986766"><ele>139.0</ele><time>2026-04-25T16:55:10.001Z</time></trkpt><trkpt lat="44.62292773989072" lon="10.59796530883917"><ele>139.0</ele><time>2026-04-25T16:55:11.001Z</time></trkpt><trkpt lat="44.62292753942515" lon="10.597764313708838"><ele>139.0</ele><time>2026-04-25T16:55:12.002Z</time></trkpt><trkpt lat="44.62291993401522" lon="10.597566766395426"><ele>139.0</ele><time>2026-04-25T16:55:13.002Z</time></trkpt><trkpt lat="44.62291988442711" lon="10.597371453168803"><ele>139.5</ele><time>2026-04-25T16:55:14.002Z</time></trkpt><trkpt lat="44.62292083670477" lon="10.597180641499778"><ele>140.0</ele><time>2026-04-25T16:55:15.002Z</time></trkpt><trkpt lat="44.622921454882835" lon="10.596985375909222"><ele>140.5</ele><time>2026-04-25T16:55:16.002Z</time></trkpt><trkpt lat="44.62292101582544" lon="10.596791881492592"><ele>141.0</ele><time>2026-04-25T16:55:17.002Z</time></trkpt><trkpt lat="44.62291445443232" lon="10.596595047510805"><ele>142.0</ele><time>2026-04-25T16:55:18.002Z</time></trkpt><trkpt lat="44.622914847260645" lon="10.596395279262062"><ele>143.0</ele><time>2026-04-25T16:55:19.002Z</time></trkpt><trkpt lat="44.62291734631378" lon="10.59620081250376"><ele>144.0</ele><time>2026-04-25T16:55:20.002Z</time></trkpt><trkpt lat="44.62291902330594" lon="10.596008253384014"><ele>145.0</ele><time>2026-04-25T16:55:21.002Z</time></trkpt><trkpt lat="44.62291134802671" lon="10.595825427334928"><ele>145.25</ele><time>2026-04-25T16:55:22.002Z</time></trkpt><trkpt lat="44.622914444501184" lon="10.595641362751385"><ele>145.5</ele><time>2026-04-25T16:55:23.002Z</time></trkpt><trkpt lat="44.62292672609048" lon="10.595458715300683"><ele>145.75</ele><time>2026-04-25T16:55:24.002Z</time></trkpt><trkpt lat="44.62297081496035" lon="10.59528954120647"><ele>146.0</ele><time>2026-04-25T16:55:25.002Z</time></trkpt><trkpt lat="44.623002142967586" lon="10.595110191732314"><ele>146.0</ele><time>2026-04-25T16:55:26.002Z</time></trkpt><trkpt lat="44.62306194109089" lon="10.594943733834599"><ele>146.0</ele><time>2026-04-25T16:55:27.002Z</time></trkpt><trkpt lat="44.623123661443834" lon="10.594772330236443"><ele>146.0</ele><time>2026-04-25T16:55:28.002Z</time></trkpt><trkpt lat="44.62318910786537" lon="10.59460484128817"><ele>146.0</ele><time>2026-04-25T16:55:29.002Z</time></trkpt><trkpt lat="44.62327662434089" lon="10.594456054823045"><ele>146.5</ele><time>2026-04-25T16:55:30.002Z</time></trkpt><trkpt lat="44.623356565243064" lon="10.594304167188263"><ele>147.0</ele><time>2026-04-25T16:55:31.002Z</time></trkpt><trkpt lat="44.62343621057109" lon="10.59415193315196"><ele>147.5</ele><time>2026-04-25T16:55:32.002Z</time></trkpt><trkpt lat="44.62351701041167" lon="10.593993589479217"><ele>148.0</ele><time>2026-04-25T16:55:33.002Z</time></trkpt><trkpt lat="44.623585729456" lon="10.59382630991212"><ele>147.75</ele><time>2026-04-25T16:55:34.002Z</time></trkpt><trkpt lat="44.623667311256405" lon="10.593675362126131"><ele>147.5</ele><time>2026-04-25T16:55:35.002Z</time></trkpt><trkpt lat="44.623742403093225" lon="10.593524397678774"><ele>147.25</ele><time>2026-04-25T16:55:36.002Z</time></trkpt><trkpt lat="44.623837000919565" lon="10.593405609999717"><ele>147.0</ele><time>2026-04-25T16:55:37.002Z</time></trkpt><trkpt lat="44.62391116426807" lon="10.593262580240209"><ele>147.0</ele><time>2026-04-25T16:55:38.002Z</time></trkpt><trkpt lat="44.62397889586117" lon="10.593125562907671"><ele>147.0</ele><time>2026-04-25T16:55:39.002Z</time></trkpt><trkpt lat="44.62405090885306" lon="10.593003121818441"><ele>147.0</ele><time>2026-04-25T16:55:40.002Z</time></trkpt><trkpt lat="44.62412067498012" lon="10.592866651197651"><ele>147.0</ele><time>2026-04-25T16:55:41.002Z</time></trkpt><trkpt lat="44.624175876747266" lon="10.592739813024924"><ele>146.79999999999998</ele><time>2026-04-25T16:55:42.002Z</time></trkpt><trkpt lat="44.62423569333445" lon="10.592620395611318"><ele>146.6</ele><time>2026-04-25T16:55:43.002Z</time></trkpt><trkpt lat="44.624288838531015" lon="10.592503222695544"><ele>146.39999999999998</ele><time>2026-04-25T16:55:44.002Z</time></trkpt><trkpt lat="44.62433536141235" lon="10.592396208086702"><ele>146.2</ele><time>2026-04-25T16:55:45.002Z</time></trkpt><trkpt lat="44.624382022127385" lon="10.59229824014616"><ele>146.0</ele><time>2026-04-25T16:55:46.002Z</time></trkpt><trkpt lat="44.62443095886681" lon="10.592218043633217"><ele>145.8</ele><time>2026-04-25T16:55:47.002Z</time></trkpt><trkpt lat="44.62449360583748" lon="10.592141283293502"><ele>145.6</ele><time>2026-04-25T16:55:48.002Z</time></trkpt><trkpt lat="44.62453643981257" lon="10.592024410928476"><ele>145.4</ele><time>2026-04-25T16:55:49.002Z</time></trkpt><trkpt lat="44.62455449396905" lon="10.5918970084893"><ele>145.2</ele><time>2026-04-25T16:55:50.002Z</time></trkpt><trkpt lat="44.62456451957862" lon="10.59174517486558"><ele>145.0</ele><time>2026-04-25T16:55:51.002Z</time></trkpt><trkpt lat="44.62460873261273" lon="10.591595085514015"><ele>145.0</ele><time>2026-04-25T16:55:52.002Z</time></trkpt><trkpt lat="44.62465920982604" lon="10.591436974297418"><ele>145.0</ele><time>2026-04-25T16:55:53.002Z</time></trkpt><trkpt lat="44.624698118830416" lon="10.591272211181952"><ele>145.0</ele><time>2026-04-25T16:55:54.002Z</time></trkpt><trkpt lat="44.62473425918618" lon="10.591106517377268"><ele>145.0</ele><time>2026-04-25T16:55:55.002Z</time></trkpt><trkpt lat="44.62475636935695" lon="10.590938752369873"><ele>144.75</ele><time>2026-04-25T16:55:56.002Z</time></trkpt><trkpt lat="44.624761835636264" lon="10.590758720860721"><ele>144.5</ele><time>2026-04-25T16:55:57.002Z</time></trkpt><trkpt lat="44.62476178086015" lon="10.590578002202717"><ele>144.25</ele><time>2026-04-25T16:55:58.002Z</time></trkpt><trkpt lat="44.6247483359707" lon="10.590395321243445"><ele>144.0</ele><time>2026-04-25T16:55:59.002Z</time></trkpt><trkpt lat="44.62472014657847" lon="10.590219976052138"><ele>143.0</ele><time>2026-04-25T16:56:00.002Z</time></trkpt><trkpt lat="44.62468326527189" lon="10.590054579287482"><ele>142.0</ele><time>2026-04-25T16:56:01.002Z</time></trkpt><trkpt lat="44.62464707482766" lon="10.58988466033412"><ele>141.0</ele><time>2026-04-25T16:56:02.002Z</time></trkpt><trkpt lat="44.62460729584899" lon="10.589711122627635"><ele>140.0</ele><time>2026-04-25T16:56:03.002Z</time></trkpt><trkpt lat="44.62456281018233" lon="10.589542921044192"><ele>139.0</ele><time>2026-04-25T16:56:04.002Z</time></trkpt><trkpt lat="44.624522223090594" lon="10.589372750247328"><ele>138.0</ele><time>2026-04-25T16:56:05.002Z</time></trkpt><trkpt lat="44.624481719065265" lon="10.589199195880644"><ele>137.0</ele><time>2026-04-25T16:56:06.002Z</time></trkpt><trkpt lat="44.62444185141102" lon="10.589022719607645"><ele>136.0</ele><time>2026-04-25T16:56:07.002Z</time></trkpt><trkpt lat="44.624402060314836" lon="10.588844500141644"><ele>138.0</ele><time>2026-04-25T16:56:08.002Z</time></trkpt><trkpt lat="44.62436085036673" lon="10.588658540887232"><ele>140.0</ele><time>2026-04-25T16:56:09.002Z</time></trkpt><trkpt lat="44.62430686619022" lon="10.588464599353669"><ele>142.0</ele><time>2026-04-25T16:56:10.002Z</time></trkpt><trkpt lat="44.62425944733116" lon="10.58826634601461"><ele>144.0</ele><time>2026-04-25T16:56:11.002Z</time></trkpt><trkpt lat="44.624213700969335" lon="10.58806179239111"><ele>144.0</ele><time>2026-04-25T16:56:12.002Z</time></trkpt><trkpt lat="44.62415618073378" lon="10.587859903736938"><ele>144.0</ele><time>2026-04-25T16:56:13.002Z</time></trkpt><trkpt lat="44.62407920514203" lon="10.587666231862057"><ele>144.0</ele><time>2026-04-25T16:56:14.002Z</time></trkpt><trkpt lat="44.62397958978904" lon="10.587498313371421"><ele>144.0</ele><time>2026-04-25T16:56:15.002Z</time></trkpt><trkpt lat="44.62385966421749" lon="10.587345218980976"><ele>144.0</ele><time>2026-04-25T16:56:16.002Z</time></trkpt><trkpt lat="44.6237167903674" lon="10.587229471248488"><ele>144.0</ele><time>2026-04-25T16:56:17.002Z</time></trkpt><trkpt lat="44.62355995227032" lon="10.587161140152418"><ele>144.0</ele><time>2026-04-25T16:56:18.002Z</time></trkpt><trkpt lat="44.62339181127514" lon="10.58712124156116"><ele>144.0</ele><time>2026-04-25T16:56:19.002Z</time></trkpt><trkpt lat="44.62322551845016" lon="10.587089696751153"><ele>144.0</ele><time>2026-04-25T16:56:20.002Z</time></trkpt><trkpt lat="44.62306963416872" lon="10.587046646614567"><ele>143.0</ele><time>2026-04-25T16:56:21.002Z</time></trkpt><trkpt lat="44.622911492447976" lon="10.58697323274698"><ele>142.0</ele><time>2026-04-25T16:56:22.002Z</time></trkpt><trkpt lat="44.622763570986805" lon="10.586876650761967"><ele>141.0</ele><time>2026-04-25T16:56:23.002Z</time></trkpt><trkpt lat="44.62265504934289" lon="10.586701939008632"><ele>141.0</ele><time>2026-04-25T16:56:24.003Z</time></trkpt><trkpt lat="44.62255785259125" lon="10.586516805134925"><ele>141.0</ele><time>2026-04-25T16:56:25.003Z</time></trkpt><trkpt lat="44.62246513083812" lon="10.586320420591191"><ele>141.0</ele><time>2026-04-25T16:56:26.003Z</time></trkpt><trkpt lat="44.622426094122794" lon="10.586098792112853"><ele>140.66666666666666</ele><time>2026-04-25T16:56:27.003Z</time></trkpt><trkpt lat="44.62237744868209" lon="10.58587641641587"><ele>140.33333333333331</ele><time>2026-04-25T16:56:28.003Z</time></trkpt><trkpt lat="44.62232145284425" lon="10.585660137999595"><ele>140.0</ele><time>2026-04-25T16:56:29.003Z</time></trkpt><trkpt lat="44.622280121631654" lon="10.585449739718415"><ele>139.75</ele><time>2026-04-25T16:56:30.003Z</time></trkpt><trkpt lat="44.622237868756244" lon="10.58525519410852"><ele>139.5</ele><time>2026-04-25T16:56:31.003Z</time></trkpt><trkpt lat="44.62219403766003" lon="10.585067035604308"><ele>139.25</ele><time>2026-04-25T16:56:32.003Z</time></trkpt><trkpt lat="44.62216124387556" lon="10.584891659432335"><ele>139.0</ele><time>2026-04-25T16:56:33.003Z</time></trkpt><trkpt lat="44.6221240641645" lon="10.584713361946896"><ele>139.0</ele><time>2026-04-25T16:56:34.003Z</time></trkpt><trkpt lat="44.62208254665759" lon="10.584527861941762"><ele>139.0</ele><time>2026-04-25T16:56:35.003Z</time></trkpt><trkpt lat="44.62204018689209" lon="10.584346271298237"><ele>139.0</ele><time>2026-04-25T16:56:36.003Z</time></trkpt><trkpt lat="44.62201835292716" lon="10.58416481098025"><ele>139.0</ele><time>2026-04-25T16:56:37.003Z</time></trkpt><trkpt lat="44.621982129762" lon="10.583992615466837"><ele>140.0</ele><time>2026-04-25T16:56:38.003Z</time></trkpt><trkpt lat="44.62193335341608" lon="10.583833799752117"><ele>141.0</ele><time>2026-04-25T16:56:39.003Z</time></trkpt><trkpt lat="44.621895543484165" lon="10.58366324777356"><ele>142.0</ele><time>2026-04-25T16:56:40.003Z</time></trkpt><trkpt lat="44.621875593568525" lon="10.58348616858017"><ele>143.0</ele><time>2026-04-25T16:56:41.003Z</time></trkpt><trkpt lat="44.62182634518495" lon="10.583315985181057"><ele>143.25</ele><time>2026-04-25T16:56:42.003Z</time></trkpt><trkpt lat="44.62178984348958" lon="10.58312956357967"><ele>143.5</ele><time>2026-04-25T16:56:43.003Z</time></trkpt><trkpt lat="44.62174877893579" lon="10.582951979193778"><ele>143.75</ele><time>2026-04-25T16:56:44.003Z</time></trkpt><trkpt lat="44.62171544336191" lon="10.582772817772826"><ele>144.0</ele><time>2026-04-25T16:56:45.003Z</time></trkpt><trkpt lat="44.621684543446435" lon="10.582613171356945"><ele>144.0</ele><time>2026-04-25T16:56:46.003Z</time></trkpt><trkpt lat="44.62164287869782" lon="10.582444668485415"><ele>144.0</ele><time>2026-04-25T16:56:47.003Z</time></trkpt><trkpt lat="44.62162813223192" lon="10.582257735862031"><ele>144.0</ele><time>2026-04-25T16:56:48.003Z</time></trkpt><trkpt lat="44.621590656582384" lon="10.582072794199318"><ele>144.0</ele><time>2026-04-25T16:56:49.003Z</time></trkpt><trkpt lat="44.6215556068403" lon="10.581889489614099"><ele>143.75</ele><time>2026-04-25T16:56:50.003Z</time></trkpt><trkpt lat="44.62153065133557" lon="10.581699027271359"><ele>143.5</ele><time>2026-04-25T16:56:51.003Z</time></trkpt><trkpt lat="44.6215205049732" lon="10.581514366259887"><ele>143.25</ele><time>2026-04-25T16:56:52.003Z</time></trkpt><trkpt lat="44.62151462170595" lon="10.581321124930334"><ele>143.0</ele><time>2026-04-25T16:56:53.003Z</time></trkpt><trkpt lat="44.621518414061356" lon="10.581132933869531"><ele>142.25</ele><time>2026-04-25T16:56:54.003Z</time></trkpt><trkpt lat="44.6215226580196" lon="10.580943382258729"><ele>141.5</ele><time>2026-04-25T16:56:55.003Z</time></trkpt><trkpt lat="44.62152554550645" lon="10.580762151157671"><ele>140.75</ele><time>2026-04-25T16:56:56.003Z</time></trkpt><trkpt lat="44.6215284261146" lon="10.580590426396068"><ele>140.0</ele><time>2026-04-25T16:56:57.003Z</time></trkpt><trkpt lat="44.62152660614988" lon="10.580427822241123"><ele>139.75</ele><time>2026-04-25T16:56:58.003Z</time></trkpt><trkpt lat="44.62152440750678" lon="10.580260056242494"><ele>139.5</ele><time>2026-04-25T16:56:59.003Z</time></trkpt><trkpt lat="44.621525250579225" lon="10.580092167340881"><ele>139.25</ele><time>2026-04-25T16:57:00.003Z</time></trkpt><trkpt lat="44.621531112220346" lon="10.579924102916427"><ele>139.0</ele><time>2026-04-25T16:57:01.003Z</time></trkpt><trkpt lat="44.62153207094804" lon="10.579748834920045"><ele>139.0</ele><time>2026-04-25T16:57:02.003Z</time></trkpt><trkpt lat="44.62153001783449" lon="10.579569509754618"><ele>139.0</ele><time>2026-04-25T16:57:03.003Z</time></trkpt><trkpt lat="44.62153961083476" lon="10.579388602928452"><ele>139.0</ele><time>2026-04-25T16:57:04.003Z</time></trkpt><trkpt lat="44.6215408602432" lon="10.579211531652724"><ele>139.0</ele><time>2026-04-25T16:57:05.003Z</time></trkpt><trkpt lat="44.62153468030557" lon="10.579032867617824"><ele>139.75</ele><time>2026-04-25T16:57:06.003Z</time></trkpt><trkpt lat="44.621538594916096" lon="10.578852126307272"><ele>140.5</ele><time>2026-04-25T16:57:07.003Z</time></trkpt><trkpt lat="44.62154225852375" lon="10.57867726575907"><ele>141.25</ele><time>2026-04-25T16:57:08.003Z</time></trkpt><trkpt lat="44.62153958283059" lon="10.57850024694099"><ele>142.0</ele><time>2026-04-25T16:57:09.003Z</time></trkpt><trkpt lat="44.62154311981166" lon="10.578313782054066"><ele>142.25</ele><time>2026-04-25T16:57:10.003Z</time></trkpt><trkpt lat="44.6215516696696" lon="10.57813207646327"><ele>142.5</ele><time>2026-04-25T16:57:11.003Z</time></trkpt><trkpt lat="44.6215531377087" lon="10.577945770945709"><ele>142.75</ele><time>2026-04-25T16:57:12.003Z</time></trkpt><trkpt lat="44.62155775578481" lon="10.577754042414027"><ele>143.0</ele><time>2026-04-25T16:57:13.003Z</time></trkpt><trkpt lat="44.62156162513645" lon="10.577554025020813"><ele>142.5</ele><time>2026-04-25T16:57:14.003Z</time></trkpt><trkpt lat="44.62156461632103" lon="10.57735470726817"><ele>142.0</ele><time>2026-04-25T16:57:15.003Z</time></trkpt><trkpt lat="44.62157206853433" lon="10.577161475865383"><ele>141.5</ele><time>2026-04-25T16:57:16.003Z</time></trkpt><trkpt lat="44.621567295738274" lon="10.576959795622894"><ele>141.0</ele><time>2026-04-25T16:57:17.003Z</time></trkpt><trkpt lat="44.62156734375818" lon="10.576768154482734"><ele>140.75</ele><time>2026-04-25T16:57:18.003Z</time></trkpt><trkpt lat="44.62157115862641" lon="10.576589979002387"><ele>140.5</ele><time>2026-04-25T16:57:19.003Z</time></trkpt><trkpt lat="44.62157632574762" lon="10.576414142240916"><ele>140.25</ele><time>2026-04-25T16:57:20.003Z</time></trkpt><trkpt lat="44.62157516582585" lon="10.576244821238282"><ele>140.0</ele><time>2026-04-25T16:57:21.003Z</time></trkpt><trkpt lat="44.621575474181384" lon="10.576074530384943"><ele>140.0</ele><time>2026-04-25T16:57:22.003Z</time></trkpt><trkpt lat="44.621583524984985" lon="10.575909128656544"><ele>140.0</ele><time>2026-04-25T16:57:23.003Z</time></trkpt><trkpt lat="44.62158673275228" lon="10.575739943245294"><ele>140.0</ele><time>2026-04-25T16:57:24.003Z</time></trkpt><trkpt lat="44.6215941472311" lon="10.575566726569365"><ele>140.0</ele><time>2026-04-25T16:57:25.003Z</time></trkpt><trkpt lat="44.621607132907926" lon="10.57538743625243"><ele>140.0</ele><time>2026-04-25T16:57:26.003Z</time></trkpt><trkpt lat="44.62163286775325" lon="10.5752157137106"><ele>140.0</ele><time>2026-04-25T16:57:27.003Z</time></trkpt><trkpt lat="44.6216822762234" lon="10.575053249665762"><ele>140.0</ele><time>2026-04-25T16:57:28.003Z</time></trkpt><trkpt lat="44.62173032873544" lon="10.574896071523115"><ele>140.0</ele><time>2026-04-25T16:57:29.003Z</time></trkpt><trkpt lat="44.621774925083336" lon="10.574750221019087"><ele>140.0</ele><time>2026-04-25T16:57:30.003Z</time></trkpt><trkpt lat="44.62181763539967" lon="10.574616074109143"><ele>140.0</ele><time>2026-04-25T16:57:31.003Z</time></trkpt><trkpt lat="44.62184899405654" lon="10.57447961019765"><ele>140.0</ele><time>2026-04-25T16:57:32.003Z</time></trkpt><trkpt lat="44.62188379717673" lon="10.574338513388753"><ele>140.0</ele><time>2026-04-25T16:57:33.003Z</time></trkpt><trkpt lat="44.62192406681098" lon="10.574204581252221"><ele>140.0</ele><time>2026-04-25T16:57:34.003Z</time></trkpt><trkpt lat="44.62197457853455" lon="10.574090523923068"><ele>139.4</ele><time>2026-04-25T16:57:35.003Z</time></trkpt><trkpt lat="44.62204925252292" lon="10.574015464312156"><ele>138.8</ele><time>2026-04-25T16:57:36.004Z</time></trkpt><trkpt lat="44.6221248614439" lon="10.57396008429851"><ele>138.2</ele><time>2026-04-25T16:57:37.004Z</time></trkpt><trkpt lat="44.62216639698608" lon="10.573850146432457"><ele>137.6</ele><time>2026-04-25T16:57:38.004Z</time></trkpt><trkpt lat="44.62216767884891" lon="10.573695493809241"><ele>137.0</ele><time>2026-04-25T16:57:39.004Z</time></trkpt><trkpt lat="44.622156578369406" lon="10.573539424757506"><ele>137.0</ele><time>2026-04-25T16:57:40.004Z</time></trkpt><trkpt lat="44.622169242070385" lon="10.573371564182423"><ele>137.0</ele><time>2026-04-25T16:57:41.004Z</time></trkpt><trkpt lat="44.62221016985734" lon="10.573206606124131"><ele>137.0</ele><time>2026-04-25T16:57:42.004Z</time></trkpt><trkpt lat="44.62226087625786" lon="10.573060355871316"><ele>137.0</ele><time>2026-04-25T16:57:43.004Z</time></trkpt><trkpt lat="44.62231077271709" lon="10.572925747307863"><ele>137.2</ele><time>2026-04-25T16:57:44.004Z</time></trkpt><trkpt lat="44.62235252629967" lon="10.572785350650161"><ele>137.39999999999998</ele><time>2026-04-25T16:57:45.004Z</time></trkpt><trkpt lat="44.62238984041639" lon="10.572644013686604"><ele>137.60000000000002</ele><time>2026-04-25T16:57:46.004Z</time></trkpt><trkpt lat="44.62243194023051" lon="10.572513523119165"><ele>137.8</ele><time>2026-04-25T16:57:47.004Z</time></trkpt><trkpt lat="44.622476114957806" lon="10.572371436680077"><ele>138.0</ele><time>2026-04-25T16:57:48.004Z</time></trkpt><trkpt lat="44.62251988792578" lon="10.572220751493434"><ele>138.0</ele><time>2026-04-25T16:57:49.004Z</time></trkpt><trkpt lat="44.6225644059815" lon="10.57207196691167"><ele>138.0</ele><time>2026-04-25T16:57:50.004Z</time></trkpt><trkpt lat="44.62261163411492" lon="10.571910927773521"><ele>138.0</ele><time>2026-04-25T16:57:51.004Z</time></trkpt><trkpt lat="44.622661273417215" lon="10.571749692934896"><ele>138.0</ele><time>2026-04-25T16:57:52.004Z</time></trkpt><trkpt lat="44.62270838993102" lon="10.571580023172368"><ele>137.5</ele><time>2026-04-25T16:57:53.004Z</time></trkpt><trkpt lat="44.6227552641417" lon="10.571398607918795"><ele>137.0</ele><time>2026-04-25T16:57:54.004Z</time></trkpt><trkpt lat="44.62281295812064" lon="10.571216385182348"><ele>136.5</ele><time>2026-04-25T16:57:55.004Z</time></trkpt><trkpt lat="44.622870633334344" lon="10.571020839535509"><ele>136.0</ele><time>2026-04-25T16:57:56.004Z</time></trkpt><trkpt lat="44.622924146416814" lon="10.570825026657264"><ele>135.0</ele><time>2026-04-25T16:57:57.004Z</time></trkpt><trkpt lat="44.622982169168054" lon="10.570621888149253"><ele>134.0</ele><time>2026-04-25T16:57:58.004Z</time></trkpt><trkpt lat="44.623039947711504" lon="10.570418541212337"><ele>133.0</ele><time>2026-04-25T16:57:59.004Z</time></trkpt><trkpt lat="44.62310092724543" lon="10.570210306409555"><ele>132.66666666666669</ele><time>2026-04-25T16:58:00.004Z</time></trkpt><trkpt lat="44.62316029007757" lon="10.569998571295857"><ele>132.33333333333334</ele><time>2026-04-25T16:58:01.004Z</time></trkpt><trkpt lat="44.623224563475944" lon="10.569786576741835"><ele>132.0</ele><time>2026-04-25T16:58:02.004Z</time></trkpt><trkpt lat="44.62329129527948" lon="10.569578530953024"><ele>132.33333333333334</ele><time>2026-04-25T16:58:03.004Z</time></trkpt><trkpt lat="44.62335817417921" lon="10.56936661364632"><ele>132.66666666666669</ele><time>2026-04-25T16:58:04.004Z</time></trkpt><trkpt lat="44.62344431856058" lon="10.569175300733924"><ele>133.0</ele><time>2026-04-25T16:58:05.004Z</time></trkpt><trkpt lat="44.62353657211156" lon="10.568982641949809"><ele>133.0</ele><time>2026-04-25T16:58:06.004Z</time></trkpt><trkpt lat="44.6236310786413" lon="10.568795034786403"><ele>133.0</ele><time>2026-04-25T16:58:07.004Z</time></trkpt><trkpt lat="44.62371694845326" lon="10.568596362216825"><ele>133.0</ele><time>2026-04-25T16:58:08.004Z</time></trkpt><trkpt lat="44.6238110455347" lon="10.568413316323634"><ele>131.33333333333334</ele><time>2026-04-25T16:58:09.004Z</time></trkpt><trkpt lat="44.62390820482819" lon="10.568228521125056"><ele>129.66666666666666</ele><time>2026-04-25T16:58:10.004Z</time></trkpt><trkpt lat="44.62400023902909" lon="10.568035023957595"><ele>128.0</ele><time>2026-04-25T16:58:11.004Z</time></trkpt><trkpt lat="44.62409291878383" lon="10.567853417090417"><ele>128.0</ele><time>2026-04-25T16:58:12.004Z</time></trkpt><trkpt lat="44.6241791220973" lon="10.567689635742724"><ele>128.0</ele><time>2026-04-25T16:58:13.004Z</time></trkpt><trkpt lat="44.62425695140063" lon="10.567532342361833"><ele>128.0</ele><time>2026-04-25T16:58:14.004Z</time></trkpt><trkpt lat="44.624335352790524" lon="10.567382963254698"><ele>128.0</ele><time>2026-04-25T16:58:15.004Z</time></trkpt><trkpt lat="44.624409232492376" lon="10.567238298585018"><ele>127.99999999999999</ele><time>2026-04-25T16:58:16.004Z</time></trkpt><trkpt lat="44.624474862007034" lon="10.567098739832943"><ele>128.0</ele><time>2026-04-25T16:58:17.004Z</time></trkpt><trkpt lat="44.62452502129613" lon="10.56700030384696"><ele>128.0</ele><time>2026-04-25T16:58:18.004Z</time></trkpt><trkpt lat="44.624590007800975" lon="10.5669520497556"><ele>128.0</ele><time>2026-04-25T16:58:20.004Z</time></trkpt><trkpt lat="44.62466191666666" lon="10.566940612590152"><ele>127.99999999999999</ele><time>2026-04-25T16:58:22.004Z</time></trkpt><trkpt lat="44.62473071897012" lon="10.566934621561993"><ele>128.0</ele><time>2026-04-25T16:58:23.004Z</time></trkpt><trkpt lat="44.62480449858482" lon="10.56690596961276"><ele>128.33333333333331</ele><time>2026-04-25T16:58:24.004Z</time></trkpt><trkpt lat="44.62485583154942" lon="10.566843065240588"><ele>128.66666666666666</ele><time>2026-04-25T16:58:25.004Z</time></trkpt><trkpt lat="44.624899338821876" lon="10.566752970197964"><ele>129.0</ele><time>2026-04-25T16:58:26.004Z</time></trkpt><trkpt lat="44.62493093258999" lon="10.566627407310678"><ele>129.33333333333334</ele><time>2026-04-25T16:58:27.004Z</time></trkpt><trkpt lat="44.624931015352765" lon="10.56649276471909"><ele>129.66666666666669</ele><time>2026-04-25T16:58:28.004Z</time></trkpt><trkpt lat="44.6249236711259" lon="10.566372055691044"><ele>130.0</ele><time>2026-04-25T16:58:29.004Z</time></trkpt><trkpt lat="44.62492812066523" lon="10.566267332569826"><ele>130.5</ele><time>2026-04-25T16:58:30.004Z</time></trkpt><trkpt lat="44.62493984527683" lon="10.566164788858826"><ele>131.0</ele><time>2026-04-25T16:58:31.004Z</time></trkpt><trkpt lat="44.62500562739426" lon="10.566092831410735"><ele>131.5</ele><time>2026-04-25T16:58:32.004Z</time></trkpt><trkpt lat="44.62504833718628" lon="10.566006984050833"><ele>132.0</ele><time>2026-04-25T16:58:33.004Z</time></trkpt><trkpt lat="44.6250902726071" lon="10.565924211541857"><ele>132.5</ele><time>2026-04-25T16:58:34.004Z</time></trkpt><trkpt lat="44.62513201567585" lon="10.565841818583264"><ele>133.0</ele><time>2026-04-25T16:58:35.004Z</time></trkpt><trkpt lat="44.62517621937956" lon="10.565754568857356"><ele>133.0</ele><time>2026-04-25T16:58:36.004Z</time></trkpt><trkpt lat="44.62521672592196" lon="10.565674616699413"><ele>133.0</ele><time>2026-04-25T16:58:37.004Z</time></trkpt><trkpt lat="44.62525632757464" lon="10.565596450463861"><ele>133.0</ele><time>2026-04-25T16:58:38.004Z</time></trkpt><trkpt lat="44.62529612810034" lon="10.565518953867846"><ele>133.0</ele><time>2026-04-25T16:58:39.004Z</time></trkpt><trkpt lat="44.62533543391736" lon="10.565442046614738"><ele>133.0</ele><time>2026-04-25T16:58:40.004Z</time></trkpt><trkpt lat="44.62537626423773" lon="10.56535859196967"><ele>133.0</ele><time>2026-04-25T16:58:41.004Z</time></trkpt><trkpt lat="44.62542077291705" lon="10.565269163866569"><ele>133.0</ele><time>2026-04-25T16:58:42.004Z</time></trkpt><trkpt lat="44.625457640976435" lon="10.565172426055765"><ele>134.16666666666669</ele><time>2026-04-25T16:58:43.004Z</time></trkpt><trkpt lat="44.62550610901101" lon="10.565093685429133"><ele>135.33333333333334</ele><time>2026-04-25T16:58:44.004Z</time></trkpt><trkpt lat="44.625541988220164" lon="10.56501644939886"><ele>136.5</ele><time>2026-04-25T16:58:45.004Z</time></trkpt><trkpt lat="44.62560729224062" lon="10.564888087956826"><ele>137.66666666666666</ele><time>2026-04-25T16:58:47.004Z</time></trkpt><trkpt lat="44.62564833119908" lon="10.564796975891916"><ele>138.83333333333331</ele><time>2026-04-25T16:58:48.004Z</time></trkpt><trkpt lat="44.625699811376236" lon="10.564687687928402"><ele>140.0</ele><time>2026-04-25T16:58:49.005Z</time></trkpt><trkpt lat="44.62576563354036" lon="10.56457997170583"><ele>140.0</ele><time>2026-04-25T16:58:50.005Z</time></trkpt><trkpt lat="44.625832996697525" lon="10.564490754043314"><ele>140.0</ele><time>2026-04-25T16:58:51.005Z</time></trkpt><trkpt lat="44.62591044652287" lon="10.564436490594273"><ele>140.0</ele><time>2026-04-25T16:58:52.005Z</time></trkpt><trkpt lat="44.625961181174" lon="10.564364677322011"><ele>140.0</ele><time>2026-04-25T16:58:53.005Z</time></trkpt><trkpt lat="44.62599671124534" lon="10.564246240663454"><ele>140.0</ele><time>2026-04-25T16:58:54.005Z</time></trkpt><trkpt lat="44.6260346614634" lon="10.564097909922127"><ele>140.0</ele><time>2026-04-25T16:58:55.005Z</time></trkpt><trkpt lat="44.62609329729339" lon="10.563966789717238"><ele>140.0</ele><time>2026-04-25T16:58:56.005Z</time></trkpt><trkpt lat="44.62614290519736" lon="10.563855908672572"><ele>140.0</ele><time>2026-04-25T16:58:57.005Z</time></trkpt><trkpt lat="44.626200514854325" lon="10.563750307684847"><ele>140.0</ele><time>2026-04-25T16:58:58.005Z</time></trkpt><trkpt lat="44.62625262682687" lon="10.563642239327496"><ele>140.0</ele><time>2026-04-25T16:58:59.005Z</time></trkpt><trkpt lat="44.6263126931536" lon="10.563526647859906"><ele>140.66666666666666</ele><time>2026-04-25T16:59:00.005Z</time></trkpt><trkpt lat="44.62638036414892" lon="10.56341167267858"><ele>141.33333333333331</ele><time>2026-04-25T16:59:01.005Z</time></trkpt><trkpt lat="44.626432392134696" lon="10.563311414386906"><ele>142.0</ele><time>2026-04-25T16:59:02.005Z</time></trkpt><trkpt lat="44.626469827908636" lon="10.563235143983796"><ele>142.66666666666666</ele><time>2026-04-25T16:59:03.005Z</time></trkpt><trkpt lat="44.62651518629865" lon="10.563137902258749"><ele>143.33333333333334</ele><time>2026-04-25T16:59:04.005Z</time></trkpt><trkpt lat="44.6265687187492" lon="10.56301006704165"><ele>144.0</ele><time>2026-04-25T16:59:05.005Z</time></trkpt><trkpt lat="44.62663442406692" lon="10.56287080358184"><ele>144.25</ele><time>2026-04-25T16:59:06.005Z</time></trkpt><trkpt lat="44.626702847362054" lon="10.562721657435846"><ele>144.5</ele><time>2026-04-25T16:59:07.005Z</time></trkpt><trkpt lat="44.62676248336946" lon="10.562560755955435"><ele>144.75</ele><time>2026-04-25T16:59:08.005Z</time></trkpt><trkpt lat="44.62680778737503" lon="10.5624250324923"><ele>145.0</ele><time>2026-04-25T16:59:09.005Z</time></trkpt><trkpt lat="44.62684742567021" lon="10.562300471822857"><ele>145.0</ele><time>2026-04-25T16:59:10.005Z</time></trkpt><trkpt lat="44.626874026683154" lon="10.562165846689004"><ele>145.0</ele><time>2026-04-25T16:59:11.005Z</time></trkpt><trkpt lat="44.62689705452099" lon="10.562011589966907"><ele>145.0</ele><time>2026-04-25T16:59:12.005Z</time></trkpt><trkpt lat="44.62695493219922" lon="10.561863018280457"><ele>145.0</ele><time>2026-04-25T16:59:13.005Z</time></trkpt><trkpt lat="44.62698047616718" lon="10.561678605524305"><ele>145.5</ele><time>2026-04-25T16:59:14.005Z</time></trkpt><trkpt lat="44.627031660971284" lon="10.561506307442192"><ele>146.0</ele><time>2026-04-25T16:59:15.005Z</time></trkpt><trkpt lat="44.62707362793684" lon="10.561360064350636"><ele>146.5</ele><time>2026-04-25T16:59:16.005Z</time></trkpt><trkpt lat="44.62711346216485" lon="10.561233002438415"><ele>147.0</ele><time>2026-04-25T16:59:17.005Z</time></trkpt><trkpt lat="44.62715587282665" lon="10.561094145741652"><ele>147.0</ele><time>2026-04-25T16:59:18.005Z</time></trkpt><trkpt lat="44.62719087032345" lon="10.56094267783653"><ele>147.0</ele><time>2026-04-25T16:59:19.005Z</time></trkpt><trkpt lat="44.62723019816802" lon="10.56079578869533"><ele>147.0</ele><time>2026-04-25T16:59:20.005Z</time></trkpt><trkpt lat="44.62730061634173" lon="10.560669312536834"><ele>147.0</ele><time>2026-04-25T16:59:21.005Z</time></trkpt><trkpt lat="44.62734092209075" lon="10.560525337027983"><ele>147.0</ele><time>2026-04-25T16:59:22.005Z</time></trkpt><trkpt lat="44.62737172812179" lon="10.560375975364547"><ele>146.75</ele><time>2026-04-25T16:59:23.005Z</time></trkpt><trkpt lat="44.62741187895451" lon="10.560223492709854"><ele>146.5</ele><time>2026-04-25T16:59:24.005Z</time></trkpt><trkpt lat="44.627457315631375" lon="10.560065171611006"><ele>146.25</ele><time>2026-04-25T16:59:25.005Z</time></trkpt><trkpt lat="44.627504118142966" lon="10.559903159616324"><ele>146.0</ele><time>2026-04-25T16:59:26.005Z</time></trkpt><trkpt lat="44.627556683030946" lon="10.559752639440164"><ele>146.0</ele><time>2026-04-25T16:59:27.005Z</time></trkpt><trkpt lat="44.62762213775946" lon="10.559613117918154"><ele>146.0</ele><time>2026-04-25T16:59:28.005Z</time></trkpt><trkpt lat="44.627702110566595" lon="10.559467844823219"><ele>146.0</ele><time>2026-04-25T16:59:29.005Z</time></trkpt><trkpt lat="44.62779644787662" lon="10.559325566873852"><ele>146.0</ele><time>2026-04-25T16:59:30.005Z</time></trkpt><trkpt lat="44.62789952638773" lon="10.55918422366773"><ele>145.33333333333331</ele><time>2026-04-25T16:59:31.005Z</time></trkpt><trkpt lat="44.628007220923394" lon="10.559038976010992"><ele>144.66666666666666</ele><time>2026-04-25T16:59:32.005Z</time></trkpt><trkpt lat="44.628118358354506" lon="10.558895565820823"><ele>144.0</ele><time>2026-04-25T16:59:33.005Z</time></trkpt><trkpt lat="44.628231874667165" lon="10.55874874474201"><ele>145.0</ele><time>2026-04-25T16:59:34.005Z</time></trkpt><trkpt lat="44.62834467159171" lon="10.55860032329469"><ele>146.0</ele><time>2026-04-25T16:59:35.005Z</time></trkpt><trkpt lat="44.628461320425615" lon="10.558441468433585"><ele>147.0</ele><time>2026-04-25T16:59:36.005Z</time></trkpt><trkpt lat="44.628570458209666" lon="10.558272666360843"><ele>148.66666666666666</ele><time>2026-04-25T16:59:37.005Z</time></trkpt><trkpt lat="44.628669746909644" lon="10.55808647685686"><ele>150.33333333333331</ele><time>2026-04-25T16:59:38.005Z</time></trkpt><trkpt lat="44.62875800560926" lon="10.55789312900499"><ele>152.0</ele><time>2026-04-25T16:59:39.005Z</time></trkpt><trkpt lat="44.62884185464852" lon="10.557686617775502"><ele>152.33333333333331</ele><time>2026-04-25T16:59:40.005Z</time></trkpt><trkpt lat="44.628907980456454" lon="10.557475248952993"><ele>152.66666666666666</ele><time>2026-04-25T16:59:41.005Z</time></trkpt><trkpt lat="44.62896765824167" lon="10.557255017050846"><ele>153.0</ele><time>2026-04-25T16:59:42.005Z</time></trkpt><trkpt lat="44.6290098602162" lon="10.557030125923042"><ele>153.0</ele><time>2026-04-25T16:59:43.005Z</time></trkpt><trkpt lat="44.62903596981964" lon="10.556798282933551"><ele>153.0</ele><time>2026-04-25T16:59:44.005Z</time></trkpt><trkpt lat="44.62905148930412" lon="10.556559097495992"><ele>153.0</ele><time>2026-04-25T16:59:45.005Z</time></trkpt><trkpt lat="44.62905698759501" lon="10.55631992220378"><ele>153.0</ele><time>2026-04-25T16:59:46.005Z</time></trkpt><trkpt lat="44.62905564690649" lon="10.55609289255351"><ele>153.0</ele><time>2026-04-25T16:59:47.005Z</time></trkpt><trkpt lat="44.629059770963714" lon="10.555855219284826"><ele>153.0</ele><time>2026-04-25T16:59:48.005Z</time></trkpt><trkpt lat="44.62907182901379" lon="10.55562971193547"><ele>153.0</ele><time>2026-04-25T16:59:49.005Z</time></trkpt><trkpt lat="44.62907977899798" lon="10.5553959948423"><ele>153.0</ele><time>2026-04-25T16:59:50.005Z</time></trkpt><trkpt lat="44.62908433569192" lon="10.555162241085531"><ele>153.0</ele><time>2026-04-25T16:59:51.005Z</time></trkpt><trkpt lat="44.62909488020289" lon="10.554931906353122"><ele>152.66666666666666</ele><time>2026-04-25T16:59:52.005Z</time></trkpt><trkpt lat="44.62909231439478" lon="10.554701748121213"><ele>152.33333333333331</ele><time>2026-04-25T16:59:53.005Z</time></trkpt><trkpt lat="44.62910818806897" lon="10.554462568396605"><ele>152.0</ele><time>2026-04-25T16:59:54.005Z</time></trkpt><trkpt lat="44.6291133007786" lon="10.55422440328619"><ele>152.0</ele><time>2026-04-25T16:59:55.005Z</time></trkpt><trkpt lat="44.62911965012277" lon="10.553985013102402"><ele>152.0</ele><time>2026-04-25T16:59:56.005Z</time></trkpt><trkpt lat="44.62912159935734" lon="10.553747802723526"><ele>152.0</ele><time>2026-04-25T16:59:57.005Z</time></trkpt><trkpt lat="44.629129896918" lon="10.553525966025548"><ele>151.33333333333331</ele><time>2026-04-25T16:59:58.005Z</time></trkpt><trkpt lat="44.62913902676822" lon="10.553315772265565"><ele>150.66666666666666</ele><time>2026-04-25T16:59:59.005Z</time></trkpt><trkpt lat="44.629151042397865" lon="10.553095783164027"><ele>150.0</ele><time>2026-04-25T17:00:00.005Z</time></trkpt><trkpt lat="44.629153473380896" lon="10.55287163373329"><ele>150.0</ele><time>2026-04-25T17:00:01.006Z</time></trkpt><trkpt lat="44.62915754888029" lon="10.552639018796206"><ele>150.0</ele><time>2026-04-25T17:00:02.006Z</time></trkpt><trkpt lat="44.629164183252655" lon="10.5524084829794"><ele>150.0</ele><time>2026-04-25T17:00:03.006Z</time></trkpt><trkpt lat="44.62917575605251" lon="10.552191210633335"><ele>150.0</ele><time>2026-04-25T17:00:04.006Z</time></trkpt><trkpt lat="44.62918381935103" lon="10.55199391456604"><ele>150.0</ele><time>2026-04-25T17:00:05.006Z</time></trkpt><trkpt lat="44.62918662515587" lon="10.55181232310384"><ele>150.0</ele><time>2026-04-25T17:00:06.006Z</time></trkpt><trkpt lat="44.629188048258825" lon="10.551616758397728"><ele>150.0</ele><time>2026-04-25T17:00:07.006Z</time></trkpt><trkpt lat="44.62920006092676" lon="10.551426886595383"><ele>150.0</ele><time>2026-04-25T17:00:08.006Z</time></trkpt><trkpt lat="44.629204390534255" lon="10.55124550605821"><ele>150.0</ele><time>2026-04-25T17:00:09.006Z</time></trkpt><trkpt lat="44.62921135317624" lon="10.55105506012593"><ele>150.0</ele><time>2026-04-25T17:00:10.006Z</time></trkpt><trkpt lat="44.62921275395964" lon="10.550866408073174"><ele>150.0</ele><time>2026-04-25T17:00:11.006Z</time></trkpt><trkpt lat="44.62922004543089" lon="10.550720102087757"><ele>149.83333333333334</ele><time>2026-04-25T17:00:12.006Z</time></trkpt><trkpt lat="44.62923067008587" lon="10.550606579399037"><ele>149.66666666666666</ele><time>2026-04-25T17:00:13.006Z</time></trkpt><trkpt lat="44.629241946946706" lon="10.550517716682894"><ele>149.5</ele><time>2026-04-25T17:00:14.006Z</time></trkpt><trkpt lat="44.62925508734241" lon="10.550427650673562"><ele>149.33333333333331</ele><time>2026-04-25T17:00:15.006Z</time></trkpt><trkpt lat="44.62928697746789" lon="10.550334049858883"><ele>149.16666666666666</ele><time>2026-04-25T17:00:16.006Z</time></trkpt><trkpt lat="44.62936821243463" lon="10.550240404621643"><ele>149.0</ele><time>2026-04-25T17:00:17.006Z</time></trkpt><trkpt lat="44.629463039037574" lon="10.550143777593968"><ele>147.75</ele><time>2026-04-25T17:00:18.006Z</time></trkpt><trkpt lat="44.629583417838276" lon="10.550088603372817"><ele>146.5</ele><time>2026-04-25T17:00:19.006Z</time></trkpt><trkpt lat="44.629721424452576" lon="10.550033484122423"><ele>145.25</ele><time>2026-04-25T17:00:20.006Z</time></trkpt><trkpt lat="44.62986878247999" lon="10.549974468073113"><ele>144.0</ele><time>2026-04-25T17:00:21.006Z</time></trkpt><trkpt lat="44.63001309125013" lon="10.549916673220034"><ele>144.0</ele><time>2026-04-25T17:00:22.006Z</time></trkpt><trkpt lat="44.63017122068079" lon="10.549853343225143"><ele>144.0</ele><time>2026-04-25T17:00:23.006Z</time></trkpt><trkpt lat="44.63033405033831" lon="10.549779221914708"><ele>144.0</ele><time>2026-04-25T17:00:24.006Z</time></trkpt><trkpt lat="44.630493921118585" lon="10.549702350612108"><ele>141.66666666666666</ele><time>2026-04-25T17:00:25.006Z</time></trkpt><trkpt lat="44.63065751061753" lon="10.549637718706734"><ele>139.33333333333331</ele><time>2026-04-25T17:00:26.006Z</time></trkpt><trkpt lat="44.630825542772186" lon="10.549572139257545"><ele>137.0</ele><time>2026-04-25T17:00:27.006Z</time></trkpt><trkpt lat="44.63099690368293" lon="10.549509367854158"><ele>135.66666666666666</ele><time>2026-04-25T17:00:28.006Z</time></trkpt><trkpt lat="44.63116545641732" lon="10.549445498206222"><ele>134.33333333333334</ele><time>2026-04-25T17:00:29.006Z</time></trkpt><trkpt lat="44.631335089295305" lon="10.549380800599115"><ele>133.0</ele><time>2026-04-25T17:00:30.006Z</time></trkpt><trkpt lat="44.63150250900233" lon="10.549312852523439"><ele>133.0</ele><time>2026-04-25T17:00:31.006Z</time></trkpt><trkpt lat="44.63166726495299" lon="10.549239524926465"><ele>133.0</ele><time>2026-04-25T17:00:32.006Z</time></trkpt><trkpt lat="44.63183517181051" lon="10.549174451276457"><ele>133.0</ele><time>2026-04-25T17:00:33.006Z</time></trkpt><trkpt lat="44.63199666345442" lon="10.54911046707085"><ele>134.33333333333334</ele><time>2026-04-25T17:00:34.006Z</time></trkpt><trkpt lat="44.632161762537294" lon="10.549043557608265"><ele>135.66666666666666</ele><time>2026-04-25T17:00:35.006Z</time></trkpt><trkpt lat="44.63232244910652" lon="10.548987357092635"><ele>137.0</ele><time>2026-04-25T17:00:36.006Z</time></trkpt><trkpt lat="44.63248738508164" lon="10.548922297352298"><ele>137.0</ele><time>2026-04-25T17:00:37.006Z</time></trkpt><trkpt lat="44.63264744163866" lon="10.548850281694284"><ele>137.0</ele><time>2026-04-25T17:00:38.006Z</time></trkpt><trkpt lat="44.63280735401159" lon="10.548785585614002"><ele>137.0</ele><time>2026-04-25T17:00:39.006Z</time></trkpt><trkpt lat="44.63296989514151" lon="10.54872280067499"><ele>137.0</ele><time>2026-04-25T17:00:40.006Z</time></trkpt><trkpt lat="44.633134377534915" lon="10.5486624403723"><ele>137.0</ele><time>2026-04-25T17:00:41.006Z</time></trkpt><trkpt lat="44.63329585032881" lon="10.548603612646465"><ele>137.0</ele><time>2026-04-25T17:00:42.006Z</time></trkpt><trkpt lat="44.63345929972973" lon="10.548541487129832"><ele>137.0</ele><time>2026-04-25T17:00:43.006Z</time></trkpt><trkpt lat="44.6336208039128" lon="10.548478651105798"><ele>137.0</ele><time>2026-04-25T17:00:44.006Z</time></trkpt><trkpt lat="44.63378199298657" lon="10.548406680826995"><ele>137.0</ele><time>2026-04-25T17:00:45.006Z</time></trkpt><trkpt lat="44.63393190634323" lon="10.548307555170014"><ele>136.66666666666666</ele><time>2026-04-25T17:00:46.006Z</time></trkpt><trkpt lat="44.63406234482056" lon="10.548164781398567"><ele>136.33333333333334</ele><time>2026-04-25T17:00:47.006Z</time></trkpt><trkpt lat="44.63417929048633" lon="10.548010849415862"><ele>136.0</ele><time>2026-04-25T17:00:48.006Z</time></trkpt><trkpt lat="44.634271474002894" lon="10.54782143137669"><ele>136.0</ele><time>2026-04-25T17:00:49.006Z</time></trkpt><trkpt lat="44.634349328348215" lon="10.547640400089023"><ele>136.0</ele><time>2026-04-25T17:00:50.006Z</time></trkpt><trkpt lat="44.634419030619306" lon="10.547474808874425"><ele>136.0</ele><time>2026-04-25T17:00:51.006Z</time></trkpt><trkpt lat="44.63448047071993" lon="10.547322296042983"><ele>136.0</ele><time>2026-04-25T17:00:52.006Z</time></trkpt><trkpt lat="44.63454321936036" lon="10.547192120006857"><ele>136.0</ele><time>2026-04-25T17:00:53.006Z</time></trkpt><trkpt lat="44.63461312946137" lon="10.54710110336211"><ele>136.0</ele><time>2026-04-25T17:00:54.006Z</time></trkpt><trkpt lat="44.63469528533243" lon="10.547045669364618"><ele>136.0</ele><time>2026-04-25T17:00:55.006Z</time></trkpt><trkpt lat="44.63479040585009" lon="10.547036634916221"><ele>136.0</ele><time>2026-04-25T17:00:56.006Z</time></trkpt><trkpt lat="44.634881360855644" lon="10.547079461652102"><ele>136.0</ele><time>2026-04-25T17:00:57.006Z</time></trkpt><trkpt lat="44.63496085561994" lon="10.547196457179355"><ele>136.0</ele><time>2026-04-25T17:00:58.006Z</time></trkpt><trkpt lat="44.63500494555967" lon="10.547350531353821"><ele>136.0</ele><time>2026-04-25T17:00:59.006Z</time></trkpt><trkpt lat="44.635031156695106" lon="10.54754340660756"><ele>136.0</ele><time>2026-04-25T17:01:00.006Z</time></trkpt><trkpt lat="44.63504429994028" lon="10.547747730502499"><ele>136.0</ele><time>2026-04-25T17:01:01.006Z</time></trkpt><trkpt lat="44.63508053026666" lon="10.547946417948381"><ele>135.66666666666669</ele><time>2026-04-25T17:01:02.006Z</time></trkpt><trkpt lat="44.63511880569998" lon="10.548146437807258"><ele>135.33333333333334</ele><time>2026-04-25T17:01:03.006Z</time></trkpt><trkpt lat="44.635160241592736" lon="10.548362335264882"><ele>135.0</ele><time>2026-04-25T17:01:04.006Z</time></trkpt><trkpt lat="44.635194557674446" lon="10.54858474422473"><ele>135.0</ele><time>2026-04-25T17:01:05.006Z</time></trkpt><trkpt lat="44.635231509758356" lon="10.548804507127763"><ele>135.0</ele><time>2026-04-25T17:01:06.006Z</time></trkpt><trkpt lat="44.635265599236824" lon="10.549001244524945"><ele>135.0</ele><time>2026-04-25T17:01:07.006Z</time></trkpt><trkpt lat="44.63529817312998" lon="10.549194509834587"><ele>135.0</ele><time>2026-04-25T17:01:08.006Z</time></trkpt><trkpt lat="44.63532297405614" lon="10.54936013947246"><ele>134.8</ele><time>2026-04-25T17:01:09.006Z</time></trkpt><trkpt lat="44.63534455418085" lon="10.5495065154825"><ele>134.6</ele><time>2026-04-25T17:01:10.006Z</time></trkpt><trkpt lat="44.635361059543" lon="10.54964956174653"><ele>134.4</ele><time>2026-04-25T17:01:11.006Z</time></trkpt><trkpt lat="44.63534877751038" lon="10.54977733519995"><ele>134.2</ele><time>2026-04-25T17:01:12.006Z</time></trkpt><trkpt lat="44.63536613895243" lon="10.549871398852382"><ele>134.0</ele><time>2026-04-25T17:01:13.007Z</time></trkpt><trkpt lat="44.635308515309355" lon="10.549978960442159"><ele>134.0</ele><time>2026-04-25T17:01:14.007Z</time></trkpt><trkpt lat="44.635298813976725" lon="10.55008824316543"><ele>134.0</ele><time>2026-04-25T17:01:16.007Z</time></trkpt><trkpt lat="44.635318716455" lon="10.550203978119827"><ele>134.0</ele><time>2026-04-25T17:02:59.008Z</time></trkpt><trkpt lat="44.635364150115535" lon="10.550348843596845"><ele>134.0</ele><time>2026-04-25T17:03:01.008Z</time></trkpt><trkpt lat="44.635443308186154" lon="10.550374189823673"><ele>134.0</ele><time>2026-04-25T17:03:02.008Z</time></trkpt><trkpt lat="44.63549430486993" lon="10.55028438513694"><ele>134.0</ele><time>2026-04-25T17:03:11.008Z</time></trkpt><trkpt lat="44.63549681396518" lon="10.550165445180074"><ele>134.0</ele><time>2026-04-25T17:03:12.008Z</time></trkpt><trkpt lat="44.63546345019548" lon="10.550017919502203"><ele>134.0</ele><time>2026-04-25T17:03:13.008Z</time></trkpt><trkpt lat="44.635433141657664" lon="10.549863604942592"><ele>134.0</ele><time>2026-04-25T17:03:14.008Z</time></trkpt><trkpt lat="44.63540796484163" lon="10.549694986124798"><ele>134.0</ele><time>2026-04-25T17:03:15.008Z</time></trkpt><trkpt lat="44.6353803726382" lon="10.54951395171593"><ele>134.0</ele><time>2026-04-25T17:03:16.008Z</time></trkpt><trkpt lat="44.63535082396059" lon="10.549326615781364"><ele>134.0</ele><time>2026-04-25T17:03:17.008Z</time></trkpt><trkpt lat="44.635324890479275" lon="10.549145877221665"><ele>134.0</ele><time>2026-04-25T17:03:18.008Z</time></trkpt><trkpt lat="44.63529880405597" lon="10.54898082833481"><ele>134.0</ele><time>2026-04-25T17:03:19.008Z</time></trkpt><trkpt lat="44.63527740342831" lon="10.54884657298053"><ele>134.2</ele><time>2026-04-25T17:03:20.008Z</time></trkpt><trkpt lat="44.635272001625324" lon="10.548758374701057"><ele>134.4</ele><time>2026-04-25T17:03:21.008Z</time></trkpt><trkpt lat="44.635280105398266" lon="10.548637371904448"><ele>134.6</ele><time>2026-04-25T17:03:23.008Z</time></trkpt><trkpt lat="44.63541647611687" lon="10.548630418448758"><ele>134.8</ele><time>2026-04-25T17:03:24.008Z</time></trkpt><trkpt lat="44.63550964087195" lon="10.548562277986663"><ele>135.0</ele><time>2026-04-25T17:03:25.008Z</time></trkpt><trkpt lat="44.63558909118332" lon="10.548474677435534"><ele>135.0</ele><time>2026-04-25T17:03:26.008Z</time></trkpt><trkpt lat="44.635698756140016" lon="10.548420969812414"><ele>135.0</ele><time>2026-04-25T17:03:27.008Z</time></trkpt><trkpt lat="44.63579622225792" lon="10.54831248812988"><ele>135.0</ele><time>2026-04-25T17:03:28.008Z</time></trkpt><trkpt lat="44.635902250812016" lon="10.548212182527951"><ele>135.0</ele><time>2026-04-25T17:03:29.008Z</time></trkpt><trkpt lat="44.63599528845523" lon="10.548084624027998"><ele>135.0</ele><time>2026-04-25T17:03:30.008Z</time></trkpt><trkpt lat="44.63608524530755" lon="10.54793205965576"><ele>135.0</ele><time>2026-04-25T17:03:31.008Z</time></trkpt><trkpt lat="44.63616894245325" lon="10.547794797834607"><ele>135.0</ele><time>2026-04-25T17:03:32.008Z</time></trkpt><trkpt lat="44.63623832789596" lon="10.547671167247033"><ele>135.0</ele><time>2026-04-25T17:03:33.008Z</time></trkpt><trkpt lat="44.63630886019598" lon="10.547554536001059"><ele>135.16666666666666</ele><time>2026-04-25T17:03:34.008Z</time></trkpt><trkpt lat="44.63636873742842" lon="10.54744508839285"><ele>135.33333333333334</ele><time>2026-04-25T17:03:35.008Z</time></trkpt><trkpt lat="44.63641911607124" lon="10.547337343847426"><ele>135.5</ele><time>2026-04-25T17:03:36.008Z</time></trkpt><trkpt lat="44.63648043422499" lon="10.54726568723373"><ele>135.66666666666669</ele><time>2026-04-25T17:03:37.009Z</time></trkpt><trkpt lat="44.63652956059852" lon="10.547184220975394"><ele>135.83333333333334</ele><time>2026-04-25T17:03:38.009Z</time></trkpt><trkpt lat="44.636565166823615" lon="10.5471037425245"><ele>136.0</ele><time>2026-04-25T17:03:39.009Z</time></trkpt><trkpt lat="44.636624461975956" lon="10.547065731810035"><ele>136.0</ele><time>2026-04-25T17:03:41.009Z</time></trkpt><trkpt lat="44.63672484834496" lon="10.547298810323271"><ele>136.0</ele><time>2026-04-25T17:03:42.009Z</time></trkpt><trkpt lat="44.63680803659426" lon="10.547422432631704"><ele>136.0</ele><time>2026-04-25T17:03:43.009Z</time></trkpt><trkpt lat="44.636903588093006" lon="10.547538324940545"><ele>136.0</ele><time>2026-04-25T17:03:44.009Z</time></trkpt><trkpt lat="44.63699771559423" lon="10.547666994557977"><ele>136.25</ele><time>2026-04-25T17:03:45.009Z</time></trkpt><trkpt lat="44.6370773393692" lon="10.547816929394045"><ele>136.5</ele><time>2026-04-25T17:03:46.009Z</time></trkpt><trkpt lat="44.63716554341157" lon="10.547937528443702"><ele>136.75</ele><time>2026-04-25T17:03:47.009Z</time></trkpt><trkpt lat="44.63724407170215" lon="10.548042595629965"><ele>137.0</ele><time>2026-04-25T17:03:48.009Z</time></trkpt><trkpt lat="44.63731489322851" lon="10.548148772979692"><ele>137.0</ele><time>2026-04-25T17:03:49.009Z</time></trkpt><trkpt lat="44.63738360005794" lon="10.548235790530605"><ele>137.0</ele><time>2026-04-25T17:03:50.009Z</time></trkpt><trkpt lat="44.63742958873458" lon="10.54833291031829"><ele>137.0</ele><time>2026-04-25T17:03:51.009Z</time></trkpt><trkpt lat="44.63748304518206" lon="10.548398008233516"><ele>137.0</ele><time>2026-04-25T17:03:52.009Z</time></trkpt><trkpt lat="44.63754696167998" lon="10.548493709901924"><ele>137.0</ele><time>2026-04-25T17:03:54.009Z</time></trkpt><trkpt lat="44.63760181840598" lon="10.54853771009652"><ele>137.0</ele><time>2026-04-25T17:04:10.009Z</time></trkpt><trkpt lat="44.63765564739497" lon="10.548645877759128"><ele>137.0</ele><time>2026-04-25T17:04:12.009Z</time></trkpt><trkpt lat="44.637704530750675" lon="10.548714242071787"><ele>133.0</ele><time>2026-04-25T17:04:15.009Z</time></trkpt></trkseg></trk></gpx>